<?xml version='1.0' encoding='UTF-8'?><gpx version="1.1" creator="JPX - https://github.com/jenetics/jpx" xmlns="http://www.topografix.com/GPX/1/1"><trk><trkseg><trkpt lat="14.558145810647368" lon="120.99532385302435"><ele>9.0</ele><time>2026-04-12T04:23:02.871Z</time></trkpt><trkpt lat="14.558062551621044" lon="120.99534776965821"><ele>9.0</ele><time>2026-04-12T04:23:06.999Z</time></trkpt><trkpt lat="14.55797892954136" lon="120.99539759146337"><ele>9.0</ele><time>2026-04-12T04:23:08.999Z</time></trkpt><trkpt lat="14.557956823277003" lon="120.99547569361086"><ele>9.0</ele><time>2026-04-12T04:23:14Z</time></trkpt><trkpt lat="14.557890708980784" lon="120.99549509743993"><ele>9.0</ele><time>2026-04-12T04:23:16Z</time></trkpt><trkpt lat="14.557822621876985" lon="120.99550663765969"><ele>9.0</ele><time>2026-04-12T04:23:23.086Z</time></trkpt><trkpt lat="14.557704808126863" lon="120.99550189621917"><ele>9.0</ele><time>2026-04-12T04:23:27.042Z</time></trkpt><trkpt lat="14.558090193468894" lon="120.99605018739827"><ele>9.0</ele><time>2026-04-12T04:24:27.002Z</time></trkpt><trkpt lat="14.55810930250101" lon="120.99614895060805"><ele>9.0</ele><time>2026-04-12T04:24:32.002Z</time></trkpt><trkpt lat="14.558177863332599" lon="120.99617841919301"><ele>9.0</ele><time>2026-04-12T04:24:41.003Z</time></trkpt><trkpt lat="14.558226846186244" lon="120.99622042951434"><ele>9.0</ele><time>2026-04-12T04:24:53.003Z</time></trkpt><trkpt lat="14.558299004196616" lon="120.99622356752637"><ele>9.0</ele><time>2026-04-12T04:24:55.003Z</time></trkpt><trkpt lat="14.55842926187887" lon="120.9962100233694"><ele>9.0</ele><time>2026-04-12T04:24:57.003Z</time></trkpt><trkpt lat="14.55849542415855" lon="120.99619154952357"><ele>9.0</ele><time>2026-04-12T04:24:58.003Z</time></trkpt><trkpt lat="14.558568799811452" lon="120.99616994038493"><ele>9.0</ele><time>2026-04-12T04:24:59.003Z</time></trkpt><trkpt lat="14.558648132464267" lon="120.99615269979743"><ele>9.0</ele><time>2026-04-12T04:25:00.003Z</time></trkpt><trkpt lat="14.558734733237632" lon="120.99613899925332"><ele>9.0</ele><time>2026-04-12T04:25:01.003Z</time></trkpt><trkpt lat="14.558821138993673" lon="120.99612866925429"><ele>9.0</ele><time>2026-04-12T04:25:02.003Z</time></trkpt><trkpt lat="14.55891756805566" lon="120.99611915026475"><ele>9.0</ele><time>2026-04-12T04:25:03.003Z</time></trkpt><trkpt lat="14.559014837838022" lon="120.99609701887228"><ele>9.0</ele><time>2026-04-12T04:25:04.003Z</time></trkpt><trkpt lat="14.5591117767771" lon="120.99607162452912"><ele>9.0</ele><time>2026-04-12T04:25:05.003Z</time></trkpt><trkpt lat="14.559206839041282" lon="120.99604752918087"><ele>9.0</ele><time>2026-04-12T04:25:06.003Z</time></trkpt><trkpt lat="14.55928899194011" lon="120.99603679407487"><ele>9.0</ele><time>2026-04-12T04:25:07.003Z</time></trkpt><trkpt lat="14.559368420873573" lon="120.99602115084966"><ele>9.0</ele><time>2026-04-12T04:25:08.003Z</time></trkpt><trkpt lat="14.559459346943319" lon="120.99599970320541"><ele>9.0</ele><time>2026-04-12T04:25:09.003Z</time></trkpt><trkpt lat="14.5595328174608" lon="120.99597189512247"><ele>9.0</ele><time>2026-04-12T04:25:10.003Z</time></trkpt><trkpt lat="14.55960985783387" lon="120.99594901971643"><ele>9.0</ele><time>2026-04-12T04:25:11.003Z</time></trkpt><trkpt lat="14.559692194471626" lon="120.99593287890718"><ele>9.0</ele><time>2026-04-12T04:25:12.003Z</time></trkpt><trkpt lat="14.55978090293538" lon="120.99591509920315"><ele>9.0</ele><time>2026-04-12T04:25:13.003Z</time></trkpt><trkpt lat="14.559855965380029" lon="120.99589849328281"><ele>9.0</ele><time>2026-04-12T04:25:14.003Z</time></trkpt><trkpt lat="14.559931613883144" lon="120.99588367191646"><ele>8.833333333333334</ele><time>2026-04-12T04:25:15.003Z</time></trkpt><trkpt lat="14.559996767440799" lon="120.99587079566123"><ele>8.666666666666666</ele><time>2026-04-12T04:25:16.003Z</time></trkpt><trkpt lat="14.560121782451182" lon="120.99583271504402"><ele>8.5</ele><time>2026-04-12T04:25:18.002Z</time></trkpt><trkpt lat="14.560188249856877" lon="120.99581810412796"><ele>8.333333333333332</ele><time>2026-04-12T04:25:19.002Z</time></trkpt><trkpt lat="14.560254506226778" lon="120.99580411914442"><ele>8.166666666666666</ele><time>2026-04-12T04:25:20.002Z</time></trkpt><trkpt lat="14.560334774331384" lon="120.99579175090372"><ele>8.0</ele><time>2026-04-12T04:25:21.002Z</time></trkpt><trkpt lat="14.560407574862461" lon="120.99577945897742"><ele>7.857142857142857</ele><time>2026-04-12T04:25:22.002Z</time></trkpt><trkpt lat="14.560481999760146" lon="120.99575744224511"><ele>7.7142857142857135</ele><time>2026-04-12T04:25:23.002Z</time></trkpt><trkpt lat="14.560557656257227" lon="120.99574484094816"><ele>7.571428571428571</ele><time>2026-04-12T04:25:24.002Z</time></trkpt><trkpt lat="14.560624275198315" lon="120.99572614090718"><ele>7.428571428571429</ele><time>2026-04-12T04:25:25.002Z</time></trkpt><trkpt lat="14.560691291908268" lon="120.99570959253163"><ele>7.285714285714286</ele><time>2026-04-12T04:25:26.002Z</time></trkpt><trkpt lat="14.560759720104436" lon="120.99569626316509"><ele>7.142857142857142</ele><time>2026-04-12T04:25:27.002Z</time></trkpt><trkpt lat="14.560829864147333" lon="120.99567354165677"><ele>7.0</ele><time>2026-04-12T04:25:28.002Z</time></trkpt><trkpt lat="14.560900195436119" lon="120.99565292142971"><ele>7.000000000000001</ele><time>2026-04-12T04:25:29.002Z</time></trkpt><trkpt lat="14.560980073117838" lon="120.99564622672463"><ele>7.0</ele><time>2026-04-12T04:25:30.002Z</time></trkpt><trkpt lat="14.561062277235951" lon="120.99562641897516"><ele>7.0</ele><time>2026-04-12T04:25:31.002Z</time></trkpt><trkpt lat="14.561147167359344" lon="120.99560795984996"><ele>7.0</ele><time>2026-04-12T04:25:32.002Z</time></trkpt><trkpt lat="14.561236916985267" lon="120.9955808676209"><ele>7.000000000000001</ele><time>2026-04-12T04:25:33.002Z</time></trkpt><trkpt lat="14.56133236105495" lon="120.99555433463308"><ele>7.0</ele><time>2026-04-12T04:25:34.002Z</time></trkpt><trkpt lat="14.561432071754759" lon="120.99552211999486"><ele>7.3999999999999995</ele><time>2026-04-12T04:25:35.002Z</time></trkpt><trkpt lat="14.5615314744929" lon="120.99550627462031"><ele>7.799999999999999</ele><time>2026-04-12T04:25:36.002Z</time></trkpt><trkpt lat="14.561628280796887" lon="120.99547098790802"><ele>8.2</ele><time>2026-04-12T04:25:37.002Z</time></trkpt><trkpt lat="14.561734834983886" lon="120.99544315656205"><ele>8.6</ele><time>2026-04-12T04:25:38.002Z</time></trkpt><trkpt lat="14.56183524220529" lon="120.99542279854023"><ele>9.0</ele><time>2026-04-12T04:25:39.002Z</time></trkpt><trkpt lat="14.561941115324837" lon="120.99542960223862"><ele>9.0</ele><time>2026-04-12T04:25:40.002Z</time></trkpt><trkpt lat="14.562002240514143" lon="120.99540361237585"><ele>9.0</ele><time>2026-04-12T04:25:41.002Z</time></trkpt><trkpt lat="14.562057991496799" lon="120.99535737719673"><ele>9.0</ele><time>2026-04-12T04:25:45.001Z</time></trkpt><trkpt lat="14.562130451128322" lon="120.99532305150531"><ele>9.0</ele><time>2026-04-12T04:25:49.001Z</time></trkpt><trkpt lat="14.56225067855962" lon="120.99529691744713"><ele>9.0</ele><time>2026-04-12T04:25:51.001Z</time></trkpt><trkpt lat="14.56237015849881" lon="120.99527176333547"><ele>9.142857142857144</ele><time>2026-04-12T04:25:53.001Z</time></trkpt><trkpt lat="14.562445367454723" lon="120.99526308729419"><ele>9.285714285714286</ele><time>2026-04-12T04:25:55.001Z</time></trkpt><trkpt lat="14.56251179835227" lon="120.99527890859716"><ele>9.428571428571429</ele><time>2026-04-12T04:25:57.001Z</time></trkpt><trkpt lat="14.56257335160045" lon="120.9953083334495"><ele>9.571428571428573</ele><time>2026-04-12T04:25:59.002Z</time></trkpt><trkpt lat="14.562649288628815" lon="120.99535500362695"><ele>9.714285714285715</ele><time>2026-04-12T04:26:02.002Z</time></trkpt><trkpt lat="14.562713787795806" lon="120.99538643760451"><ele>9.857142857142858</ele><time>2026-04-12T04:26:05.002Z</time></trkpt><trkpt lat="14.56272764153266" lon="120.99545693497379"><ele>10.0</ele><time>2026-04-12T04:26:06.002Z</time></trkpt><trkpt lat="14.562778056268483" lon="120.99557041364436"><ele>10.0</ele><time>2026-04-12T04:26:08.002Z</time></trkpt><trkpt lat="14.562834757899637" lon="120.99561223434874"><ele>10.0</ele><time>2026-04-12T04:26:11.002Z</time></trkpt><trkpt lat="14.56288394299186" lon="120.99568221586003"><ele>10.0</ele><time>2026-04-12T04:26:14.002Z</time></trkpt><trkpt lat="14.56289623045358" lon="120.99574961729006"><ele>10.0</ele><time>2026-04-12T04:26:15.002Z</time></trkpt><trkpt lat="14.562911796520561" lon="120.99581268868577"><ele>10.0</ele><time>2026-04-12T04:26:16.002Z</time></trkpt><trkpt lat="14.562959253065893" lon="120.9959065561707"><ele>10.0</ele><time>2026-04-12T04:26:18.002Z</time></trkpt><trkpt lat="14.563007968749316" lon="120.99602102988845"><ele>9.8</ele><time>2026-04-12T04:26:20.002Z</time></trkpt><trkpt lat="14.563027171200927" lon="120.99610914197012"><ele>9.6</ele><time>2026-04-12T04:26:22.002Z</time></trkpt><trkpt lat="14.563050107235563" lon="120.99617087073071"><ele>9.4</ele><time>2026-04-12T04:26:23.002Z</time></trkpt><trkpt lat="14.563076064729957" lon="120.99625017352864"><ele>9.2</ele><time>2026-04-12T04:26:24.002Z</time></trkpt><trkpt lat="14.563126680544203" lon="120.99634664408559"><ele>9.0</ele><time>2026-04-12T04:26:25.002Z</time></trkpt><trkpt lat="14.56319396065399" lon="120.99647674807093"><ele>9.0</ele><time>2026-04-12T04:26:26.002Z</time></trkpt><trkpt lat="14.563270101546337" lon="120.99662549180464"><ele>9.0</ele><time>2026-04-12T04:26:27.002Z</time></trkpt><trkpt lat="14.56330396394632" lon="120.99671659858532"><ele>9.0</ele><time>2026-04-12T04:26:28.002Z</time></trkpt><trkpt lat="14.56336446273776" lon="120.9968290624072"><ele>9.0</ele><time>2026-04-12T04:26:30.002Z</time></trkpt><trkpt lat="14.563401985214865" lon="120.99689707156149"><ele>8.666666666666666</ele><time>2026-04-12T04:26:31.002Z</time></trkpt><trkpt lat="14.563426522236243" lon="120.99697913336333"><ele>8.333333333333334</ele><time>2026-04-12T04:26:32.002Z</time></trkpt><trkpt lat="14.563456177771487" lon="120.99705455341584"><ele>8.0</ele><time>2026-04-12T04:26:33.002Z</time></trkpt><trkpt lat="14.563485994793938" lon="120.99712444727658"><ele>7.666666666666667</ele><time>2026-04-12T04:26:34.002Z</time></trkpt><trkpt lat="14.56352963777295" lon="120.99719595307599"><ele>7.333333333333334</ele><time>2026-04-12T04:26:35.002Z</time></trkpt><trkpt lat="14.563570506713074" lon="120.99727541543321"><ele>7.0</ele><time>2026-04-12T04:26:36.002Z</time></trkpt><trkpt lat="14.563607026016594" lon="120.99735221487221"><ele>7.0</ele><time>2026-04-12T04:26:37.002Z</time></trkpt><trkpt lat="14.563643147628369" lon="120.99743444544107"><ele>6.999999999999999</ele><time>2026-04-12T04:26:38.002Z</time></trkpt><trkpt lat="14.563685239675912" lon="120.99752035437844"><ele>6.999999999999999</ele><time>2026-04-12T04:26:39.002Z</time></trkpt><trkpt lat="14.563724620997153" lon="120.99760224688889"><ele>7.0</ele><time>2026-04-12T04:26:40.002Z</time></trkpt><trkpt lat="14.563767614452015" lon="120.99769243724812"><ele>7.0</ele><time>2026-04-12T04:26:41.002Z</time></trkpt><trkpt lat="14.563804228253458" lon="120.9977834720443"><ele>7.0</ele><time>2026-04-12T04:26:42.002Z</time></trkpt><trkpt lat="14.563851750070404" lon="120.9978855934192"><ele>6.999999999999999</ele><time>2026-04-12T04:26:43.002Z</time></trkpt><trkpt lat="14.563886471544322" lon="120.99797985702405"><ele>6.999999999999999</ele><time>2026-04-12T04:26:44.002Z</time></trkpt><trkpt lat="14.563922895929064" lon="120.9980609586411"><ele>7.0</ele><time>2026-04-12T04:26:45.002Z</time></trkpt><trkpt lat="14.563956438250994" lon="120.99813595277953"><ele>7.0</ele><time>2026-04-12T04:26:46.002Z</time></trkpt><trkpt lat="14.564016596092367" lon="120.9982392930658"><ele>7.0</ele><time>2026-04-12T04:26:48.002Z</time></trkpt><trkpt lat="14.563884636781752" lon="120.9983476783161"><ele>6.999999999999999</ele><time>2026-04-12T04:26:52.002Z</time></trkpt><trkpt lat="14.563816751942893" lon="120.99835428008222"><ele>6.999999999999999</ele><time>2026-04-12T04:26:53.002Z</time></trkpt><trkpt lat="14.56375287672043" lon="120.99837443321074"><ele>7.0</ele><time>2026-04-12T04:26:54.002Z</time></trkpt><trkpt lat="14.56368079687877" lon="120.99839986721234"><ele>7.0</ele><time>2026-04-12T04:26:55.002Z</time></trkpt><trkpt lat="14.563600227645935" lon="120.9984157742398"><ele>7.000000000000001</ele><time>2026-04-12T04:26:56.002Z</time></trkpt><trkpt lat="14.563527463437312" lon="120.99843121882894"><ele>7.0</ele><time>2026-04-12T04:26:57.002Z</time></trkpt><trkpt lat="14.56344638042698" lon="120.99845398035984"><ele>7.0</ele><time>2026-04-12T04:26:58.002Z</time></trkpt><trkpt lat="14.563360432288055" lon="120.99848437039942"><ele>7.0</ele><time>2026-04-12T04:26:59.002Z</time></trkpt><trkpt lat="14.563277005439398" lon="120.9985046228727"><ele>7.000000000000001</ele><time>2026-04-12T04:27:00.002Z</time></trkpt><trkpt lat="14.563197087992302" lon="120.99851681307808"><ele>7.0</ele><time>2026-04-12T04:27:01.002Z</time></trkpt><trkpt lat="14.563114480789482" lon="120.99853761718198"><ele>7.0</ele><time>2026-04-12T04:27:02.002Z</time></trkpt><trkpt lat="14.563033110333276" lon="120.99857228077776"><ele>6.999999999999999</ele><time>2026-04-12T04:27:03.002Z</time></trkpt><trkpt lat="14.562941724111587" lon="120.99859070207091"><ele>6.999999999999999</ele><time>2026-04-12T04:27:04.002Z</time></trkpt><trkpt lat="14.562859553059454" lon="120.9986226533555"><ele>7.0</ele><time>2026-04-12T04:27:05.002Z</time></trkpt><trkpt lat="14.562771559230836" lon="120.99865939095777"><ele>7.0</ele><time>2026-04-12T04:27:06.002Z</time></trkpt><trkpt lat="14.562685615312244" lon="120.9986834940943"><ele>7.3999999999999995</ele><time>2026-04-12T04:27:07.002Z</time></trkpt><trkpt lat="14.562599002472172" lon="120.99870796975028"><ele>7.799999999999999</ele><time>2026-04-12T04:27:08.002Z</time></trkpt><trkpt lat="14.562507348124486" lon="120.99872919463984"><ele>8.2</ele><time>2026-04-12T04:27:09.002Z</time></trkpt><trkpt lat="14.562420542190736" lon="120.99877895493903"><ele>8.6</ele><time>2026-04-12T04:27:10.002Z</time></trkpt><trkpt lat="14.562338664715744" lon="120.99881353329764"><ele>9.0</ele><time>2026-04-12T04:27:11.003Z</time></trkpt><trkpt lat="14.562266937935844" lon="120.99885233696061"><ele>9.000000000000002</ele><time>2026-04-12T04:27:12.003Z</time></trkpt><trkpt lat="14.56220537172231" lon="120.99887882130112"><ele>9.0</ele><time>2026-04-12T04:27:13.003Z</time></trkpt><trkpt lat="14.562147668047961" lon="120.99891311363774"><ele>9.0</ele><time>2026-04-12T04:27:14.003Z</time></trkpt><trkpt lat="14.562078206782035" lon="120.99894441809597"><ele>9.0</ele><time>2026-04-12T04:27:15.003Z</time></trkpt><trkpt lat="14.562013804060173" lon="120.99896147917167"><ele>9.0</ele><time>2026-04-12T04:27:16.003Z</time></trkpt><trkpt lat="14.561975509721105" lon="120.99901528906092"><ele>9.000000000000002</ele><time>2026-04-12T04:27:18.002Z</time></trkpt><trkpt lat="14.562020841174759" lon="120.99911747873544"><ele>9.0</ele><time>2026-04-12T04:27:21.002Z</time></trkpt><trkpt lat="14.562116814214015" lon="120.99920561729682"><ele>8.833333333333334</ele><time>2026-04-12T04:27:23.002Z</time></trkpt><trkpt lat="14.56217412838161" lon="120.99926531047443"><ele>8.666666666666666</ele><time>2026-04-12T04:27:24.002Z</time></trkpt><trkpt lat="14.562233092451807" lon="120.99932817798991"><ele>8.5</ele><time>2026-04-12T04:27:25.002Z</time></trkpt><trkpt lat="14.562301433394044" lon="120.99939013099522"><ele>8.333333333333332</ele><time>2026-04-12T04:27:26.002Z</time></trkpt><trkpt lat="14.562365688626825" lon="120.99945405782316"><ele>8.166666666666666</ele><time>2026-04-12T04:27:27.002Z</time></trkpt><trkpt lat="14.562433464545027" lon="120.9995182974476"><ele>8.0</ele><time>2026-04-12T04:27:28.002Z</time></trkpt><trkpt lat="14.562494630043592" lon="120.99957336579915"><ele>8.0</ele><time>2026-04-12T04:27:29.002Z</time></trkpt><trkpt lat="14.562544537992313" lon="120.99962300330054"><ele>7.999999999999999</ele><time>2026-04-12T04:27:30.002Z</time></trkpt><trkpt lat="14.562587699880677" lon="120.99967816244533"><ele>8.0</ele><time>2026-04-12T04:27:31.002Z</time></trkpt><trkpt lat="14.562630917327239" lon="120.99973665884752"><ele>8.0</ele><time>2026-04-12T04:27:32.002Z</time></trkpt><trkpt lat="14.562675677796609" lon="120.99979006737337"><ele>7.999999999999999</ele><time>2026-04-12T04:27:33.001Z</time></trkpt><trkpt lat="14.562719370545672" lon="120.99984611617404"><ele>8.0</ele><time>2026-04-12T04:27:34.001Z</time></trkpt><trkpt lat="14.562769047382824" lon="120.99989983614232"><ele>8.0</ele><time>2026-04-12T04:27:35.001Z</time></trkpt><trkpt lat="14.562821690314026" lon="120.99996377276439"><ele>7.833333333333333</ele><time>2026-04-12T04:27:36.001Z</time></trkpt><trkpt lat="14.562884775785248" lon="121.00003347971315"><ele>7.666666666666666</ele><time>2026-04-12T04:27:37.001Z</time></trkpt><trkpt lat="14.562942512580882" lon="121.00008337024175"><ele>7.5</ele><time>2026-04-12T04:27:38.001Z</time></trkpt><trkpt lat="14.562996951910973" lon="121.00013709957206"><ele>7.333333333333334</ele><time>2026-04-12T04:27:39.001Z</time></trkpt><trkpt lat="14.563074071966392" lon="121.00020959291426"><ele>7.166666666666667</ele><time>2026-04-12T04:27:40.001Z</time></trkpt><trkpt lat="14.563145363460306" lon="121.00028498433223"><ele>7.0</ele><time>2026-04-12T04:27:41.001Z</time></trkpt><trkpt lat="14.563229684001548" lon="121.00037372975078"><ele>7.000000000000001</ele><time>2026-04-12T04:27:42.001Z</time></trkpt><trkpt lat="14.563287804794372" lon="121.00043490052849"><ele>7.0</ele><time>2026-04-12T04:27:43.001Z</time></trkpt><trkpt lat="14.563348429945359" lon="121.00049865001283"><ele>7.0</ele><time>2026-04-12T04:27:44.001Z</time></trkpt><trkpt lat="14.563398310472534" lon="121.00055388604602"><ele>7.0</ele><time>2026-04-12T04:27:45.001Z</time></trkpt><trkpt lat="14.56346385870881" lon="121.000608312828"><ele>7.000000000000001</ele><time>2026-04-12T04:27:46.001Z</time></trkpt><trkpt lat="14.563535476312413" lon="121.00070674915614"><ele>7.0</ele><time>2026-04-12T04:27:47.001Z</time></trkpt><trkpt lat="14.563601340407528" lon="121.00077083090197"><ele>7.000000000000001</ele><time>2026-04-12T04:27:48.001Z</time></trkpt><trkpt lat="14.563661855655987" lon="121.00082694991816"><ele>7.0</ele><time>2026-04-12T04:27:49.001Z</time></trkpt><trkpt lat="14.563711725478237" lon="121.0008711923979"><ele>7.0</ele><time>2026-04-12T04:27:50.001Z</time></trkpt><trkpt lat="14.563757146025877" lon="121.00092166797586"><ele>7.0</ele><time>2026-04-12T04:27:51.001Z</time></trkpt><trkpt lat="14.563853394087328" lon="121.00101803779403"><ele>7.000000000000001</ele><time>2026-04-12T04:27:53.001Z</time></trkpt><trkpt lat="14.563916636952621" lon="121.00107841634942"><ele>7.0</ele><time>2026-04-12T04:27:54.001Z</time></trkpt><trkpt lat="14.56398023178137" lon="121.00114225011036"><ele>7.199999999999999</ele><time>2026-04-12T04:27:55.001Z</time></trkpt><trkpt lat="14.564048734785828" lon="121.00121645969621"><ele>7.3999999999999995</ele><time>2026-04-12T04:27:56.001Z</time></trkpt><trkpt lat="14.564115339916906" lon="121.00128442116075"><ele>7.6000000000000005</ele><time>2026-04-12T04:27:57.001Z</time></trkpt><trkpt lat="14.564182381189132" lon="121.00135125196596"><ele>7.800000000000001</ele><time>2026-04-12T04:27:58.001Z</time></trkpt><trkpt lat="14.564258714325575" lon="121.00140776203907"><ele>8.0</ele><time>2026-04-12T04:27:59.001Z</time></trkpt><trkpt lat="14.564327116937404" lon="121.00147481755678"><ele>8.0</ele><time>2026-04-12T04:28:00.001Z</time></trkpt><trkpt lat="14.564386044217445" lon="121.0015539334427"><ele>8.0</ele><time>2026-04-12T04:28:01.001Z</time></trkpt><trkpt lat="14.56445104080098" lon="121.00161376265432"><ele>8.0</ele><time>2026-04-12T04:28:02.001Z</time></trkpt><trkpt lat="14.564517335982295" lon="121.00168456448766"><ele>8.0</ele><time>2026-04-12T04:28:03.001Z</time></trkpt><trkpt lat="14.56459174138395" lon="121.00175971926232"><ele>8.0</ele><time>2026-04-12T04:28:04.001Z</time></trkpt><trkpt lat="14.564663694054442" lon="121.00183083995043"><ele>7.6000000000000005</ele><time>2026-04-12T04:28:05.001Z</time></trkpt><trkpt lat="14.564753360684076" lon="121.00189340884006"><ele>7.200000000000001</ele><time>2026-04-12T04:28:06.001Z</time></trkpt><trkpt lat="14.564827467793442" lon="121.00196674230672"><ele>6.8</ele><time>2026-04-12T04:28:07.001Z</time></trkpt><trkpt lat="14.564909581266546" lon="121.00204399907425"><ele>6.4</ele><time>2026-04-12T04:28:08.001Z</time></trkpt><trkpt lat="14.564973741405794" lon="121.00210916305514"><ele>6.0</ele><time>2026-04-12T04:28:09.001Z</time></trkpt><trkpt lat="14.56503850822291" lon="121.0021733697822"><ele>6.0</ele><time>2026-04-12T04:28:10.001Z</time></trkpt><trkpt lat="14.565115515348026" lon="121.0022497109631"><ele>6.0</ele><time>2026-04-12T04:28:11.001Z</time></trkpt><trkpt lat="14.565180261400377" lon="121.00231251929267"><ele>6.0</ele><time>2026-04-12T04:28:12.001Z</time></trkpt><trkpt lat="14.56525579950554" lon="121.00238520135984"><ele>6.0</ele><time>2026-04-12T04:28:13.001Z</time></trkpt><trkpt lat="14.565327197851747" lon="121.00245390019265"><ele>6.0</ele><time>2026-04-12T04:28:14.001Z</time></trkpt><trkpt lat="14.565407802217553" lon="121.002531456973"><ele>6.4</ele><time>2026-04-12T04:28:15.001Z</time></trkpt><trkpt lat="14.565489757656158" lon="121.00260696756877"><ele>6.8</ele><time>2026-04-12T04:28:16.001Z</time></trkpt><trkpt lat="14.56556222675071" lon="121.00267339233011"><ele>7.200000000000001</ele><time>2026-04-12T04:28:17.001Z</time></trkpt><trkpt lat="14.565627600986181" lon="121.00273331397636"><ele>7.6000000000000005</ele><time>2026-04-12T04:28:18.001Z</time></trkpt><trkpt lat="14.565681592202084" lon="121.00278280201556"><ele>8.0</ele><time>2026-04-12T04:28:19.001Z</time></trkpt><trkpt lat="14.565755877024806" lon="121.00285089107157"><ele>8.0</ele><time>2026-04-12T04:28:21.001Z</time></trkpt><trkpt lat="14.565823546985532" lon="121.00292054958008"><ele>8.0</ele><time>2026-04-12T04:28:23.001Z</time></trkpt><trkpt lat="14.565776066347972" lon="121.0030085583173"><ele>8.0</ele><time>2026-04-12T04:28:24.001Z</time></trkpt><trkpt lat="14.565679912521702" lon="121.00314083381524"><ele>8.0</ele><time>2026-04-12T04:28:27.001Z</time></trkpt><trkpt lat="14.565622594256634" lon="121.00318761924638"><ele>8.0</ele><time>2026-04-12T04:28:28.001Z</time></trkpt><trkpt lat="14.565560799932006" lon="121.00322610579035"><ele>8.0</ele><time>2026-04-12T04:28:29.001Z</time></trkpt><trkpt lat="14.565492371169478" lon="121.00326051237484"><ele>8.0</ele><time>2026-04-12T04:28:30.001Z</time></trkpt><trkpt lat="14.565432196507308" lon="121.00330556321336"><ele>8.0</ele><time>2026-04-12T04:28:31.001Z</time></trkpt><trkpt lat="14.565357553815417" lon="121.00336868526823"><ele>8.0</ele><time>2026-04-12T04:28:32.001Z</time></trkpt><trkpt lat="14.565269984402025" lon="121.00343569524287"><ele>8.0</ele><time>2026-04-12T04:28:33.001Z</time></trkpt><trkpt lat="14.565140769756605" lon="121.00351180343623"><ele>7.5</ele><time>2026-04-12T04:28:34.001Z</time></trkpt><trkpt lat="14.565028837999892" lon="121.00358252802955"><ele>7.0</ele><time>2026-04-12T04:28:35.001Z</time></trkpt><trkpt lat="14.564918793389038" lon="121.00363834118781"><ele>6.5</ele><time>2026-04-12T04:28:36.001Z</time></trkpt><trkpt lat="14.56480981007012" lon="121.00368995831762"><ele>6.0</ele><time>2026-04-12T04:28:37.001Z</time></trkpt><trkpt lat="14.564713533909261" lon="121.00375660759225"><ele>6.0</ele><time>2026-04-12T04:28:38.001Z</time></trkpt><trkpt lat="14.564587843196612" lon="121.00384083569718"><ele>6.0</ele><time>2026-04-12T04:28:39.001Z</time></trkpt><trkpt lat="14.564472368648984" lon="121.00389996267369"><ele>6.0</ele><time>2026-04-12T04:28:40.001Z</time></trkpt><trkpt lat="14.564311197158615" lon="121.00398437189702"><ele>6.0</ele><time>2026-04-12T04:28:41.001Z</time></trkpt><trkpt lat="14.564167567737368" lon="121.00405749712209"><ele>6.0</ele><time>2026-04-12T04:28:42.001Z</time></trkpt><trkpt lat="14.564020276662474" lon="121.00412052886287"><ele>6.0</ele><time>2026-04-12T04:28:43.001Z</time></trkpt><trkpt lat="14.563881608696441" lon="121.00420101726077"><ele>6.0</ele><time>2026-04-12T04:28:44.001Z</time></trkpt><trkpt lat="14.56373532411739" lon="121.00428612078885"><ele>6.0</ele><time>2026-04-12T04:28:45.001Z</time></trkpt><trkpt lat="14.563578215605888" lon="121.00436937711534"><ele>6.0</ele><time>2026-04-12T04:28:46.001Z</time></trkpt><trkpt lat="14.563431296478152" lon="121.0044537606869"><ele>6.333333333333334</ele><time>2026-04-12T04:28:47.001Z</time></trkpt><trkpt lat="14.563287578920242" lon="121.00452951625616"><ele>6.666666666666667</ele><time>2026-04-12T04:28:48.001Z</time></trkpt><trkpt lat="14.5631393045467" lon="121.00460069025296"><ele>7.0</ele><time>2026-04-12T04:28:49.001Z</time></trkpt><trkpt lat="14.562997259107776" lon="121.00467221426292"><ele>6.5</ele><time>2026-04-12T04:28:50.001Z</time></trkpt><trkpt lat="14.562850237375702" lon="121.00473459117931"><ele>6.0</ele><time>2026-04-12T04:28:51.001Z</time></trkpt><trkpt lat="14.56271507003852" lon="121.00477287117268"><ele>5.5</ele><time>2026-04-12T04:28:52.001Z</time></trkpt><trkpt lat="14.56259510612192" lon="121.00482554012844"><ele>5.0</ele><time>2026-04-12T04:28:53.001Z</time></trkpt><trkpt lat="14.562479189034395" lon="121.0048703080928"><ele>5.0</ele><time>2026-04-12T04:28:54.001Z</time></trkpt><trkpt lat="14.562379410596412" lon="121.00490052858036"><ele>5.0</ele><time>2026-04-12T04:28:55.001Z</time></trkpt><trkpt lat="14.562256191236402" lon="121.00496102014755"><ele>5.0</ele><time>2026-04-12T04:28:56.002Z</time></trkpt><trkpt lat="14.562132929459047" lon="121.00502135548759"><ele>5.0</ele><time>2026-04-12T04:28:57.002Z</time></trkpt><trkpt lat="14.562029782480373" lon="121.0050817456487"><ele>5.25</ele><time>2026-04-12T04:28:58.002Z</time></trkpt><trkpt lat="14.56192509674378" lon="121.0051389257314"><ele>5.5</ele><time>2026-04-12T04:28:59.002Z</time></trkpt><trkpt lat="14.561822061824842" lon="121.00518628962458"><ele>5.75</ele><time>2026-04-12T04:29:00.002Z</time></trkpt><trkpt lat="14.561725168238597" lon="121.00523718244736"><ele>6.0</ele><time>2026-04-12T04:29:01.002Z</time></trkpt><trkpt lat="14.561620965476292" lon="121.005295539398"><ele>6.0</ele><time>2026-04-12T04:29:02.002Z</time></trkpt><trkpt lat="14.561499288746532" lon="121.00537441412948"><ele>6.0</ele><time>2026-04-12T04:29:03.002Z</time></trkpt><trkpt lat="14.56138949710945" lon="121.00543455037013"><ele>6.0</ele><time>2026-04-12T04:29:04.002Z</time></trkpt><trkpt lat="14.56128890549616" lon="121.0054720632977"><ele>6.0</ele><time>2026-04-12T04:29:05.002Z</time></trkpt><trkpt lat="14.56117778495786" lon="121.00553365183076"><ele>6.25</ele><time>2026-04-12T04:29:06.002Z</time></trkpt><trkpt lat="14.561046900657919" lon="121.00560274104771"><ele>6.5</ele><time>2026-04-12T04:29:07.002Z</time></trkpt><trkpt lat="14.560916491445502" lon="121.00567459393677"><ele>6.75</ele><time>2026-04-12T04:29:08.002Z</time></trkpt><trkpt lat="14.560795394322039" lon="121.00573471344165"><ele>7.0</ele><time>2026-04-12T04:29:09.002Z</time></trkpt><trkpt lat="14.560672482086309" lon="121.0058028963345"><ele>6.75</ele><time>2026-04-12T04:29:10.002Z</time></trkpt><trkpt lat="14.560528632444846" lon="121.00587801993161"><ele>6.5</ele><time>2026-04-12T04:29:11.002Z</time></trkpt><trkpt lat="14.560409620930908" lon="121.00593924711251"><ele>6.25</ele><time>2026-04-12T04:29:12.002Z</time></trkpt><trkpt lat="14.560282513045241" lon="121.0060197075916"><ele>6.0</ele><time>2026-04-12T04:29:13.002Z</time></trkpt><trkpt lat="14.56016482171597" lon="121.00608626368745"><ele>6.0</ele><time>2026-04-12T04:29:14.002Z</time></trkpt><trkpt lat="14.560043172272797" lon="121.00615531423107"><ele>6.0</ele><time>2026-04-12T04:29:15.002Z</time></trkpt><trkpt lat="14.559918784160402" lon="121.00622140448931"><ele>6.0</ele><time>2026-04-12T04:29:16.002Z</time></trkpt><trkpt lat="14.559792545028596" lon="121.00629206428893"><ele>6.0</ele><time>2026-04-12T04:29:17.002Z</time></trkpt><trkpt lat="14.55966397243846" lon="121.00636590619433"><ele>6.0</ele><time>2026-04-12T04:29:18.002Z</time></trkpt><trkpt lat="14.559542621987523" lon="121.00643568528776"><ele>6.0</ele><time>2026-04-12T04:29:19.002Z</time></trkpt><trkpt lat="14.559420090706956" lon="121.00650386686722"><ele>6.0</ele><time>2026-04-12T04:29:20.002Z</time></trkpt><trkpt lat="14.55929778238237" lon="121.00657493336782"><ele>6.0</ele><time>2026-04-12T04:29:21.002Z</time></trkpt><trkpt lat="14.559174590038465" lon="121.00664111653676"><ele>6.25</ele><time>2026-04-12T04:29:22.002Z</time></trkpt><trkpt lat="14.55906144107551" lon="121.00670018072078"><ele>6.5</ele><time>2026-04-12T04:29:23.001Z</time></trkpt><trkpt lat="14.558957683388446" lon="121.00675480847356"><ele>6.75</ele><time>2026-04-12T04:29:24.001Z</time></trkpt><trkpt lat="14.558864778245836" lon="121.00680294623602"><ele>7.0</ele><time>2026-04-12T04:29:25.001Z</time></trkpt><trkpt lat="14.55876949138844" lon="121.00685756976614"><ele>7.5</ele><time>2026-04-12T04:29:26.001Z</time></trkpt><trkpt lat="14.558674271065648" lon="121.00690357999025"><ele>8.0</ele><time>2026-04-12T04:29:27.001Z</time></trkpt><trkpt lat="14.558571423600267" lon="121.00696917258657"><ele>8.5</ele><time>2026-04-12T04:29:28.001Z</time></trkpt><trkpt lat="14.558475152445164" lon="121.00703327872097"><ele>9.0</ele><time>2026-04-12T04:29:29.001Z</time></trkpt><trkpt lat="14.55834942551245" lon="121.00709131951231"><ele>9.0</ele><time>2026-04-12T04:29:30.001Z</time></trkpt><trkpt lat="14.558251940504096" lon="121.00715799404784"><ele>9.0</ele><time>2026-04-12T04:29:31.001Z</time></trkpt><trkpt lat="14.55813810720741" lon="121.0072165515912"><ele>9.0</ele><time>2026-04-12T04:29:32.001Z</time></trkpt><trkpt lat="14.55802698612272" lon="121.00727676445838"><ele>9.0</ele><time>2026-04-12T04:29:33.001Z</time></trkpt><trkpt lat="14.557897394323462" lon="121.00735039961144"><ele>8.75</ele><time>2026-04-12T04:29:34.001Z</time></trkpt><trkpt lat="14.557777959603094" lon="121.00743147280194"><ele>8.5</ele><time>2026-04-12T04:29:35.001Z</time></trkpt><trkpt lat="14.557643185121043" lon="121.00749759823316"><ele>8.25</ele><time>2026-04-12T04:29:36.001Z</time></trkpt><trkpt lat="14.55750759820003" lon="121.00755262172322"><ele>8.0</ele><time>2026-04-12T04:29:37.001Z</time></trkpt><trkpt lat="14.557356169417812" lon="121.0076214966469"><ele>7.666666666666666</ele><time>2026-04-12T04:29:38.001Z</time></trkpt><trkpt lat="14.557218533363047" lon="121.00769648726823"><ele>7.333333333333334</ele><time>2026-04-12T04:29:39.001Z</time></trkpt><trkpt lat="14.55707930266346" lon="121.0077683360537"><ele>7.0</ele><time>2026-04-12T04:29:40.001Z</time></trkpt><trkpt lat="14.55693852540249" lon="121.00783876817462"><ele>6.333333333333334</ele><time>2026-04-12T04:29:41.001Z</time></trkpt><trkpt lat="14.556795436239756" lon="121.00792026578779"><ele>5.666666666666667</ele><time>2026-04-12T04:29:42.001Z</time></trkpt><trkpt lat="14.556652642994191" lon="121.00799335833759"><ele>5.0</ele><time>2026-04-12T04:29:43.001Z</time></trkpt><trkpt lat="14.556514350196174" lon="121.00806379107723"><ele>5.0</ele><time>2026-04-12T04:29:44.001Z</time></trkpt><trkpt lat="14.556372507821902" lon="121.00814419401894"><ele>5.0</ele><time>2026-04-12T04:29:45.001Z</time></trkpt><trkpt lat="14.556240038560944" lon="121.008211544438"><ele>5.0</ele><time>2026-04-12T04:29:46.001Z</time></trkpt><trkpt lat="14.556088312976662" lon="121.00828808999118"><ele>5.75</ele><time>2026-04-12T04:29:47.001Z</time></trkpt><trkpt lat="14.555953675487823" lon="121.00836578158982"><ele>6.5</ele><time>2026-04-12T04:29:48.001Z</time></trkpt><trkpt lat="14.555828484165684" lon="121.00844503886402"><ele>7.25</ele><time>2026-04-12T04:29:49.001Z</time></trkpt><trkpt lat="14.555698898856797" lon="121.0085065679514"><ele>8.0</ele><time>2026-04-12T04:29:50.001Z</time></trkpt><trkpt lat="14.555562012735631" lon="121.00858356858224"><ele>8.0</ele><time>2026-04-12T04:29:51.001Z</time></trkpt><trkpt lat="14.555429723910777" lon="121.00865057363576"><ele>8.0</ele><time>2026-04-12T04:29:52.001Z</time></trkpt><trkpt lat="14.555299066949862" lon="121.00872359046262"><ele>8.0</ele><time>2026-04-12T04:29:53.001Z</time></trkpt><trkpt lat="14.55518284128928" lon="121.00878154425261"><ele>8.0</ele><time>2026-04-12T04:29:54.001Z</time></trkpt><trkpt lat="14.555057913738473" lon="121.00885090257952"><ele>7.75</ele><time>2026-04-12T04:29:55.001Z</time></trkpt><trkpt lat="14.554927708749613" lon="121.00893409275618"><ele>7.5</ele><time>2026-04-12T04:29:56.001Z</time></trkpt><trkpt lat="14.554799950566021" lon="121.00900560982636"><ele>7.25</ele><time>2026-04-12T04:29:57.001Z</time></trkpt><trkpt lat="14.554669443763647" lon="121.00907420272424"><ele>7.0</ele><time>2026-04-12T04:29:58.001Z</time></trkpt><trkpt lat="14.554532613188378" lon="121.0091591613663"><ele>7.0</ele><time>2026-04-12T04:29:59.001Z</time></trkpt><trkpt lat="14.554382774780048" lon="121.00923831808302"><ele>7.0</ele><time>2026-04-12T04:30:00.001Z</time></trkpt><trkpt lat="14.554236309819602" lon="121.00931898362465"><ele>7.0</ele><time>2026-04-12T04:30:01.001Z</time></trkpt><trkpt lat="14.55410550208595" lon="121.00939808184624"><ele>7.0</ele><time>2026-04-12T04:30:02.001Z</time></trkpt><trkpt lat="14.553964424426914" lon="121.00947794725147"><ele>7.0</ele><time>2026-04-12T04:30:03.001Z</time></trkpt><trkpt lat="14.553824217797889" lon="121.00956267054026"><ele>7.0</ele><time>2026-04-12T04:30:04.001Z</time></trkpt><trkpt lat="14.5536794385781" lon="121.00964401839028"><ele>7.0</ele><time>2026-04-12T04:30:05.001Z</time></trkpt><trkpt lat="14.553542395991483" lon="121.00972647871242"><ele>7.0</ele><time>2026-04-12T04:30:06.001Z</time></trkpt><trkpt lat="14.5534006787664" lon="121.009805091679"><ele>7.0</ele><time>2026-04-12T04:30:07.001Z</time></trkpt><trkpt lat="14.553256441004478" lon="121.0098917124125"><ele>7.0</ele><time>2026-04-12T04:30:08.001Z</time></trkpt><trkpt lat="14.553119700010283" lon="121.00997207303452"><ele>7.0</ele><time>2026-04-12T04:30:09.001Z</time></trkpt><trkpt lat="14.552974855335481" lon="121.01006584741893"><ele>7.0</ele><time>2026-04-12T04:30:10.001Z</time></trkpt><trkpt lat="14.552862522610665" lon="121.01011594774593"><ele>7.0</ele><time>2026-04-12T04:30:11.001Z</time></trkpt><trkpt lat="14.552729863795395" lon="121.01017409770779"><ele>7.0</ele><time>2026-04-12T04:30:12.001Z</time></trkpt><trkpt lat="14.552609577662906" lon="121.01024387164017"><ele>7.0</ele><time>2026-04-12T04:30:13.001Z</time></trkpt><trkpt lat="14.552479515530662" lon="121.01031303015338"><ele>7.0</ele><time>2026-04-12T04:30:14.001Z</time></trkpt><trkpt lat="14.552341945436805" lon="121.01038376635543"><ele>7.0</ele><time>2026-04-12T04:30:15.001Z</time></trkpt><trkpt lat="14.552180171476838" lon="121.01046992779568"><ele>7.0</ele><time>2026-04-12T04:30:16.001Z</time></trkpt><trkpt lat="14.552028723362538" lon="121.01055525749818"><ele>7.0</ele><time>2026-04-12T04:30:17.001Z</time></trkpt><trkpt lat="14.551873553404038" lon="121.01064045705165"><ele>7.333333333333334</ele><time>2026-04-12T04:30:18.001Z</time></trkpt><trkpt lat="14.551698974500399" lon="121.01073138147514"><ele>7.666666666666666</ele><time>2026-04-12T04:30:19.001Z</time></trkpt><trkpt lat="14.551517597454527" lon="121.01081813251973"><ele>8.0</ele><time>2026-04-12T04:30:20.001Z</time></trkpt><trkpt lat="14.551373957412588" lon="121.01088262224324"><ele>8.333333333333332</ele><time>2026-04-12T04:30:21.001Z</time></trkpt><trkpt lat="14.551251325863042" lon="121.01096471947696"><ele>8.666666666666666</ele><time>2026-04-12T04:30:22.001Z</time></trkpt><trkpt lat="14.551103634734712" lon="121.01103692021495"><ele>9.0</ele><time>2026-04-12T04:30:23.001Z</time></trkpt><trkpt lat="14.550959226767405" lon="121.01108946232246"><ele>9.0</ele><time>2026-04-12T04:30:24.001Z</time></trkpt><trkpt lat="14.550837602164718" lon="121.0111652843074"><ele>9.0</ele><time>2026-04-12T04:30:25.001Z</time></trkpt><trkpt lat="14.550709919145987" lon="121.01124108353335"><ele>9.0</ele><time>2026-04-12T04:30:26.001Z</time></trkpt><trkpt lat="14.550579711123978" lon="121.01131982978761"><ele>9.0</ele><time>2026-04-12T04:30:27.001Z</time></trkpt><trkpt lat="14.550450237583256" lon="121.01139758671009"><ele>8.75</ele><time>2026-04-12T04:30:28.001Z</time></trkpt><trkpt lat="14.550329148769636" lon="121.0114497491202"><ele>8.5</ele><time>2026-04-12T04:30:29.001Z</time></trkpt><trkpt lat="14.55023306511904" lon="121.01151548296916"><ele>8.25</ele><time>2026-04-12T04:30:30.001Z</time></trkpt><trkpt lat="14.550117546532102" lon="121.01157172709152"><ele>8.0</ele><time>2026-04-12T04:30:31.001Z</time></trkpt><trkpt lat="14.550025982239289" lon="121.01162378835578"><ele>8.75</ele><time>2026-04-12T04:30:32.001Z</time></trkpt><trkpt lat="14.549926662480782" lon="121.01168805064282"><ele>9.5</ele><time>2026-04-12T04:30:33.001Z</time></trkpt><trkpt lat="14.549823317577083" lon="121.01172935466518"><ele>10.25</ele><time>2026-04-12T04:30:34.001Z</time></trkpt><trkpt lat="14.549708133916115" lon="121.01178865670083"><ele>11.0</ele><time>2026-04-12T04:30:35.001Z</time></trkpt><trkpt lat="14.549611520198662" lon="121.01184120255205"><ele>10.75</ele><time>2026-04-12T04:30:36.001Z</time></trkpt><trkpt lat="14.549470500610381" lon="121.01193437428462"><ele>10.5</ele><time>2026-04-12T04:30:37.001Z</time></trkpt><trkpt lat="14.549356330623553" lon="121.01200137462517"><ele>10.25</ele><time>2026-04-12T04:30:38.001Z</time></trkpt><trkpt lat="14.549253232181751" lon="121.01204460540272"><ele>10.0</ele><time>2026-04-12T04:30:39.001Z</time></trkpt><trkpt lat="14.54914373844757" lon="121.01209638915256"><ele>10.0</ele><time>2026-04-12T04:30:40.001Z</time></trkpt><trkpt lat="14.549036745338407" lon="121.0121476329177"><ele>10.0</ele><time>2026-04-12T04:30:41.001Z</time></trkpt><trkpt lat="14.548924650978567" lon="121.01219576321708"><ele>10.0</ele><time>2026-04-12T04:30:42.001Z</time></trkpt><trkpt lat="14.54882228830887" lon="121.01225032971671"><ele>10.0</ele><time>2026-04-12T04:30:43.001Z</time></trkpt><trkpt lat="14.54868831395792" lon="121.0122966351393"><ele>8.75</ele><time>2026-04-12T04:30:44.001Z</time></trkpt><trkpt lat="14.548572660289686" lon="121.01235441246362"><ele>7.5</ele><time>2026-04-12T04:30:45.001Z</time></trkpt><trkpt lat="14.548448880019615" lon="121.01241072458032"><ele>6.25</ele><time>2026-04-12T04:30:46.001Z</time></trkpt><trkpt lat="14.5483376891613" lon="121.01247606052351"><ele>5.0</ele><time>2026-04-12T04:30:47.001Z</time></trkpt><trkpt lat="14.548230489660693" lon="121.01242564992694"><ele>5.0</ele><time>2026-04-12T04:30:48.001Z</time></trkpt><trkpt lat="14.548110342752853" lon="121.01245240809469"><ele>5.0</ele><time>2026-04-12T04:30:49.001Z</time></trkpt><trkpt lat="14.548077638600835" lon="121.01265458051812"><ele>5.0</ele><time>2026-04-12T04:30:50.001Z</time></trkpt><trkpt lat="14.547968100216092" lon="121.01273880732131"><ele>6.0</ele><time>2026-04-12T04:30:51.001Z</time></trkpt><trkpt lat="14.547851212178985" lon="121.01280545139483"><ele>7.0</ele><time>2026-04-12T04:30:52.001Z</time></trkpt><trkpt lat="14.547730426485188" lon="121.01284342290741"><ele>8.0</ele><time>2026-04-12T04:30:53.001Z</time></trkpt><trkpt lat="14.547606793184576" lon="121.01290017984034"><ele>9.0</ele><time>2026-04-12T04:30:54.001Z</time></trkpt><trkpt lat="14.547522883927641" lon="121.01298171978854"><ele>9.0</ele><time>2026-04-12T04:30:55.001Z</time></trkpt><trkpt lat="14.547413128522647" lon="121.01304911377711"><ele>9.0</ele><time>2026-04-12T04:30:56.001Z</time></trkpt><trkpt lat="14.547306468747234" lon="121.01310812158584"><ele>9.0</ele><time>2026-04-12T04:30:57.001Z</time></trkpt><trkpt lat="14.547225418980739" lon="121.01312778553066"><ele>9.0</ele><time>2026-04-12T04:30:58.001Z</time></trkpt><trkpt lat="14.547122376576862" lon="121.01319549611465"><ele>9.75</ele><time>2026-04-12T04:30:59.001Z</time></trkpt><trkpt lat="14.547022845063628" lon="121.01325595387257"><ele>10.5</ele><time>2026-04-12T04:31:00.001Z</time></trkpt><trkpt lat="14.546912040850309" lon="121.01330372873929"><ele>11.25</ele><time>2026-04-12T04:31:01.001Z</time></trkpt><trkpt lat="14.546808000484504" lon="121.0133575537521"><ele>12.0</ele><time>2026-04-12T04:31:02.001Z</time></trkpt><trkpt lat="14.546690680435036" lon="121.01341484976024"><ele>12.25</ele><time>2026-04-12T04:31:03.001Z</time></trkpt><trkpt lat="14.546575805962714" lon="121.01347151518112"><ele>12.5</ele><time>2026-04-12T04:31:04.001Z</time></trkpt><trkpt lat="14.54646528129706" lon="121.01353104733634"><ele>12.75</ele><time>2026-04-12T04:31:05.001Z</time></trkpt><trkpt lat="14.546357975759577" lon="121.01358683542598"><ele>13.0</ele><time>2026-04-12T04:31:06.001Z</time></trkpt><trkpt lat="14.546255188156449" lon="121.01363923827233"><ele>12.25</ele><time>2026-04-12T04:31:07.001Z</time></trkpt><trkpt lat="14.546149148349697" lon="121.01369626075133"><ele>11.5</ele><time>2026-04-12T04:31:08.001Z</time></trkpt><trkpt lat="14.54603711697193" lon="121.01376185536887"><ele>10.75</ele><time>2026-04-12T04:31:09.001Z</time></trkpt><trkpt lat="14.545921242603645" lon="121.01382863951925"><ele>10.0</ele><time>2026-04-12T04:31:10.001Z</time></trkpt><trkpt lat="14.5458248957183" lon="121.01387822748474"><ele>10.0</ele><time>2026-04-12T04:31:11.001Z</time></trkpt><trkpt lat="14.545720619692057" lon="121.01394050644315"><ele>10.0</ele><time>2026-04-12T04:31:12.001Z</time></trkpt><trkpt lat="14.545612853912933" lon="121.0139990112233"><ele>10.0</ele><time>2026-04-12T04:31:13.001Z</time></trkpt><trkpt lat="14.545505472595343" lon="121.0140552347434"><ele>10.0</ele><time>2026-04-12T04:31:14.001Z</time></trkpt><trkpt lat="14.545386879717713" lon="121.01411862716571"><ele>10.5</ele><time>2026-04-12T04:31:15.001Z</time></trkpt><trkpt lat="14.545271819467695" lon="121.01417553399422"><ele>11.0</ele><time>2026-04-12T04:31:16.001Z</time></trkpt><trkpt lat="14.545153351116694" lon="121.0142450770243"><ele>11.5</ele><time>2026-04-12T04:31:17.001Z</time></trkpt><trkpt lat="14.545036807321694" lon="121.01431224279236"><ele>12.0</ele><time>2026-04-12T04:31:18.001Z</time></trkpt><trkpt lat="14.544906863102607" lon="121.01438405183043"><ele>12.0</ele><time>2026-04-12T04:31:19.001Z</time></trkpt><trkpt lat="14.544779156166948" lon="121.01445598279616"><ele>12.0</ele><time>2026-04-12T04:31:20.001Z</time></trkpt><trkpt lat="14.544649622472582" lon="121.01452163401345"><ele>12.0</ele><time>2026-04-12T04:31:21.001Z</time></trkpt><trkpt lat="14.54450957076102" lon="121.01460097410548"><ele>12.0</ele><time>2026-04-12T04:31:22.001Z</time></trkpt><trkpt lat="14.544371119010687" lon="121.0146807554089"><ele>12.0</ele><time>2026-04-12T04:31:23.001Z</time></trkpt><trkpt lat="14.544235003684015" lon="121.01475590260468"><ele>12.0</ele><time>2026-04-12T04:31:24.001Z</time></trkpt><trkpt lat="14.544102876946045" lon="121.01482200333304"><ele>12.0</ele><time>2026-04-12T04:31:25.001Z</time></trkpt><trkpt lat="14.543950176335608" lon="121.01490703746492"><ele>12.0</ele><time>2026-04-12T04:31:26.001Z</time></trkpt><trkpt lat="14.543825456920679" lon="121.01497094187492"><ele>12.0</ele><time>2026-04-12T04:31:27.001Z</time></trkpt><trkpt lat="14.543688922068508" lon="121.01504820082889"><ele>12.0</ele><time>2026-04-12T04:31:28.001Z</time></trkpt><trkpt lat="14.543553143522901" lon="121.01512692693181"><ele>12.0</ele><time>2026-04-12T04:31:29.001Z</time></trkpt><trkpt lat="14.54341912078097" lon="121.01519812249525"><ele>12.0</ele><time>2026-04-12T04:31:30.001Z</time></trkpt><trkpt lat="14.543287915425346" lon="121.01526439238707"><ele>12.0</ele><time>2026-04-12T04:31:31.001Z</time></trkpt><trkpt lat="14.543164122792604" lon="121.01532498000422"><ele>12.0</ele><time>2026-04-12T04:31:32.001Z</time></trkpt><trkpt lat="14.543046122239828" lon="121.01538339981383"><ele>12.0</ele><time>2026-04-12T04:31:33.001Z</time></trkpt><trkpt lat="14.542939187601625" lon="121.01542726988194"><ele>12.0</ele><time>2026-04-12T04:31:34.001Z</time></trkpt><trkpt lat="14.542841156494296" lon="121.0154738049154"><ele>12.0</ele><time>2026-04-12T04:31:35.001Z</time></trkpt><trkpt lat="14.542751791181336" lon="121.0155208091128"><ele>12.0</ele><time>2026-04-12T04:31:36.001Z</time></trkpt><trkpt lat="14.54266554272907" lon="121.01556611494507"><ele>12.0</ele><time>2026-04-12T04:31:37.001Z</time></trkpt><trkpt lat="14.542584856643595" lon="121.01560924959921"><ele>11.4</ele><time>2026-04-12T04:31:38.001Z</time></trkpt><trkpt lat="14.542502373924224" lon="121.0156530673932"><ele>10.799999999999999</ele><time>2026-04-12T04:31:39.001Z</time></trkpt><trkpt lat="14.542416143265532" lon="121.01569598537806"><ele>10.2</ele><time>2026-04-12T04:31:40.001Z</time></trkpt><trkpt lat="14.54233259128401" lon="121.01573805916448"><ele>9.6</ele><time>2026-04-12T04:31:41.001Z</time></trkpt><trkpt lat="14.542253132012597" lon="121.0157815151114"><ele>9.0</ele><time>2026-04-12T04:31:42.001Z</time></trkpt><trkpt lat="14.542162106752228" lon="121.01582472807839"><ele>9.0</ele><time>2026-04-12T04:31:43.001Z</time></trkpt><trkpt lat="14.542071043570925" lon="121.01587563899227"><ele>9.0</ele><time>2026-04-12T04:31:44.001Z</time></trkpt><trkpt lat="14.541973409802685" lon="121.01593018158259"><ele>9.0</ele><time>2026-04-12T04:31:45.001Z</time></trkpt><trkpt lat="14.541886005546093" lon="121.01596233016174"><ele>9.0</ele><time>2026-04-12T04:31:46.001Z</time></trkpt><trkpt lat="14.541801078696428" lon="121.01600215674979"><ele>9.0</ele><time>2026-04-12T04:31:47.001Z</time></trkpt><trkpt lat="14.541705153167635" lon="121.01603799359394"><ele>9.4</ele><time>2026-04-12T04:31:48.001Z</time></trkpt><trkpt lat="14.541607133696058" lon="121.01607582593736"><ele>9.8</ele><time>2026-04-12T04:31:49.001Z</time></trkpt><trkpt lat="14.54151030986753" lon="121.01610746640733"><ele>10.200000000000001</ele><time>2026-04-12T04:31:50.001Z</time></trkpt><trkpt lat="14.541422453772524" lon="121.0161409916848"><ele>10.600000000000001</ele><time>2026-04-12T04:31:51.001Z</time></trkpt><trkpt lat="14.541344833818373" lon="121.01619200247745"><ele>11.0</ele><time>2026-04-12T04:31:52.001Z</time></trkpt><trkpt lat="14.541265109273285" lon="121.01623289652915"><ele>11.200000000000001</ele><time>2026-04-12T04:31:53.001Z</time></trkpt><trkpt lat="14.541175601819752" lon="121.01627885893487"><ele>11.4</ele><time>2026-04-12T04:31:54.001Z</time></trkpt><trkpt lat="14.541093848107632" lon="121.01632085128169"><ele>11.6</ele><time>2026-04-12T04:31:55.001Z</time></trkpt><trkpt lat="14.54100710854421" lon="121.0163654044423"><ele>11.8</ele><time>2026-04-12T04:31:56.001Z</time></trkpt><trkpt lat="14.540933188077334" lon="121.01640547125862"><ele>12.0</ele><time>2026-04-12T04:31:57.001Z</time></trkpt><trkpt lat="14.540850406273488" lon="121.01645009529491"><ele>12.0</ele><time>2026-04-12T04:31:58.001Z</time></trkpt><trkpt lat="14.540775196999473" lon="121.01649064752993"><ele>12.0</ele><time>2026-04-12T04:31:59.001Z</time></trkpt><trkpt lat="14.540689114149673" lon="121.016537062663"><ele>12.0</ele><time>2026-04-12T04:32:00.001Z</time></trkpt><trkpt lat="14.540602871573276" lon="121.01658356390942"><ele>12.0</ele><time>2026-04-12T04:32:01.001Z</time></trkpt><trkpt lat="14.54051693894832" lon="121.01662989802387"><ele>12.0</ele><time>2026-04-12T04:32:02.001Z</time></trkpt><trkpt lat="14.540432543961215" lon="121.01667507179911"><ele>11.833333333333334</ele><time>2026-04-12T04:32:03.001Z</time></trkpt><trkpt lat="14.540357101232239" lon="121.01671523884386"><ele>11.666666666666666</ele><time>2026-04-12T04:32:04.001Z</time></trkpt><trkpt lat="14.54027120889125" lon="121.01676151344786"><ele>11.5</ele><time>2026-04-12T04:32:05.001Z</time></trkpt><trkpt lat="14.540185422063132" lon="121.01680759713335"><ele>11.333333333333332</ele><time>2026-04-12T04:32:06.001Z</time></trkpt><trkpt lat="14.54011072279807" lon="121.01684772470217"><ele>11.166666666666666</ele><time>2026-04-12T04:32:07.001Z</time></trkpt><trkpt lat="14.540034778204882" lon="121.01688852123797"><ele>11.0</ele><time>2026-04-12T04:32:08.001Z</time></trkpt><trkpt lat="14.539968562084924" lon="121.01692409179286"><ele>11.0</ele><time>2026-04-12T04:32:09.001Z</time></trkpt><trkpt lat="14.539901994081678" lon="121.01695985136145"><ele>11.0</ele><time>2026-04-12T04:32:10.001Z</time></trkpt><trkpt lat="14.539837453192725" lon="121.01699452198973"><ele>11.0</ele><time>2026-04-12T04:32:11.001Z</time></trkpt><trkpt lat="14.539768583085785" lon="121.01703129023304"><ele>11.0</ele><time>2026-04-12T04:32:12.001Z</time></trkpt><trkpt lat="14.539704881222903" lon="121.0170653234471"><ele>11.0</ele><time>2026-04-12T04:32:13.001Z</time></trkpt><trkpt lat="14.53964811738883" lon="121.01709643825083"><ele>11.0</ele><time>2026-04-12T04:32:14.001Z</time></trkpt><trkpt lat="14.539532511309293" lon="121.01715980714131"><ele>11.4</ele><time>2026-04-12T04:32:16.001Z</time></trkpt><trkpt lat="14.539472137198716" lon="121.01719321601635"><ele>11.8</ele><time>2026-04-12T04:32:17.001Z</time></trkpt><trkpt lat="14.539408575046455" lon="121.01722873345328"><ele>12.200000000000001</ele><time>2026-04-12T04:32:18.001Z</time></trkpt><trkpt lat="14.539326526089546" lon="121.01727458097243"><ele>12.600000000000001</ele><time>2026-04-12T04:32:19.001Z</time></trkpt><trkpt lat="14.539223353393293" lon="121.01731296932245"><ele>13.0</ele><time>2026-04-12T04:32:20.001Z</time></trkpt><trkpt lat="14.539118084845263" lon="121.01738799926481"><ele>13.0</ele><time>2026-04-12T04:32:21.001Z</time></trkpt><trkpt lat="14.539024948227416" lon="121.01745233450825"><ele>13.0</ele><time>2026-04-12T04:32:22.001Z</time></trkpt><trkpt lat="14.53892587442436" lon="121.0175180508381"><ele>13.0</ele><time>2026-04-12T04:32:23.001Z</time></trkpt><trkpt lat="14.538822832497084" lon="121.01758779329377"><ele>13.0</ele><time>2026-04-12T04:32:24.001Z</time></trkpt><trkpt lat="14.53872741775395" lon="121.01764879651498"><ele>12.5</ele><time>2026-04-12T04:32:25.001Z</time></trkpt><trkpt lat="14.538625582062334" lon="121.01770776517482"><ele>12.0</ele><time>2026-04-12T04:32:26.001Z</time></trkpt><trkpt lat="14.53852092901521" lon="121.01776347236968"><ele>11.5</ele><time>2026-04-12T04:32:27.001Z</time></trkpt><trkpt lat="14.538410811084098" lon="121.017821932045"><ele>11.0</ele><time>2026-04-12T04:32:28.001Z</time></trkpt><trkpt lat="14.538310234409252" lon="121.01787728008652"><ele>11.0</ele><time>2026-04-12T04:32:29.001Z</time></trkpt><trkpt lat="14.538208872044429" lon="121.01793272403998"><ele>11.0</ele><time>2026-04-12T04:32:30.001Z</time></trkpt><trkpt lat="14.538110043143929" lon="121.01798027023472"><ele>11.0</ele><time>2026-04-12T04:32:31.001Z</time></trkpt><trkpt lat="14.538002275219633" lon="121.01805399667988"><ele>11.0</ele><time>2026-04-12T04:32:32.001Z</time></trkpt><trkpt lat="14.537889644465201" lon="121.01812195117503"><ele>11.0</ele><time>2026-04-12T04:32:33.001Z</time></trkpt><trkpt lat="14.537775295158893" lon="121.01819271432416"><ele>11.0</ele><time>2026-04-12T04:32:34.001Z</time></trkpt><trkpt lat="14.537651875643663" lon="121.0182650374972"><ele>11.0</ele><time>2026-04-12T04:32:35.001Z</time></trkpt><trkpt lat="14.53751660975386" lon="121.01833279125997"><ele>11.0</ele><time>2026-04-12T04:32:36.001Z</time></trkpt><trkpt lat="14.537382521974184" lon="121.01840164858817"><ele>11.0</ele><time>2026-04-12T04:32:37.001Z</time></trkpt><trkpt lat="14.537243641596373" lon="121.01847814253746"><ele>11.0</ele><time>2026-04-12T04:32:38.001Z</time></trkpt><trkpt lat="14.537097496760463" lon="121.01855442701398"><ele>11.0</ele><time>2026-04-12T04:32:39.001Z</time></trkpt><trkpt lat="14.536948236906415" lon="121.0186302995101"><ele>11.0</ele><time>2026-04-12T04:32:40.001Z</time></trkpt><trkpt lat="14.536800144934482" lon="121.01870719074128"><ele>11.0</ele><time>2026-04-12T04:32:41.001Z</time></trkpt><trkpt lat="14.536643549009675" lon="121.01879032200422"><ele>11.0</ele><time>2026-04-12T04:32:42.001Z</time></trkpt><trkpt lat="14.536490350365133" lon="121.01887167458923"><ele>11.0</ele><time>2026-04-12T04:32:43.001Z</time></trkpt><trkpt lat="14.536341437453494" lon="121.01895669949484"><ele>11.0</ele><time>2026-04-12T04:32:44.001Z</time></trkpt><trkpt lat="14.536194341711846" lon="121.01903881460065"><ele>11.0</ele><time>2026-04-12T04:32:45.001Z</time></trkpt><trkpt lat="14.536047670102489" lon="121.01910930253595"><ele>12.333333333333332</ele><time>2026-04-12T04:32:46.001Z</time></trkpt><trkpt lat="14.535910650631386" lon="121.01918316917954"><ele>13.666666666666666</ele><time>2026-04-12T04:32:47.001Z</time></trkpt><trkpt lat="14.535783557957155" lon="121.01926475551359"><ele>15.0</ele><time>2026-04-12T04:32:48.001Z</time></trkpt><trkpt lat="14.53564849471057" lon="121.01934269975297"><ele>15.0</ele><time>2026-04-12T04:32:49.001Z</time></trkpt><trkpt lat="14.535507584945904" lon="121.01941657662697"><ele>15.0</ele><time>2026-04-12T04:32:50.001Z</time></trkpt><trkpt lat="14.535364957545722" lon="121.01949134630352"><ele>15.0</ele><time>2026-04-12T04:32:51.001Z</time></trkpt><trkpt lat="14.535218303254528" lon="121.01957232061535"><ele>14.333333333333332</ele><time>2026-04-12T04:32:52.001Z</time></trkpt><trkpt lat="14.535063477943405" lon="121.01965011053495"><ele>13.666666666666666</ele><time>2026-04-12T04:32:53.001Z</time></trkpt><trkpt lat="14.534906395851596" lon="121.01973776099354"><ele>13.0</ele><time>2026-04-12T04:32:54.001Z</time></trkpt><trkpt lat="14.534745981026992" lon="121.01983181734711"><ele>13.0</ele><time>2026-04-12T04:32:55.001Z</time></trkpt><trkpt lat="14.534582425919279" lon="121.01992731866794"><ele>13.0</ele><time>2026-04-12T04:32:56.001Z</time></trkpt><trkpt lat="14.534411845634999" lon="121.02002154466547"><ele>13.0</ele><time>2026-04-12T04:32:57.001Z</time></trkpt><trkpt lat="14.53423684770501" lon="121.02011690125263"><ele>14.0</ele><time>2026-04-12T04:32:58.001Z</time></trkpt><trkpt lat="14.534059458845883" lon="121.02021822893289"><ele>15.0</ele><time>2026-04-12T04:32:59.001Z</time></trkpt><trkpt lat="14.533875310509968" lon="121.02032053578377"><ele>16.0</ele><time>2026-04-12T04:33:00.001Z</time></trkpt><trkpt lat="14.533688013642292" lon="121.02042549084489"><ele>16.333333333333332</ele><time>2026-04-12T04:33:01.001Z</time></trkpt><trkpt lat="14.533497079852824" lon="121.02052736915591"><ele>16.666666666666668</ele><time>2026-04-12T04:33:02.001Z</time></trkpt><trkpt lat="14.53329993701706" lon="121.02063264969547"><ele>17.0</ele><time>2026-04-12T04:33:03.001Z</time></trkpt><trkpt lat="14.533104933096055" lon="121.02074091862521"><ele>17.5</ele><time>2026-04-12T04:33:04.001Z</time></trkpt><trkpt lat="14.532904337970594" lon="121.0208422634642"><ele>18.0</ele><time>2026-04-12T04:33:05.001Z</time></trkpt><trkpt lat="14.53269636330898" lon="121.02094451654207"><ele>15.0</ele><time>2026-04-12T04:33:06.001Z</time></trkpt><trkpt lat="14.532493298598903" lon="121.0210519814728"><ele>12.0</ele><time>2026-04-12T04:33:07.001Z</time></trkpt><trkpt lat="14.532296287724803" lon="121.02116809638046"><ele>12.0</ele><time>2026-04-12T04:33:08.001Z</time></trkpt><trkpt lat="14.532097521153089" lon="121.02127852989875"><ele>12.0</ele><time>2026-04-12T04:33:09.001Z</time></trkpt><trkpt lat="14.53188611398454" lon="121.0213917989645"><ele>12.0</ele><time>2026-04-12T04:33:10.001Z</time></trkpt><trkpt lat="14.531688307047917" lon="121.02149975382619"><ele>12.0</ele><time>2026-04-12T04:33:11.001Z</time></trkpt><trkpt lat="14.53150464420343" lon="121.02159660206885"><ele>12.0</ele><time>2026-04-12T04:33:12.001Z</time></trkpt><trkpt lat="14.531332064688328" lon="121.02171659936779"><ele>11.0</ele><time>2026-04-12T04:33:13.001Z</time></trkpt><trkpt lat="14.531161228580798" lon="121.02179398844603"><ele>10.0</ele><time>2026-04-12T04:33:14.001Z</time></trkpt><trkpt lat="14.530989662263366" lon="121.02188257550701"><ele>9.0</ele><time>2026-04-12T04:33:15.001Z</time></trkpt><trkpt lat="14.530821807531016" lon="121.02196978646168"><ele>9.0</ele><time>2026-04-12T04:33:16.001Z</time></trkpt><trkpt lat="14.530646807446796" lon="121.02206748428007"><ele>9.0</ele><time>2026-04-12T04:33:17.001Z</time></trkpt><trkpt lat="14.530466114185343" lon="121.02216587449243"><ele>9.0</ele><time>2026-04-12T04:33:18.001Z</time></trkpt><trkpt lat="14.530275440316457" lon="121.0222526931182"><ele>8.666666666666666</ele><time>2026-04-12T04:33:19.001Z</time></trkpt><trkpt lat="14.530091083381912" lon="121.02235873922598"><ele>8.333333333333332</ele><time>2026-04-12T04:33:20.001Z</time></trkpt><trkpt lat="14.529905549044084" lon="121.02245697295696"><ele>8.0</ele><time>2026-04-12T04:33:21.001Z</time></trkpt><trkpt lat="14.529714579421936" lon="121.02255935163217"><ele>8.666666666666666</ele><time>2026-04-12T04:33:22.001Z</time></trkpt><trkpt lat="14.52953119090191" lon="121.02266290685023"><ele>9.333333333333334</ele><time>2026-04-12T04:33:23.001Z</time></trkpt><trkpt lat="14.52933874674297" lon="121.02276510056868"><ele>10.0</ele><time>2026-04-12T04:33:24.001Z</time></trkpt><trkpt lat="14.529142748817547" lon="121.02286907500913"><ele>10.0</ele><time>2026-04-12T04:33:25.001Z</time></trkpt><trkpt lat="14.528947574763777" lon="121.02297058229797"><ele>10.0</ele><time>2026-04-12T04:33:26.001Z</time></trkpt><trkpt lat="14.528751887500995" lon="121.02307532598414"><ele>10.0</ele><time>2026-04-12T04:33:27.001Z</time></trkpt><trkpt lat="14.528562066728378" lon="121.02317782370605"><ele>10.0</ele><time>2026-04-12T04:33:28.001Z</time></trkpt><trkpt lat="14.528375642406827" lon="121.02328531009306"><ele>10.0</ele><time>2026-04-12T04:33:29.001Z</time></trkpt><trkpt lat="14.528187103224921" lon="121.02338510033577"><ele>10.0</ele><time>2026-04-12T04:33:30.001Z</time></trkpt><trkpt lat="14.528000850584323" lon="121.0234753081198"><ele>10.333333333333334</ele><time>2026-04-12T04:33:31.001Z</time></trkpt><trkpt lat="14.527801602263496" lon="121.02356705178646"><ele>10.666666666666666</ele><time>2026-04-12T04:33:32.001Z</time></trkpt><trkpt lat="14.52760041217681" lon="121.02367779542875"><ele>11.0</ele><time>2026-04-12T04:33:33.001Z</time></trkpt><trkpt lat="14.52740452433624" lon="121.02377495996878"><ele>11.0</ele><time>2026-04-12T04:33:34.001Z</time></trkpt><trkpt lat="14.527215675230694" lon="121.02387767356265"><ele>11.0</ele><time>2026-04-12T04:33:35.001Z</time></trkpt><trkpt lat="14.527012463706916" lon="121.02398500827817"><ele>11.0</ele><time>2026-04-12T04:33:36.001Z</time></trkpt><trkpt lat="14.526814885172282" lon="121.02408729276301"><ele>11.333333333333332</ele><time>2026-04-12T04:33:37.001Z</time></trkpt><trkpt lat="14.526631524130597" lon="121.02421828864304"><ele>11.666666666666666</ele><time>2026-04-12T04:33:38.001Z</time></trkpt><trkpt lat="14.526456992088677" lon="121.02434583507849"><ele>12.0</ele><time>2026-04-12T04:33:39.001Z</time></trkpt><trkpt lat="14.526294977935857" lon="121.02446443015108"><ele>10.333333333333334</ele><time>2026-04-12T04:33:40.001Z</time></trkpt><trkpt lat="14.526137671019644" lon="121.02458012218936"><ele>8.666666666666668</ele><time>2026-04-12T04:33:41.001Z</time></trkpt><trkpt lat="14.525989435660227" lon="121.02469221328646"><ele>7.0</ele><time>2026-04-12T04:33:42.001Z</time></trkpt><trkpt lat="14.525837595039766" lon="121.02480819348263"><ele>7.0</ele><time>2026-04-12T04:33:43.001Z</time></trkpt><trkpt lat="14.525701338820218" lon="121.0249138523112"><ele>7.0</ele><time>2026-04-12T04:33:44.001Z</time></trkpt><trkpt lat="14.525568770611232" lon="121.02502304199903"><ele>7.0</ele><time>2026-04-12T04:33:45.001Z</time></trkpt><trkpt lat="14.525449692013657" lon="121.0251208168821"><ele>8.333333333333334</ele><time>2026-04-12T04:33:46.001Z</time></trkpt><trkpt lat="14.525330691636617" lon="121.02521852754975"><ele>9.666666666666666</ele><time>2026-04-12T04:33:47.001Z</time></trkpt><trkpt lat="14.525213655562004" lon="121.0253146253384"><ele>11.0</ele><time>2026-04-12T04:33:48.001Z</time></trkpt><trkpt lat="14.525041910716823" lon="121.02543395303253"><ele>11.0</ele><time>2026-04-12T04:33:49.001Z</time></trkpt><trkpt lat="14.524910199524516" lon="121.02550673704982"><ele>11.0</ele><time>2026-04-12T04:33:50.001Z</time></trkpt><trkpt lat="14.524620209344919" lon="121.02527351513871"><ele>12.0</ele><time>2026-04-12T04:33:51.001Z</time></trkpt><trkpt lat="14.52449443711674" lon="121.02534311281146"><ele>13.0</ele><time>2026-04-12T04:33:52.001Z</time></trkpt><trkpt lat="14.52437459770159" lon="121.02540623946763"><ele>14.0</ele><time>2026-04-12T04:33:53.001Z</time></trkpt><trkpt lat="14.52425663729929" lon="121.02546513922572"><ele>15.0</ele><time>2026-04-12T04:33:54Z</time></trkpt><trkpt lat="14.524141538478153" lon="121.02552172965723"><ele>16.0</ele><time>2026-04-12T04:33:55Z</time></trkpt><trkpt lat="14.524061637570673" lon="121.02588375985673"><ele>17.0</ele><time>2026-04-12T04:33:56Z</time></trkpt><trkpt lat="14.52390232243827" lon="121.02584402294315"><ele>17.0</ele><time>2026-04-12T04:33:57Z</time></trkpt><trkpt lat="14.523808395839389" lon="121.02583550056764"><ele>17.0</ele><time>2026-04-12T04:33:58Z</time></trkpt><trkpt lat="14.523727254091183" lon="121.02582288097456"><ele>17.0</ele><time>2026-04-12T04:33:59Z</time></trkpt><trkpt lat="14.523644390170608" lon="121.02575558698078"><ele>17.0</ele><time>2026-04-12T04:34:00Z</time></trkpt><trkpt lat="14.523602042503889" lon="121.02570485775549"><ele>17.0</ele><time>2026-04-12T04:34:01Z</time></trkpt><trkpt lat="14.523534113587885" lon="121.0257500458258"><ele>17.0</ele><time>2026-04-12T04:34:02Z</time></trkpt><trkpt lat="14.523473736296207" lon="121.02579998346019"><ele>16.8</ele><time>2026-04-12T04:34:03Z</time></trkpt><trkpt lat="14.523398266007298" lon="121.02584124705751"><ele>16.6</ele><time>2026-04-12T04:34:04Z</time></trkpt><trkpt lat="14.52331912166265" lon="121.02585585724819"><ele>16.400000000000002</ele><time>2026-04-12T04:34:05.001Z</time></trkpt><trkpt lat="14.523211376125024" lon="121.02581600294577"><ele>16.2</ele><time>2026-04-12T04:34:07.001Z</time></trkpt><trkpt lat="14.523169282584051" lon="121.02570106783722"><ele>16.0</ele><time>2026-04-12T04:34:09.001Z</time></trkpt><trkpt lat="14.52317008466391" lon="121.02563544845161"><ele>16.333333333333332</ele><time>2026-04-12T04:34:10.001Z</time></trkpt><trkpt lat="14.523192477060796" lon="121.02556087273639"><ele>16.666666666666664</ele><time>2026-04-12T04:34:11.001Z</time></trkpt><trkpt lat="14.523262189672023" lon="121.02549719192228"><ele>17.0</ele><time>2026-04-12T04:34:13.001Z</time></trkpt><trkpt lat="14.523319035723803" lon="121.0254371162951"><ele>17.333333333333332</ele><time>2026-04-12T04:34:14.001Z</time></trkpt><trkpt lat="14.523375160141782" lon="121.02536651806226"><ele>17.666666666666668</ele><time>2026-04-12T04:34:15.001Z</time></trkpt><trkpt lat="14.523441167460827" lon="121.02532711745542"><ele>18.0</ele><time>2026-04-12T04:34:16.001Z</time></trkpt><trkpt lat="14.523514260315572" lon="121.02529056542087"><ele>18.000000000000004</ele><time>2026-04-12T04:34:17.001Z</time></trkpt><trkpt lat="14.523583365117787" lon="121.02526664060764"><ele>18.0</ele><time>2026-04-12T04:34:18.001Z</time></trkpt><trkpt lat="14.523652901941722" lon="121.02527565833067"><ele>18.0</ele><time>2026-04-12T04:34:19.001Z</time></trkpt><trkpt lat="14.523723001135583" lon="121.02530677778049"><ele>18.0</ele><time>2026-04-12T04:34:20.001Z</time></trkpt><trkpt lat="14.523778035573361" lon="121.02534876549858"><ele>18.0</ele><time>2026-04-12T04:34:21.001Z</time></trkpt><trkpt lat="14.523837186976076" lon="121.02539236831691"><ele>18.000000000000004</ele><time>2026-04-12T04:34:22.001Z</time></trkpt><trkpt lat="14.523903168647669" lon="121.02543445717286"><ele>18.0</ele><time>2026-04-12T04:34:23.001Z</time></trkpt><trkpt lat="14.523968717599088" lon="121.02548136062818"><ele>17.4</ele><time>2026-04-12T04:34:24.001Z</time></trkpt><trkpt lat="14.524035094550532" lon="121.02552722068788"><ele>16.8</ele><time>2026-04-12T04:34:25.001Z</time></trkpt><trkpt lat="14.524108815652866" lon="121.02560170406515"><ele>16.2</ele><time>2026-04-12T04:34:27.001Z</time></trkpt><trkpt lat="14.524206039190211" lon="121.02568517239453"><ele>15.6</ele><time>2026-04-12T04:34:29.001Z</time></trkpt><trkpt lat="14.524265097715409" lon="121.02573522665409"><ele>15.0</ele><time>2026-04-12T04:34:30.001Z</time></trkpt><trkpt lat="14.524328741815417" lon="121.02578757713528"><ele>15.285714285714286</ele><time>2026-04-12T04:34:31.001Z</time></trkpt><trkpt lat="14.524398344708546" lon="121.02584375551304"><ele>15.57142857142857</ele><time>2026-04-12T04:34:32.001Z</time></trkpt><trkpt lat="14.524464884019517" lon="121.0258987687709"><ele>15.857142857142856</ele><time>2026-04-12T04:34:33.001Z</time></trkpt><trkpt lat="14.524525196700607" lon="121.02594044667477"><ele>16.142857142857142</ele><time>2026-04-12T04:34:34.001Z</time></trkpt><trkpt lat="14.524580887301667" lon="121.0259818140364"><ele>16.428571428571427</ele><time>2026-04-12T04:34:35.001Z</time></trkpt><trkpt lat="14.524635492683318" lon="121.02601949536145"><ele>16.71428571428571</ele><time>2026-04-12T04:34:36.001Z</time></trkpt><trkpt lat="14.52469116803426" lon="121.02606055497829"><ele>17.0</ele><time>2026-04-12T04:34:37.001Z</time></trkpt><trkpt lat="14.524762877601752" lon="121.0261213599004"><ele>16.2</ele><time>2026-04-12T04:34:39.001Z</time></trkpt><trkpt lat="14.524826229593996" lon="121.02618476451757"><ele>15.399999999999999</ele><time>2026-04-12T04:34:41.001Z</time></trkpt><trkpt lat="14.524868346982005" lon="121.02626604982514"><ele>14.600000000000001</ele><time>2026-04-12T04:34:43.001Z</time></trkpt><trkpt lat="14.524920465662618" lon="121.02631322826822"><ele>13.8</ele><time>2026-04-12T04:34:45.001Z</time></trkpt><trkpt lat="14.524892759449102" lon="121.02643823673661"><ele>13.0</ele><time>2026-04-12T04:34:47.001Z</time></trkpt><trkpt lat="14.52486622758476" lon="121.0265261419215"><ele>12.999999999999998</ele><time>2026-04-12T04:34:49.001Z</time></trkpt><trkpt lat="14.524774767780334" lon="121.02661459677056"><ele>13.0</ele><time>2026-04-12T04:34:51.001Z</time></trkpt><trkpt lat="14.524668693473462" lon="121.02665084065417"><ele>13.0</ele><time>2026-04-12T04:34:53.001Z</time></trkpt><trkpt lat="14.524605724070382" lon="121.02665870269983"><ele>13.0</ele><time>2026-04-12T04:34:54.001Z</time></trkpt><trkpt lat="14.524536392441213" lon="121.02665322549896"><ele>12.999999999999998</ele><time>2026-04-12T04:34:55.001Z</time></trkpt><trkpt lat="14.524465421625578" lon="121.02663500238094"><ele>13.0</ele><time>2026-04-12T04:34:56.001Z</time></trkpt><trkpt lat="14.524403345712143" lon="121.02660813189985"><ele>13.666666666666666</ele><time>2026-04-12T04:34:57.001Z</time></trkpt><trkpt lat="14.524343197776973" lon="121.02656730352888"><ele>14.333333333333332</ele><time>2026-04-12T04:34:58.001Z</time></trkpt><trkpt lat="14.524278042316142" lon="121.02651312713228"><ele>15.0</ele><time>2026-04-12T04:34:59.001Z</time></trkpt><trkpt lat="14.524207466621677" lon="121.02645708004559"><ele>15.666666666666668</ele><time>2026-04-12T04:35:00.001Z</time></trkpt><trkpt lat="14.524121738879439" lon="121.02640018477544"><ele>16.333333333333336</ele><time>2026-04-12T04:35:01.001Z</time></trkpt><trkpt lat="14.524060957843817" lon="121.02637492736119"><ele>17.0</ele><time>2026-04-12T04:35:02.001Z</time></trkpt><trkpt lat="14.523968310022655" lon="121.02632643760475"><ele>17.0</ele><time>2026-04-12T04:35:04.001Z</time></trkpt><trkpt lat="14.523854267217512" lon="121.02633947187975"><ele>17.0</ele><time>2026-04-12T04:35:06.001Z</time></trkpt><trkpt lat="14.523822971078657" lon="121.02639649205054"><ele>17.0</ele><time>2026-04-12T04:35:07.001Z</time></trkpt><trkpt lat="14.523716518032968" lon="121.02646996166801"><ele>17.0</ele><time>2026-04-12T04:35:09.001Z</time></trkpt><trkpt lat="14.523647775285804" lon="121.02650681697327"><ele>17.0</ele><time>2026-04-12T04:35:10.001Z</time></trkpt><trkpt lat="14.523573935509669" lon="121.02654651215815"><ele>16.8</ele><time>2026-04-12T04:35:11.001Z</time></trkpt><trkpt lat="14.523496469356186" lon="121.0265881568336"><ele>16.6</ele><time>2026-04-12T04:35:12.001Z</time></trkpt><trkpt lat="14.523409682283969" lon="121.02663463072261"><ele>16.400000000000002</ele><time>2026-04-12T04:35:13.001Z</time></trkpt><trkpt lat="14.52331955251913" lon="121.02668278018133"><ele>16.2</ele><time>2026-04-12T04:35:14.001Z</time></trkpt><trkpt lat="14.523225870483879" lon="121.02673282734585"><ele>16.0</ele><time>2026-04-12T04:35:15.001Z</time></trkpt><trkpt lat="14.523130163415765" lon="121.02678395633839"><ele>15.75</ele><time>2026-04-12T04:35:16.001Z</time></trkpt><trkpt lat="14.52303345137785" lon="121.02683562593346"><ele>15.5</ele><time>2026-04-12T04:35:17.001Z</time></trkpt><trkpt lat="14.52292778616546" lon="121.02689211078926"><ele>15.25</ele><time>2026-04-12T04:35:18.001Z</time></trkpt><trkpt lat="14.522807091198137" lon="121.02695663000236"><ele>15.0</ele><time>2026-04-12T04:35:19.001Z</time></trkpt><trkpt lat="14.522695806809258" lon="121.02701611866453"><ele>15.5</ele><time>2026-04-12T04:35:20.001Z</time></trkpt><trkpt lat="14.522577059279627" lon="121.02707959722665"><ele>16.0</ele><time>2026-04-12T04:35:21.001Z</time></trkpt><trkpt lat="14.52245899024758" lon="121.02714844640678"><ele>16.5</ele><time>2026-04-12T04:35:22.001Z</time></trkpt><trkpt lat="14.522337655044197" lon="121.02721824234106"><ele>17.0</ele><time>2026-04-12T04:35:23.001Z</time></trkpt><trkpt lat="14.522213818600484" lon="121.02728947706476"><ele>17.0</ele><time>2026-04-12T04:35:24.001Z</time></trkpt><trkpt lat="14.522088063748908" lon="121.02736181532298"><ele>17.0</ele><time>2026-04-12T04:35:25.001Z</time></trkpt><trkpt lat="14.521962439105417" lon="121.02743441456981"><ele>17.0</ele><time>2026-04-12T04:35:26.001Z</time></trkpt><trkpt lat="14.521837234311356" lon="121.02750697861153"><ele>17.0</ele><time>2026-04-12T04:35:27.001Z</time></trkpt><trkpt lat="14.521710554172953" lon="121.02758039770391"><ele>17.0</ele><time>2026-04-12T04:35:28.001Z</time></trkpt><trkpt lat="14.521585218906214" lon="121.02765389960913"><ele>17.0</ele><time>2026-04-12T04:35:29.001Z</time></trkpt><trkpt lat="14.521458219974255" lon="121.02772929163726"><ele>17.0</ele><time>2026-04-12T04:35:30.001Z</time></trkpt><trkpt lat="14.52133088103047" lon="121.02780488550853"><ele>17.0</ele><time>2026-04-12T04:35:31.001Z</time></trkpt><trkpt lat="14.521202088059805" lon="121.02788360353934"><ele>16.666666666666668</ele><time>2026-04-12T04:35:32.001Z</time></trkpt><trkpt lat="14.52107021338269" lon="121.02796942676424"><ele>16.333333333333332</ele><time>2026-04-12T04:35:33.001Z</time></trkpt><trkpt lat="14.520941354923494" lon="121.02808495009245"><ele>16.0</ele><time>2026-04-12T04:35:34.001Z</time></trkpt><trkpt lat="14.520835467048572" lon="121.02815049068948"><ele>16.0</ele><time>2026-04-12T04:35:35.001Z</time></trkpt><trkpt lat="14.52072188039573" lon="121.02822584592847"><ele>16.0</ele><time>2026-04-12T04:35:36.001Z</time></trkpt><trkpt lat="14.520606721921377" lon="121.02829386379463"><ele>16.0</ele><time>2026-04-12T04:35:37.001Z</time></trkpt><trkpt lat="14.520492452570931" lon="121.02835777882147"><ele>16.0</ele><time>2026-04-12T04:35:38.001Z</time></trkpt><trkpt lat="14.52038399455289" lon="121.02841770268357"><ele>16.400000000000002</ele><time>2026-04-12T04:35:39.001Z</time></trkpt><trkpt lat="14.520284252865697" lon="121.02847459196832"><ele>16.8</ele><time>2026-04-12T04:35:40.001Z</time></trkpt><trkpt lat="14.520194078472603" lon="121.02852472651456"><ele>17.200000000000003</ele><time>2026-04-12T04:35:41Z</time></trkpt><trkpt lat="14.520107975464821" lon="121.02857358010456"><ele>17.6</ele><time>2026-04-12T04:35:42Z</time></trkpt><trkpt lat="14.52002185361675" lon="121.02861575765782"><ele>18.0</ele><time>2026-04-12T04:35:43Z</time></trkpt><trkpt lat="14.519933925209" lon="121.02866290632728"><ele>18.0</ele><time>2026-04-12T04:35:44Z</time></trkpt><trkpt lat="14.519846471234498" lon="121.02870970119008"><ele>18.0</ele><time>2026-04-12T04:35:45Z</time></trkpt><trkpt lat="14.519762348615787" lon="121.02875359403885"><ele>18.0</ele><time>2026-04-12T04:35:46Z</time></trkpt><trkpt lat="14.519671632483291" lon="121.02880512687065"><ele>18.0</ele><time>2026-04-12T04:35:47Z</time></trkpt><trkpt lat="14.519580338603555" lon="121.02885242555355"><ele>18.0</ele><time>2026-04-12T04:35:48Z</time></trkpt><trkpt lat="14.519485648547649" lon="121.02890586364097"><ele>18.2</ele><time>2026-04-12T04:35:49Z</time></trkpt><trkpt lat="14.519393906512658" lon="121.02895208176429"><ele>18.4</ele><time>2026-04-12T04:35:50Z</time></trkpt><trkpt lat="14.51929774887471" lon="121.02900194334468"><ele>18.599999999999998</ele><time>2026-04-12T04:35:51Z</time></trkpt><trkpt lat="14.519204665188017" lon="121.02904987480534"><ele>18.8</ele><time>2026-04-12T04:35:52Z</time></trkpt><trkpt lat="14.519111466553504" lon="121.029099409916"><ele>19.0</ele><time>2026-04-12T04:35:53Z</time></trkpt><trkpt lat="14.519023060611454" lon="121.02914703137547"><ele>19.0</ele><time>2026-04-12T04:35:54Z</time></trkpt><trkpt lat="14.518936656454287" lon="121.02919269298692"><ele>19.0</ele><time>2026-04-12T04:35:55Z</time></trkpt><trkpt lat="14.518848858508882" lon="121.02924031317232"><ele>19.0</ele><time>2026-04-12T04:35:56Z</time></trkpt><trkpt lat="14.518770823998091" lon="121.02927821119397"><ele>19.0</ele><time>2026-04-12T04:35:57Z</time></trkpt><trkpt lat="14.51868938515289" lon="121.02932557546868"><ele>19.0</ele><time>2026-04-12T04:35:58Z</time></trkpt><trkpt lat="14.518603774481461" lon="121.02937252241745"><ele>19.0</ele><time>2026-04-12T04:35:59Z</time></trkpt><trkpt lat="14.51850995148082" lon="121.029428637112"><ele>19.0</ele><time>2026-04-12T04:36:00Z</time></trkpt><trkpt lat="14.518421110798776" lon="121.02947770974654"><ele>19.0</ele><time>2026-04-12T04:36:01Z</time></trkpt><trkpt lat="14.518321364360586" lon="121.02952962292886"><ele>19.0</ele><time>2026-04-12T04:36:02Z</time></trkpt><trkpt lat="14.518226546097797" lon="121.0295793763897"><ele>19.0</ele><time>2026-04-12T04:36:03Z</time></trkpt><trkpt lat="14.518133782756271" lon="121.02962931211106"><ele>19.0</ele><time>2026-04-12T04:36:04Z</time></trkpt><trkpt lat="14.518039613096462" lon="121.02968208899047"><ele>19.0</ele><time>2026-04-12T04:36:05Z</time></trkpt><trkpt lat="14.517943777994844" lon="121.02973203958678"><ele>19.0</ele><time>2026-04-12T04:36:06Z</time></trkpt><trkpt lat="14.517852711518891" lon="121.02978481755045"><ele>19.0</ele><time>2026-04-12T04:36:07Z</time></trkpt><trkpt lat="14.51775875838951" lon="121.02983451489385"><ele>19.0</ele><time>2026-04-12T04:36:08Z</time></trkpt><trkpt lat="14.517662922055946" lon="121.02988449846518"><ele>19.0</ele><time>2026-04-12T04:36:09Z</time></trkpt><trkpt lat="14.51756794879434" lon="121.02993534002371"><ele>19.0</ele><time>2026-04-12T04:36:10Z</time></trkpt><trkpt lat="14.51747061984632" lon="121.02998805993288"><ele>19.0</ele><time>2026-04-12T04:36:11Z</time></trkpt><trkpt lat="14.517372353426675" lon="121.03004032932675"><ele>19.0</ele><time>2026-04-12T04:36:12Z</time></trkpt><trkpt lat="14.517280300117221" lon="121.03009334058257"><ele>19.0</ele><time>2026-04-12T04:36:13Z</time></trkpt><trkpt lat="14.51718973661056" lon="121.0301491976145"><ele>19.0</ele><time>2026-04-12T04:36:14Z</time></trkpt><trkpt lat="14.51709355582339" lon="121.0302044742392"><ele>19.0</ele><time>2026-04-12T04:36:15Z</time></trkpt><trkpt lat="14.517001485444561" lon="121.0302540140813"><ele>19.0</ele><time>2026-04-12T04:36:16Z</time></trkpt><trkpt lat="14.51691251093548" lon="121.03030254909325"><ele>19.0</ele><time>2026-04-12T04:36:17Z</time></trkpt><trkpt lat="14.516826922644785" lon="121.03034702103194"><ele>19.0</ele><time>2026-04-12T04:36:18Z</time></trkpt><trkpt lat="14.516743787256505" lon="121.03039228403865"><ele>19.799999999999997</ele><time>2026-04-12T04:36:19Z</time></trkpt><trkpt lat="14.516656221349297" lon="121.03043781669346"><ele>20.599999999999998</ele><time>2026-04-12T04:36:20Z</time></trkpt><trkpt lat="14.516571893440352" lon="121.03048235255632"><ele>21.4</ele><time>2026-04-12T04:36:21Z</time></trkpt><trkpt lat="14.516485063086662" lon="121.03052605374211"><ele>22.2</ele><time>2026-04-12T04:36:22Z</time></trkpt><trkpt lat="14.51640033056229" lon="121.03057138147763"><ele>23.0</ele><time>2026-04-12T04:36:23Z</time></trkpt><trkpt lat="14.51630899758784" lon="121.03061827101533"><ele>22.5</ele><time>2026-04-12T04:36:24Z</time></trkpt><trkpt lat="14.516215787107384" lon="121.03066661923933"><ele>22.0</ele><time>2026-04-12T04:36:25Z</time></trkpt><trkpt lat="14.516115784931447" lon="121.03071960175768"><ele>21.5</ele><time>2026-04-12T04:36:26Z</time></trkpt><trkpt lat="14.516012683220003" lon="121.03077490061621"><ele>21.0</ele><time>2026-04-12T04:36:27Z</time></trkpt><trkpt lat="14.515899230098825" lon="121.0308339100362"><ele>21.0</ele><time>2026-04-12T04:36:28Z</time></trkpt><trkpt lat="14.515786232194063" lon="121.0308949867148"><ele>21.0</ele><time>2026-04-12T04:36:29Z</time></trkpt><trkpt lat="14.51567236140736" lon="121.03095675805857"><ele>21.0</ele><time>2026-04-12T04:36:30Z</time></trkpt><trkpt lat="14.515561529368908" lon="121.03101401508638"><ele>21.0</ele><time>2026-04-12T04:36:31Z</time></trkpt><trkpt lat="14.515449743305025" lon="121.03107304915154"><ele>21.75</ele><time>2026-04-12T04:36:32Z</time></trkpt><trkpt lat="14.515341668644941" lon="121.03113018679787"><ele>22.5</ele><time>2026-04-12T04:36:33Z</time></trkpt><trkpt lat="14.515242119187432" lon="121.03117717245826"><ele>23.25</ele><time>2026-04-12T04:36:34Z</time></trkpt><trkpt lat="14.515143146320451" lon="121.03122868498143"><ele>24.0</ele><time>2026-04-12T04:36:35Z</time></trkpt><trkpt lat="14.51503591144963" lon="121.03128082322424"><ele>24.0</ele><time>2026-04-12T04:36:36Z</time></trkpt><trkpt lat="14.514931654914466" lon="121.0313352250065"><ele>24.0</ele><time>2026-04-12T04:36:37Z</time></trkpt><trkpt lat="14.514826297159424" lon="121.03138881761203"><ele>24.0</ele><time>2026-04-12T04:36:38Z</time></trkpt><trkpt lat="14.514731720717567" lon="121.03143541339593"><ele>24.0</ele><time>2026-04-12T04:36:39Z</time></trkpt><trkpt lat="14.514637826835429" lon="121.03148405753826"><ele>24.0</ele><time>2026-04-12T04:36:40Z</time></trkpt><trkpt lat="14.514546317466934" lon="121.03153358206157"><ele>24.0</ele><time>2026-04-12T04:36:41Z</time></trkpt><trkpt lat="14.514457469098051" lon="121.03158520508576"><ele>24.0</ele><time>2026-04-12T04:36:42Z</time></trkpt><trkpt lat="14.514363904012532" lon="121.03163662944618"><ele>24.0</ele><time>2026-04-12T04:36:43Z</time></trkpt><trkpt lat="14.514274186018321" lon="121.0316921492186"><ele>24.0</ele><time>2026-04-12T04:36:44Z</time></trkpt><trkpt lat="14.514183638039222" lon="121.03174560514229"><ele>24.0</ele><time>2026-04-12T04:36:45Z</time></trkpt><trkpt lat="14.514099642960375" lon="121.03179955180063"><ele>24.0</ele><time>2026-04-12T04:36:46Z</time></trkpt><trkpt lat="14.514015266101437" lon="121.03186110200434"><ele>24.0</ele><time>2026-04-12T04:36:47Z</time></trkpt><trkpt lat="14.513946546260323" lon="121.03191658559828"><ele>24.0</ele><time>2026-04-12T04:36:48.001Z</time></trkpt><trkpt lat="14.513875896514579" lon="121.03197276901017"><ele>24.0</ele><time>2026-04-12T04:36:49.001Z</time></trkpt><trkpt lat="14.513809299048729" lon="121.03203355958277"><ele>24.0</ele><time>2026-04-12T04:36:50.001Z</time></trkpt><trkpt lat="14.513737437637355" lon="121.03209690824468"><ele>24.0</ele><time>2026-04-12T04:36:51.001Z</time></trkpt><trkpt lat="14.513667507909236" lon="121.03216156251369"><ele>24.0</ele><time>2026-04-12T04:36:52.001Z</time></trkpt><trkpt lat="14.513602234072755" lon="121.03221895478782"><ele>24.0</ele><time>2026-04-12T04:36:53.001Z</time></trkpt><trkpt lat="14.513534013687558" lon="121.03228312194068"><ele>24.0</ele><time>2026-04-12T04:36:54.001Z</time></trkpt><trkpt lat="14.51347208268841" lon="121.03233973548573"><ele>24.0</ele><time>2026-04-12T04:36:55.001Z</time></trkpt><trkpt lat="14.513414489015108" lon="121.03238904481154"><ele>24.0</ele><time>2026-04-12T04:36:56.001Z</time></trkpt><trkpt lat="14.513362166712039" lon="121.03243680304753"><ele>24.333333333333332</ele><time>2026-04-12T04:36:57.001Z</time></trkpt><trkpt lat="14.513292185637454" lon="121.03249459289215"><ele>24.666666666666664</ele><time>2026-04-12T04:36:59.001Z</time></trkpt><trkpt lat="14.513234248486352" lon="121.03252777336688"><ele>25.0</ele><time>2026-04-12T04:37:03.001Z</time></trkpt><trkpt lat="14.513157917093267" lon="121.03257509492626"><ele>25.333333333333332</ele><time>2026-04-12T04:37:07.001Z</time></trkpt><trkpt lat="14.513104173692216" lon="121.03261096693207"><ele>25.666666666666664</ele><time>2026-04-12T04:37:10.001Z</time></trkpt><trkpt lat="14.513042707415282" lon="121.0326496014552"><ele>26.0</ele><time>2026-04-12T04:37:14.001Z</time></trkpt><trkpt lat="14.512977789845023" lon="121.03270191141003"><ele>25.999999999999996</ele><time>2026-04-12T04:37:16.001Z</time></trkpt><trkpt lat="14.512920310317762" lon="121.0327337300774"><ele>26.0</ele><time>2026-04-12T04:37:17.001Z</time></trkpt><trkpt lat="14.512856946811585" lon="121.03277473143697"><ele>26.0</ele><time>2026-04-12T04:37:18.001Z</time></trkpt><trkpt lat="14.51277963118321" lon="121.03281980688574"><ele>26.0</ele><time>2026-04-12T04:37:19.001Z</time></trkpt><trkpt lat="14.512697274554338" lon="121.0328696420271"><ele>25.999999999999996</ele><time>2026-04-12T04:37:20.001Z</time></trkpt><trkpt lat="14.512615107515852" lon="121.03291542856097"><ele>26.0</ele><time>2026-04-12T04:37:21.001Z</time></trkpt><trkpt lat="14.512527516234446" lon="121.03294591711675"><ele>26.166666666666664</ele><time>2026-04-12T04:37:22.001Z</time></trkpt><trkpt lat="14.512435512508285" lon="121.0329828324127"><ele>26.333333333333332</ele><time>2026-04-12T04:37:23.001Z</time></trkpt><trkpt lat="14.512352195032225" lon="121.03303072490758"><ele>26.5</ele><time>2026-04-12T04:37:24.001Z</time></trkpt><trkpt lat="14.512284114137358" lon="121.03307360526718"><ele>26.666666666666664</ele><time>2026-04-12T04:37:25.001Z</time></trkpt><trkpt lat="14.51222199091221" lon="121.03312616476023"><ele>26.833333333333332</ele><time>2026-04-12T04:37:26.001Z</time></trkpt><trkpt lat="14.512140895164475" lon="121.0331727896156"><ele>27.0</ele><time>2026-04-12T04:37:27.001Z</time></trkpt><trkpt lat="14.512053344654747" lon="121.03320945585831"><ele>27.0</ele><time>2026-04-12T04:37:28.001Z</time></trkpt><trkpt lat="14.51196177814303" lon="121.03327027850845"><ele>27.0</ele><time>2026-04-12T04:37:29.001Z</time></trkpt><trkpt lat="14.511858111504528" lon="121.03332870337509"><ele>27.0</ele><time>2026-04-12T04:37:30.001Z</time></trkpt><trkpt lat="14.51174223586156" lon="121.03338375109641"><ele>27.0</ele><time>2026-04-12T04:37:31.001Z</time></trkpt><trkpt lat="14.511617664520164" lon="121.03343436650503"><ele>27.0</ele><time>2026-04-12T04:37:32.001Z</time></trkpt><trkpt lat="14.511506491346948" lon="121.03347997362256"><ele>27.000000000000004</ele><time>2026-04-12T04:37:33.001Z</time></trkpt><trkpt lat="14.51140262878252" lon="121.03351774023649"><ele>27.000000000000004</ele><time>2026-04-12T04:37:34.001Z</time></trkpt><trkpt lat="14.511310635111942" lon="121.03355103717246"><ele>27.0</ele><time>2026-04-12T04:37:35.001Z</time></trkpt><trkpt lat="14.511223348995747" lon="121.03358234190644"><ele>27.0</ele><time>2026-04-12T04:37:36.001Z</time></trkpt><trkpt lat="14.51113254001924" lon="121.03361244895281"><ele>27.0</ele><time>2026-04-12T04:37:37.001Z</time></trkpt><trkpt lat="14.51103915113271" lon="121.03364214439002"><ele>27.000000000000004</ele><time>2026-04-12T04:37:38.001Z</time></trkpt><trkpt lat="14.51093744613238" lon="121.03367899309862"><ele>27.000000000000004</ele><time>2026-04-12T04:37:39.001Z</time></trkpt><trkpt lat="14.510837970438068" lon="121.03371808562297"><ele>27.0</ele><time>2026-04-12T04:37:40.001Z</time></trkpt><trkpt lat="14.510735026890133" lon="121.0337683580264"><ele>27.0</ele><time>2026-04-12T04:37:41.001Z</time></trkpt><trkpt lat="14.510630055627836" lon="121.03382767371356"><ele>27.0</ele><time>2026-04-12T04:37:42.001Z</time></trkpt><trkpt lat="14.51052173214824" lon="121.03389224591263"><ele>27.0</ele><time>2026-04-12T04:37:43.001Z</time></trkpt><trkpt lat="14.510409805001556" lon="121.03395310732292"><ele>27.0</ele><time>2026-04-12T04:37:44.001Z</time></trkpt><trkpt lat="14.510293062048213" lon="121.03401761497608"><ele>27.0</ele><time>2026-04-12T04:37:45.001Z</time></trkpt><trkpt lat="14.510176194737355" lon="121.03407787442755"><ele>26.75</ele><time>2026-04-12T04:37:46.001Z</time></trkpt><trkpt lat="14.510055664494272" lon="121.03414181348828"><ele>26.5</ele><time>2026-04-12T04:37:47Z</time></trkpt><trkpt lat="14.509932267911255" lon="121.034207971172"><ele>26.25</ele><time>2026-04-12T04:37:48Z</time></trkpt><trkpt lat="14.50980888893798" lon="121.03427292410764"><ele>26.0</ele><time>2026-04-12T04:37:49Z</time></trkpt><trkpt lat="14.509682627528356" lon="121.03433803147195"><ele>25.75</ele><time>2026-04-12T04:37:50Z</time></trkpt><trkpt lat="14.50955951506456" lon="121.03440133795081"><ele>25.5</ele><time>2026-04-12T04:37:51Z</time></trkpt><trkpt lat="14.509447245897734" lon="121.03446142431154"><ele>25.25</ele><time>2026-04-12T04:37:52Z</time></trkpt><trkpt lat="14.509342457251925" lon="121.03452272954604"><ele>25.0</ele><time>2026-04-12T04:37:53Z</time></trkpt><trkpt lat="14.509230902899267" lon="121.03459040199047"><ele>25.0</ele><time>2026-04-12T04:37:54Z</time></trkpt><trkpt lat="14.509123616944386" lon="121.03463247884616"><ele>25.0</ele><time>2026-04-12T04:37:55Z</time></trkpt><trkpt lat="14.509018235116901" lon="121.03466108915289"><ele>25.0</ele><time>2026-04-12T04:37:56Z</time></trkpt><trkpt lat="14.508928437022677" lon="121.03468144604929"><ele>25.0</ele><time>2026-04-12T04:37:57Z</time></trkpt><trkpt lat="14.508836511891085" lon="121.03469775309645"><ele>25.0</ele><time>2026-04-12T04:37:58Z</time></trkpt><trkpt lat="14.508747729371366" lon="121.03471368622769"><ele>23.8</ele><time>2026-04-12T04:37:59Z</time></trkpt><trkpt lat="14.508657059041294" lon="121.0347306036034"><ele>22.6</ele><time>2026-04-12T04:38:00Z</time></trkpt><trkpt lat="14.508554779849826" lon="121.0347431564789"><ele>21.4</ele><time>2026-04-12T04:38:01Z</time></trkpt><trkpt lat="14.50843400165061" lon="121.03476541386928"><ele>20.2</ele><time>2026-04-12T04:38:02Z</time></trkpt><trkpt lat="14.50830940064121" lon="121.03479837858498"><ele>19.0</ele><time>2026-04-12T04:38:03Z</time></trkpt><trkpt lat="14.50820105812752" lon="121.03483443464174"><ele>19.0</ele><time>2026-04-12T04:38:04Z</time></trkpt><trkpt lat="14.50810314971" lon="121.03486290799711"><ele>19.0</ele><time>2026-04-12T04:38:05Z</time></trkpt><trkpt lat="14.508038521253782" lon="121.03488201087467"><ele>19.0</ele><time>2026-04-12T04:38:06Z</time></trkpt><trkpt lat="14.50793097873161" lon="121.03495037352486"><ele>19.0</ele><time>2026-04-12T04:38:08Z</time></trkpt><trkpt lat="14.507845814810551" lon="121.03499553523001"><ele>19.0</ele><time>2026-04-12T04:38:09Z</time></trkpt><trkpt lat="14.507741313354789" lon="121.035044859041"><ele>19.5</ele><time>2026-04-12T04:38:10Z</time></trkpt><trkpt lat="14.507633895655335" lon="121.03510614358675"><ele>20.0</ele><time>2026-04-12T04:38:11Z</time></trkpt><trkpt lat="14.50751654318808" lon="121.03517693858511"><ele>20.5</ele><time>2026-04-12T04:38:12Z</time></trkpt><trkpt lat="14.507387044859907" lon="121.0352411180591"><ele>21.0</ele><time>2026-04-12T04:38:13Z</time></trkpt><trkpt lat="14.50725689204918" lon="121.03530847391774"><ele>21.0</ele><time>2026-04-12T04:38:14Z</time></trkpt><trkpt lat="14.507117921544111" lon="121.03538086231552"><ele>21.0</ele><time>2026-04-12T04:38:15Z</time></trkpt><trkpt lat="14.506967227083791" lon="121.0354598184794"><ele>21.0</ele><time>2026-04-12T04:38:16Z</time></trkpt><trkpt lat="14.506817292738864" lon="121.03554288458733"><ele>20.333333333333332</ele><time>2026-04-12T04:38:17Z</time></trkpt><trkpt lat="14.506661911729504" lon="121.03562669791401"><ele>19.666666666666664</ele><time>2026-04-12T04:38:18Z</time></trkpt><trkpt lat="14.506505089253515" lon="121.03570578180268"><ele>19.0</ele><time>2026-04-12T04:38:19Z</time></trkpt><trkpt lat="14.506346702609887" lon="121.03578955048852"><ele>19.666666666666664</ele><time>2026-04-12T04:38:20Z</time></trkpt><trkpt lat="14.506182623621957" lon="121.0358741737295"><ele>20.333333333333332</ele><time>2026-04-12T04:38:21Z</time></trkpt><trkpt lat="14.506022086542517" lon="121.03596305064984"><ele>21.0</ele><time>2026-04-12T04:38:22Z</time></trkpt><trkpt lat="14.505858517756574" lon="121.03605164321097"><ele>21.0</ele><time>2026-04-12T04:38:23Z</time></trkpt><trkpt lat="14.505684540035405" lon="121.03614490506108"><ele>21.0</ele><time>2026-04-12T04:38:24Z</time></trkpt><trkpt lat="14.50550585232001" lon="121.03623769560981"><ele>21.0</ele><time>2026-04-12T04:38:25Z</time></trkpt><trkpt lat="14.505334343089135" lon="121.03632683638816"><ele>20.333333333333332</ele><time>2026-04-12T04:38:26Z</time></trkpt><trkpt lat="14.505161735610164" lon="121.03641595497828"><ele>19.666666666666664</ele><time>2026-04-12T04:38:27Z</time></trkpt><trkpt lat="14.505006537105182" lon="121.03650036286373"><ele>19.0</ele><time>2026-04-12T04:38:28Z</time></trkpt><trkpt lat="14.504852451884902" lon="121.03658619029372"><ele>20.0</ele><time>2026-04-12T04:38:29Z</time></trkpt><trkpt lat="14.504699983361409" lon="121.03667249549709"><ele>21.0</ele><time>2026-04-12T04:38:30Z</time></trkpt><trkpt lat="14.504565783656574" lon="121.03674642513401"><ele>22.0</ele><time>2026-04-12T04:38:31Z</time></trkpt><trkpt lat="14.504430016116933" lon="121.0368184648432"><ele>22.400000000000002</ele><time>2026-04-12T04:38:32Z</time></trkpt><trkpt lat="14.504304391318797" lon="121.03688046140287"><ele>22.8</ele><time>2026-04-12T04:38:33Z</time></trkpt><trkpt lat="14.504201791622398" lon="121.03693329384815"><ele>23.2</ele><time>2026-04-12T04:38:34Z</time></trkpt><trkpt lat="14.504121666084435" lon="121.0369746246784"><ele>23.6</ele><time>2026-04-12T04:38:35Z</time></trkpt><trkpt lat="14.504046938193218" lon="121.03700868982654"><ele>24.0</ele><time>2026-04-12T04:38:36Z</time></trkpt><trkpt lat="14.503977690430704" lon="121.03704113010203"><ele>24.0</ele><time>2026-04-12T04:38:37Z</time></trkpt><trkpt lat="14.503897476373105" lon="121.03706858977176"><ele>24.0</ele><time>2026-04-12T04:38:38Z</time></trkpt><trkpt lat="14.503810601131317" lon="121.03710665067157"><ele>24.0</ele><time>2026-04-12T04:38:39Z</time></trkpt><trkpt lat="14.503711508721697" lon="121.03715728228859"><ele>24.0</ele><time>2026-04-12T04:38:40Z</time></trkpt><trkpt lat="14.503616753497413" lon="121.0372102143551"><ele>24.0</ele><time>2026-04-12T04:38:41Z</time></trkpt><trkpt lat="14.503519330041764" lon="121.03726641356911"><ele>24.0</ele><time>2026-04-12T04:38:42Z</time></trkpt><trkpt lat="14.50342606974194" lon="121.03731547898367"><ele>24.0</ele><time>2026-04-12T04:38:43Z</time></trkpt><trkpt lat="14.503335549646541" lon="121.03736532927256"><ele>24.0</ele><time>2026-04-12T04:38:44Z</time></trkpt><trkpt lat="14.50324374165378" lon="121.03741084588825"><ele>24.0</ele><time>2026-04-12T04:38:45Z</time></trkpt><trkpt lat="14.503154692427659" lon="121.03744996598147"><ele>24.0</ele><time>2026-04-12T04:38:46Z</time></trkpt><trkpt lat="14.503044081803488" lon="121.0375102273107"><ele>24.0</ele><time>2026-04-12T04:38:47Z</time></trkpt><trkpt lat="14.502952033636785" lon="121.03755764475333"><ele>24.0</ele><time>2026-04-12T04:38:48Z</time></trkpt><trkpt lat="14.502860889460258" lon="121.03761202163426"><ele>24.0</ele><time>2026-04-12T04:38:49Z</time></trkpt><trkpt lat="14.502772414827565" lon="121.0376671830259"><ele>24.0</ele><time>2026-04-12T04:38:50Z</time></trkpt><trkpt lat="14.502693608066117" lon="121.03771662357373"><ele>24.0</ele><time>2026-04-12T04:38:51Z</time></trkpt><trkpt lat="14.502621570425605" lon="121.03776577259757"><ele>24.0</ele><time>2026-04-12T04:38:52Z</time></trkpt><trkpt lat="14.502545878064705" lon="121.03780570716394"><ele>24.0</ele><time>2026-04-12T04:38:53Z</time></trkpt><trkpt lat="14.50248106904053" lon="121.03783747073099"><ele>24.0</ele><time>2026-04-12T04:38:54Z</time></trkpt><trkpt lat="14.502365665243149" lon="121.03789674868807"><ele>24.0</ele><time>2026-04-12T04:38:56Z</time></trkpt><trkpt lat="14.502283520817988" lon="121.03794305689219"><ele>24.0</ele><time>2026-04-12T04:38:57Z</time></trkpt><trkpt lat="14.502196821313495" lon="121.03799070013218"><ele>24.0</ele><time>2026-04-12T04:38:58Z</time></trkpt><trkpt lat="14.5021053231993" lon="121.03804093867915"><ele>24.0</ele><time>2026-04-12T04:38:59Z</time></trkpt><trkpt lat="14.502015352871997" lon="121.03809444269288"><ele>24.0</ele><time>2026-04-12T04:39:00Z</time></trkpt><trkpt lat="14.501910826855326" lon="121.03815486045137"><ele>24.0</ele><time>2026-04-12T04:39:01Z</time></trkpt><trkpt lat="14.501796269080254" lon="121.03821491019892"><ele>24.25</ele><time>2026-04-12T04:39:02Z</time></trkpt><trkpt lat="14.501676609697858" lon="121.03825583725255"><ele>24.5</ele><time>2026-04-12T04:39:03Z</time></trkpt><trkpt lat="14.501561422136522" lon="121.03831183302097"><ele>24.75</ele><time>2026-04-12T04:39:04Z</time></trkpt><trkpt lat="14.50144508002651" lon="121.0383706566373"><ele>25.0</ele><time>2026-04-12T04:39:05Z</time></trkpt><trkpt lat="14.501324848143085" lon="121.03842734571226"><ele>25.5</ele><time>2026-04-12T04:39:06Z</time></trkpt><trkpt lat="14.501203337763535" lon="121.03848463760009"><ele>26.0</ele><time>2026-04-12T04:39:07Z</time></trkpt><trkpt lat="14.50108090857194" lon="121.0385484313565"><ele>26.5</ele><time>2026-04-12T04:39:08Z</time></trkpt><trkpt lat="14.500961864017338" lon="121.03861398676416"><ele>27.0</ele><time>2026-04-12T04:39:09Z</time></trkpt><trkpt lat="14.500838908978286" lon="121.03868169558226"><ele>27.0</ele><time>2026-04-12T04:39:10Z</time></trkpt><trkpt lat="14.500711174779061" lon="121.03875479163962"><ele>27.0</ele><time>2026-04-12T04:39:11Z</time></trkpt><trkpt lat="14.500584687238296" lon="121.0388274193557"><ele>27.0</ele><time>2026-04-12T04:39:12Z</time></trkpt><trkpt lat="14.50045566951921" lon="121.03890131907464"><ele>27.0</ele><time>2026-04-12T04:39:13Z</time></trkpt><trkpt lat="14.50031804531148" lon="121.03897621354429"><ele>26.666666666666664</ele><time>2026-04-12T04:39:14Z</time></trkpt><trkpt lat="14.500181009905473" lon="121.03905171896018"><ele>26.333333333333332</ele><time>2026-04-12T04:39:15Z</time></trkpt><trkpt lat="14.500035982944468" lon="121.03913162792222"><ele>26.0</ele><time>2026-04-12T04:39:16Z</time></trkpt><trkpt lat="14.499886710725916" lon="121.03921204153046"><ele>25.666666666666664</ele><time>2026-04-12T04:39:17Z</time></trkpt><trkpt lat="14.499734255277406" lon="121.03929439320133"><ele>25.333333333333336</ele><time>2026-04-12T04:39:18Z</time></trkpt><trkpt lat="14.499579337908349" lon="121.03937765918549"><ele>25.0</ele><time>2026-04-12T04:39:19Z</time></trkpt><trkpt lat="14.499421982337719" lon="121.03946223566072"><ele>26.0</ele><time>2026-04-12T04:39:20Z</time></trkpt><trkpt lat="14.499266429196453" lon="121.03954584334194"><ele>27.0</ele><time>2026-04-12T04:39:21Z</time></trkpt><trkpt lat="14.499108107544666" lon="121.03963093907693"><ele>28.0</ele><time>2026-04-12T04:39:22Z</time></trkpt><trkpt lat="14.498948446760698" lon="121.03971528716481"><ele>28.0</ele><time>2026-04-12T04:39:23Z</time></trkpt><trkpt lat="14.49878770084098" lon="121.0397990173151"><ele>28.0</ele><time>2026-04-12T04:39:24Z</time></trkpt><trkpt lat="14.498626827740962" lon="121.03988281370975"><ele>28.0</ele><time>2026-04-12T04:39:25Z</time></trkpt><trkpt lat="14.4984680604249" lon="121.03997365610113"><ele>29.666666666666668</ele><time>2026-04-12T04:39:26Z</time></trkpt><trkpt lat="14.498307639783654" lon="121.04006395846486"><ele>31.333333333333336</ele><time>2026-04-12T04:39:27Z</time></trkpt><trkpt lat="14.498146116198429" lon="121.04015181022906"><ele>33.0</ele><time>2026-04-12T04:39:28Z</time></trkpt><trkpt lat="14.497982163689773" lon="121.04024098338516"><ele>32.666666666666664</ele><time>2026-04-12T04:39:29.001Z</time></trkpt><trkpt lat="14.497814816039645" lon="121.04033200281326"><ele>32.33333333333333</ele><time>2026-04-12T04:39:30.001Z</time></trkpt><trkpt lat="14.497648944207919" lon="121.04042307054928"><ele>32.0</ele><time>2026-04-12T04:39:31.001Z</time></trkpt><trkpt lat="14.49748013863432" lon="121.04051382017818"><ele>32.0</ele><time>2026-04-12T04:39:32.001Z</time></trkpt><trkpt lat="14.49730690606969" lon="121.04060559312487"><ele>32.0</ele><time>2026-04-12T04:39:33.001Z</time></trkpt><trkpt lat="14.497131414441345" lon="121.04069657319882"><ele>32.0</ele><time>2026-04-12T04:39:34.001Z</time></trkpt><trkpt lat="14.496949934258334" lon="121.04079236568131"><ele>31.333333333333332</ele><time>2026-04-12T04:39:35.001Z</time></trkpt><trkpt lat="14.496772201604335" lon="121.04089066057952"><ele>30.666666666666664</ele><time>2026-04-12T04:39:36.001Z</time></trkpt><trkpt lat="14.496592807830075" lon="121.04098987415576"><ele>30.0</ele><time>2026-04-12T04:39:37.001Z</time></trkpt><trkpt lat="14.496419681458248" lon="121.04108562155618"><ele>30.0</ele><time>2026-04-12T04:39:38.001Z</time></trkpt><trkpt lat="14.496257204669885" lon="121.04117392156137"><ele>30.0</ele><time>2026-04-12T04:39:39.001Z</time></trkpt><trkpt lat="14.496103617978482" lon="121.04125644977132"><ele>30.0</ele><time>2026-04-12T04:39:40.001Z</time></trkpt><trkpt lat="14.495960048961548" lon="121.04133359507576"><ele>29.666666666666664</ele><time>2026-04-12T04:39:41.001Z</time></trkpt><trkpt lat="14.495824894285173" lon="121.04140732726337"><ele>29.333333333333332</ele><time>2026-04-12T04:39:42.001Z</time></trkpt><trkpt lat="14.495693205233719" lon="121.04147936259342"><ele>29.0</ele><time>2026-04-12T04:39:43.001Z</time></trkpt><trkpt lat="14.495560340330654" lon="121.04154843572273"><ele>29.0</ele><time>2026-04-12T04:39:44.001Z</time></trkpt><trkpt lat="14.495430279339686" lon="121.04161800426616"><ele>29.0</ele><time>2026-04-12T04:39:45.001Z</time></trkpt><trkpt lat="14.495302626029936" lon="121.04168628502151"><ele>29.0</ele><time>2026-04-12T04:39:46.001Z</time></trkpt><trkpt lat="14.495176619514409" lon="121.0417551865479"><ele>29.0</ele><time>2026-04-12T04:39:47.001Z</time></trkpt><trkpt lat="14.495058436331911" lon="121.04181692117562"><ele>28.75</ele><time>2026-04-12T04:39:48.001Z</time></trkpt><trkpt lat="14.494936107706543" lon="121.0418808211925"><ele>28.5</ele><time>2026-04-12T04:39:49.001Z</time></trkpt><trkpt lat="14.494820383834773" lon="121.04194127113364"><ele>28.25</ele><time>2026-04-12T04:39:50.001Z</time></trkpt><trkpt lat="14.494712692365209" lon="121.0419975252613"><ele>28.0</ele><time>2026-04-12T04:39:51.001Z</time></trkpt><trkpt lat="14.494615636045138" lon="121.04204822397443"><ele>27.75</ele><time>2026-04-12T04:39:52.001Z</time></trkpt><trkpt lat="14.494523218190778" lon="121.0420950355345"><ele>27.5</ele><time>2026-04-12T04:39:53Z</time></trkpt><trkpt lat="14.494424113649096" lon="121.04214935393954"><ele>27.25</ele><time>2026-04-12T04:39:54Z</time></trkpt><trkpt lat="14.494325305673371" lon="121.04220262295019"><ele>27.0</ele><time>2026-04-12T04:39:55Z</time></trkpt><trkpt lat="14.494216045021538" lon="121.04226142789437"><ele>27.0</ele><time>2026-04-12T04:39:56Z</time></trkpt><trkpt lat="14.494100545782684" lon="121.04232201042863"><ele>27.0</ele><time>2026-04-12T04:39:57Z</time></trkpt><trkpt lat="14.493981443399942" lon="121.04238233113729"><ele>27.0</ele><time>2026-04-12T04:39:58Z</time></trkpt><trkpt lat="14.493856890279497" lon="121.04245080778918"><ele>27.0</ele><time>2026-04-12T04:39:59Z</time></trkpt><trkpt lat="14.493737004633171" lon="121.04251807573078"><ele>28.0</ele><time>2026-04-12T04:40:00Z</time></trkpt><trkpt lat="14.493618176988608" lon="121.0425840455609"><ele>29.0</ele><time>2026-04-12T04:40:01Z</time></trkpt><trkpt lat="14.493507177663249" lon="121.04264794018654"><ele>30.0</ele><time>2026-04-12T04:40:02Z</time></trkpt><trkpt lat="14.493413131126342" lon="121.04269818952226"><ele>31.0</ele><time>2026-04-12T04:40:03Z</time></trkpt><trkpt lat="14.493320562130043" lon="121.0427467250097"><ele>31.0</ele><time>2026-04-12T04:40:04Z</time></trkpt><trkpt lat="14.493218473684864" lon="121.04280020126613"><ele>31.0</ele><time>2026-04-12T04:40:05Z</time></trkpt><trkpt lat="14.493111220987332" lon="121.04285638266815"><ele>31.0</ele><time>2026-04-12T04:40:06Z</time></trkpt><trkpt lat="14.492999365242985" lon="121.04291497559345"><ele>31.0</ele><time>2026-04-12T04:40:07Z</time></trkpt><trkpt lat="14.492893598220872" lon="121.04297100004581"><ele>32.5</ele><time>2026-04-12T04:40:08Z</time></trkpt><trkpt lat="14.492787431608992" lon="121.04302704727007"><ele>34.0</ele><time>2026-04-12T04:40:09Z</time></trkpt><trkpt lat="14.4926789999294" lon="121.04308908112078"><ele>35.5</ele><time>2026-04-12T04:40:10Z</time></trkpt><trkpt lat="14.492564748005897" lon="121.04315361872708"><ele>37.0</ele><time>2026-04-12T04:40:11Z</time></trkpt><trkpt lat="14.492443233910459" lon="121.04321957507892"><ele>37.0</ele><time>2026-04-12T04:40:12Z</time></trkpt><trkpt lat="14.492315700268515" lon="121.043287800692"><ele>37.0</ele><time>2026-04-12T04:40:13Z</time></trkpt><trkpt lat="14.492182058155043" lon="121.04335682028918"><ele>37.0</ele><time>2026-04-12T04:40:14Z</time></trkpt><trkpt lat="14.492043150290728" lon="121.04342855937078"><ele>37.0</ele><time>2026-04-12T04:40:15Z</time></trkpt><trkpt lat="14.491902797041757" lon="121.04350104492963"><ele>36.333333333333336</ele><time>2026-04-12T04:40:16Z</time></trkpt><trkpt lat="14.491759692610641" lon="121.04357498968218"><ele>35.666666666666664</ele><time>2026-04-12T04:40:17Z</time></trkpt><trkpt lat="14.491612812306668" lon="121.04365313740627"><ele>35.0</ele><time>2026-04-12T04:40:18Z</time></trkpt><trkpt lat="14.491464412435082" lon="121.04373448337986"><ele>35.0</ele><time>2026-04-12T04:40:19Z</time></trkpt><trkpt lat="14.491316031617913" lon="121.04381581892511"><ele>35.0</ele><time>2026-04-12T04:40:20Z</time></trkpt><trkpt lat="14.491168363364936" lon="121.04389676387356"><ele>35.0</ele><time>2026-04-12T04:40:21Z</time></trkpt><trkpt lat="14.491025478163104" lon="121.04397508696857"><ele>35.33333333333333</ele><time>2026-04-12T04:40:22Z</time></trkpt><trkpt lat="14.490880363179446" lon="121.04405463233068"><ele>35.666666666666664</ele><time>2026-04-12T04:40:23Z</time></trkpt><trkpt lat="14.490743701950327" lon="121.0441295036649"><ele>36.0</ele><time>2026-04-12T04:40:24Z</time></trkpt><trkpt lat="14.490615251455209" lon="121.04419977039326"><ele>36.25</ele><time>2026-04-12T04:40:25Z</time></trkpt><trkpt lat="14.490498612963181" lon="121.04426380930371"><ele>36.5</ele><time>2026-04-12T04:40:26Z</time></trkpt><trkpt lat="14.49038795345133" lon="121.04432456554717"><ele>36.75</ele><time>2026-04-12T04:40:27Z</time></trkpt><trkpt lat="14.490287029581228" lon="121.04437994089793"><ele>37.0</ele><time>2026-04-12T04:40:28Z</time></trkpt><trkpt lat="14.490188566761185" lon="121.04443353352518"><ele>37.0</ele><time>2026-04-12T04:40:29Z</time></trkpt><trkpt lat="14.490094123265683" lon="121.04448493843356"><ele>37.0</ele><time>2026-04-12T04:40:30Z</time></trkpt><trkpt lat="14.490008199347201" lon="121.04453170620216"><ele>37.0</ele><time>2026-04-12T04:40:31Z</time></trkpt><trkpt lat="14.4899257540954" lon="121.04457658057615"><ele>37.0</ele><time>2026-04-12T04:40:32Z</time></trkpt><trkpt lat="14.489848856556154" lon="121.04461843534605"><ele>37.0</ele><time>2026-04-12T04:40:33Z</time></trkpt><trkpt lat="14.489777432542306" lon="121.04465731093377"><ele>37.0</ele><time>2026-04-12T04:40:34Z</time></trkpt><trkpt lat="14.489715453833806" lon="121.0446910455102"><ele>37.0</ele><time>2026-04-12T04:40:35Z</time></trkpt><trkpt lat="14.489658301056815" lon="121.04473337369932"><ele>37.0</ele><time>2026-04-12T04:40:36Z</time></trkpt><trkpt lat="14.489579120629681" lon="121.04483231652223"><ele>37.0</ele><time>2026-04-12T04:40:38Z</time></trkpt><trkpt lat="14.4895510874258" lon="121.04489100624173"><ele>37.0</ele><time>2026-04-12T04:40:39Z</time></trkpt><trkpt lat="14.489542697099841" lon="121.04495738022244"><ele>37.0</ele><time>2026-04-12T04:40:40Z</time></trkpt><trkpt lat="14.489539269724046" lon="121.04503928499511"><ele>36.5</ele><time>2026-04-12T04:40:41Z</time></trkpt><trkpt lat="14.489536689430194" lon="121.04512283429547"><ele>36.0</ele><time>2026-04-12T04:40:42Z</time></trkpt><trkpt lat="14.489524585751493" lon="121.04521549048162"><ele>35.5</ele><time>2026-04-12T04:40:43Z</time></trkpt><trkpt lat="14.489510550430968" lon="121.04530310849013"><ele>35.0</ele><time>2026-04-12T04:40:44Z</time></trkpt><trkpt lat="14.489501635943974" lon="121.04539690422288"><ele>34.5</ele><time>2026-04-12T04:40:45Z</time></trkpt><trkpt lat="14.489489743884866" lon="121.04549332570924"><ele>34.0</ele><time>2026-04-12T04:40:46Z</time></trkpt><trkpt lat="14.489475703328235" lon="121.04559926643952"><ele>34.0</ele><time>2026-04-12T04:40:47Z</time></trkpt><trkpt lat="14.489463328474383" lon="121.04570215485289"><ele>34.0</ele><time>2026-04-12T04:40:48Z</time></trkpt><trkpt lat="14.489449423900748" lon="121.04581172087194"><ele>34.0</ele><time>2026-04-12T04:40:49Z</time></trkpt><trkpt lat="14.489438690094739" lon="121.04591779565358"><ele>34.0</ele><time>2026-04-12T04:40:50Z</time></trkpt><trkpt lat="14.489427892657563" lon="121.04601939723345"><ele>34.0</ele><time>2026-04-12T04:40:51Z</time></trkpt><trkpt lat="14.489413770056856" lon="121.04612367221455"><ele>34.4</ele><time>2026-04-12T04:40:52Z</time></trkpt><trkpt lat="14.489399205444414" lon="121.0462066119925"><ele>34.8</ele><time>2026-04-12T04:40:53Z</time></trkpt><trkpt lat="14.489390169477769" lon="121.04628686307974"><ele>35.2</ele><time>2026-04-12T04:40:54Z</time></trkpt><trkpt lat="14.489380324105076" lon="121.0463537891074"><ele>35.6</ele><time>2026-04-12T04:40:55Z</time></trkpt><trkpt lat="14.489363143294938" lon="121.04647092339532"><ele>36.0</ele><time>2026-04-12T04:40:57Z</time></trkpt><trkpt lat="14.489348829676883" lon="121.04658614705374"><ele>36.2</ele><time>2026-04-12T04:40:59Z</time></trkpt><trkpt lat="14.489331954481127" lon="121.0467085946313"><ele>36.400000000000006</ele><time>2026-04-12T04:41:01Z</time></trkpt><trkpt lat="14.489311239266014" lon="121.04677150083191"><ele>36.6</ele><time>2026-04-12T04:41:02Z</time></trkpt><trkpt lat="14.489260463019306" lon="121.04686394819443"><ele>36.800000000000004</ele><time>2026-04-12T04:41:04Z</time></trkpt><trkpt lat="14.489204617996558" lon="121.04692821181457"><ele>37.0</ele><time>2026-04-12T04:41:06Z</time></trkpt><trkpt lat="14.489136588213702" lon="121.04697347901481"><ele>37.0</ele><time>2026-04-12T04:41:09Z</time></trkpt><trkpt lat="14.489062254112106" lon="121.04700133456382"><ele>37.0</ele><time>2026-04-12T04:41:11Z</time></trkpt><trkpt lat="14.488962830180101" lon="121.04702071977144"><ele>37.0</ele><time>2026-04-12T04:41:13Z</time></trkpt><trkpt lat="14.488836621518699" lon="121.04700527744102"><ele>37.0</ele><time>2026-04-12T04:41:15Z</time></trkpt><trkpt lat="14.488762031146138" lon="121.04698781439805"><ele>37.0</ele><time>2026-04-12T04:41:16Z</time></trkpt><trkpt lat="14.48868322685309" lon="121.0469653710989"><ele>37.333333333333336</ele><time>2026-04-12T04:41:17Z</time></trkpt><trkpt lat="14.488601957315971" lon="121.04694272953968"><ele>37.66666666666667</ele><time>2026-04-12T04:41:18Z</time></trkpt><trkpt lat="14.48851413371823" lon="121.04691707546743"><ele>38.0</ele><time>2026-04-12T04:41:19Z</time></trkpt><trkpt lat="14.488437078850838" lon="121.046896524454"><ele>38.333333333333336</ele><time>2026-04-12T04:41:20Z</time></trkpt><trkpt lat="14.488359706594613" lon="121.04687539692827"><ele>38.666666666666664</ele><time>2026-04-12T04:41:21Z</time></trkpt><trkpt lat="14.48828109634171" lon="121.04685447911655"><ele>39.0</ele><time>2026-04-12T04:41:22Z</time></trkpt><trkpt lat="14.488210034343895" lon="121.04683220607122"><ele>39.0</ele><time>2026-04-12T04:41:23Z</time></trkpt><trkpt lat="14.4881359443878" lon="121.04680988563291"><ele>39.0</ele><time>2026-04-12T04:41:24Z</time></trkpt><trkpt lat="14.488060528722391" lon="121.04679382256774"><ele>39.0</ele><time>2026-04-12T04:41:25Z</time></trkpt><trkpt lat="14.487978307523191" lon="121.04677348742682"><ele>39.0</ele><time>2026-04-12T04:41:26Z</time></trkpt><trkpt lat="14.487825337911511" lon="121.04673363859087"><ele>39.0</ele><time>2026-04-12T04:41:28Z</time></trkpt><trkpt lat="14.487745546352008" lon="121.04671646211912"><ele>38.833333333333336</ele><time>2026-04-12T04:41:29Z</time></trkpt><trkpt lat="14.487674344301418" lon="121.04669648274641"><ele>38.666666666666664</ele><time>2026-04-12T04:41:30Z</time></trkpt><trkpt lat="14.487609025470748" lon="121.04667322379714"><ele>38.5</ele><time>2026-04-12T04:41:31Z</time></trkpt><trkpt lat="14.48751500155706" lon="121.04660714288003"><ele>38.33333333333333</ele><time>2026-04-12T04:41:33Z</time></trkpt><trkpt lat="14.487483485495284" lon="121.04654563783454"><ele>38.166666666666664</ele><time>2026-04-12T04:41:34Z</time></trkpt><trkpt lat="14.487471644007076" lon="121.046457288432"><ele>38.0</ele><time>2026-04-12T04:41:35Z</time></trkpt><trkpt lat="14.487424164760727" lon="121.04636821729704"><ele>37.8</ele><time>2026-04-12T04:41:36Z</time></trkpt><trkpt lat="14.487390278107128" lon="121.0462670564116"><ele>37.599999999999994</ele><time>2026-04-12T04:41:37Z</time></trkpt><trkpt lat="14.487353952742069" lon="121.04616347370377"><ele>37.400000000000006</ele><time>2026-04-12T04:41:38Z</time></trkpt><trkpt lat="14.487318429298865" lon="121.04606325110367"><ele>37.2</ele><time>2026-04-12T04:41:39Z</time></trkpt><trkpt lat="14.487288067040122" lon="121.04597439793096"><ele>37.0</ele><time>2026-04-12T04:41:40Z</time></trkpt><trkpt lat="14.48725590253301" lon="121.04589686330023"><ele>37.0</ele><time>2026-04-12T04:41:41Z</time></trkpt><trkpt lat="14.48722459276944" lon="121.04582445607289"><ele>37.0</ele><time>2026-04-12T04:41:42Z</time></trkpt><trkpt lat="14.48719834142324" lon="121.04575992870274"><ele>37.0</ele><time>2026-04-12T04:41:43Z</time></trkpt><trkpt lat="14.487155008736801" lon="121.04565269175903"><ele>37.0</ele><time>2026-04-12T04:41:45.001Z</time></trkpt><trkpt lat="14.487128523389499" lon="121.0455539329949"><ele>37.0</ele><time>2026-04-12T04:41:47.001Z</time></trkpt><trkpt lat="14.486979709308809" lon="121.04553226232419"><ele>36.5</ele><time>2026-04-12T04:41:48.001Z</time></trkpt><trkpt lat="14.486904352938748" lon="121.04552534970303"><ele>36.0</ele><time>2026-04-12T04:41:49.001Z</time></trkpt><trkpt lat="14.486826515388527" lon="121.04552421978202"><ele>35.5</ele><time>2026-04-12T04:41:50.001Z</time></trkpt><trkpt lat="14.486745600110927" lon="121.04552188328444"><ele>35.0</ele><time>2026-04-12T04:41:51.001Z</time></trkpt><trkpt lat="14.486680544815464" lon="121.04552059458646"><ele>34.5</ele><time>2026-04-12T04:41:52.001Z</time></trkpt><trkpt lat="14.486556965374506" lon="121.04551480432723"><ele>34.0</ele><time>2026-04-12T04:41:54.001Z</time></trkpt><trkpt lat="14.486482384334636" lon="121.04550922743607"><ele>34.0</ele><time>2026-04-12T04:41:55.001Z</time></trkpt><trkpt lat="14.486394716589793" lon="121.04549870967853"><ele>34.0</ele><time>2026-04-12T04:41:56.001Z</time></trkpt><trkpt lat="14.486302781336962" lon="121.04548911940437"><ele>34.0</ele><time>2026-04-12T04:41:57.001Z</time></trkpt><trkpt lat="14.486202859914988" lon="121.0454786960646"><ele>34.0</ele><time>2026-04-12T04:41:58.001Z</time></trkpt><trkpt lat="14.486087781139222" lon="121.0454630273503"><ele>34.0</ele><time>2026-04-12T04:41:59Z</time></trkpt><trkpt lat="14.485976742982855" lon="121.04544803832076"><ele>34.25</ele><time>2026-04-12T04:42:00Z</time></trkpt><trkpt lat="14.485860861608568" lon="121.04543239549727"><ele>34.5</ele><time>2026-04-12T04:42:01Z</time></trkpt><trkpt lat="14.485743440828772" lon="121.04541710909052"><ele>34.75</ele><time>2026-04-12T04:42:02Z</time></trkpt><trkpt lat="14.485629336796986" lon="121.04540547633795"><ele>35.0</ele><time>2026-04-12T04:42:03Z</time></trkpt><trkpt lat="14.485511714289698" lon="121.04539348487813"><ele>33.75</ele><time>2026-04-12T04:42:04Z</time></trkpt><trkpt lat="14.48538615930007" lon="121.0453806847142"><ele>32.5</ele><time>2026-04-12T04:42:05Z</time></trkpt><trkpt lat="14.485269230367944" lon="121.04536852535037"><ele>31.25</ele><time>2026-04-12T04:42:06Z</time></trkpt><trkpt lat="14.485142465499509" lon="121.04535105707274"><ele>30.0</ele><time>2026-04-12T04:42:07Z</time></trkpt><trkpt lat="14.485014606261906" lon="121.04533343800159"><ele>30.0</ele><time>2026-04-12T04:42:08Z</time></trkpt><trkpt lat="14.484884091114612" lon="121.04531762096151"><ele>30.0</ele><time>2026-04-12T04:42:09Z</time></trkpt><trkpt lat="14.484754086764514" lon="121.04530927843537"><ele>30.0</ele><time>2026-04-12T04:42:10Z</time></trkpt><trkpt lat="14.484628278959507" lon="121.04530081758058"><ele>30.0</ele><time>2026-04-12T04:42:11Z</time></trkpt><trkpt lat="14.484493504688437" lon="121.04529163416377"><ele>30.25</ele><time>2026-04-12T04:42:12Z</time></trkpt><trkpt lat="14.484360616599153" lon="121.0452975556807"><ele>30.5</ele><time>2026-04-12T04:42:13Z</time></trkpt><trkpt lat="14.484229529286338" lon="121.04529813972492"><ele>30.75</ele><time>2026-04-12T04:42:14Z</time></trkpt><trkpt lat="14.484100001225606" lon="121.04529871682202"><ele>31.0</ele><time>2026-04-12T04:42:15Z</time></trkpt><trkpt lat="14.483974619829633" lon="121.04529927544435"><ele>31.0</ele><time>2026-04-12T04:42:16Z</time></trkpt><trkpt lat="14.483854735350636" lon="121.04529980957476"><ele>31.0</ele><time>2026-04-12T04:42:17Z</time></trkpt><trkpt lat="14.483731212203914" lon="121.04530035991799"><ele>31.0</ele><time>2026-04-12T04:42:18Z</time></trkpt><trkpt lat="14.483609116473016" lon="121.04530090426934"><ele>31.0</ele><time>2026-04-12T04:42:19Z</time></trkpt><trkpt lat="14.483485792441304" lon="121.04530145372584"><ele>31.25</ele><time>2026-04-12T04:42:20Z</time></trkpt><trkpt lat="14.48337152039207" lon="121.0453019628504"><ele>31.5</ele><time>2026-04-12T04:42:21Z</time></trkpt><trkpt lat="14.483254680881243" lon="121.04530248341503"><ele>31.75</ele><time>2026-04-12T04:42:22Z</time></trkpt><trkpt lat="14.483145046126477" lon="121.04530297187938"><ele>32.0</ele><time>2026-04-12T04:42:23Z</time></trkpt><trkpt lat="14.483033882883223" lon="121.04530346715168"><ele>32.2</ele><time>2026-04-12T04:42:24Z</time></trkpt><trkpt lat="14.482918277718024" lon="121.0453051855"><ele>32.400000000000006</ele><time>2026-04-12T04:42:25Z</time></trkpt><trkpt lat="14.482803283548844" lon="121.04530597396204"><ele>32.599999999999994</ele><time>2026-04-12T04:42:26Z</time></trkpt><trkpt lat="14.482684210400526" lon="121.04530603936912"><ele>32.8</ele><time>2026-04-12T04:42:27Z</time></trkpt><trkpt lat="14.482593377227523" lon="121.04530680892965"><ele>33.0</ele><time>2026-04-12T04:42:28Z</time></trkpt><trkpt lat="14.482472412437913" lon="121.04530754555883"><ele>33.0</ele><time>2026-04-12T04:42:29Z</time></trkpt><trkpt lat="14.482359109712364" lon="121.04530783251273"><ele>33.0</ele><time>2026-04-12T04:42:30Z</time></trkpt><trkpt lat="14.482244735465137" lon="121.04530817637635"><ele>33.0</ele><time>2026-04-12T04:42:31Z</time></trkpt><trkpt lat="14.482130896841097" lon="121.04530851862951"><ele>33.0</ele><time>2026-04-12T04:42:32Z</time></trkpt><trkpt lat="14.482027607090489" lon="121.04530939963406"><ele>33.0</ele><time>2026-04-12T04:42:33Z</time></trkpt><trkpt lat="14.481933913721756" lon="121.04531148169038"><ele>33.0</ele><time>2026-04-12T04:42:34Z</time></trkpt><trkpt lat="14.481849043653764" lon="121.04531193445504"><ele>33.0</ele><time>2026-04-12T04:42:35Z</time></trkpt><trkpt lat="14.481774374361198" lon="121.04531287874391"><ele>33.0</ele><time>2026-04-12T04:42:36Z</time></trkpt><trkpt lat="14.48171032293515" lon="121.04531368875557"><ele>33.0</ele><time>2026-04-12T04:42:37Z</time></trkpt><trkpt lat="14.481642149343624" lon="121.04531455089754"><ele>33.0</ele><time>2026-04-12T04:42:39Z</time></trkpt><trkpt lat="14.481575390732605" lon="121.04531539514552"><ele>33.0</ele><time>2026-04-12T04:42:42Z</time></trkpt><trkpt lat="14.481480644770599" lon="121.04531659333038"><ele>33.0</ele><time>2026-04-12T04:42:46Z</time></trkpt><trkpt lat="14.481388393917461" lon="121.04531832066901"><ele>33.0</ele><time>2026-04-12T04:42:48Z</time></trkpt><trkpt lat="14.481282441627334" lon="121.04532039816493"><ele>33.0</ele><time>2026-04-12T04:42:50Z</time></trkpt><trkpt lat="14.481215488437826" lon="121.04532178528987"><ele>33.0</ele><time>2026-04-12T04:42:51Z</time></trkpt><trkpt lat="14.481134202761522" lon="121.04532351555697"><ele>33.0</ele><time>2026-04-12T04:42:52Z</time></trkpt><trkpt lat="14.481049049490625" lon="121.04532532815061"><ele>33.0</ele><time>2026-04-12T04:42:53Z</time></trkpt><trkpt lat="14.480957791020344" lon="121.04532727069875"><ele>33.0</ele><time>2026-04-12T04:42:54Z</time></trkpt><trkpt lat="14.480855813991738" lon="121.0453294414066"><ele>33.0</ele><time>2026-04-12T04:42:55Z</time></trkpt><trkpt lat="14.480748989554272" lon="121.0453305978827"><ele>33.0</ele><time>2026-04-12T04:42:56Z</time></trkpt><trkpt lat="14.480632994716968" lon="121.04533119650637"><ele>33.0</ele><time>2026-04-12T04:42:57Z</time></trkpt><trkpt lat="14.48051517636729" lon="121.04533180454163"><ele>33.0</ele><time>2026-04-12T04:42:58Z</time></trkpt><trkpt lat="14.480394637839542" lon="121.0453278365279"><ele>33.0</ele><time>2026-04-12T04:42:59Z</time></trkpt><trkpt lat="14.480272410964176" lon="121.0453282847514"><ele>33.0</ele><time>2026-04-12T04:43:00Z</time></trkpt><trkpt lat="14.480148773782465" lon="121.04532873814632"><ele>33.0</ele><time>2026-04-12T04:43:01Z</time></trkpt><trkpt lat="14.480029340851885" lon="121.04532706857691"><ele>33.0</ele><time>2026-04-12T04:43:02Z</time></trkpt><trkpt lat="14.479919051819069" lon="121.04532494610694"><ele>33.0</ele><time>2026-04-12T04:43:03Z</time></trkpt><trkpt lat="14.47981398485577" lon="121.04532229207103"><ele>33.0</ele><time>2026-04-12T04:43:04Z</time></trkpt><trkpt lat="14.479701634493784" lon="121.04532020853735"><ele>33.0</ele><time>2026-04-12T04:43:05Z</time></trkpt><trkpt lat="14.479585893606462" lon="121.04532160697967"><ele>33.0</ele><time>2026-04-12T04:43:06Z</time></trkpt><trkpt lat="14.479474113131497" lon="121.04538499303787"><ele>33.4</ele><time>2026-04-12T04:43:07Z</time></trkpt><trkpt lat="14.479365432181003" lon="121.04538477033009"><ele>33.8</ele><time>2026-04-12T04:43:08Z</time></trkpt><trkpt lat="14.479257492088983" lon="121.04538539155809"><ele>34.2</ele><time>2026-04-12T04:43:09Z</time></trkpt><trkpt lat="14.479147778851537" lon="121.0453827402928"><ele>34.6</ele><time>2026-04-12T04:43:10Z</time></trkpt><trkpt lat="14.479038273330865" lon="121.04538657384181"><ele>35.0</ele><time>2026-04-12T04:43:11Z</time></trkpt><trkpt lat="14.478927005812956" lon="121.04538704497122"><ele>35.0</ele><time>2026-04-12T04:43:12Z</time></trkpt><trkpt lat="14.478817181726555" lon="121.04538653306463"><ele>35.0</ele><time>2026-04-12T04:43:13Z</time></trkpt><trkpt lat="14.478718238800603" lon="121.04532083974351"><ele>35.0</ele><time>2026-04-12T04:43:14Z</time></trkpt><trkpt lat="14.47862463506782" lon="121.0453208397437"><ele>35.0</ele><time>2026-04-12T04:43:15Z</time></trkpt><trkpt lat="14.47852578598511" lon="121.04532114380946"><ele>35.0</ele><time>2026-04-12T04:43:16Z</time></trkpt><trkpt lat="14.478431576573376" lon="121.04532136778892"><ele>35.0</ele><time>2026-04-12T04:43:17Z</time></trkpt><trkpt lat="14.478326149394947" lon="121.04532161843794"><ele>35.0</ele><time>2026-04-12T04:43:18Z</time></trkpt><trkpt lat="14.478233112592706" lon="121.0453218396307"><ele>35.0</ele><time>2026-04-12T04:43:19Z</time></trkpt><trkpt lat="14.478140197455376" lon="121.0453220605327"><ele>35.0</ele><time>2026-04-12T04:43:20Z</time></trkpt><trkpt lat="14.478073307000336" lon="121.04532221955888"><ele>35.0</ele><time>2026-04-12T04:43:21Z</time></trkpt><trkpt lat="14.477982077037469" lon="121.04532450985745"><ele>34.6</ele><time>2026-04-12T04:43:23Z</time></trkpt><trkpt lat="14.477869561526745" lon="121.0453266489267"><ele>34.2</ele><time>2026-04-12T04:43:25Z</time></trkpt><trkpt lat="14.477785296435405" lon="121.04532801089269"><ele>33.8</ele><time>2026-04-12T04:43:26Z</time></trkpt><trkpt lat="14.477684122515392" lon="121.04532849094886"><ele>33.4</ele><time>2026-04-12T04:43:27Z</time></trkpt><trkpt lat="14.477567197468206" lon="121.04532908168095"><ele>33.0</ele><time>2026-04-12T04:43:28Z</time></trkpt><trkpt lat="14.477445570913309" lon="121.04532950462432"><ele>33.0</ele><time>2026-04-12T04:43:29Z</time></trkpt><trkpt lat="14.477314397306474" lon="121.04532996076782"><ele>33.0</ele><time>2026-04-12T04:43:30Z</time></trkpt><trkpt lat="14.477172934970374" lon="121.04533023974484"><ele>33.0</ele><time>2026-04-12T04:43:31Z</time></trkpt><trkpt lat="14.477030488341073" lon="121.04533023974568"><ele>33.0</ele><time>2026-04-12T04:43:32Z</time></trkpt><trkpt lat="14.476884526277766" lon="121.04533023974602"><ele>33.75</ele><time>2026-04-12T04:43:33Z</time></trkpt><trkpt lat="14.476741520843667" lon="121.04533127829437"><ele>34.5</ele><time>2026-04-12T04:43:34Z</time></trkpt><trkpt lat="14.476597719745033" lon="121.04533243408723"><ele>35.25</ele><time>2026-04-12T04:43:35Z</time></trkpt><trkpt lat="14.47645626498154" lon="121.04533384445558"><ele>36.0</ele><time>2026-04-12T04:43:36Z</time></trkpt><trkpt lat="14.476311910342202" lon="121.04533528373824"><ele>36.25</ele><time>2026-04-12T04:43:37Z</time></trkpt><trkpt lat="14.476167235112385" lon="121.0453367262167"><ele>36.5</ele><time>2026-04-12T04:43:38Z</time></trkpt><trkpt lat="14.476019048679387" lon="121.0453379658461"><ele>36.75</ele><time>2026-04-12T04:43:39Z</time></trkpt><trkpt lat="14.475870212642365" lon="121.04533917040416"><ele>37.0</ele><time>2026-04-12T04:43:40Z</time></trkpt><trkpt lat="14.47571375444469" lon="121.04534043664916"><ele>37.0</ele><time>2026-04-12T04:43:41.001Z</time></trkpt><trkpt lat="14.47555828851511" lon="121.04534169486489"><ele>37.0</ele><time>2026-04-12T04:43:42.001Z</time></trkpt><trkpt lat="14.475405386594744" lon="121.04534293232818"><ele>37.0</ele><time>2026-04-12T04:43:43.001Z</time></trkpt><trkpt lat="14.475259942317724" lon="121.0453441094351"><ele>36.75</ele><time>2026-04-12T04:43:44.001Z</time></trkpt><trkpt lat="14.47512629700788" lon="121.04534519105219"><ele>36.5</ele><time>2026-04-12T04:43:45.001Z</time></trkpt><trkpt lat="14.475003403408662" lon="121.04534618565275"><ele>36.25</ele><time>2026-04-12T04:43:46.001Z</time></trkpt><trkpt lat="14.474876771331953" lon="121.04534721050933"><ele>36.0</ele><time>2026-04-12T04:43:47.001Z</time></trkpt><trkpt lat="14.474751791632514" lon="121.04534822200178"><ele>36.0</ele><time>2026-04-12T04:43:48.001Z</time></trkpt><trkpt lat="14.47462318083603" lon="121.0453491381799"><ele>36.0</ele><time>2026-04-12T04:43:49.001Z</time></trkpt><trkpt lat="14.474490872913883" lon="121.04534763974834"><ele>36.0</ele><time>2026-04-12T04:43:50.001Z</time></trkpt><trkpt lat="14.474356305761763" lon="121.04534763974796"><ele>36.0</ele><time>2026-04-12T04:43:51.001Z</time></trkpt><trkpt lat="14.474217521266175" lon="121.0453476397483"><ele>35.75</ele><time>2026-04-12T04:43:52.001Z</time></trkpt><trkpt lat="14.474081365706875" lon="121.04534763974765"><ele>35.5</ele><time>2026-04-12T04:43:53.001Z</time></trkpt><trkpt lat="14.473940588937955" lon="121.04534764011755"><ele>35.25</ele><time>2026-04-12T04:43:54.001Z</time></trkpt><trkpt lat="14.473800939814346" lon="121.04534820913001"><ele>35.0</ele><time>2026-04-12T04:43:55.001Z</time></trkpt><trkpt lat="14.47365525206392" lon="121.0453487172972"><ele>34.25</ele><time>2026-04-12T04:43:56.001Z</time></trkpt><trkpt lat="14.473520058599606" lon="121.04534894011506"><ele>33.5</ele><time>2026-04-12T04:43:57.001Z</time></trkpt><trkpt lat="14.47338919272943" lon="121.04534894011432"><ele>32.75</ele><time>2026-04-12T04:43:58.001Z</time></trkpt><trkpt lat="14.473255507453889" lon="121.04534894011364"><ele>32.0</ele><time>2026-04-12T04:43:59.001Z</time></trkpt><trkpt lat="14.473121696114402" lon="121.04534894011199"><ele>32.0</ele><time>2026-04-12T04:44:00.001Z</time></trkpt><trkpt lat="14.472980979512778" lon="121.04534894011168"><ele>32.0</ele><time>2026-04-12T04:44:01.001Z</time></trkpt><trkpt lat="14.472849405752084" lon="121.0453489401102"><ele>32.0</ele><time>2026-04-12T04:44:02.001Z</time></trkpt><trkpt lat="14.472704581087406" lon="121.04534894010906"><ele>32.0</ele><time>2026-04-12T04:44:03.001Z</time></trkpt><trkpt lat="14.47255781364862" lon="121.04534773290223"><ele>31.333333333333332</ele><time>2026-04-12T04:44:04.001Z</time></trkpt><trkpt lat="14.472396581414664" lon="121.0453466983409"><ele>30.666666666666664</ele><time>2026-04-12T04:44:05Z</time></trkpt><trkpt lat="14.472225672119492" lon="121.04534738150237"><ele>30.0</ele><time>2026-04-12T04:44:06Z</time></trkpt><trkpt lat="14.47206092938567" lon="121.04534887394396"><ele>30.0</ele><time>2026-04-12T04:44:07Z</time></trkpt><trkpt lat="14.471907818633287" lon="121.04540193928148"><ele>30.0</ele><time>2026-04-12T04:44:08Z</time></trkpt><trkpt lat="14.471755991881828" lon="121.04540315076429"><ele>30.0</ele><time>2026-04-12T04:44:09Z</time></trkpt><trkpt lat="14.47160166126405" lon="121.0454085851438"><ele>30.0</ele><time>2026-04-12T04:44:10Z</time></trkpt><trkpt lat="14.471439857793873" lon="121.04540846852173"><ele>30.0</ele><time>2026-04-12T04:44:11Z</time></trkpt><trkpt lat="14.471274580916518" lon="121.04535449284695"><ele>30.0</ele><time>2026-04-12T04:44:12Z</time></trkpt><trkpt lat="14.47111118130599" lon="121.04535550872232"><ele>30.333333333333336</ele><time>2026-04-12T04:44:13Z</time></trkpt><trkpt lat="14.470947979727786" lon="121.04535564010249"><ele>30.666666666666668</ele><time>2026-04-12T04:44:14Z</time></trkpt><trkpt lat="14.470790675861375" lon="121.04535564010307"><ele>31.0</ele><time>2026-04-12T04:44:15Z</time></trkpt><trkpt lat="14.470646949616096" lon="121.0453556401043"><ele>31.0</ele><time>2026-04-12T04:44:16Z</time></trkpt><trkpt lat="14.470512573469115" lon="121.04535755401331"><ele>31.0</ele><time>2026-04-12T04:44:17Z</time></trkpt><trkpt lat="14.470393573652624" lon="121.04536027053389"><ele>31.0</ele><time>2026-04-12T04:44:18Z</time></trkpt><trkpt lat="14.470289300633093" lon="121.04536227884537"><ele>31.0</ele><time>2026-04-12T04:44:19Z</time></trkpt><trkpt lat="14.470186204898386" lon="121.0453618223599"><ele>31.0</ele><time>2026-04-12T04:44:20Z</time></trkpt><trkpt lat="14.470090339315698" lon="121.04536139788686"><ele>31.0</ele><time>2026-04-12T04:44:21Z</time></trkpt><trkpt lat="14.46998736355327" lon="121.04536104010766"><ele>31.0</ele><time>2026-04-12T04:44:22Z</time></trkpt><trkpt lat="14.469885457592929" lon="121.04536104010761"><ele>31.0</ele><time>2026-04-12T04:44:23Z</time></trkpt><trkpt lat="14.469782785627896" lon="121.04536104010842"><ele>31.0</ele><time>2026-04-12T04:44:24Z</time></trkpt><trkpt lat="14.469684486496684" lon="121.0453610401087"><ele>31.166666666666668</ele><time>2026-04-12T04:44:25Z</time></trkpt><trkpt lat="14.46959842622476" lon="121.0453610401087"><ele>31.333333333333336</ele><time>2026-04-12T04:44:26Z</time></trkpt><trkpt lat="14.469527046491764" lon="121.04536104010876"><ele>31.5</ele><time>2026-04-12T04:44:27Z</time></trkpt><trkpt lat="14.469411942648758" lon="121.04536170263785"><ele>31.666666666666664</ele><time>2026-04-12T04:44:29Z</time></trkpt><trkpt lat="14.469324859972271" lon="121.04536275854748"><ele>31.833333333333332</ele><time>2026-04-12T04:44:31Z</time></trkpt><trkpt lat="14.469254778121242" lon="121.04536360802526"><ele>32.0</ele><time>2026-04-12T04:44:33Z</time></trkpt><trkpt lat="14.469151622919263" lon="121.04536485839114"><ele>32.0</ele><time>2026-04-12T04:44:36Z</time></trkpt><trkpt lat="14.469062304933901" lon="121.04536594103452"><ele>32.0</ele><time>2026-04-12T04:44:38Z</time></trkpt><trkpt lat="14.46897224532495" lon="121.04536703266363"><ele>32.0</ele><time>2026-04-12T04:44:40Z</time></trkpt><trkpt lat="14.468863965816643" lon="121.0453672644607"><ele>32.0</ele><time>2026-04-12T04:44:42Z</time></trkpt><trkpt lat="14.468740869924124" lon="121.04536778583348"><ele>32.0</ele><time>2026-04-12T04:44:44Z</time></trkpt><trkpt lat="14.46866077589447" lon="121.04536789824611"><ele>32.2</ele><time>2026-04-12T04:44:45Z</time></trkpt><trkpt lat="14.468580100621834" lon="121.04536801147458"><ele>32.400000000000006</ele><time>2026-04-12T04:44:46Z</time></trkpt><trkpt lat="14.468483696388008" lon="121.04536814677938"><ele>32.599999999999994</ele><time>2026-04-12T04:44:47Z</time></trkpt><trkpt lat="14.468392144457132" lon="121.04536827527228"><ele>32.8</ele><time>2026-04-12T04:44:48Z</time></trkpt><trkpt lat="14.468302512042413" lon="121.04536840107244"><ele>33.0</ele><time>2026-04-12T04:44:49Z</time></trkpt><trkpt lat="14.468202503161093" lon="121.04536854143548"><ele>33.0</ele><time>2026-04-12T04:44:50Z</time></trkpt><trkpt lat="14.468096655407463" lon="121.04536868999412"><ele>33.0</ele><time>2026-04-12T04:44:51Z</time></trkpt><trkpt lat="14.467979475553943" lon="121.04536885445744"><ele>33.0</ele><time>2026-04-12T04:44:52Z</time></trkpt><trkpt lat="14.467859651210233" lon="121.04536902263149"><ele>33.0</ele><time>2026-04-12T04:44:53Z</time></trkpt><trkpt lat="14.467735975854017" lon="121.04536919620944"><ele>33.6</ele><time>2026-04-12T04:44:54Z</time></trkpt><trkpt lat="14.467623517897504" lon="121.04541709529413"><ele>34.199999999999996</ele><time>2026-04-12T04:44:55Z</time></trkpt><trkpt lat="14.467516805668858" lon="121.04541180474045"><ele>34.8</ele><time>2026-04-12T04:44:56Z</time></trkpt><trkpt lat="14.467423109629026" lon="121.04541552832256"><ele>35.4</ele><time>2026-04-12T04:44:57Z</time></trkpt><trkpt lat="14.46732296481355" lon="121.04541511844957"><ele>36.0</ele><time>2026-04-12T04:44:58Z</time></trkpt><trkpt lat="14.467224421738342" lon="121.04537044047657"><ele>36.0</ele><time>2026-04-12T04:44:59Z</time></trkpt><trkpt lat="14.467126787929734" lon="121.04537115205235"><ele>36.0</ele><time>2026-04-12T04:45:00Z</time></trkpt><trkpt lat="14.46702578606477" lon="121.04537167600513"><ele>36.0</ele><time>2026-04-12T04:45:01Z</time></trkpt><trkpt lat="14.466930500281327" lon="121.04537174047871"><ele>36.0</ele><time>2026-04-12T04:45:02Z</time></trkpt><trkpt lat="14.46684656135836" lon="121.04537174047904"><ele>36.0</ele><time>2026-04-12T04:45:03Z</time></trkpt><trkpt lat="14.466759044995488" lon="121.04537174047924"><ele>36.333333333333336</ele><time>2026-04-12T04:45:05Z</time></trkpt><trkpt lat="14.466693928723462" lon="121.04537174048026"><ele>36.666666666666664</ele><time>2026-04-12T04:45:08Z</time></trkpt><trkpt lat="14.466624283734022" lon="121.04537174048146"><ele>37.0</ele><time>2026-04-12T04:45:10Z</time></trkpt><trkpt lat="14.466538664610853" lon="121.04537212495885"><ele>37.33333333333333</ele><time>2026-04-12T04:45:12Z</time></trkpt><trkpt lat="14.46646392225408" lon="121.04537262229415"><ele>37.666666666666664</ele><time>2026-04-12T04:45:14Z</time></trkpt><trkpt lat="14.466386241334341" lon="121.04537313918382"><ele>38.0</ele><time>2026-04-12T04:45:16Z</time></trkpt><trkpt lat="14.46629156040523" lon="121.0453731404858"><ele>38.0</ele><time>2026-04-12T04:45:18Z</time></trkpt><trkpt lat="14.46620820803116" lon="121.04537314048595"><ele>38.0</ele><time>2026-04-12T04:45:20Z</time></trkpt><trkpt lat="14.466129157108606" lon="121.04537407599564"><ele>38.0</ele><time>2026-04-12T04:45:27Z</time></trkpt><trkpt lat="14.466036697952259" lon="121.04537559858328"><ele>38.0</ele><time>2026-04-12T04:45:29Z</time></trkpt><trkpt lat="14.465941495393508" lon="121.04537716544255"><ele>38.0</ele><time>2026-04-12T04:45:31.001Z</time></trkpt><trkpt lat="14.465849469798938" lon="121.045378622966"><ele>38.0</ele><time>2026-04-12T04:45:33.001Z</time></trkpt><trkpt lat="14.465741506821484" lon="121.04538033291087"><ele>38.0</ele><time>2026-04-12T04:45:35.001Z</time></trkpt><trkpt lat="14.465675860860046" lon="121.0453813726277"><ele>38.0</ele><time>2026-04-12T04:45:36.001Z</time></trkpt><trkpt lat="14.465603969253815" lon="121.04538251126465"><ele>38.0</ele><time>2026-04-12T04:45:37.001Z</time></trkpt><trkpt lat="14.465529353080486" lon="121.0453836930542"><ele>38.0</ele><time>2026-04-12T04:45:38.001Z</time></trkpt><trkpt lat="14.465451475460483" lon="121.04538492649938"><ele>38.0</ele><time>2026-04-12T04:45:39.001Z</time></trkpt><trkpt lat="14.465369665748554" lon="121.04538622222165"><ele>38.0</ele><time>2026-04-12T04:45:40.001Z</time></trkpt><trkpt lat="14.465293902938528" lon="121.04538756670843"><ele>38.0</ele><time>2026-04-12T04:45:41.001Z</time></trkpt><trkpt lat="14.465214257062515" lon="121.04538903551243"><ele>38.0</ele><time>2026-04-12T04:45:42.001Z</time></trkpt><trkpt lat="14.465130060508516" lon="121.04539058823943"><ele>38.0</ele><time>2026-04-12T04:45:43.001Z</time></trkpt><trkpt lat="14.465036714905638" lon="121.0453912066674"><ele>38.0</ele><time>2026-04-12T04:45:44.001Z</time></trkpt><trkpt lat="14.46493539743545" lon="121.04539190953851"><ele>38.0</ele><time>2026-04-12T04:45:45.001Z</time></trkpt><trkpt lat="14.464818558135677" lon="121.04539272008769"><ele>38.0</ele><time>2026-04-12T04:45:46.001Z</time></trkpt><trkpt lat="14.464701043351702" lon="121.04539353568704"><ele>38.0</ele><time>2026-04-12T04:45:47.001Z</time></trkpt><trkpt lat="14.464577327154743" lon="121.0453943939447"><ele>38.0</ele><time>2026-04-12T04:45:48.001Z</time></trkpt><trkpt lat="14.464448954834356" lon="121.0453952845019"><ele>38.0</ele><time>2026-04-12T04:45:49.001Z</time></trkpt><trkpt lat="14.46431662183316" lon="121.04539620253648"><ele>38.0</ele><time>2026-04-12T04:45:50.001Z</time></trkpt><trkpt lat="14.464183162827354" lon="121.04539712838219"><ele>38.0</ele><time>2026-04-12T04:45:51.001Z</time></trkpt><trkpt lat="14.464050233436048" lon="121.04539805055403"><ele>38.0</ele><time>2026-04-12T04:45:52.001Z</time></trkpt><trkpt lat="14.46392220727881" lon="121.0453989369627"><ele>38.0</ele><time>2026-04-12T04:45:53.001Z</time></trkpt><trkpt lat="14.463788948469766" lon="121.04539985598902"><ele>38.0</ele><time>2026-04-12T04:45:54.001Z</time></trkpt><trkpt lat="14.463656139338596" lon="121.04540077191358"><ele>37.5</ele><time>2026-04-12T04:45:55.001Z</time></trkpt><trkpt lat="14.463521802910114" lon="121.04540169837179"><ele>37.0</ele><time>2026-04-12T04:45:56.001Z</time></trkpt><trkpt lat="14.463387470844234" lon="121.04540262479954"><ele>36.5</ele><time>2026-04-12T04:45:57.001Z</time></trkpt><trkpt lat="14.463254649943098" lon="121.04540354080515"><ele>36.0</ele><time>2026-04-12T04:45:58.001Z</time></trkpt><trkpt lat="14.46312975292203" lon="121.04540440216307"><ele>36.0</ele><time>2026-04-12T04:45:59.001Z</time></trkpt><trkpt lat="14.463004746949954" lon="121.04540526427314"><ele>36.0</ele><time>2026-04-12T04:46:00.001Z</time></trkpt><trkpt lat="14.462891289629262" lon="121.0454049192665"><ele>36.0</ele><time>2026-04-12T04:46:01.001Z</time></trkpt><trkpt lat="14.462773482093851" lon="121.04540443446129"><ele>36.0</ele><time>2026-04-12T04:46:02.001Z</time></trkpt><trkpt lat="14.462653873989066" lon="121.04540394224603"><ele>36.25</ele><time>2026-04-12T04:46:03.001Z</time></trkpt><trkpt lat="14.46253332982276" lon="121.04540358133995"><ele>36.5</ele><time>2026-04-12T04:46:04.001Z</time></trkpt><trkpt lat="14.46241383179335" lon="121.04540322391863"><ele>36.75</ele><time>2026-04-12T04:46:05.001Z</time></trkpt><trkpt lat="14.462299890317752" lon="121.04540288311654"><ele>37.0</ele><time>2026-04-12T04:46:06.001Z</time></trkpt><trkpt lat="14.462197871505957" lon="121.04540257797538"><ele>37.16666666666667</ele><time>2026-04-12T04:46:07.001Z</time></trkpt><trkpt lat="14.462109079824861" lon="121.04540231239747"><ele>37.333333333333336</ele><time>2026-04-12T04:46:08.001Z</time></trkpt><trkpt lat="14.462032210126383" lon="121.04540208247785"><ele>37.5</ele><time>2026-04-12T04:46:09.001Z</time></trkpt><trkpt lat="14.461958773817972" lon="121.04540186282757"><ele>37.666666666666664</ele><time>2026-04-12T04:46:10Z</time></trkpt><trkpt lat="14.461880332295904" lon="121.0454016282066"><ele>37.83333333333333</ele><time>2026-04-12T04:46:11Z</time></trkpt><trkpt lat="14.461794280143764" lon="121.04540137082249"><ele>38.0</ele><time>2026-04-12T04:46:12Z</time></trkpt><trkpt lat="14.461703958582685" lon="121.04540110066583"><ele>38.0</ele><time>2026-04-12T04:46:13Z</time></trkpt><trkpt lat="14.461605565447963" lon="121.04540191842955"><ele>38.0</ele><time>2026-04-12T04:46:14Z</time></trkpt><trkpt lat="14.461496121164501" lon="121.04540242917007"><ele>38.0</ele><time>2026-04-12T04:46:15Z</time></trkpt><trkpt lat="14.461384934660819" lon="121.04540295464975"><ele>38.0</ele><time>2026-04-12T04:46:16Z</time></trkpt><trkpt lat="14.461263594845997" lon="121.04540353309424"><ele>38.0</ele><time>2026-04-12T04:46:17Z</time></trkpt><trkpt lat="14.461138484249688" lon="121.04540417410857"><ele>38.5</ele><time>2026-04-12T04:46:18Z</time></trkpt><trkpt lat="14.46101146515251" lon="121.0454049229237"><ele>39.0</ele><time>2026-04-12T04:46:19Z</time></trkpt><trkpt lat="14.46086793597304" lon="121.04540576907104"><ele>39.5</ele><time>2026-04-12T04:46:20Z</time></trkpt><trkpt lat="14.460723394300317" lon="121.04540662118669"><ele>40.0</ele><time>2026-04-12T04:46:21Z</time></trkpt><trkpt lat="14.460574318690615" lon="121.04540750003085"><ele>40.5</ele><time>2026-04-12T04:46:22Z</time></trkpt><trkpt lat="14.460423446924754" lon="121.04540838946404"><ele>41.0</ele><time>2026-04-12T04:46:23Z</time></trkpt><trkpt lat="14.460283458385101" lon="121.04540921473792"><ele>41.5</ele><time>2026-04-12T04:46:24Z</time></trkpt><trkpt lat="14.460165404927753" lon="121.04540991069753"><ele>42.0</ele><time>2026-04-12T04:46:25Z</time></trkpt><trkpt lat="14.460057582168108" lon="121.04541054634434"><ele>42.0</ele><time>2026-04-12T04:46:26Z</time></trkpt><trkpt lat="14.459951693098303" lon="121.04541345334871"><ele>42.0</ele><time>2026-04-12T04:46:27Z</time></trkpt><trkpt lat="14.459848786874176" lon="121.0454166816739"><ele>42.0</ele><time>2026-04-12T04:46:28Z</time></trkpt><trkpt lat="14.45974010744857" lon="121.04542009111584"><ele>42.0</ele><time>2026-04-12T04:46:29Z</time></trkpt><trkpt lat="14.459631529268506" lon="121.04542346251755"><ele>42.0</ele><time>2026-04-12T04:46:30Z</time></trkpt><trkpt lat="14.459517196259446" lon="121.04542688054264"><ele>42.0</ele><time>2026-04-12T04:46:31Z</time></trkpt><trkpt lat="14.459399464265024" lon="121.04543017273141"><ele>42.0</ele><time>2026-04-12T04:46:32Z</time></trkpt><trkpt lat="14.459279324731982" lon="121.04543355130906"><ele>42.0</ele><time>2026-04-12T04:46:33Z</time></trkpt><trkpt lat="14.459157135998966" lon="121.04544877039667"><ele>42.0</ele><time>2026-04-12T04:46:34Z</time></trkpt><trkpt lat="14.459029657187726" lon="121.04545178055912"><ele>42.0</ele><time>2026-04-12T04:46:35Z</time></trkpt><trkpt lat="14.45890246941361" lon="121.04545177727597"><ele>42.0</ele><time>2026-04-12T04:46:36Z</time></trkpt><trkpt lat="14.45878082290005" lon="121.04543909097859"><ele>42.0</ele><time>2026-04-12T04:46:37Z</time></trkpt><trkpt lat="14.458657334371784" lon="121.04543783982663"><ele>42.0</ele><time>2026-04-12T04:46:38Z</time></trkpt><trkpt lat="14.458535946607011" lon="121.04543660996231"><ele>41.75</ele><time>2026-04-12T04:46:39Z</time></trkpt><trkpt lat="14.458404671554078" lon="121.04543484122844"><ele>41.5</ele><time>2026-04-12T04:46:40Z</time></trkpt><trkpt lat="14.45827216374867" lon="121.04543361321892"><ele>41.25</ele><time>2026-04-12T04:46:41Z</time></trkpt><trkpt lat="14.458136940577587" lon="121.04543218815826"><ele>41.0</ele><time>2026-04-12T04:46:42Z</time></trkpt><trkpt lat="14.458004412295601" lon="121.04543067773247"><ele>40.0</ele><time>2026-04-12T04:46:43Z</time></trkpt><trkpt lat="14.457868716175769" lon="121.04542853663007"><ele>39.0</ele><time>2026-04-12T04:46:44Z</time></trkpt><trkpt lat="14.457732843429776" lon="121.04542674122366"><ele>38.0</ele><time>2026-04-12T04:46:45Z</time></trkpt><trkpt lat="14.457597958781484" lon="121.04544010851963"><ele>37.0</ele><time>2026-04-12T04:46:46Z</time></trkpt><trkpt lat="14.457461173578075" lon="121.04543993420118"><ele>37.0</ele><time>2026-04-12T04:46:47Z</time></trkpt><trkpt lat="14.457332881695804" lon="121.04542660533154"><ele>37.0</ele><time>2026-04-12T04:46:48Z</time></trkpt><trkpt lat="14.4572063289588" lon="121.04543235553126"><ele>37.0</ele><time>2026-04-12T04:46:49Z</time></trkpt><trkpt lat="14.4570760171605" lon="121.0454314693782"><ele>37.0</ele><time>2026-04-12T04:46:50Z</time></trkpt><trkpt lat="14.456928443491083" lon="121.04542874415107"><ele>36.75</ele><time>2026-04-12T04:46:51Z</time></trkpt><trkpt lat="14.45679067818214" lon="121.04543388278263"><ele>36.5</ele><time>2026-04-12T04:46:52Z</time></trkpt><trkpt lat="14.456681516638488" lon="121.04543249039565"><ele>36.25</ele><time>2026-04-12T04:46:53Z</time></trkpt><trkpt lat="14.456577730567348" lon="121.0454361888181"><ele>36.0</ele><time>2026-04-12T04:46:54Z</time></trkpt><trkpt lat="14.456477265790308" lon="121.04544028603686"><ele>36.0</ele><time>2026-04-12T04:46:55Z</time></trkpt><trkpt lat="14.456359575126369" lon="121.04544675945682"><ele>36.0</ele><time>2026-04-12T04:46:56Z</time></trkpt><trkpt lat="14.456229178112443" lon="121.04545588730758"><ele>36.0</ele><time>2026-04-12T04:46:57Z</time></trkpt><trkpt lat="14.456088606225057" lon="121.04545892147492"><ele>36.0</ele><time>2026-04-12T04:46:58Z</time></trkpt><trkpt lat="14.455950462083564" lon="121.04544737055488"><ele>36.5</ele><time>2026-04-12T04:46:59Z</time></trkpt><trkpt lat="14.455815796841788" lon="121.04544054331662"><ele>37.0</ele><time>2026-04-12T04:47:00Z</time></trkpt><trkpt lat="14.455694862412125" lon="121.04543854903399"><ele>37.5</ele><time>2026-04-12T04:47:01Z</time></trkpt><trkpt lat="14.455560436855071" lon="121.04545264572678"><ele>38.0</ele><time>2026-04-12T04:47:02Z</time></trkpt><trkpt lat="14.45543135291215" lon="121.04545798309442"><ele>36.5</ele><time>2026-04-12T04:47:03Z</time></trkpt><trkpt lat="14.455295772343243" lon="121.04548071247753"><ele>35.0</ele><time>2026-04-12T04:47:04Z</time></trkpt><trkpt lat="14.455171634413942" lon="121.04549913706566"><ele>33.5</ele><time>2026-04-12T04:47:05Z</time></trkpt><trkpt lat="14.455057707745933" lon="121.04552290306012"><ele>32.0</ele><time>2026-04-12T04:47:06Z</time></trkpt><trkpt lat="14.454944446885161" lon="121.04555710777919"><ele>32.0</ele><time>2026-04-12T04:47:07Z</time></trkpt><trkpt lat="14.454830112486206" lon="121.04558953998938"><ele>32.0</ele><time>2026-04-12T04:47:08Z</time></trkpt><trkpt lat="14.45471846701668" lon="121.04562384249992"><ele>32.0</ele><time>2026-04-12T04:47:09Z</time></trkpt><trkpt lat="14.454611693148049" lon="121.04565685992873"><ele>32.0</ele><time>2026-04-12T04:47:10Z</time></trkpt><trkpt lat="14.454496991427238" lon="121.04569049604407"><ele>30.75</ele><time>2026-04-12T04:47:11Z</time></trkpt><trkpt lat="14.454389131781474" lon="121.0457244168615"><ele>29.5</ele><time>2026-04-12T04:47:12Z</time></trkpt><trkpt lat="14.454280810559457" lon="121.04576602441139"><ele>28.25</ele><time>2026-04-12T04:47:13Z</time></trkpt><trkpt lat="14.454165226997398" lon="121.04578772654304"><ele>27.0</ele><time>2026-04-12T04:47:14Z</time></trkpt><trkpt lat="14.4540516486554" lon="121.04582428162368"><ele>26.833333333333332</ele><time>2026-04-12T04:47:15Z</time></trkpt><trkpt lat="14.453947122994906" lon="121.04586010997502"><ele>26.666666666666664</ele><time>2026-04-12T04:47:16Z</time></trkpt><trkpt lat="14.453874907912974" lon="121.04590373827507"><ele>26.5</ele><time>2026-04-12T04:47:17Z</time></trkpt><trkpt lat="14.453812103228902" lon="121.04590883432773"><ele>26.333333333333332</ele><time>2026-04-12T04:47:18Z</time></trkpt><trkpt lat="14.453735712923615" lon="121.045922563999"><ele>26.166666666666664</ele><time>2026-04-12T04:47:20Z</time></trkpt><trkpt lat="14.453665977378664" lon="121.0459415589025"><ele>26.0</ele><time>2026-04-12T04:47:22Z</time></trkpt><trkpt lat="14.453587887670762" lon="121.04595422952329"><ele>25.6</ele><time>2026-04-12T04:47:25.001Z</time></trkpt><trkpt lat="14.453512173799933" lon="121.04607454847101"><ele>25.200000000000003</ele><time>2026-04-12T04:47:29.001Z</time></trkpt><trkpt lat="14.453512499265441" lon="121.04616276353745"><ele>24.799999999999997</ele><time>2026-04-12T04:47:30.001Z</time></trkpt><trkpt lat="14.453486541478798" lon="121.0462514739562"><ele>24.4</ele><time>2026-04-12T04:47:31.001Z</time></trkpt><trkpt lat="14.453462145634548" lon="121.04635562546609"><ele>24.0</ele><time>2026-04-12T04:47:32.001Z</time></trkpt><trkpt lat="14.453433443340954" lon="121.04647255155022"><ele>24.0</ele><time>2026-04-12T04:47:33.001Z</time></trkpt><trkpt lat="14.453402044222178" lon="121.04660378377486"><ele>24.0</ele><time>2026-04-12T04:47:34.001Z</time></trkpt><trkpt lat="14.45336758615785" lon="121.04675041083391"><ele>24.0</ele><time>2026-04-12T04:47:35.001Z</time></trkpt><trkpt lat="14.453334692067012" lon="121.04690639868936"><ele>24.0</ele><time>2026-04-12T04:47:36.001Z</time></trkpt><trkpt lat="14.453301821025983" lon="121.0470622772794"><ele>23.5</ele><time>2026-04-12T04:47:37.001Z</time></trkpt><trkpt lat="14.453284334103177" lon="121.04721828406068"><ele>23.0</ele><time>2026-04-12T04:47:38.001Z</time></trkpt><trkpt lat="14.453243744376547" lon="121.0473574489634"><ele>22.5</ele><time>2026-04-12T04:47:39.001Z</time></trkpt><trkpt lat="14.453203849766544" lon="121.04749336303612"><ele>22.0</ele><time>2026-04-12T04:47:40.001Z</time></trkpt><trkpt lat="14.453164810782008" lon="121.04762124587144"><ele>20.5</ele><time>2026-04-12T04:47:41.001Z</time></trkpt><trkpt lat="14.453129803090576" lon="121.04774978823835"><ele>19.0</ele><time>2026-04-12T04:47:42.001Z</time></trkpt><trkpt lat="14.453075334736107" lon="121.0478653115294"><ele>17.5</ele><time>2026-04-12T04:47:43.001Z</time></trkpt><trkpt lat="14.453042468953589" lon="121.04798511047963"><ele>16.0</ele><time>2026-04-12T04:47:44.001Z</time></trkpt><trkpt lat="14.453014027667528" lon="121.04809844661496"><ele>16.0</ele><time>2026-04-12T04:47:45.001Z</time></trkpt><trkpt lat="14.452987769461867" lon="121.04820340750184"><ele>16.0</ele><time>2026-04-12T04:47:46.001Z</time></trkpt><trkpt lat="14.452971048213163" lon="121.04831018310426"><ele>16.0</ele><time>2026-04-12T04:47:47.001Z</time></trkpt><trkpt lat="14.452939810557691" lon="121.04840203546274"><ele>16.0</ele><time>2026-04-12T04:47:48.001Z</time></trkpt><trkpt lat="14.452910083493634" lon="121.04848134887227"><ele>16.0</ele><time>2026-04-12T04:47:49.001Z</time></trkpt><trkpt lat="14.452871679664135" lon="121.04856300847645"><ele>16.0</ele><time>2026-04-12T04:47:50.001Z</time></trkpt><trkpt lat="14.452820776676177" lon="121.04864753787604"><ele>16.0</ele><time>2026-04-12T04:47:51.001Z</time></trkpt><trkpt lat="14.45275493347597" lon="121.04873709394009"><ele>16.0</ele><time>2026-04-12T04:47:52.001Z</time></trkpt><trkpt lat="14.452691913533027" lon="121.04881962489176"><ele>16.0</ele><time>2026-04-12T04:47:53.001Z</time></trkpt><trkpt lat="14.45263199076215" lon="121.04890656632784"><ele>16.0</ele><time>2026-04-12T04:47:54.001Z</time></trkpt><trkpt lat="14.452585593500594" lon="121.04899894165374"><ele>16.0</ele><time>2026-04-12T04:47:55.001Z</time></trkpt><trkpt lat="14.452552397016758" lon="121.04909794852674"><ele>16.0</ele><time>2026-04-12T04:47:56.001Z</time></trkpt><trkpt lat="14.45253869855863" lon="121.04920886622112"><ele>16.0</ele><time>2026-04-12T04:47:57.001Z</time></trkpt><trkpt lat="14.452538057383343" lon="121.04932757761568"><ele>16.0</ele><time>2026-04-12T04:47:58.001Z</time></trkpt><trkpt lat="14.452540706037814" lon="121.04945226603218"><ele>16.0</ele><time>2026-04-12T04:47:59.001Z</time></trkpt><trkpt lat="14.452536007793778" lon="121.04958360543495"><ele>15.0</ele><time>2026-04-12T04:48:00.001Z</time></trkpt><trkpt lat="14.452523865019668" lon="121.04971954976301"><ele>14.0</ele><time>2026-04-12T04:48:01.001Z</time></trkpt><trkpt lat="14.452512262182086" lon="121.04985816324296"><ele>13.0</ele><time>2026-04-12T04:48:02.001Z</time></trkpt><trkpt lat="14.452500733587554" lon="121.04998248398454"><ele>12.0</ele><time>2026-04-12T04:48:03.001Z</time></trkpt><trkpt lat="14.452494372752707" lon="121.05010751577284"><ele>12.0</ele><time>2026-04-12T04:48:04.001Z</time></trkpt><trkpt lat="14.452489385154339" lon="121.05021293553453"><ele>12.0</ele><time>2026-04-12T04:48:05.001Z</time></trkpt><trkpt lat="14.452488815345976" lon="121.05032837196877"><ele>12.0</ele><time>2026-04-12T04:48:06.001Z</time></trkpt><trkpt lat="14.45248193657538" lon="121.05043073494758"><ele>12.0</ele><time>2026-04-12T04:48:07.001Z</time></trkpt><trkpt lat="14.452472893076646" lon="121.0505119884922"><ele>12.0</ele><time>2026-04-12T04:48:08.001Z</time></trkpt><trkpt lat="14.45245942940815" lon="121.05057868433026"><ele>12.0</ele><time>2026-04-12T04:48:09.001Z</time></trkpt><trkpt lat="14.452417046686774" lon="121.05066183376523"><ele>12.0</ele><time>2026-04-12T04:48:11.001Z</time></trkpt><trkpt lat="14.452327700993477" lon="121.05070340125525"><ele>12.0</ele><time>2026-04-12T04:48:13.001Z</time></trkpt><trkpt lat="14.452256288717201" lon="121.05070642767542"><ele>12.0</ele><time>2026-04-12T04:48:14.001Z</time></trkpt><trkpt lat="14.452171112740748" lon="121.05069627102512"><ele>12.0</ele><time>2026-04-12T04:48:15.001Z</time></trkpt><trkpt lat="14.452076504742525" lon="121.05067417841695"><ele>12.0</ele><time>2026-04-12T04:48:16Z</time></trkpt><trkpt lat="14.451970030295191" lon="121.0506537497608"><ele>12.0</ele><time>2026-04-12T04:48:17Z</time></trkpt><trkpt lat="14.451869397111595" lon="121.05064072393559"><ele>12.0</ele><time>2026-04-12T04:48:18Z</time></trkpt><trkpt lat="14.451751239240515" lon="121.05062550280284"><ele>12.0</ele><time>2026-04-12T04:48:19Z</time></trkpt><trkpt lat="14.451631394714864" lon="121.05061296771707"><ele>12.0</ele><time>2026-04-12T04:48:20Z</time></trkpt><trkpt lat="14.451504946629735" lon="121.05059873646051"><ele>12.0</ele><time>2026-04-12T04:48:21Z</time></trkpt><trkpt lat="14.451374602937788" lon="121.05058228746282"><ele>12.0</ele><time>2026-04-12T04:48:22Z</time></trkpt><trkpt lat="14.4512331168851" lon="121.05056496144552"><ele>12.0</ele><time>2026-04-12T04:48:23Z</time></trkpt><trkpt lat="14.45109360215893" lon="121.05054604444365"><ele>12.0</ele><time>2026-04-12T04:48:24Z</time></trkpt><trkpt lat="14.45095185880453" lon="121.05052806467846"><ele>11.0</ele><time>2026-04-12T04:48:25Z</time></trkpt><trkpt lat="14.450805807422615" lon="121.05051366460957"><ele>10.0</ele><time>2026-04-12T04:48:26Z</time></trkpt><trkpt lat="14.450665937225759" lon="121.05049475493921"><ele>9.0</ele><time>2026-04-12T04:48:27Z</time></trkpt><trkpt lat="14.450530510400077" lon="121.05047676949262"><ele>8.0</ele><time>2026-04-12T04:48:28Z</time></trkpt><trkpt lat="14.450417536672779" lon="121.05046009098551"><ele>7.800000000000001</ele><time>2026-04-12T04:48:29Z</time></trkpt><trkpt lat="14.450322930258041" lon="121.0504534579646"><ele>7.6000000000000005</ele><time>2026-04-12T04:48:30Z</time></trkpt><trkpt lat="14.450255373079893" lon="121.05044581936279"><ele>7.3999999999999995</ele><time>2026-04-12T04:48:31Z</time></trkpt><trkpt lat="14.450168210900454" lon="121.05047281840304"><ele>7.199999999999999</ele><time>2026-04-12T04:48:33Z</time></trkpt><trkpt lat="14.450116152281051" lon="121.05058299722556"><ele>7.0</ele><time>2026-04-12T04:48:35Z</time></trkpt><trkpt lat="14.450101442046034" lon="121.05066402196097"><ele>7.0</ele><time>2026-04-12T04:48:36Z</time></trkpt><trkpt lat="14.450084210576067" lon="121.05075564072438"><ele>6.999999999999999</ele><time>2026-04-12T04:48:37Z</time></trkpt><trkpt lat="14.450050885128265" lon="121.0508364702763"><ele>6.999999999999999</ele><time>2026-04-12T04:48:38Z</time></trkpt><trkpt lat="14.450025639718696" lon="121.05093441231882"><ele>7.0</ele><time>2026-04-12T04:48:39Z</time></trkpt><trkpt lat="14.45001005418156" lon="121.05103514168707"><ele>7.0</ele><time>2026-04-12T04:48:40Z</time></trkpt><trkpt lat="14.449980604136691" lon="121.05112372570181"><ele>7.333333333333334</ele><time>2026-04-12T04:48:41Z</time></trkpt><trkpt lat="14.44995468666073" lon="121.05119299384913"><ele>7.666666666666667</ele><time>2026-04-12T04:48:42Z</time></trkpt><trkpt lat="14.449932261696786" lon="121.051259665711"><ele>8.0</ele><time>2026-04-12T04:48:43Z</time></trkpt><trkpt lat="14.449887569229714" lon="121.05133988776535"><ele>8.333333333333334</ele><time>2026-04-12T04:48:45Z</time></trkpt><trkpt lat="14.449824298598717" lon="121.05137673032576"><ele>8.666666666666666</ele><time>2026-04-12T04:48:47Z</time></trkpt><trkpt lat="14.449774190236491" lon="121.05132588113126"><ele>9.0</ele><time>2026-04-12T04:48:48Z</time></trkpt><trkpt lat="14.449634080624604" lon="121.0513067607122"><ele>8.8</ele><time>2026-04-12T04:48:50Z</time></trkpt><trkpt lat="14.449549540059717" lon="121.05129522366002"><ele>8.600000000000001</ele><time>2026-04-12T04:48:51Z</time></trkpt><trkpt lat="14.449461436282592" lon="121.05128320035462"><ele>8.4</ele><time>2026-04-12T04:48:52Z</time></trkpt><trkpt lat="14.449369273918784" lon="121.051269077314"><ele>8.200000000000001</ele><time>2026-04-12T04:48:53Z</time></trkpt><trkpt lat="14.449267680208596" lon="121.0512521075891"><ele>8.0</ele><time>2026-04-12T04:48:54Z</time></trkpt><trkpt lat="14.449163411189502" lon="121.05123469099998"><ele>8.0</ele><time>2026-04-12T04:48:55Z</time></trkpt><trkpt lat="14.449058728765353" lon="121.05121720535247"><ele>8.0</ele><time>2026-04-12T04:48:56Z</time></trkpt><trkpt lat="14.448946381574178" lon="121.05119843942025"><ele>8.0</ele><time>2026-04-12T04:48:57Z</time></trkpt><trkpt lat="14.44883526681561" lon="121.0511788028177"><ele>8.0</ele><time>2026-04-12T04:48:58Z</time></trkpt><trkpt lat="14.448721344559726" lon="121.05115837083314"><ele>8.0</ele><time>2026-04-12T04:48:59Z</time></trkpt><trkpt lat="14.448618092060117" lon="121.05113980681766"><ele>8.200000000000001</ele><time>2026-04-12T04:49:00Z</time></trkpt><trkpt lat="14.448507468424078" lon="121.0511199032988"><ele>8.4</ele><time>2026-04-12T04:49:01Z</time></trkpt><trkpt lat="14.44839926787325" lon="121.05110043574649"><ele>8.600000000000001</ele><time>2026-04-12T04:49:02Z</time></trkpt><trkpt lat="14.448304465293859" lon="121.05108337877465"><ele>8.8</ele><time>2026-04-12T04:49:03Z</time></trkpt><trkpt lat="14.44819975142416" lon="121.05106453855227"><ele>9.0</ele><time>2026-04-12T04:49:04Z</time></trkpt><trkpt lat="14.448098270412862" lon="121.05104627998556"><ele>9.0</ele><time>2026-04-12T04:49:05Z</time></trkpt><trkpt lat="14.447996877035404" lon="121.05102803718776"><ele>9.0</ele><time>2026-04-12T04:49:06Z</time></trkpt><trkpt lat="14.44789148764775" lon="121.0510090754277"><ele>9.0</ele><time>2026-04-12T04:49:07Z</time></trkpt><trkpt lat="14.447785288428136" lon="121.05098996795651"><ele>9.0</ele><time>2026-04-12T04:49:08Z</time></trkpt><trkpt lat="14.447687336996317" lon="121.05097234443457"><ele>9.0</ele><time>2026-04-12T04:49:09Z</time></trkpt><trkpt lat="14.44759552299062" lon="121.05095582516687"><ele>9.0</ele><time>2026-04-12T04:49:10Z</time></trkpt><trkpt lat="14.447504426582238" lon="121.05093943501463"><ele>9.0</ele><time>2026-04-12T04:49:11Z</time></trkpt><trkpt lat="14.447419841584798" lon="121.05092421639498"><ele>9.0</ele><time>2026-04-12T04:49:12Z</time></trkpt><trkpt lat="14.4473338299915" lon="121.05090876056627"><ele>9.0</ele><time>2026-04-12T04:49:13Z</time></trkpt><trkpt lat="14.44725273130659" lon="121.05089423919941"><ele>9.0</ele><time>2026-04-12T04:49:14Z</time></trkpt><trkpt lat="14.447180714132767" lon="121.05088134395544"><ele>9.0</ele><time>2026-04-12T04:49:15Z</time></trkpt><trkpt lat="14.44711723312164" lon="121.05086997717362"><ele>9.0</ele><time>2026-04-12T04:49:16Z</time></trkpt><trkpt lat="14.446994639575443" lon="121.05084802582344"><ele>9.0</ele><time>2026-04-12T04:49:18Z</time></trkpt><trkpt lat="14.446931090185394" lon="121.05083664680295"><ele>9.0</ele><time>2026-04-12T04:49:19Z</time></trkpt><trkpt lat="14.446805750635596" lon="121.05081420375944"><ele>9.0</ele><time>2026-04-12T04:49:21Z</time></trkpt><trkpt lat="14.44668717213279" lon="121.05079297134058"><ele>9.0</ele><time>2026-04-12T04:49:23Z</time></trkpt><trkpt lat="14.446591749511036" lon="121.0507758851567"><ele>9.0</ele><time>2026-04-12T04:49:25Z</time></trkpt><trkpt lat="14.446516112416585" lon="121.05076234173424"><ele>9.0</ele><time>2026-04-12T04:49:28.001Z</time></trkpt><trkpt lat="14.446440355290205" lon="121.05074877682344"><ele>9.0</ele><time>2026-04-12T04:49:34.001Z</time></trkpt><trkpt lat="14.446350229769452" lon="121.05073263913042"><ele>9.0</ele><time>2026-04-12T04:49:37.001Z</time></trkpt><trkpt lat="14.446273350966038" lon="121.05071887336948"><ele>9.0</ele><time>2026-04-12T04:49:39.001Z</time></trkpt><trkpt lat="14.446185810773631" lon="121.05070319860226"><ele>9.0</ele><time>2026-04-12T04:49:41.001Z</time></trkpt><trkpt lat="14.446082079374214" lon="121.05068462466909"><ele>9.000000000000002</ele><time>2026-04-12T04:49:43.001Z</time></trkpt><trkpt lat="14.44601813116121" lon="121.05067317422403"><ele>9.0</ele><time>2026-04-12T04:49:44.001Z</time></trkpt><trkpt lat="14.445951381039873" lon="121.05066122209438"><ele>9.0</ele><time>2026-04-12T04:49:45.001Z</time></trkpt><trkpt lat="14.445886103487105" lon="121.05064953362876"><ele>9.0</ele><time>2026-04-12T04:49:46.001Z</time></trkpt><trkpt lat="14.44582305464538" lon="121.05063755975254"><ele>9.0</ele><time>2026-04-12T04:49:47.001Z</time></trkpt><trkpt lat="14.445758374108689" lon="121.05062521369993"><ele>9.000000000000002</ele><time>2026-04-12T04:49:48.001Z</time></trkpt><trkpt lat="14.445690518886687" lon="121.05061226167011"><ele>9.0</ele><time>2026-04-12T04:49:49.001Z</time></trkpt><trkpt lat="14.44559020396195" lon="121.05059311381711"><ele>8.75</ele><time>2026-04-12T04:49:51.001Z</time></trkpt><trkpt lat="14.445435921288608" lon="121.05057088012461"><ele>8.5</ele><time>2026-04-12T04:49:53.001Z</time></trkpt><trkpt lat="14.445343777175978" lon="121.05055991606653"><ele>8.25</ele><time>2026-04-12T04:49:54.001Z</time></trkpt><trkpt lat="14.445229749890311" lon="121.05054694419152"><ele>8.0</ele><time>2026-04-12T04:49:55.001Z</time></trkpt><trkpt lat="14.445134992064926" lon="121.05053912374173"><ele>7.999999999999999</ele><time>2026-04-12T04:49:56.001Z</time></trkpt><trkpt lat="14.445047629653304" lon="121.05053220969573"><ele>8.0</ele><time>2026-04-12T04:49:57.001Z</time></trkpt><trkpt lat="14.444960459702065" lon="121.05052533422344"><ele>8.0</ele><time>2026-04-12T04:49:58.001Z</time></trkpt><trkpt lat="14.444886106009932" lon="121.05051931262071"><ele>8.0</ele><time>2026-04-12T04:49:59.001Z</time></trkpt><trkpt lat="14.444813947350664" lon="121.05051346878369"><ele>7.999999999999999</ele><time>2026-04-12T04:50:00.001Z</time></trkpt><trkpt lat="14.444743897155208" lon="121.05050779573334"><ele>8.0</ele><time>2026-04-12T04:50:01.001Z</time></trkpt><trkpt lat="14.444649506023985" lon="121.05051204809321"><ele>8.166666666666666</ele><time>2026-04-12T04:50:02.001Z</time></trkpt><trkpt lat="14.44457344005384" lon="121.05051232300482"><ele>8.333333333333332</ele><time>2026-04-12T04:50:03.001Z</time></trkpt><trkpt lat="14.444503413783135" lon="121.0505125760869"><ele>8.5</ele><time>2026-04-12T04:50:05.001Z</time></trkpt><trkpt lat="14.44443022150433" lon="121.05051284061348"><ele>8.666666666666666</ele><time>2026-04-12T04:50:06.001Z</time></trkpt><trkpt lat="14.444299100472413" lon="121.0505168295556"><ele>8.833333333333334</ele><time>2026-04-12T04:50:08.001Z</time></trkpt><trkpt lat="14.444215397304639" lon="121.05051938800085"><ele>9.0</ele><time>2026-04-12T04:50:09.001Z</time></trkpt><trkpt lat="14.444130700056112" lon="121.05052197683122"><ele>9.0</ele><time>2026-04-12T04:50:10.001Z</time></trkpt><trkpt lat="14.444046694100516" lon="121.05052454453048"><ele>9.0</ele><time>2026-04-12T04:50:11.001Z</time></trkpt><trkpt lat="14.443972867694777" lon="121.05052680108615"><ele>9.0</ele><time>2026-04-12T04:50:12.001Z</time></trkpt><trkpt lat="14.443841526663043" lon="121.05053081561624"><ele>9.0</ele><time>2026-04-12T04:50:14.001Z</time></trkpt><trkpt lat="14.443727165624505" lon="121.050534311141"><ele>9.0</ele><time>2026-04-12T04:50:16.001Z</time></trkpt><trkpt lat="14.443629754474566" lon="121.05053728858016"><ele>8.0</ele><time>2026-04-12T04:50:18.001Z</time></trkpt><trkpt lat="14.443520077981919" lon="121.05054064091514"><ele>7.0</ele><time>2026-04-12T04:50:20.001Z</time></trkpt><trkpt lat="14.443439544241285" lon="121.05053703026105"><ele>6.0</ele><time>2026-04-12T04:50:22Z</time></trkpt><trkpt lat="14.443367937409477" lon="121.05053538444372"><ele>5.0</ele><time>2026-04-12T04:50:24Z</time></trkpt><trkpt lat="14.44324593261148" lon="121.05053258027188"><ele>4.0</ele><time>2026-04-12T04:50:26Z</time></trkpt><trkpt lat="14.443152637212378" lon="121.05054406101043"><ele>3.9999999999999996</ele><time>2026-04-12T04:50:28Z</time></trkpt><trkpt lat="14.443087804170112" lon="121.05052894583204"><ele>4.0</ele><time>2026-04-12T04:50:31Z</time></trkpt><trkpt lat="14.443018103640275" lon="121.05054257824149"><ele>4.0</ele><time>2026-04-12T04:50:33Z</time></trkpt><trkpt lat="14.44294302217382" lon="121.05052866624885"><ele>4.0</ele><time>2026-04-12T04:50:35Z</time></trkpt><trkpt lat="14.44284780818515" lon="121.05052977694007"><ele>3.9999999999999996</ele><time>2026-04-12T04:50:38Z</time></trkpt><trkpt lat="14.44274531432499" lon="121.05053097255224"><ele>4.0</ele><time>2026-04-12T04:50:40Z</time></trkpt><trkpt lat="14.442659710862324" lon="121.05053197113415"><ele>4.333333333333333</ele><time>2026-04-12T04:50:42Z</time></trkpt><trkpt lat="14.44256146517568" lon="121.05053311718821"><ele>4.666666666666666</ele><time>2026-04-12T04:50:44Z</time></trkpt><trkpt lat="14.442488613129271" lon="121.0505486782754"><ele>5.0</ele><time>2026-04-12T04:50:46Z</time></trkpt><trkpt lat="14.442415234898707" lon="121.05054138591665"><ele>5.333333333333333</ele><time>2026-04-12T04:50:51Z</time></trkpt><trkpt lat="14.442333222303336" lon="121.05054055421152"><ele>5.666666666666667</ele><time>2026-04-12T04:50:55Z</time></trkpt><trkpt lat="14.442259306530707" lon="121.05055125301134"><ele>6.0</ele><time>2026-04-12T04:50:58Z</time></trkpt><trkpt lat="14.442189573737114" lon="121.0505515404231"><ele>6.166666666666667</ele><time>2026-04-12T04:51:01Z</time></trkpt><trkpt lat="14.442118207905244" lon="121.05056231714279"><ele>6.333333333333334</ele><time>2026-04-12T04:51:04Z</time></trkpt><trkpt lat="14.442020564481387" lon="121.05055431021502"><ele>6.5</ele><time>2026-04-12T04:51:07Z</time></trkpt><trkpt lat="14.44190849307162" lon="121.05056426179854"><ele>6.666666666666667</ele><time>2026-04-12T04:51:09Z</time></trkpt><trkpt lat="14.441832443999102" lon="121.05057026200556"><ele>6.833333333333334</ele><time>2026-04-12T04:51:10Z</time></trkpt><trkpt lat="14.441759960848659" lon="121.050592720039"><ele>7.0</ele><time>2026-04-12T04:51:11Z</time></trkpt><trkpt lat="14.441675978564984" lon="121.05059784948293"><ele>7.000000000000001</ele><time>2026-04-12T04:51:12Z</time></trkpt><trkpt lat="14.441606397494224" lon="121.0505864271936"><ele>7.0</ele><time>2026-04-12T04:51:13Z</time></trkpt><trkpt lat="14.441539996864943" lon="121.05058925175959"><ele>7.0</ele><time>2026-04-12T04:51:14Z</time></trkpt><trkpt lat="14.441416226677397" lon="121.0505945167241"><ele>7.0</ele><time>2026-04-12T04:51:16Z</time></trkpt><trkpt lat="14.4413493793752" lon="121.05059736029142"><ele>7.000000000000001</ele><time>2026-04-12T04:51:17Z</time></trkpt><trkpt lat="14.441231967647777" lon="121.0506023547782"><ele>7.0</ele><time>2026-04-12T04:51:19Z</time></trkpt><trkpt lat="14.441125026707978" lon="121.05060690385643"><ele>7.3999999999999995</ele><time>2026-04-12T04:51:21Z</time></trkpt><trkpt lat="14.441033621187547" lon="121.05061056139375"><ele>7.799999999999999</ele><time>2026-04-12T04:51:23Z</time></trkpt><trkpt lat="14.440938814026195" lon="121.05061160360418"><ele>8.2</ele><time>2026-04-12T04:51:26Z</time></trkpt><trkpt lat="14.440833953533517" lon="121.0506104800975"><ele>8.6</ele><time>2026-04-12T04:51:28Z</time></trkpt><trkpt lat="14.440718631499678" lon="121.05060924450127"><ele>9.0</ele><time>2026-04-12T04:51:30Z</time></trkpt><trkpt lat="14.44060181881784" lon="121.0505972480406"><ele>9.0</ele><time>2026-04-12T04:51:32Z</time></trkpt><trkpt lat="14.440484708382161" lon="121.05058674064236"><ele>9.0</ele><time>2026-04-12T04:51:34.001Z</time></trkpt><trkpt lat="14.440416543648857" lon="121.05058068469259"><ele>9.0</ele><time>2026-04-12T04:51:35.001Z</time></trkpt><trkpt lat="14.440348975443673" lon="121.05057479585531"><ele>9.0</ele><time>2026-04-12T04:51:36.001Z</time></trkpt><trkpt lat="14.440276994265718" lon="121.05056852241002"><ele>9.0</ele><time>2026-04-12T04:51:37.001Z</time></trkpt><trkpt lat="14.44021093445403" lon="121.0505627650332"><ele>9.0</ele><time>2026-04-12T04:51:38.001Z</time></trkpt><trkpt lat="14.440143339528754" lon="121.05055687386695"><ele>8.857142857142858</ele><time>2026-04-12T04:51:39.001Z</time></trkpt><trkpt lat="14.440073212455534" lon="121.05055076201474"><ele>8.714285714285715</ele><time>2026-04-12T04:51:40.001Z</time></trkpt><trkpt lat="14.439998991162554" lon="121.05054429333343"><ele>8.571428571428571</ele><time>2026-04-12T04:51:41.001Z</time></trkpt><trkpt lat="14.439932376779879" lon="121.05053838036704"><ele>8.428571428571429</ele><time>2026-04-12T04:51:42.001Z</time></trkpt><trkpt lat="14.43986337611172" lon="121.05053220206429"><ele>8.285714285714285</ele><time>2026-04-12T04:51:43.001Z</time></trkpt><trkpt lat="14.439795168588121" lon="121.05052482586416"><ele>8.142857142857142</ele><time>2026-04-12T04:51:44.001Z</time></trkpt><trkpt lat="14.439730815070684" lon="121.05051776433804"><ele>8.0</ele><time>2026-04-12T04:51:45.001Z</time></trkpt><trkpt lat="14.43960980156403" lon="121.05050448549868"><ele>7.833333333333333</ele><time>2026-04-12T04:51:47.001Z</time></trkpt><trkpt lat="14.43954426564407" lon="121.05049729422753"><ele>7.666666666666666</ele><time>2026-04-12T04:51:48.001Z</time></trkpt><trkpt lat="14.439469903107225" lon="121.05048908450637"><ele>7.5</ele><time>2026-04-12T04:51:49.001Z</time></trkpt><trkpt lat="14.439383796868759" lon="121.05047956244728"><ele>7.333333333333334</ele><time>2026-04-12T04:51:50.001Z</time></trkpt><trkpt lat="14.43929533940974" lon="121.05046978037919"><ele>7.166666666666667</ele><time>2026-04-12T04:51:51.001Z</time></trkpt><trkpt lat="14.439214957576395" lon="121.05046089135446"><ele>7.0</ele><time>2026-04-12T04:51:52.001Z</time></trkpt><trkpt lat="14.439146981508145" lon="121.05045337422136"><ele>7.000000000000001</ele><time>2026-04-12T04:51:53.001Z</time></trkpt><trkpt lat="14.439022917368867" lon="121.05043965458684"><ele>7.0</ele><time>2026-04-12T04:51:55.001Z</time></trkpt><trkpt lat="14.438936710463638" lon="121.05043012139677"><ele>7.0</ele><time>2026-04-12T04:51:57.001Z</time></trkpt><trkpt lat="14.438853360371716" lon="121.05042124980282"><ele>7.0</ele><time>2026-04-12T04:51:59.001Z</time></trkpt><trkpt lat="14.438776364200631" lon="121.05041405979618"><ele>7.000000000000001</ele><time>2026-04-12T04:52:00.001Z</time></trkpt><trkpt lat="14.438703561662681" lon="121.05040726139701"><ele>7.0</ele><time>2026-04-12T04:52:01.001Z</time></trkpt><trkpt lat="14.438617355680368" lon="121.05039921136701"><ele>7.0</ele><time>2026-04-12T04:52:02.001Z</time></trkpt><trkpt lat="14.438558432958581" lon="121.05043860592781"><ele>6.999999999999999</ele><time>2026-04-12T04:52:03.001Z</time></trkpt><trkpt lat="14.438461070773462" lon="121.05042552866921"><ele>6.999999999999999</ele><time>2026-04-12T04:52:05.001Z</time></trkpt><trkpt lat="14.438366090796361" lon="121.05041920517003"><ele>7.0</ele><time>2026-04-12T04:52:07.001Z</time></trkpt><trkpt lat="14.43823885441394" lon="121.05041826493232"><ele>7.0</ele><time>2026-04-12T04:52:09.001Z</time></trkpt><trkpt lat="14.438138297758929" lon="121.05040698649725"><ele>7.0</ele><time>2026-04-12T04:52:10.001Z</time></trkpt><trkpt lat="14.438020462437795" lon="121.05037103887803"><ele>6.999999999999999</ele><time>2026-04-12T04:52:12.001Z</time></trkpt><trkpt lat="14.43795318964187" lon="121.05035975678064"><ele>6.999999999999999</ele><time>2026-04-12T04:52:13.001Z</time></trkpt><trkpt lat="14.43787420418713" lon="121.05034770649593"><ele>7.0</ele><time>2026-04-12T04:52:14.001Z</time></trkpt><trkpt lat="14.437739049153052" lon="121.05032961517229"><ele>7.0</ele><time>2026-04-12T04:52:16.001Z</time></trkpt><trkpt lat="14.43767512191265" lon="121.05031851701484"><ele>7.166666666666667</ele><time>2026-04-12T04:52:17.001Z</time></trkpt><trkpt lat="14.437559244335977" lon="121.05030238617577"><ele>7.333333333333334</ele><time>2026-04-12T04:52:19.001Z</time></trkpt><trkpt lat="14.437461472835045" lon="121.05028232792887"><ele>7.5</ele><time>2026-04-12T04:52:21.001Z</time></trkpt><trkpt lat="14.437392972298477" lon="121.05026961629984"><ele>7.666666666666666</ele><time>2026-04-12T04:52:23.001Z</time></trkpt><trkpt lat="14.437320775874744" lon="121.05026165241254"><ele>7.833333333333333</ele><time>2026-04-12T04:52:25.001Z</time></trkpt><trkpt lat="14.43723952137327" lon="121.05025391085582"><ele>8.0</ele><time>2026-04-12T04:52:27.001Z</time></trkpt><trkpt lat="14.437150545180515" lon="121.05024800047147"><ele>7.999999999999999</ele><time>2026-04-12T04:52:29Z</time></trkpt><trkpt lat="14.437082664529624" lon="121.05024308493162"><ele>8.0</ele><time>2026-04-12T04:52:31Z</time></trkpt><trkpt lat="14.43699520226386" lon="121.05023969181788"><ele>8.0</ele><time>2026-04-12T04:52:34Z</time></trkpt><trkpt lat="14.436910289696575" lon="121.05023526019059"><ele>8.0</ele><time>2026-04-12T04:52:37Z</time></trkpt><trkpt lat="14.436827578800811" lon="121.05022732201212"><ele>7.999999999999999</ele><time>2026-04-12T04:52:40Z</time></trkpt><trkpt lat="14.436735362157826" lon="121.05021916779536"><ele>8.0</ele><time>2026-04-12T04:52:43Z</time></trkpt><trkpt lat="14.436660339496973" lon="121.05021449997051"><ele>7.999999999999999</ele><time>2026-04-12T04:52:45Z</time></trkpt><trkpt lat="14.436566797057756" lon="121.050214846495"><ele>8.0</ele><time>2026-04-12T04:52:47Z</time></trkpt><trkpt lat="14.43650082437117" lon="121.05022028861133"><ele>8.0</ele><time>2026-04-12T04:52:48Z</time></trkpt><trkpt lat="14.436425222654142" lon="121.05020957518704"><ele>8.0</ele><time>2026-04-12T04:52:49Z</time></trkpt><trkpt lat="14.436353439329807" lon="121.05020807110806"><ele>7.999999999999999</ele><time>2026-04-12T04:52:50Z</time></trkpt><trkpt lat="14.43624614309614" lon="121.05019502434851"><ele>8.0</ele><time>2026-04-12T04:52:52Z</time></trkpt><trkpt lat="14.436155149468258" lon="121.05019736096435"><ele>7.999999999999999</ele><time>2026-04-12T04:52:54Z</time></trkpt><trkpt lat="14.436091357842106" lon="121.05019636740055"><ele>8.0</ele><time>2026-04-12T04:52:56Z</time></trkpt><trkpt lat="14.436012587613899" lon="121.05019323724865"><ele>8.0</ele><time>2026-04-12T04:52:58Z</time></trkpt><trkpt lat="14.435900472375268" lon="121.05018497011649"><ele>8.0</ele><time>2026-04-12T04:53:00Z</time></trkpt><trkpt lat="14.435810531355562" lon="121.0501864548231"><ele>7.999999999999999</ele><time>2026-04-12T04:53:02Z</time></trkpt><trkpt lat="14.435729431028477" lon="121.05018561430968"><ele>8.0</ele><time>2026-04-12T04:53:04Z</time></trkpt><trkpt lat="14.4356377724138" lon="121.05018529372857"><ele>7.999999999999999</ele><time>2026-04-12T04:53:06Z</time></trkpt><trkpt lat="14.435539127378371" lon="121.05017858939837"><ele>8.0</ele><time>2026-04-12T04:53:08Z</time></trkpt><trkpt lat="14.435462800074673" lon="121.050178228271"><ele>8.0</ele><time>2026-04-12T04:53:10Z</time></trkpt><trkpt lat="14.435391975290948" lon="121.05017251040772"><ele>8.0</ele><time>2026-04-12T04:53:12Z</time></trkpt><trkpt lat="14.435326967769143" lon="121.05016914280849"><ele>7.999999999999999</ele><time>2026-04-12T04:53:14Z</time></trkpt><trkpt lat="14.43526120875909" lon="121.05017026310537"><ele>8.0</ele><time>2026-04-12T04:53:17Z</time></trkpt><trkpt lat="14.435231849682193" lon="121.05024424932127"><ele>7.999999999999999</ele><time>2026-04-12T04:53:26Z</time></trkpt><trkpt lat="14.435222430639106" lon="121.0503136757078"><ele>8.0</ele><time>2026-04-12T04:53:31Z</time></trkpt><trkpt lat="14.43521107819457" lon="121.05039625637606"><ele>8.0</ele><time>2026-04-12T04:53:35Z</time></trkpt><trkpt lat="14.43520512676416" lon="121.05047801656828"><ele>8.0</ele><time>2026-04-12T04:53:39Z</time></trkpt><trkpt lat="14.435185617902441" lon="121.05055767742353"><ele>7.999999999999999</ele><time>2026-04-12T04:53:44Z</time></trkpt><trkpt lat="14.435181222198812" lon="121.05064231933427"><ele>8.0</ele><time>2026-04-12T04:53:48.001Z</time></trkpt><trkpt lat="14.435169611300294" lon="121.05071702397251"><ele>8.0</ele><time>2026-04-12T04:53:55.001Z</time></trkpt><trkpt lat="14.435099798645489" lon="121.05070709449934"><ele>8.0</ele><time>2026-04-12T04:54:03.001Z</time></trkpt><trkpt lat="14.435277690167293" lon="121.05071055578159"><ele>8.0</ele><time>2026-04-12T04:56:52Z</time></trkpt><trkpt lat="14.435363134022438" lon="121.05073548254707"><ele>8.0</ele><time>2026-04-12T04:56:53Z</time></trkpt><trkpt lat="14.435198486853926" lon="121.05082599076816"><ele>8.0</ele><time>2026-04-12T04:56:57Z</time></trkpt><trkpt lat="14.43503250285688" lon="121.05078667595474"><ele>8.0</ele><time>2026-04-12T04:56:58Z</time></trkpt><trkpt lat="14.435073117567338" lon="121.05071963846083"><ele>8.0</ele><time>2026-04-12T04:57:21Z</time></trkpt><trkpt lat="14.43520512632117" lon="121.05071465840403"><ele>8.0</ele><time>2026-04-12T04:57:32Z</time></trkpt><trkpt lat="14.435138588594722" lon="121.05072411294135"><ele>8.0</ele><time>2026-04-12T04:58:12.001Z</time></trkpt><trkpt lat="14.435064107788055" lon="121.05072542670369"><ele>8.0</ele><time>2026-04-12T04:58:17.001Z</time></trkpt><trkpt lat="14.434991408536128" lon="121.05077569374369"><ele>8.0</ele><time>2026-04-12T04:58:41.037Z</time></trkpt><trkpt lat="14.434912325213292" lon="121.05066986573416"><ele>8.0</ele><time>2026-04-12T04:59:15.026Z</time></trkpt><trkpt lat="14.434965122594878" lon="121.05071783529131"><ele>8.0</ele><time>2026-04-12T04:59:38.014Z</time></trkpt><trkpt lat="14.435056112333681" lon="121.05070789510916"><ele>8.0</ele><time>2026-04-12T04:59:53.011Z</time></trkpt><trkpt lat="14.4351307671398" lon="121.05072571865446"><ele>8.0</ele><time>2026-04-12T05:00:12.015Z</time></trkpt><trkpt lat="14.435221575306988" lon="121.05071540248039"><ele>8.0</ele><time>2026-04-12T05:00:45.011Z</time></trkpt><trkpt lat="14.435229827985978" lon="121.05056502190016"><ele>8.0</ele><time>2026-04-12T05:00:56.01Z</time></trkpt><trkpt lat="14.435228079761512" lon="121.05049097896698"><ele>8.0</ele><time>2026-04-12T05:00:59.014Z</time></trkpt><trkpt lat="14.435342170008875" lon="121.05054726405075"><ele>8.0</ele><time>2026-04-12T05:01:04.014Z</time></trkpt><trkpt lat="14.435529158948478" lon="121.05064285699335"><ele>8.0</ele><time>2026-04-12T05:01:07.013Z</time></trkpt><trkpt lat="14.435212166687567" lon="121.05082015934246"><ele>8.0</ele><time>2026-04-12T05:10:04.005Z</time></trkpt><trkpt lat="14.435128175943314" lon="121.05071428838902"><ele>8.0</ele><time>2026-04-12T05:19:06Z</time></trkpt><trkpt lat="14.435195927518036" lon="121.05077111920225"><ele>8.0</ele><time>2026-04-12T05:19:31Z</time></trkpt><trkpt lat="14.435308623680262" lon="121.05077144480454"><ele>8.0</ele><time>2026-04-12T05:19:38Z</time></trkpt><trkpt lat="14.435121940917218" lon="121.0507208375242"><ele>8.0</ele><time>2026-04-12T05:23:37Z</time></trkpt><trkpt lat="14.434959721542723" lon="121.05068265078556"><ele>8.0</ele><time>2026-04-12T09:27:32.001Z</time></trkpt><trkpt lat="14.434871850128594" lon="121.0507163715232"><ele>8.0</ele><time>2026-04-12T09:27:35.001Z</time></trkpt><trkpt lat="14.435094256261927" lon="121.0506751365165"><ele>8.0</ele><time>2026-04-12T09:27:50.001Z</time></trkpt><trkpt lat="14.435166295733188" lon="121.05069607784112"><ele>8.0</ele><time>2026-04-12T09:27:55.001Z</time></trkpt><trkpt lat="14.435171746321839" lon="121.05076543658635"><ele>7.999999999999999</ele><time>2026-04-12T09:28:04.001Z</time></trkpt><trkpt lat="14.43523481190812" lon="121.0507274848663"><ele>8.0</ele><time>2026-04-12T09:28:17Z</time></trkpt><trkpt lat="14.435227935422098" lon="121.05064950909795"><ele>8.0</ele><time>2026-04-12T09:28:26Z</time></trkpt><trkpt lat="14.435265113315152" lon="121.05058881849912"><ele>8.0</ele><time>2026-04-12T09:28:31Z</time></trkpt><trkpt lat="14.435209365595233" lon="121.05065253944434"><ele>7.999999999999999</ele><time>2026-04-12T09:28:45Z</time></trkpt><trkpt lat="14.435090467535904" lon="121.05066230412375"><ele>8.0</ele><time>2026-04-12T09:28:49Z</time></trkpt><trkpt lat="14.435320542290986" lon="121.050780000725"><ele>8.0</ele><time>2026-04-12T09:28:57Z</time></trkpt><trkpt lat="14.435215036456128" lon="121.05072343337395"><ele>8.0</ele><time>2026-04-12T09:29:12.051Z</time></trkpt><trkpt lat="14.435338678610872" lon="121.05072610852525"><ele>8.0</ele><time>2026-04-12T09:29:31.041Z</time></trkpt><trkpt lat="14.435262728691121" lon="121.05069944066132"><ele>8.0</ele><time>2026-04-12T09:30:40Z</time></trkpt><trkpt lat="14.435182033145601" lon="121.05074939610711"><ele>8.0</ele><time>2026-04-12T09:30:46Z</time></trkpt><trkpt lat="14.435103912662376" lon="121.05079806784411"><ele>7.999999999999999</ele><time>2026-04-12T09:30:49Z</time></trkpt><trkpt lat="14.435193836167102" lon="121.05079009841478"><ele>8.0</ele><time>2026-04-12T09:31:36Z</time></trkpt><trkpt lat="14.435097921920422" lon="121.05078705785603"><ele>8.0</ele><time>2026-04-12T11:43:18Z</time></trkpt><trkpt lat="14.435160270470371" lon="121.05083458771108"><ele>8.0</ele><time>2026-04-12T11:47:44Z</time></trkpt><trkpt lat="14.435126919396378" lon="121.05075214920053"><ele>7.999999999999999</ele><time>2026-04-12T11:53:51Z</time></trkpt><trkpt lat="14.435158771530139" lon="121.05068514792397"><ele>8.0</ele><time>2026-04-12T11:54:05Z</time></trkpt><trkpt lat="14.435153813250215" lon="121.05060283589907"><ele>7.999999999999999</ele><time>2026-04-12T11:54:09Z</time></trkpt><trkpt lat="14.435195599134724" lon="121.05051200167881"><ele>8.0</ele><time>2026-04-12T11:54:13Z</time></trkpt><trkpt lat="14.435211032054353" lon="121.05041879610391"><ele>8.0</ele><time>2026-04-12T11:54:17Z</time></trkpt><trkpt lat="14.43523295302524" lon="121.05033440780805"><ele>8.0</ele><time>2026-04-12T11:54:21Z</time></trkpt><trkpt lat="14.435254070560607" lon="121.05026281611745"><ele>7.999999999999999</ele><time>2026-04-12T11:54:26Z</time></trkpt><trkpt lat="14.435309636479962" lon="121.05022015520721"><ele>8.0</ele><time>2026-04-12T11:54:32Z</time></trkpt><trkpt lat="14.435390567885378" lon="121.05021608863801"><ele>8.0</ele><time>2026-04-12T11:54:35Z</time></trkpt><trkpt lat="14.435456790484825" lon="121.0502178126509"><ele>7.999999999999999</ele><time>2026-04-12T11:54:40Z</time></trkpt><trkpt lat="14.435525790167102" lon="121.05017724706492"><ele>8.0</ele><time>2026-04-12T11:56:52Z</time></trkpt><trkpt lat="14.435593548733927" lon="121.0501682387533"><ele>8.0</ele><time>2026-04-12T11:56:54Z</time></trkpt><trkpt lat="14.435664964067316" lon="121.05016767626984"><ele>7.999999999999999</ele><time>2026-04-12T11:56:56Z</time></trkpt><trkpt lat="14.435736049664968" lon="121.05016980578563"><ele>8.0</ele><time>2026-04-12T11:56:58Z</time></trkpt><trkpt lat="14.435807544687814" lon="121.05017182438303"><ele>8.0</ele><time>2026-04-12T11:57:00Z</time></trkpt><trkpt lat="14.435887108938509" lon="121.05017366281317"><ele>7.999999999999999</ele><time>2026-04-12T11:57:02Z</time></trkpt><trkpt lat="14.435963342949046" lon="121.05017435358087"><ele>8.0</ele><time>2026-04-12T11:57:04Z</time></trkpt><trkpt lat="14.43604186701942" lon="121.05018562834036"><ele>8.0</ele><time>2026-04-12T11:57:06Z</time></trkpt><trkpt lat="14.436117679512815" lon="121.05019972152522"><ele>8.0</ele><time>2026-04-12T11:57:08Z</time></trkpt><trkpt lat="14.436195066748164" lon="121.05019972794699"><ele>7.999999999999999</ele><time>2026-04-12T11:57:10Z</time></trkpt><trkpt lat="14.43628691956426" lon="121.05019574500513"><ele>8.0</ele><time>2026-04-12T11:57:12Z</time></trkpt><trkpt lat="14.436389590419703" lon="121.05020060800945"><ele>8.0</ele><time>2026-04-12T11:57:14Z</time></trkpt><trkpt lat="14.436507368867744" lon="121.05022490111342"><ele>8.0</ele><time>2026-04-12T11:57:16Z</time></trkpt><trkpt lat="14.436627920041916" lon="121.05021690273144"><ele>8.0</ele><time>2026-04-12T11:57:18Z</time></trkpt><trkpt lat="14.43673148315795" lon="121.05022982873544"><ele>8.0</ele><time>2026-04-12T11:57:20Z</time></trkpt><trkpt lat="14.436830428277778" lon="121.05023228444855"><ele>8.0</ele><time>2026-04-12T11:57:22Z</time></trkpt><trkpt lat="14.436920085531794" lon="121.05023419702957"><ele>8.0</ele><time>2026-04-12T11:57:24Z</time></trkpt><trkpt lat="14.43700286946159" lon="121.05024777243207"><ele>7.999999999999999</ele><time>2026-04-12T11:57:26Z</time></trkpt><trkpt lat="14.437067296264962" lon="121.05025000624346"><ele>8.0</ele><time>2026-04-12T11:57:28Z</time></trkpt><trkpt lat="14.437135217073722" lon="121.05025071563207"><ele>8.0</ele><time>2026-04-12T11:57:35Z</time></trkpt><trkpt lat="14.437200847058692" lon="121.0502598201267"><ele>7.999999999999999</ele><time>2026-04-12T11:57:57Z</time></trkpt><trkpt lat="14.43726536874605" lon="121.05027803935435"><ele>8.0</ele><time>2026-04-12T11:58:04Z</time></trkpt><trkpt lat="14.437330615920702" lon="121.05028088802496"><ele>8.0</ele><time>2026-04-12T11:58:11Z</time></trkpt><trkpt lat="14.437402302382193" lon="121.05027534149974"><ele>7.999999999999999</ele><time>2026-04-12T11:58:15Z</time></trkpt><trkpt lat="14.437469577198407" lon="121.05029152345725"><ele>8.0</ele><time>2026-04-12T11:58:17Z</time></trkpt><trkpt lat="14.437550590467973" lon="121.05029921727026"><ele>8.0</ele><time>2026-04-12T11:58:19Z</time></trkpt><trkpt lat="14.437625798179084" lon="121.05032635594536"><ele>8.0</ele><time>2026-04-12T11:58:21Z</time></trkpt><trkpt lat="14.437703422620833" lon="121.05032489732777"><ele>7.999999999999999</ele><time>2026-04-12T11:58:23Z</time></trkpt><trkpt lat="14.4377742336562" lon="121.05033324218246"><ele>8.0</ele><time>2026-04-12T11:58:25Z</time></trkpt><trkpt lat="14.437853051000696" lon="121.05034798523482"><ele>8.0</ele><time>2026-04-12T11:58:27Z</time></trkpt><trkpt lat="14.437938812833009" lon="121.0503692635128"><ele>8.0</ele><time>2026-04-12T11:58:29Z</time></trkpt><trkpt lat="14.438047379684992" lon="121.05038399335795"><ele>8.0</ele><time>2026-04-12T11:58:31Z</time></trkpt><trkpt lat="14.438110530141575" lon="121.05038809960239"><ele>8.0</ele><time>2026-04-12T11:58:32Z</time></trkpt><trkpt lat="14.438215832930672" lon="121.05040560766031"><ele>8.0</ele><time>2026-04-12T11:58:34Z</time></trkpt><trkpt lat="14.438303542348368" lon="121.05041612323761"><ele>7.75</ele><time>2026-04-12T11:58:36Z</time></trkpt><trkpt lat="14.438411815404198" lon="121.05042840230279"><ele>7.5</ele><time>2026-04-12T11:58:38Z</time></trkpt><trkpt lat="14.438527236009147" lon="121.05043834003044"><ele>7.25</ele><time>2026-04-12T11:58:40Z</time></trkpt><trkpt lat="14.438651472612495" lon="121.0504440991628"><ele>7.0</ele><time>2026-04-12T11:58:42Z</time></trkpt><trkpt lat="14.438764357561201" lon="121.05045243899016"><ele>7.000000000000001</ele><time>2026-04-12T11:58:44Z</time></trkpt><trkpt lat="14.43883815633937" lon="121.05045129777575"><ele>7.0</ele><time>2026-04-12T11:58:46Z</time></trkpt><trkpt lat="14.438900346451398" lon="121.05046385976054"><ele>7.0</ele><time>2026-04-12T11:58:47Z</time></trkpt><trkpt lat="14.438991810207083" lon="121.05047063135952"><ele>7.0</ele><time>2026-04-12T11:58:49Z</time></trkpt><trkpt lat="14.439090383800142" lon="121.05048599726449"><ele>7.000000000000001</ele><time>2026-04-12T11:58:51Z</time></trkpt><trkpt lat="14.439181864058401" lon="121.05049549546449"><ele>7.0</ele><time>2026-04-12T11:58:53Z</time></trkpt><trkpt lat="14.439277433134317" lon="121.05050361063195"><ele>7.000000000000001</ele><time>2026-04-12T11:58:55Z</time></trkpt><trkpt lat="14.439377467001751" lon="121.05051007646716"><ele>7.0</ele><time>2026-04-12T11:58:57Z</time></trkpt><trkpt lat="14.439456066309077" lon="121.05052479514296"><ele>7.0</ele><time>2026-04-12T11:58:59Z</time></trkpt><trkpt lat="14.439527486158662" lon="121.0505354506275"><ele>7.0</ele><time>2026-04-12T11:59:01Z</time></trkpt><trkpt lat="14.43960544052352" lon="121.05054659868641"><ele>7.000000000000001</ele><time>2026-04-12T11:59:03Z</time></trkpt><trkpt lat="14.439684680777612" lon="121.05055444385783"><ele>7.0</ele><time>2026-04-12T11:59:05Z</time></trkpt><trkpt lat="14.439792798035027" lon="121.05056350619323"><ele>7.166666666666667</ele><time>2026-04-12T11:59:07Z</time></trkpt><trkpt lat="14.439897413185221" lon="121.05056750345787"><ele>7.333333333333334</ele><time>2026-04-12T11:59:09Z</time></trkpt><trkpt lat="14.439963796844735" lon="121.05057399865326"><ele>7.5</ele><time>2026-04-12T11:59:10Z</time></trkpt><trkpt lat="14.440030789784029" lon="121.05058571830108"><ele>7.666666666666666</ele><time>2026-04-12T11:59:11Z</time></trkpt><trkpt lat="14.440104812536108" lon="121.05059413383752"><ele>7.833333333333333</ele><time>2026-04-12T11:59:12Z</time></trkpt><trkpt lat="14.440182191572797" lon="121.05059816215466"><ele>8.0</ele><time>2026-04-12T11:59:13Z</time></trkpt><trkpt lat="14.44025523504093" lon="121.0506036094422"><ele>7.999999999999999</ele><time>2026-04-12T11:59:14Z</time></trkpt><trkpt lat="14.440328941588158" lon="121.05061333612998"><ele>8.0</ele><time>2026-04-12T11:59:15Z</time></trkpt><trkpt lat="14.440419075400861" lon="121.05063661578431"><ele>8.0</ele><time>2026-04-12T11:59:17Z</time></trkpt><trkpt lat="14.440505085523643" lon="121.05063384570734"><ele>8.0</ele><time>2026-04-12T11:59:19Z</time></trkpt><trkpt lat="14.44063459946726" lon="121.05064370265804"><ele>7.999999999999999</ele><time>2026-04-12T11:59:21Z</time></trkpt><trkpt lat="14.44069826188094" lon="121.0506511690416"><ele>8.0</ele><time>2026-04-12T11:59:22Z</time></trkpt><trkpt lat="14.440767210663244" lon="121.05065645676477"><ele>8.200000000000001</ele><time>2026-04-12T11:59:23Z</time></trkpt><trkpt lat="14.440896195059693" lon="121.0506593269087"><ele>8.4</ele><time>2026-04-12T11:59:25Z</time></trkpt><trkpt lat="14.440961262197655" lon="121.05065987478751"><ele>8.600000000000001</ele><time>2026-04-12T11:59:26Z</time></trkpt><trkpt lat="14.441026582950443" lon="121.05066084699969"><ele>8.8</ele><time>2026-04-12T11:59:27Z</time></trkpt><trkpt lat="14.441140187529905" lon="121.05065187891039"><ele>9.0</ele><time>2026-04-12T11:59:29Z</time></trkpt><trkpt lat="14.441239408597982" lon="121.050647760543"><ele>8.6</ele><time>2026-04-12T11:59:31Z</time></trkpt><trkpt lat="14.441347080426336" lon="121.05064511603476"><ele>8.2</ele><time>2026-04-12T11:59:33Z</time></trkpt><trkpt lat="14.44146970326976" lon="121.05063571485928"><ele>7.799999999999999</ele><time>2026-04-12T11:59:35Z</time></trkpt><trkpt lat="14.441568717753908" lon="121.05063228373635"><ele>7.3999999999999995</ele><time>2026-04-12T11:59:37Z</time></trkpt><trkpt lat="14.441650503035055" lon="121.05062430763893"><ele>7.0</ele><time>2026-04-12T11:59:39Z</time></trkpt><trkpt lat="14.441744350991822" lon="121.05062119974491"><ele>7.000000000000001</ele><time>2026-04-12T11:59:41Z</time></trkpt><trkpt lat="14.441836760105216" lon="121.05061097351805"><ele>7.0</ele><time>2026-04-12T11:59:43Z</time></trkpt><trkpt lat="14.44191915539001" lon="121.05060102731773"><ele>7.0</ele><time>2026-04-12T11:59:45Z</time></trkpt><trkpt lat="14.441988938566576" lon="121.0505921583642"><ele>7.0</ele><time>2026-04-12T11:59:47Z</time></trkpt><trkpt lat="14.442056940553048" lon="121.0505982590685"><ele>7.000000000000001</ele><time>2026-04-12T11:59:49Z</time></trkpt><trkpt lat="14.442123309628467" lon="121.05059050262444"><ele>7.0</ele><time>2026-04-12T11:59:51Z</time></trkpt><trkpt lat="14.442204101654788" lon="121.0505743998827"><ele>6.833333333333334</ele><time>2026-04-12T11:59:53Z</time></trkpt><trkpt lat="14.442291438482851" lon="121.05056663256292"><ele>6.666666666666667</ele><time>2026-04-12T11:59:55Z</time></trkpt><trkpt lat="14.442354561091962" lon="121.05056446543908"><ele>6.5</ele><time>2026-04-12T11:59:57Z</time></trkpt><trkpt lat="14.442434889183437" lon="121.05056294031418"><ele>6.333333333333334</ele><time>2026-04-12T11:59:59Z</time></trkpt><trkpt lat="14.442527720946575" lon="121.05057621514185"><ele>6.166666666666667</ele><time>2026-04-12T12:00:02Z</time></trkpt><trkpt lat="14.442597632430829" lon="121.05056686989346"><ele>6.0</ele><time>2026-04-12T12:00:04Z</time></trkpt><trkpt lat="14.442733907040752" lon="121.05056575064656"><ele>5.999999999999999</ele><time>2026-04-12T12:00:06Z</time></trkpt><trkpt lat="14.442811037980187" lon="121.05057515519135"><ele>6.0</ele><time>2026-04-12T12:00:07Z</time></trkpt><trkpt lat="14.442877998395739" lon="121.05057883736532"><ele>6.0</ele><time>2026-04-12T12:00:08Z</time></trkpt><trkpt lat="14.442949400740153" lon="121.0505880987414"><ele>6.0</ele><time>2026-04-12T12:00:10Z</time></trkpt><trkpt lat="14.44301923097404" lon="121.0505956368321"><ele>6.0</ele><time>2026-04-12T12:00:13Z</time></trkpt><trkpt lat="14.443098996283924" lon="121.05059209966622"><ele>5.999999999999999</ele><time>2026-04-12T12:00:15Z</time></trkpt><trkpt lat="14.443167638264747" lon="121.05059335038905"><ele>6.0</ele><time>2026-04-12T12:00:17Z</time></trkpt><trkpt lat="14.44326496652497" lon="121.05058686568883"><ele>5.666666666666667</ele><time>2026-04-12T12:00:20Z</time></trkpt><trkpt lat="14.443358019732779" lon="121.05059661758636"><ele>5.333333333333333</ele><time>2026-04-12T12:00:22Z</time></trkpt><trkpt lat="14.443436130496375" lon="121.05059836175838"><ele>5.0</ele><time>2026-04-12T12:00:24Z</time></trkpt><trkpt lat="14.443518870910758" lon="121.05059162633111"><ele>4.666666666666666</ele><time>2026-04-12T12:00:26Z</time></trkpt><trkpt lat="14.443613228302375" lon="121.05058891694823"><ele>4.333333333333333</ele><time>2026-04-12T12:00:28Z</time></trkpt><trkpt lat="14.443690292570974" lon="121.05059376017917"><ele>4.0</ele><time>2026-04-12T12:00:30Z</time></trkpt><trkpt lat="14.443778013606147" lon="121.05059317101657"><ele>4.714285714285714</ele><time>2026-04-12T12:00:33Z</time></trkpt><trkpt lat="14.44386672060911" lon="121.0505907035649"><ele>5.428571428571429</ele><time>2026-04-12T12:00:36Z</time></trkpt><trkpt lat="14.443931643177535" lon="121.05059261425554"><ele>6.142857142857143</ele><time>2026-04-12T12:00:39Z</time></trkpt><trkpt lat="14.444003946145866" lon="121.05059109006008"><ele>6.857142857142858</ele><time>2026-04-12T12:00:43Z</time></trkpt><trkpt lat="14.44406810649702" lon="121.05058407350134"><ele>7.571428571428571</ele><time>2026-04-12T12:00:48Z</time></trkpt><trkpt lat="14.444132532421245" lon="121.05058212844007"><ele>8.285714285714286</ele><time>2026-04-12T12:00:51Z</time></trkpt><trkpt lat="14.444205403544125" lon="121.05057296074347"><ele>9.0</ele><time>2026-04-12T12:00:53Z</time></trkpt><trkpt lat="14.444298213662124" lon="121.0505678821437"><ele>9.0</ele><time>2026-04-12T12:00:56Z</time></trkpt><trkpt lat="14.444373811158082" lon="121.05056901334224"><ele>9.0</ele><time>2026-04-12T12:00:59Z</time></trkpt><trkpt lat="14.444454664823901" lon="121.05056303694717"><ele>9.0</ele><time>2026-04-12T12:01:02Z</time></trkpt><trkpt lat="14.444535337908295" lon="121.05056054016757"><ele>9.0</ele><time>2026-04-12T12:01:05Z</time></trkpt><trkpt lat="14.444604443499529" lon="121.05056018962549"><ele>9.0</ele><time>2026-04-12T12:01:09Z</time></trkpt><trkpt lat="14.44469030418012" lon="121.05056446740448"><ele>9.0</ele><time>2026-04-12T12:01:15Z</time></trkpt><trkpt lat="14.444765514822949" lon="121.05054144339553"><ele>8.8</ele><time>2026-04-12T12:01:19Z</time></trkpt><trkpt lat="14.444788776119449" lon="121.05043685091216"><ele>8.600000000000001</ele><time>2026-04-12T12:01:22Z</time></trkpt><trkpt lat="14.444778342411862" lon="121.05032969449461"><ele>8.4</ele><time>2026-04-12T12:01:24Z</time></trkpt><trkpt lat="14.444782414001454" lon="121.05023892851116"><ele>8.200000000000001</ele><time>2026-04-12T12:01:26Z</time></trkpt><trkpt lat="14.444781516024385" lon="121.05016035355769"><ele>8.0</ele><time>2026-04-12T12:01:28Z</time></trkpt><trkpt lat="14.444783972743512" lon="121.05006073958927"><ele>8.166666666666666</ele><time>2026-04-12T12:01:30Z</time></trkpt><trkpt lat="14.44479059991735" lon="121.04995493255123"><ele>8.333333333333332</ele><time>2026-04-12T12:01:32Z</time></trkpt><trkpt lat="14.444785739126056" lon="121.0498423100271"><ele>8.5</ele><time>2026-04-12T12:01:34Z</time></trkpt><trkpt lat="14.444786643667786" lon="121.04977314156811"><ele>8.666666666666666</ele><time>2026-04-12T12:01:35Z</time></trkpt><trkpt lat="14.444785361041792" lon="121.04970058757044"><ele>8.833333333333334</ele><time>2026-04-12T12:01:36Z</time></trkpt><trkpt lat="14.444787953703134" lon="121.04962176389277"><ele>9.0</ele><time>2026-04-12T12:01:37Z</time></trkpt><trkpt lat="14.444789073976121" lon="121.04954031277963"><ele>9.0</ele><time>2026-04-12T12:01:38Z</time></trkpt><trkpt lat="14.44477997979505" lon="121.04945911174075"><ele>9.0</ele><time>2026-04-12T12:01:39Z</time></trkpt><trkpt lat="14.444781354205123" lon="121.04937121418726"><ele>9.0</ele><time>2026-04-12T12:01:40Z</time></trkpt><trkpt lat="14.444778626141197" lon="121.04928477894475"><ele>9.0</ele><time>2026-04-12T12:01:41Z</time></trkpt><trkpt lat="14.444776154741858" lon="121.04919859507767"><ele>9.0</ele><time>2026-04-12T12:01:42Z</time></trkpt><trkpt lat="14.44477460651198" lon="121.04911802721227"><ele>9.0</ele><time>2026-04-12T12:01:43Z</time></trkpt><trkpt lat="14.444772757587486" lon="121.04904231049888"><ele>9.000000000000002</ele><time>2026-04-12T12:01:44Z</time></trkpt><trkpt lat="14.444776066745229" lon="121.0489750928282"><ele>9.0</ele><time>2026-04-12T12:01:45Z</time></trkpt><trkpt lat="14.444776388858791" lon="121.04890653824975"><ele>9.0</ele><time>2026-04-12T12:01:46Z</time></trkpt><trkpt lat="14.444775017848082" lon="121.04884094002472"><ele>9.0</ele><time>2026-04-12T12:01:47Z</time></trkpt><trkpt lat="14.444773813274754" lon="121.04877287344253"><ele>9.0</ele><time>2026-04-12T12:01:48Z</time></trkpt><trkpt lat="14.444771858446847" lon="121.04870096318109"><ele>9.000000000000002</ele><time>2026-04-12T12:01:49Z</time></trkpt><trkpt lat="14.444773085413933" lon="121.04863483515109"><ele>9.0</ele><time>2026-04-12T12:01:50Z</time></trkpt><trkpt lat="14.444774495731565" lon="121.04850846750628"><ele>9.0</ele><time>2026-04-12T12:01:52Z</time></trkpt><trkpt lat="14.44477413097654" lon="121.04838174210055"><ele>9.0</ele><time>2026-04-12T12:01:54Z</time></trkpt><trkpt lat="14.444769808486814" lon="121.04831129628258"><ele>9.0</ele><time>2026-04-12T12:01:55Z</time></trkpt><trkpt lat="14.444770442324417" lon="121.04823639658632"><ele>9.0</ele><time>2026-04-12T12:01:56Z</time></trkpt><trkpt lat="14.44477140273618" lon="121.04816054367524"><ele>9.0</ele><time>2026-04-12T12:01:57Z</time></trkpt><trkpt lat="14.444773745208378" lon="121.04808019054397"><ele>9.0</ele><time>2026-04-12T12:01:58Z</time></trkpt><trkpt lat="14.444773846229293" lon="121.04799945968361"><ele>9.166666666666666</ele><time>2026-04-12T12:01:59Z</time></trkpt><trkpt lat="14.44478047150963" lon="121.04791455219535"><ele>9.333333333333334</ele><time>2026-04-12T12:02:00Z</time></trkpt><trkpt lat="14.44477916862915" lon="121.04782751933922"><ele>9.5</ele><time>2026-04-12T12:02:01Z</time></trkpt><trkpt lat="14.444774685675453" lon="121.04774059882628"><ele>9.666666666666668</ele><time>2026-04-12T12:02:02Z</time></trkpt><trkpt lat="14.444771002953914" lon="121.04765258446609"><ele>9.833333333333334</ele><time>2026-04-12T12:02:03Z</time></trkpt><trkpt lat="14.444769129964174" lon="121.04756249723602"><ele>10.0</ele><time>2026-04-12T12:02:04Z</time></trkpt><trkpt lat="14.44476919691151" lon="121.04746597189607"><ele>10.4</ele><time>2026-04-12T12:02:05Z</time></trkpt><trkpt lat="14.444770074670577" lon="121.04737094977122"><ele>10.8</ele><time>2026-04-12T12:02:06Z</time></trkpt><trkpt lat="14.444771181240759" lon="121.04727420045434"><ele>11.2</ele><time>2026-04-12T12:02:07Z</time></trkpt><trkpt lat="14.44477072113559" lon="121.04718364463012"><ele>11.6</ele><time>2026-04-12T12:02:08Z</time></trkpt><trkpt lat="14.444771305731164" lon="121.0470839424517"><ele>12.0</ele><time>2026-04-12T12:02:09Z</time></trkpt><trkpt lat="14.444769084159285" lon="121.0469808639447"><ele>12.0</ele><time>2026-04-12T12:02:10Z</time></trkpt><trkpt lat="14.444777423410246" lon="121.04689055320972"><ele>12.0</ele><time>2026-04-12T12:02:11Z</time></trkpt><trkpt lat="14.444771747128318" lon="121.04679147245113"><ele>12.0</ele><time>2026-04-12T12:02:12Z</time></trkpt><trkpt lat="14.444775542616851" lon="121.0466932170976"><ele>12.0</ele><time>2026-04-12T12:02:13Z</time></trkpt><trkpt lat="14.444770635592658" lon="121.04660003414095"><ele>12.0</ele><time>2026-04-12T12:02:14Z</time></trkpt><trkpt lat="14.44477643257124" lon="121.04650189367686"><ele>12.399999999999999</ele><time>2026-04-12T12:02:15Z</time></trkpt><trkpt lat="14.444773884414825" lon="121.04640243710877"><ele>12.799999999999999</ele><time>2026-04-12T12:02:16Z</time></trkpt><trkpt lat="14.44477112026841" lon="121.04630284390402"><ele>13.2</ele><time>2026-04-12T12:02:17Z</time></trkpt><trkpt lat="14.444768890285813" lon="121.0462117562741"><ele>13.6</ele><time>2026-04-12T12:02:18Z</time></trkpt><trkpt lat="14.444774228316327" lon="121.04611850674286"><ele>14.0</ele><time>2026-04-12T12:02:19Z</time></trkpt><trkpt lat="14.444772168199997" lon="121.04603088635574"><ele>14.000000000000002</ele><time>2026-04-12T12:02:20Z</time></trkpt><trkpt lat="14.444772413534384" lon="121.04595611212254"><ele>14.0</ele><time>2026-04-12T12:02:21Z</time></trkpt><trkpt lat="14.444774542455095" lon="121.04588959264449"><ele>14.0</ele><time>2026-04-12T12:02:22Z</time></trkpt><trkpt lat="14.444769552518311" lon="121.04582265552031"><ele>14.0</ele><time>2026-04-12T12:02:23Z</time></trkpt><trkpt lat="14.444761509938973" lon="121.04570913158543"><ele>14.000000000000002</ele><time>2026-04-12T12:02:25Z</time></trkpt><trkpt lat="14.444770822076961" lon="121.04563467669747"><ele>14.0</ele><time>2026-04-12T12:02:28Z</time></trkpt><trkpt lat="14.444836677951942" lon="121.04560490257974"><ele>14.399999999999999</ele><time>2026-04-12T12:02:32Z</time></trkpt><trkpt lat="14.444943224188263" lon="121.04560012437054"><ele>14.799999999999999</ele><time>2026-04-12T12:02:34Z</time></trkpt><trkpt lat="14.445073654891345" lon="121.04563738074138"><ele>15.200000000000001</ele><time>2026-04-12T12:02:36Z</time></trkpt><trkpt lat="14.445161138735237" lon="121.04563244764371"><ele>15.600000000000001</ele><time>2026-04-12T12:02:37Z</time></trkpt><trkpt lat="14.445242371240314" lon="121.0456215675274"><ele>16.0</ele><time>2026-04-12T12:02:38Z</time></trkpt><trkpt lat="14.445339212019064" lon="121.04561957743951"><ele>15.999999999999998</ele><time>2026-04-12T12:02:39Z</time></trkpt><trkpt lat="14.445436343190913" lon="121.04561979352947"><ele>16.0</ele><time>2026-04-12T12:02:40Z</time></trkpt><trkpt lat="14.445517559971002" lon="121.04561081868843"><ele>16.0</ele><time>2026-04-12T12:02:41Z</time></trkpt><trkpt lat="14.445592788880148" lon="121.045616940843"><ele>16.0</ele><time>2026-04-12T12:02:42Z</time></trkpt><trkpt lat="14.445699208004251" lon="121.04561388601822"><ele>15.999999999999998</ele><time>2026-04-12T12:02:44Z</time></trkpt><trkpt lat="14.445783434791519" lon="121.0456078941866"><ele>16.0</ele><time>2026-04-12T12:02:46Z</time></trkpt><trkpt lat="14.445884671920163" lon="121.04560797555116"><ele>16.25</ele><time>2026-04-12T12:02:48Z</time></trkpt><trkpt lat="14.445998807579866" lon="121.045600999653"><ele>16.5</ele><time>2026-04-12T12:02:50Z</time></trkpt><trkpt lat="14.446116875539696" lon="121.04560254377792"><ele>16.75</ele><time>2026-04-12T12:02:52Z</time></trkpt><trkpt lat="14.446240328141888" lon="121.0455556671993"><ele>17.0</ele><time>2026-04-12T12:02:54Z</time></trkpt><trkpt lat="14.44634517914565" lon="121.04554766274305"><ele>17.0</ele><time>2026-04-12T12:02:56Z</time></trkpt><trkpt lat="14.446410130876245" lon="121.04554559723323"><ele>17.0</ele><time>2026-04-12T12:02:57Z</time></trkpt><trkpt lat="14.446538668462294" lon="121.04554932831704"><ele>17.0</ele><time>2026-04-12T12:02:59Z</time></trkpt><trkpt lat="14.446609235829373" lon="121.04554652417998"><ele>17.0</ele><time>2026-04-12T12:03:00Z</time></trkpt><trkpt lat="14.446685561432925" lon="121.04554787277547"><ele>17.0</ele><time>2026-04-12T12:03:01Z</time></trkpt><trkpt lat="14.446761614096179" lon="121.04555317330146"><ele>17.0</ele><time>2026-04-12T12:03:02Z</time></trkpt><trkpt lat="14.446836043885288" lon="121.04555137083625"><ele>17.0</ele><time>2026-04-12T12:03:03Z</time></trkpt><trkpt lat="14.446913839356624" lon="121.04554651937616"><ele>17.0</ele><time>2026-04-12T12:03:04Z</time></trkpt><trkpt lat="14.447000413985144" lon="121.0455454980745"><ele>17.0</ele><time>2026-04-12T12:03:05Z</time></trkpt><trkpt lat="14.447094024558824" lon="121.0455453564597"><ele>17.0</ele><time>2026-04-12T12:03:06Z</time></trkpt><trkpt lat="14.447181803306954" lon="121.04554362228717"><ele>17.0</ele><time>2026-04-12T12:03:07Z</time></trkpt><trkpt lat="14.447277382285426" lon="121.04553901520534"><ele>17.0</ele><time>2026-04-12T12:03:08Z</time></trkpt><trkpt lat="14.44737623119449" lon="121.04554389656744"><ele>16.666666666666668</ele><time>2026-04-12T12:03:09Z</time></trkpt><trkpt lat="14.447465295529161" lon="121.04554290696113"><ele>16.333333333333336</ele><time>2026-04-12T12:03:10Z</time></trkpt><trkpt lat="14.447552113266932" lon="121.04553993290983"><ele>16.0</ele><time>2026-04-12T12:03:11Z</time></trkpt><trkpt lat="14.44762828865392" lon="121.0455384985885"><ele>15.666666666666668</ele><time>2026-04-12T12:03:12Z</time></trkpt><trkpt lat="14.447705525965368" lon="121.04553295708938"><ele>15.333333333333334</ele><time>2026-04-12T12:03:13Z</time></trkpt><trkpt lat="14.447779602527064" lon="121.04553536900305"><ele>15.0</ele><time>2026-04-12T12:03:14Z</time></trkpt><trkpt lat="14.447864131798665" lon="121.04553663783173"><ele>15.0</ele><time>2026-04-12T12:03:15Z</time></trkpt><trkpt lat="14.447942797079152" lon="121.04554154916373"><ele>15.0</ele><time>2026-04-12T12:03:16Z</time></trkpt><trkpt lat="14.44802092646976" lon="121.04554086704465"><ele>15.0</ele><time>2026-04-12T12:03:17Z</time></trkpt><trkpt lat="14.448085023844891" lon="121.04553897826294"><ele>15.0</ele><time>2026-04-12T12:03:18Z</time></trkpt><trkpt lat="14.448189758712411" lon="121.04553078584416"><ele>15.0</ele><time>2026-04-12T12:03:20Z</time></trkpt><trkpt lat="14.448277768538011" lon="121.04553232490969"><ele>15.0</ele><time>2026-04-12T12:03:23Z</time></trkpt><trkpt lat="14.448350167316727" lon="121.04552680148512"><ele>14.833333333333334</ele><time>2026-04-12T12:03:25Z</time></trkpt><trkpt lat="14.448443789590977" lon="121.0455239593768"><ele>14.666666666666668</ele><time>2026-04-12T12:03:27Z</time></trkpt><trkpt lat="14.448506623567198" lon="121.04552843242965"><ele>14.5</ele><time>2026-04-12T12:03:28Z</time></trkpt><trkpt lat="14.448574168556027" lon="121.04551994462385"><ele>14.333333333333334</ele><time>2026-04-12T12:03:29Z</time></trkpt><trkpt lat="14.448659483617707" lon="121.04551890915157"><ele>14.166666666666668</ele><time>2026-04-12T12:03:30Z</time></trkpt><trkpt lat="14.44875541798007" lon="121.0455243735268"><ele>14.0</ele><time>2026-04-12T12:03:31Z</time></trkpt><trkpt lat="14.448855925430577" lon="121.04553079547374"><ele>14.75</ele><time>2026-04-12T12:03:32Z</time></trkpt><trkpt lat="14.44896431007882" lon="121.04553062178537"><ele>15.5</ele><time>2026-04-12T12:03:33Z</time></trkpt><trkpt lat="14.449086924587071" lon="121.04553049540698"><ele>16.25</ele><time>2026-04-12T12:03:34Z</time></trkpt><trkpt lat="14.449212408960227" lon="121.0455289726769"><ele>17.0</ele><time>2026-04-12T12:03:35Z</time></trkpt><trkpt lat="14.449337974793982" lon="121.04552755481163"><ele>17.0</ele><time>2026-04-12T12:03:36Z</time></trkpt><trkpt lat="14.449467603645706" lon="121.04552755270096"><ele>17.0</ele><time>2026-04-12T12:03:37Z</time></trkpt><trkpt lat="14.44960233852376" lon="121.04552637057444"><ele>17.0</ele><time>2026-04-12T12:03:38Z</time></trkpt><trkpt lat="14.449726299454976" lon="121.0455264133319"><ele>17.0</ele><time>2026-04-12T12:03:39Z</time></trkpt><trkpt lat="14.449861044203121" lon="121.04552114400292"><ele>17.5</ele><time>2026-04-12T12:03:40Z</time></trkpt><trkpt lat="14.449991920629104" lon="121.04552797568266"><ele>18.0</ele><time>2026-04-12T12:03:41Z</time></trkpt><trkpt lat="14.450118063077309" lon="121.04553140258437"><ele>18.5</ele><time>2026-04-12T12:03:42Z</time></trkpt><trkpt lat="14.450251326169512" lon="121.04552572615793"><ele>19.0</ele><time>2026-04-12T12:03:43Z</time></trkpt><trkpt lat="14.450386247228545" lon="121.04552216388643"><ele>19.25</ele><time>2026-04-12T12:03:44Z</time></trkpt><trkpt lat="14.45051810619342" lon="121.04552064083296"><ele>19.5</ele><time>2026-04-12T12:03:45Z</time></trkpt><trkpt lat="14.450654037273097" lon="121.0455207141677"><ele>19.75</ele><time>2026-04-12T12:03:46Z</time></trkpt><trkpt lat="14.450793606257736" lon="121.04551674147845"><ele>20.0</ele><time>2026-04-12T12:03:47Z</time></trkpt><trkpt lat="14.45093306991605" lon="121.04551761926918"><ele>20.0</ele><time>2026-04-12T12:03:48Z</time></trkpt><trkpt lat="14.451075284776751" lon="121.04551057012462"><ele>20.0</ele><time>2026-04-12T12:03:49Z</time></trkpt><trkpt lat="14.451213883042234" lon="121.04550788627654"><ele>20.0</ele><time>2026-04-12T12:03:50Z</time></trkpt><trkpt lat="14.451355365669507" lon="121.0455073892861"><ele>20.0</ele><time>2026-04-12T12:03:51Z</time></trkpt><trkpt lat="14.451496259671947" lon="121.04550201945658"><ele>18.25</ele><time>2026-04-12T12:03:52Z</time></trkpt><trkpt lat="14.451634461181412" lon="121.04550603366943"><ele>16.5</ele><time>2026-04-12T12:03:53Z</time></trkpt><trkpt lat="14.45177096417844" lon="121.04550357789496"><ele>14.75</ele><time>2026-04-12T12:03:54Z</time></trkpt><trkpt lat="14.451906049069368" lon="121.04550641365215"><ele>13.0</ele><time>2026-04-12T12:03:55Z</time></trkpt><trkpt lat="14.45204254547509" lon="121.04551586667729"><ele>14.5</ele><time>2026-04-12T12:03:56Z</time></trkpt><trkpt lat="14.452173861368117" lon="121.04552564884983"><ele>16.0</ele><time>2026-04-12T12:03:57Z</time></trkpt><trkpt lat="14.452307751693507" lon="121.04554425853131"><ele>17.5</ele><time>2026-04-12T12:03:58Z</time></trkpt><trkpt lat="14.452437920559763" lon="121.04558229213788"><ele>19.0</ele><time>2026-04-12T12:03:59Z</time></trkpt><trkpt lat="14.452563073068681" lon="121.04561717290989"><ele>19.0</ele><time>2026-04-12T12:04:00Z</time></trkpt><trkpt lat="14.452676566669775" lon="121.04565568947255"><ele>19.0</ele><time>2026-04-12T12:04:01Z</time></trkpt><trkpt lat="14.452770248876737" lon="121.04568847093792"><ele>19.0</ele><time>2026-04-12T12:04:02Z</time></trkpt><trkpt lat="14.45285221045476" lon="121.0457140735516"><ele>19.0</ele><time>2026-04-12T12:04:03Z</time></trkpt><trkpt lat="14.452920187342885" lon="121.04573673518064"><ele>19.0</ele><time>2026-04-12T12:04:04Z</time></trkpt><trkpt lat="14.453029789657636" lon="121.04578359960513"><ele>20.0</ele><time>2026-04-12T12:04:06Z</time></trkpt><trkpt lat="14.453129941223224" lon="121.0458363712599"><ele>21.0</ele><time>2026-04-12T12:04:08Z</time></trkpt><trkpt lat="14.453227305834012" lon="121.04588914766545"><ele>22.0</ele><time>2026-04-12T12:04:10Z</time></trkpt><trkpt lat="14.453322750697739" lon="121.04593347363897"><ele>23.0</ele><time>2026-04-12T12:04:12Z</time></trkpt><trkpt lat="14.45341466493186" lon="121.04595844581046"><ele>24.0</ele><time>2026-04-12T12:04:14Z</time></trkpt><trkpt lat="14.453506743613424" lon="121.04596977551634"><ele>24.0</ele><time>2026-04-12T12:04:17Z</time></trkpt><trkpt lat="14.45357677331268" lon="121.04594991486049"><ele>24.0</ele><time>2026-04-12T12:04:20Z</time></trkpt><trkpt lat="14.453622849950786" lon="121.0459030313516"><ele>24.0</ele><time>2026-04-12T12:04:22Z</time></trkpt><trkpt lat="14.453664405945187" lon="121.0457838956327"><ele>24.0</ele><time>2026-04-12T12:04:24Z</time></trkpt><trkpt lat="14.453694788741778" lon="121.04565542330758"><ele>24.0</ele><time>2026-04-12T12:04:26Z</time></trkpt><trkpt lat="14.453725440899559" lon="121.04552438551072"><ele>23.833333333333332</ele><time>2026-04-12T12:04:28Z</time></trkpt><trkpt lat="14.453747762127183" lon="121.04544659178868"><ele>23.666666666666668</ele><time>2026-04-12T12:04:29Z</time></trkpt><trkpt lat="14.453772058776513" lon="121.04536123424086"><ele>23.5</ele><time>2026-04-12T12:04:30Z</time></trkpt><trkpt lat="14.453795119299487" lon="121.04529205378286"><ele>23.333333333333336</ele><time>2026-04-12T12:04:31Z</time></trkpt><trkpt lat="14.453821448653928" lon="121.0452311567552"><ele>23.166666666666668</ele><time>2026-04-12T12:04:32Z</time></trkpt><trkpt lat="14.453868403729768" lon="121.04512789946509"><ele>23.0</ele><time>2026-04-12T12:04:33Z</time></trkpt><trkpt lat="14.453875168469468" lon="121.04502272056313"><ele>24.599999999999998</ele><time>2026-04-12T12:04:34Z</time></trkpt><trkpt lat="14.453895897574164" lon="121.04492668553094"><ele>26.2</ele><time>2026-04-12T12:04:35Z</time></trkpt><trkpt lat="14.453921695125329" lon="121.04483938942887"><ele>27.8</ele><time>2026-04-12T12:04:36Z</time></trkpt><trkpt lat="14.453948261878939" lon="121.0447449556707"><ele>29.4</ele><time>2026-04-12T12:04:37Z</time></trkpt><trkpt lat="14.453978370991319" lon="121.04465201086978"><ele>31.0</ele><time>2026-04-12T12:04:38Z</time></trkpt><trkpt lat="14.454008895477617" lon="121.04455700261154"><ele>31.0</ele><time>2026-04-12T12:04:39Z</time></trkpt><trkpt lat="14.454040834760503" lon="121.04445670929493"><ele>31.0</ele><time>2026-04-12T12:04:40Z</time></trkpt><trkpt lat="14.454073219464561" lon="121.0443598534868"><ele>31.0</ele><time>2026-04-12T12:04:41Z</time></trkpt><trkpt lat="14.454108343911903" lon="121.04425810031815"><ele>31.0</ele><time>2026-04-12T12:04:42Z</time></trkpt><trkpt lat="14.4541441316142" lon="121.04415101310536"><ele>31.0</ele><time>2026-04-12T12:04:43Z</time></trkpt><trkpt lat="14.454178052288219" lon="121.04404420815519"><ele>31.75</ele><time>2026-04-12T12:04:44Z</time></trkpt><trkpt lat="14.454214743638637" lon="121.04393125884748"><ele>32.5</ele><time>2026-04-12T12:04:45Z</time></trkpt><trkpt lat="14.454250164556495" lon="121.04381920757469"><ele>33.25</ele><time>2026-04-12T12:04:46Z</time></trkpt><trkpt lat="14.45429066569411" lon="121.0437067935747"><ele>34.0</ele><time>2026-04-12T12:04:47Z</time></trkpt><trkpt lat="14.454330642138046" lon="121.0435914670453"><ele>34.0</ele><time>2026-04-12T12:04:48Z</time></trkpt><trkpt lat="14.454370536353847" lon="121.04347427687678"><ele>34.0</ele><time>2026-04-12T12:04:49Z</time></trkpt><trkpt lat="14.454407971377833" lon="121.04335674796623"><ele>34.0</ele><time>2026-04-12T12:04:50Z</time></trkpt><trkpt lat="14.45444582641453" lon="121.04323708771746"><ele>34.0</ele><time>2026-04-12T12:04:51Z</time></trkpt><trkpt lat="14.454485281120924" lon="121.04311877119112"><ele>34.5</ele><time>2026-04-12T12:04:52Z</time></trkpt><trkpt lat="14.454518626889762" lon="121.04300285123534"><ele>35.0</ele><time>2026-04-12T12:04:53Z</time></trkpt><trkpt lat="14.45456043070992" lon="121.04288287762925"><ele>35.5</ele><time>2026-04-12T12:04:54Z</time></trkpt><trkpt lat="14.454598026033732" lon="121.04277246180746"><ele>36.0</ele><time>2026-04-12T12:04:55Z</time></trkpt><trkpt lat="14.454637029807309" lon="121.04266224505413"><ele>36.0</ele><time>2026-04-12T12:04:56Z</time></trkpt><trkpt lat="14.454676431831395" lon="121.0425527193178"><ele>36.0</ele><time>2026-04-12T12:04:57Z</time></trkpt><trkpt lat="14.45471060840498" lon="121.04243178047298"><ele>36.0</ele><time>2026-04-12T12:04:58Z</time></trkpt><trkpt lat="14.454742337418713" lon="121.04231331180374"><ele>36.0</ele><time>2026-04-12T12:04:59Z</time></trkpt><trkpt lat="14.454778857975064" lon="121.04219563895042"><ele>36.25</ele><time>2026-04-12T12:05:00Z</time></trkpt><trkpt lat="14.454816644263275" lon="121.04207901154221"><ele>36.5</ele><time>2026-04-12T12:05:01Z</time></trkpt><trkpt lat="14.454854778397216" lon="121.0419639159988"><ele>36.75</ele><time>2026-04-12T12:05:02Z</time></trkpt><trkpt lat="14.45489074436534" lon="121.04184660075676"><ele>37.0</ele><time>2026-04-12T12:05:03Z</time></trkpt><trkpt lat="14.45492454733369" lon="121.04173684044261"><ele>37.0</ele><time>2026-04-12T12:05:04Z</time></trkpt><trkpt lat="14.454954331648823" lon="121.04163700289602"><ele>37.0</ele><time>2026-04-12T12:05:05Z</time></trkpt><trkpt lat="14.454980881422207" lon="121.0415449391661"><ele>37.0</ele><time>2026-04-12T12:05:06Z</time></trkpt><trkpt lat="14.455002375799303" lon="121.04145781747324"><ele>37.0</ele><time>2026-04-12T12:05:07Z</time></trkpt><trkpt lat="14.455021823680362" lon="121.04137236348647"><ele>37.0</ele><time>2026-04-12T12:05:08Z</time></trkpt><trkpt lat="14.455041218581442" lon="121.04128796846615"><ele>37.2</ele><time>2026-04-12T12:05:09Z</time></trkpt><trkpt lat="14.455059062070692" lon="121.04119632574945"><ele>37.400000000000006</ele><time>2026-04-12T12:05:10Z</time></trkpt><trkpt lat="14.455075807301762" lon="121.04109336150698"><ele>37.599999999999994</ele><time>2026-04-12T12:05:11Z</time></trkpt><trkpt lat="14.455096887608981" lon="121.04098591435536"><ele>37.8</ele><time>2026-04-12T12:05:12Z</time></trkpt><trkpt lat="14.455121910648048" lon="121.0408744022156"><ele>38.0</ele><time>2026-04-12T12:05:13Z</time></trkpt><trkpt lat="14.45515234993678" lon="121.0407629518396"><ele>38.0</ele><time>2026-04-12T12:05:14Z</time></trkpt><trkpt lat="14.455183545814165" lon="121.04064579786098"><ele>38.0</ele><time>2026-04-12T12:05:15Z</time></trkpt><trkpt lat="14.455211192351934" lon="121.04052530600949"><ele>38.0</ele><time>2026-04-12T12:05:16Z</time></trkpt><trkpt lat="14.455238945847018" lon="121.0404073594859"><ele>38.0</ele><time>2026-04-12T12:05:17Z</time></trkpt><trkpt lat="14.455271798460608" lon="121.04028404491801"><ele>38.0</ele><time>2026-04-12T12:05:18Z</time></trkpt><trkpt lat="14.455307546880876" lon="121.04015722081104"><ele>38.0</ele><time>2026-04-12T12:05:19Z</time></trkpt><trkpt lat="14.455346670502212" lon="121.04002619318132"><ele>38.0</ele><time>2026-04-12T12:05:20Z</time></trkpt><trkpt lat="14.455380525737088" lon="121.03989362382396"><ele>38.0</ele><time>2026-04-12T12:05:21Z</time></trkpt><trkpt lat="14.455416610006761" lon="121.0397558566506"><ele>38.0</ele><time>2026-04-12T12:05:22Z</time></trkpt><trkpt lat="14.455453613258175" lon="121.03961839163668"><ele>38.0</ele><time>2026-04-12T12:05:23Z</time></trkpt><trkpt lat="14.455490605740712" lon="121.03948042932748"><ele>38.0</ele><time>2026-04-12T12:05:24Z</time></trkpt><trkpt lat="14.455526481428155" lon="121.03934719622667"><ele>38.0</ele><time>2026-04-12T12:05:25Z</time></trkpt><trkpt lat="14.455555832441215" lon="121.03922330361604"><ele>37.5</ele><time>2026-04-12T12:05:26Z</time></trkpt><trkpt lat="14.45558477766227" lon="121.03911105023971"><ele>37.0</ele><time>2026-04-12T12:05:27Z</time></trkpt><trkpt lat="14.455613807522804" lon="121.03899422684906"><ele>36.5</ele><time>2026-04-12T12:05:28Z</time></trkpt><trkpt lat="14.455644507235172" lon="121.03887204679242"><ele>36.0</ele><time>2026-04-12T12:05:29Z</time></trkpt><trkpt lat="14.455676381803357" lon="121.03874863958846"><ele>36.0</ele><time>2026-04-12T12:05:30Z</time></trkpt><trkpt lat="14.455708718362146" lon="121.0386260634014"><ele>36.0</ele><time>2026-04-12T12:05:31Z</time></trkpt><trkpt lat="14.455741928826242" lon="121.03849785628788"><ele>36.0</ele><time>2026-04-12T12:05:32Z</time></trkpt><trkpt lat="14.45577430074345" lon="121.03836898232414"><ele>36.0</ele><time>2026-04-12T12:05:33Z</time></trkpt><trkpt lat="14.455803221958796" lon="121.03824496583057"><ele>36.0</ele><time>2026-04-12T12:05:34Z</time></trkpt><trkpt lat="14.455832258526387" lon="121.03813195845953"><ele>36.0</ele><time>2026-04-12T12:05:35Z</time></trkpt><trkpt lat="14.455859227272795" lon="121.0380302722024"><ele>36.0</ele><time>2026-04-12T12:05:36Z</time></trkpt><trkpt lat="14.455881163810103" lon="121.03793483891687"><ele>36.0</ele><time>2026-04-12T12:05:37Z</time></trkpt><trkpt lat="14.455899856845107" lon="121.0378471813213"><ele>36.0</ele><time>2026-04-12T12:05:38Z</time></trkpt><trkpt lat="14.455921186896662" lon="121.03776700671668"><ele>36.0</ele><time>2026-04-12T12:05:39Z</time></trkpt><trkpt lat="14.455944446833248" lon="121.03768638551597"><ele>36.0</ele><time>2026-04-12T12:05:40Z</time></trkpt><trkpt lat="14.455962037538205" lon="121.037609614609"><ele>36.0</ele><time>2026-04-12T12:05:41Z</time></trkpt><trkpt lat="14.455982782787709" lon="121.03753662355233"><ele>36.0</ele><time>2026-04-12T12:05:42Z</time></trkpt><trkpt lat="14.456002493357875" lon="121.03744998552686"><ele>36.0</ele><time>2026-04-12T12:05:43Z</time></trkpt><trkpt lat="14.456018356387052" lon="121.03737678283284"><ele>36.0</ele><time>2026-04-12T12:05:44Z</time></trkpt><trkpt lat="14.456037619863796" lon="121.03730155320775"><ele>36.142857142857146</ele><time>2026-04-12T12:05:45Z</time></trkpt><trkpt lat="14.456052558782607" lon="121.03723190577286"><ele>36.285714285714285</ele><time>2026-04-12T12:05:46Z</time></trkpt><trkpt lat="14.456073617702154" lon="121.03715423634384"><ele>36.42857142857143</ele><time>2026-04-12T12:05:47Z</time></trkpt><trkpt lat="14.45608998792784" lon="121.03708302288986"><ele>36.57142857142857</ele><time>2026-04-12T12:05:48Z</time></trkpt><trkpt lat="14.456106584086111" lon="121.0370116617663"><ele>36.714285714285715</ele><time>2026-04-12T12:05:49Z</time></trkpt><trkpt lat="14.456130447196545" lon="121.03693671869938"><ele>36.85714285714286</ele><time>2026-04-12T12:05:50Z</time></trkpt><trkpt lat="14.456145557255873" lon="121.03686636287391"><ele>37.0</ele><time>2026-04-12T12:05:51Z</time></trkpt><trkpt lat="14.456173045822984" lon="121.03678325364415"><ele>37.0</ele><time>2026-04-12T12:05:52Z</time></trkpt><trkpt lat="14.45618639868626" lon="121.03670189952749"><ele>37.0</ele><time>2026-04-12T12:05:53Z</time></trkpt><trkpt lat="14.456210769127612" lon="121.03661445502712"><ele>37.0</ele><time>2026-04-12T12:05:54Z</time></trkpt><trkpt lat="14.45624294630174" lon="121.03652614886518"><ele>37.0</ele><time>2026-04-12T12:05:55Z</time></trkpt><trkpt lat="14.456268830402971" lon="121.03643764444476"><ele>37.0</ele><time>2026-04-12T12:05:56Z</time></trkpt><trkpt lat="14.456294624474921" lon="121.03635656705481"><ele>37.0</ele><time>2026-04-12T12:05:57Z</time></trkpt><trkpt lat="14.456320328318728" lon="121.03628101593225"><ele>36.833333333333336</ele><time>2026-04-12T12:05:58Z</time></trkpt><trkpt lat="14.456348953270185" lon="121.03620217963538"><ele>36.66666666666667</ele><time>2026-04-12T12:05:59Z</time></trkpt><trkpt lat="14.456373794550775" lon="121.03611801373842"><ele>36.5</ele><time>2026-04-12T12:06:00Z</time></trkpt><trkpt lat="14.456402870745675" lon="121.03603687530466"><ele>36.333333333333336</ele><time>2026-04-12T12:06:01Z</time></trkpt><trkpt lat="14.456430862626066" lon="121.03595718623737"><ele>36.166666666666664</ele><time>2026-04-12T12:06:02Z</time></trkpt><trkpt lat="14.45646136124583" lon="121.03588256416089"><ele>36.0</ele><time>2026-04-12T12:06:03Z</time></trkpt><trkpt lat="14.456491524436245" lon="121.03582033604167"><ele>36.0</ele><time>2026-04-12T12:06:04Z</time></trkpt><trkpt lat="14.456537041956926" lon="121.03573570031797"><ele>36.0</ele><time>2026-04-12T12:06:06Z</time></trkpt><trkpt lat="14.456566554671209" lon="121.03563428330118"><ele>36.0</ele><time>2026-04-12T12:06:08Z</time></trkpt><trkpt lat="14.45660989432619" lon="121.03554156111909"><ele>36.0</ele><time>2026-04-12T12:06:10Z</time></trkpt><trkpt lat="14.456649434241536" lon="121.0354531368576"><ele>36.0</ele><time>2026-04-12T12:06:12Z</time></trkpt><trkpt lat="14.456699349071046" lon="121.035346254889"><ele>36.00000000000001</ele><time>2026-04-12T12:06:14Z</time></trkpt><trkpt lat="14.456729456692077" lon="121.03528649684444"><ele>36.0</ele><time>2026-04-12T12:06:15Z</time></trkpt><trkpt lat="14.456764414981926" lon="121.03522159359584"><ele>36.0</ele><time>2026-04-12T12:06:16Z</time></trkpt><trkpt lat="14.456803040810609" lon="121.03515635365683"><ele>36.0</ele><time>2026-04-12T12:06:17Z</time></trkpt><trkpt lat="14.456839885050293" lon="121.03509503385862"><ele>36.0</ele><time>2026-04-12T12:06:18Z</time></trkpt><trkpt lat="14.456874835587849" lon="121.03503277334093"><ele>36.00000000000001</ele><time>2026-04-12T12:06:19Z</time></trkpt><trkpt lat="14.456911707841922" lon="121.03496466032765"><ele>36.0</ele><time>2026-04-12T12:06:20Z</time></trkpt><trkpt lat="14.456950489306264" lon="121.0349000292618"><ele>35.714285714285715</ele><time>2026-04-12T12:06:21Z</time></trkpt><trkpt lat="14.45698872146383" lon="121.0348381979334"><ele>35.42857142857143</ele><time>2026-04-12T12:06:22Z</time></trkpt><trkpt lat="14.457024714459596" lon="121.03477580555302"><ele>35.14285714285714</ele><time>2026-04-12T12:06:23Z</time></trkpt><trkpt lat="14.457063885964482" lon="121.03471398255994"><ele>34.85714285714286</ele><time>2026-04-12T12:06:24Z</time></trkpt><trkpt lat="14.457095531286994" lon="121.03464714525225"><ele>34.57142857142857</ele><time>2026-04-12T12:06:25Z</time></trkpt><trkpt lat="14.457132371874456" lon="121.03458258339923"><ele>34.285714285714285</ele><time>2026-04-12T12:06:26Z</time></trkpt><trkpt lat="14.457165080962955" lon="121.03452245789832"><ele>34.0</ele><time>2026-04-12T12:06:27Z</time></trkpt><trkpt lat="14.45722875362183" lon="121.03441999438174"><ele>33.833333333333336</ele><time>2026-04-12T12:06:29Z</time></trkpt><trkpt lat="14.457276880676758" lon="121.03433198889766"><ele>33.66666666666667</ele><time>2026-04-12T12:06:31Z</time></trkpt><trkpt lat="14.457336957153679" lon="121.03424189701708"><ele>33.5</ele><time>2026-04-12T12:06:33Z</time></trkpt><trkpt lat="14.457367175133534" lon="121.03418435657915"><ele>33.333333333333336</ele><time>2026-04-12T12:06:34Z</time></trkpt><trkpt lat="14.457396625233818" lon="121.03412132916944"><ele>33.166666666666664</ele><time>2026-04-12T12:06:35Z</time></trkpt><trkpt lat="14.457447153343372" lon="121.03404706448083"><ele>33.0</ele><time>2026-04-12T12:06:36Z</time></trkpt><trkpt lat="14.457489311443297" lon="121.03395804299338"><ele>33.0</ele><time>2026-04-12T12:06:37Z</time></trkpt><trkpt lat="14.457538840984345" lon="121.03385540698696"><ele>33.0</ele><time>2026-04-12T12:06:38Z</time></trkpt><trkpt lat="14.457597212482534" lon="121.03376124365045"><ele>33.0</ele><time>2026-04-12T12:06:39Z</time></trkpt><trkpt lat="14.45765960867143" lon="121.03365941352207"><ele>33.0</ele><time>2026-04-12T12:06:40Z</time></trkpt><trkpt lat="14.457717035022497" lon="121.03355950158034"><ele>33.0</ele><time>2026-04-12T12:06:41Z</time></trkpt><trkpt lat="14.457767290881558" lon="121.0334621692188"><ele>33.0</ele><time>2026-04-12T12:06:42Z</time></trkpt><trkpt lat="14.457814573064567" lon="121.03336202347315"><ele>33.0</ele><time>2026-04-12T12:06:43Z</time></trkpt><trkpt lat="14.457871192519672" lon="121.03326506613521"><ele>33.0</ele><time>2026-04-12T12:06:44Z</time></trkpt><trkpt lat="14.457933773488639" lon="121.03316514651594"><ele>33.0</ele><time>2026-04-12T12:06:45Z</time></trkpt><trkpt lat="14.458001788249955" lon="121.03306209087239"><ele>33.25</ele><time>2026-04-12T12:06:46Z</time></trkpt><trkpt lat="14.458069129958869" lon="121.03295069493564"><ele>33.5</ele><time>2026-04-12T12:06:47Z</time></trkpt><trkpt lat="14.458136932565003" lon="121.03284180927544"><ele>33.75</ele><time>2026-04-12T12:06:48Z</time></trkpt><trkpt lat="14.458203919527554" lon="121.03273163657768"><ele>34.0</ele><time>2026-04-12T12:06:49Z</time></trkpt><trkpt lat="14.458267041509066" lon="121.03263178939301"><ele>34.0</ele><time>2026-04-12T12:06:50Z</time></trkpt><trkpt lat="14.458323772331164" lon="121.03253896620912"><ele>34.0</ele><time>2026-04-12T12:06:51Z</time></trkpt><trkpt lat="14.458374447563902" lon="121.03245114325972"><ele>34.0</ele><time>2026-04-12T12:06:52Z</time></trkpt><trkpt lat="14.458417516572688" lon="121.0323717484386"><ele>34.0</ele><time>2026-04-12T12:06:53Z</time></trkpt><trkpt lat="14.458463034362632" lon="121.03229374796726"><ele>34.0</ele><time>2026-04-12T12:06:54Z</time></trkpt><trkpt lat="14.458501367974101" lon="121.0322300161447"><ele>34.0</ele><time>2026-04-12T12:06:55Z</time></trkpt><trkpt lat="14.458538688974883" lon="121.03216752509344"><ele>34.0</ele><time>2026-04-12T12:06:56Z</time></trkpt><trkpt lat="14.458590924983772" lon="121.03207494444209"><ele>34.0</ele><time>2026-04-12T12:06:58Z</time></trkpt><trkpt lat="14.458626022895974" lon="121.03201608887453"><ele>34.0</ele><time>2026-04-12T12:07:01Z</time></trkpt><trkpt lat="14.45865947950218" lon="121.03195479324992"><ele>34.0</ele><time>2026-04-12T12:07:36Z</time></trkpt><trkpt lat="14.458726311345405" lon="121.03186225279408"><ele>34.0</ele><time>2026-04-12T12:07:38Z</time></trkpt><trkpt lat="14.45877201466121" lon="121.03180160228861"><ele>34.0</ele><time>2026-04-12T12:07:39Z</time></trkpt><trkpt lat="14.458817054873847" lon="121.03173408751174"><ele>34.0</ele><time>2026-04-12T12:07:40Z</time></trkpt><trkpt lat="14.45885932173508" lon="121.03166761699642"><ele>34.0</ele><time>2026-04-12T12:07:41Z</time></trkpt><trkpt lat="14.45890800022113" lon="121.03160105624488"><ele>34.0</ele><time>2026-04-12T12:07:42Z</time></trkpt><trkpt lat="14.458944935407587" lon="121.03154797738343"><ele>34.0</ele><time>2026-04-12T12:07:43Z</time></trkpt><trkpt lat="14.459004232642922" lon="121.03148481081004"><ele>34.0</ele><time>2026-04-12T12:07:45Z</time></trkpt><trkpt lat="14.459078292667972" lon="121.03147347198836"><ele>33.66666666666667</ele><time>2026-04-12T12:07:48Z</time></trkpt><trkpt lat="14.45903775084181" lon="121.03142175560109"><ele>33.333333333333336</ele><time>2026-04-12T12:08:36Z</time></trkpt><trkpt lat="14.459007271623463" lon="121.03135729060607"><ele>33.0</ele><time>2026-04-12T12:08:40Z</time></trkpt><trkpt lat="14.459073348336679" lon="121.03123693689979"><ele>32.666666666666664</ele><time>2026-04-12T12:08:42Z</time></trkpt><trkpt lat="14.459120458430426" lon="121.0311743889385"><ele>32.33333333333333</ele><time>2026-04-12T12:08:43Z</time></trkpt><trkpt lat="14.459156969076778" lon="121.03109810044249"><ele>32.0</ele><time>2026-04-12T12:08:44Z</time></trkpt><trkpt lat="14.459201426677664" lon="121.03099991011646"><ele>32.0</ele><time>2026-04-12T12:08:45Z</time></trkpt><trkpt lat="14.459252200321089" lon="121.03093426202965"><ele>32.0</ele><time>2026-04-12T12:08:46Z</time></trkpt><trkpt lat="14.45929933945567" lon="121.03084613970613"><ele>32.0</ele><time>2026-04-12T12:08:47Z</time></trkpt><trkpt lat="14.459345740772655" lon="121.03075091657875"><ele>32.0</ele><time>2026-04-12T12:08:48Z</time></trkpt><trkpt lat="14.459396754840201" lon="121.03065510566911"><ele>32.0</ele><time>2026-04-12T12:08:49Z</time></trkpt><trkpt lat="14.459443899367688" lon="121.03055887951392"><ele>32.0</ele><time>2026-04-12T12:08:50Z</time></trkpt><trkpt lat="14.459494835879182" lon="121.03045679977828"><ele>32.0</ele><time>2026-04-12T12:08:51Z</time></trkpt><trkpt lat="14.45954866318054" lon="121.03035091892234"><ele>32.0</ele><time>2026-04-12T12:08:52Z</time></trkpt><trkpt lat="14.459605538524897" lon="121.03024926031695"><ele>32.0</ele><time>2026-04-12T12:08:53Z</time></trkpt><trkpt lat="14.459661897108766" lon="121.03014495747888"><ele>32.0</ele><time>2026-04-12T12:08:54Z</time></trkpt><trkpt lat="14.459722818162174" lon="121.03004612256541"><ele>32.0</ele><time>2026-04-12T12:08:55Z</time></trkpt><trkpt lat="14.459780852310386" lon="121.02994029574909"><ele>32.0</ele><time>2026-04-12T12:08:56Z</time></trkpt><trkpt lat="14.459830313273809" lon="121.02983866367357"><ele>32.0</ele><time>2026-04-12T12:08:57Z</time></trkpt><trkpt lat="14.459877824298635" lon="121.02974141453957"><ele>32.0</ele><time>2026-04-12T12:08:58Z</time></trkpt><trkpt lat="14.459927493764969" lon="121.02963966026883"><ele>31.25</ele><time>2026-04-12T12:08:59Z</time></trkpt><trkpt lat="14.459981567658172" lon="121.02953652486079"><ele>30.5</ele><time>2026-04-12T12:09:00Z</time></trkpt><trkpt lat="14.460034743185325" lon="121.0294278484813"><ele>29.75</ele><time>2026-04-12T12:09:01Z</time></trkpt><trkpt lat="14.460094399978374" lon="121.02932331715384"><ele>29.0</ele><time>2026-04-12T12:09:02Z</time></trkpt><trkpt lat="14.460154028732262" lon="121.02921070952537"><ele>28.5</ele><time>2026-04-12T12:09:03Z</time></trkpt><trkpt lat="14.460214880864289" lon="121.02909711766434"><ele>28.0</ele><time>2026-04-12T12:09:04Z</time></trkpt><trkpt lat="14.460272585636638" lon="121.02898570230043"><ele>27.5</ele><time>2026-04-12T12:09:05Z</time></trkpt><trkpt lat="14.460325699165889" lon="121.02888591637505"><ele>27.0</ele><time>2026-04-12T12:09:06Z</time></trkpt><trkpt lat="14.46037106922003" lon="121.02878807781063"><ele>27.0</ele><time>2026-04-12T12:09:07Z</time></trkpt><trkpt lat="14.460415500031967" lon="121.02869208103829"><ele>27.0</ele><time>2026-04-12T12:09:08Z</time></trkpt><trkpt lat="14.460452744632747" lon="121.02861696080056"><ele>27.0</ele><time>2026-04-12T12:09:09Z</time></trkpt><trkpt lat="14.460494177351633" lon="121.0285353615146"><ele>27.0</ele><time>2026-04-12T12:09:10Z</time></trkpt><trkpt lat="14.460522332312076" lon="121.02847287280468"><ele>27.0</ele><time>2026-04-12T12:09:11Z</time></trkpt><trkpt lat="14.460565816971911" lon="121.0283892411458"><ele>27.0</ele><time>2026-04-12T12:09:13Z</time></trkpt><trkpt lat="14.460599917542645" lon="121.02831685538345"><ele>27.200000000000003</ele><time>2026-04-12T12:09:15Z</time></trkpt><trkpt lat="14.460647481399267" lon="121.02822483839162"><ele>27.400000000000002</ele><time>2026-04-12T12:09:17Z</time></trkpt><trkpt lat="14.460699600559266" lon="121.02812067176015"><ele>27.599999999999998</ele><time>2026-04-12T12:09:19Z</time></trkpt><trkpt lat="14.460733034646747" lon="121.02803954248232"><ele>27.799999999999997</ele><time>2026-04-12T12:09:21Z</time></trkpt><trkpt lat="14.46077384869829" lon="121.0279611493786"><ele>28.0</ele><time>2026-04-12T12:09:23Z</time></trkpt><trkpt lat="14.46081174825139" lon="121.0278837818155"><ele>28.0</ele><time>2026-04-12T12:09:25Z</time></trkpt><trkpt lat="14.460850577794112" lon="121.02781408204095"><ele>27.999999999999996</ele><time>2026-04-12T12:09:27Z</time></trkpt><trkpt lat="14.460882271740488" lon="121.0277396217805"><ele>27.999999999999996</ele><time>2026-04-12T12:09:29Z</time></trkpt><trkpt lat="14.460918288417894" lon="121.0276704915405"><ele>28.0</ele><time>2026-04-12T12:09:31Z</time></trkpt><trkpt lat="14.460973655191328" lon="121.02756637502726"><ele>28.0</ele><time>2026-04-12T12:09:33Z</time></trkpt><trkpt lat="14.461026739317871" lon="121.02746231662105"><ele>27.2</ele><time>2026-04-12T12:09:35Z</time></trkpt><trkpt lat="14.461080944303154" lon="121.02736284990381"><ele>26.4</ele><time>2026-04-12T12:09:37Z</time></trkpt><trkpt lat="14.461142833601066" lon="121.02724732789522"><ele>25.599999999999998</ele><time>2026-04-12T12:09:39Z</time></trkpt><trkpt lat="14.461175538491501" lon="121.02718301764308"><ele>24.799999999999997</ele><time>2026-04-12T12:09:40Z</time></trkpt><trkpt lat="14.461210534352213" lon="121.02711400508994"><ele>24.0</ele><time>2026-04-12T12:09:41Z</time></trkpt><trkpt lat="14.461242798814835" lon="121.02703881688494"><ele>24.0</ele><time>2026-04-12T12:09:42Z</time></trkpt><trkpt lat="14.461271467632235" lon="121.0269589552517"><ele>24.0</ele><time>2026-04-12T12:09:43Z</time></trkpt><trkpt lat="14.461309937130265" lon="121.02687703210985"><ele>24.0</ele><time>2026-04-12T12:09:44Z</time></trkpt><trkpt lat="14.461351282303378" lon="121.02679940637339"><ele>24.0</ele><time>2026-04-12T12:09:45Z</time></trkpt><trkpt lat="14.461392860330369" lon="121.0267145791536"><ele>24.0</ele><time>2026-04-12T12:09:46Z</time></trkpt><trkpt lat="14.461443416909166" lon="121.02661967339876"><ele>24.6</ele><time>2026-04-12T12:09:47Z</time></trkpt><trkpt lat="14.461491295597082" lon="121.02652588233991"><ele>25.2</ele><time>2026-04-12T12:09:48Z</time></trkpt><trkpt lat="14.46154160147312" lon="121.02642703395789"><ele>25.800000000000004</ele><time>2026-04-12T12:09:49Z</time></trkpt><trkpt lat="14.461591883652197" lon="121.02632483922255"><ele>26.400000000000002</ele><time>2026-04-12T12:09:50.001Z</time></trkpt><trkpt lat="14.461642269434616" lon="121.02622225658881"><ele>27.0</ele><time>2026-04-12T12:09:51.001Z</time></trkpt><trkpt lat="14.461688504437873" lon="121.02612839557264"><ele>27.0</ele><time>2026-04-12T12:09:52.001Z</time></trkpt><trkpt lat="14.461733446153398" lon="121.0260407376067"><ele>27.000000000000004</ele><time>2026-04-12T12:09:53.001Z</time></trkpt><trkpt lat="14.461777835770866" lon="121.02595501410717"><ele>27.000000000000004</ele><time>2026-04-12T12:09:54.001Z</time></trkpt><trkpt lat="14.461821121799355" lon="121.02586746558272"><ele>27.0</ele><time>2026-04-12T12:09:55.001Z</time></trkpt><trkpt lat="14.461861737294306" lon="121.02577876415282"><ele>27.0</ele><time>2026-04-12T12:09:56.001Z</time></trkpt><trkpt lat="14.461900856413266" lon="121.02569822266409"><ele>26.833333333333332</ele><time>2026-04-12T12:09:57.001Z</time></trkpt><trkpt lat="14.461934300742811" lon="121.02562502208384"><ele>26.666666666666664</ele><time>2026-04-12T12:09:58.001Z</time></trkpt><trkpt lat="14.461971310958116" lon="121.02554953051323"><ele>26.5</ele><time>2026-04-12T12:09:59.001Z</time></trkpt><trkpt lat="14.462009678795823" lon="121.02546926807514"><ele>26.333333333333332</ele><time>2026-04-12T12:10:00.001Z</time></trkpt><trkpt lat="14.462051907439202" lon="121.02538741420487"><ele>26.166666666666664</ele><time>2026-04-12T12:10:01.001Z</time></trkpt><trkpt lat="14.462097711394069" lon="121.02530280585871"><ele>26.0</ele><time>2026-04-12T12:10:02.001Z</time></trkpt><trkpt lat="14.462141443415835" lon="121.0252157735232"><ele>26.0</ele><time>2026-04-12T12:10:03.001Z</time></trkpt><trkpt lat="14.462187630375452" lon="121.02512274535971"><ele>26.0</ele><time>2026-04-12T12:10:04.001Z</time></trkpt><trkpt lat="14.462236597478968" lon="121.0250269188951"><ele>26.0</ele><time>2026-04-12T12:10:05Z</time></trkpt><trkpt lat="14.462286272973923" lon="121.0249336126064"><ele>26.0</ele><time>2026-04-12T12:10:06Z</time></trkpt><trkpt lat="14.46233578999212" lon="121.02484237961441"><ele>26.0</ele><time>2026-04-12T12:10:07Z</time></trkpt><trkpt lat="14.462382520484049" lon="121.02475229908197"><ele>26.4</ele><time>2026-04-12T12:10:08Z</time></trkpt><trkpt lat="14.462424388788204" lon="121.02466280960047"><ele>26.8</ele><time>2026-04-12T12:10:09Z</time></trkpt><trkpt lat="14.46246914479871" lon="121.02457012248973"><ele>27.199999999999996</ele><time>2026-04-12T12:10:10Z</time></trkpt><trkpt lat="14.462513939774638" lon="121.02447524055809"><ele>27.599999999999998</ele><time>2026-04-12T12:10:11Z</time></trkpt><trkpt lat="14.462558351854543" lon="121.0243769844017"><ele>28.0</ele><time>2026-04-12T12:10:12Z</time></trkpt><trkpt lat="14.46260278286606" lon="121.02428018762441"><ele>28.0</ele><time>2026-04-12T12:10:13Z</time></trkpt><trkpt lat="14.46264970242198" lon="121.02418644010426"><ele>27.999999999999996</ele><time>2026-04-12T12:10:14Z</time></trkpt><trkpt lat="14.462692686741956" lon="121.02410311524693"><ele>27.999999999999996</ele><time>2026-04-12T12:10:15Z</time></trkpt><trkpt lat="14.462730332985767" lon="121.02403003506694"><ele>28.0</ele><time>2026-04-12T12:10:16Z</time></trkpt><trkpt lat="14.462767896827788" lon="121.0239468052853"><ele>28.0</ele><time>2026-04-12T12:10:17Z</time></trkpt><trkpt lat="14.462805548926752" lon="121.02385971682469"><ele>27.799999999999997</ele><time>2026-04-12T12:10:18Z</time></trkpt><trkpt lat="14.462848197565618" lon="121.02377157375687"><ele>27.599999999999998</ele><time>2026-04-12T12:10:19Z</time></trkpt><trkpt lat="14.462893891048976" lon="121.02367979698143"><ele>27.400000000000002</ele><time>2026-04-12T12:10:20Z</time></trkpt><trkpt lat="14.46292837874023" lon="121.02358767940039"><ele>27.200000000000003</ele><time>2026-04-12T12:10:21Z</time></trkpt><trkpt lat="14.462965096613111" lon="121.02347811780173"><ele>27.0</ele><time>2026-04-12T12:10:22Z</time></trkpt><trkpt lat="14.463015013330534" lon="121.02336810974636"><ele>26.75</ele><time>2026-04-12T12:10:23Z</time></trkpt><trkpt lat="14.463076478607041" lon="121.02324991407195"><ele>26.5</ele><time>2026-04-12T12:10:24Z</time></trkpt><trkpt lat="14.46313809903209" lon="121.02313215472118"><ele>26.25</ele><time>2026-04-12T12:10:25Z</time></trkpt><trkpt lat="14.46319848035571" lon="121.0230067157072"><ele>26.0</ele><time>2026-04-12T12:10:26Z</time></trkpt><trkpt lat="14.463258317241648" lon="121.02289096150268"><ele>26.0</ele><time>2026-04-12T12:10:27Z</time></trkpt><trkpt lat="14.46331820757509" lon="121.02277052499623"><ele>26.0</ele><time>2026-04-12T12:10:28Z</time></trkpt><trkpt lat="14.4633888746929" lon="121.0226629802572"><ele>26.0</ele><time>2026-04-12T12:10:29Z</time></trkpt><trkpt lat="14.463439089098138" lon="121.02255593016525"><ele>26.0</ele><time>2026-04-12T12:10:30Z</time></trkpt><trkpt lat="14.463472009001547" lon="121.0224462743877"><ele>25.8</ele><time>2026-04-12T12:10:31Z</time></trkpt><trkpt lat="14.46352170937853" lon="121.02234991948646"><ele>25.6</ele><time>2026-04-12T12:10:32Z</time></trkpt><trkpt lat="14.463569013766557" lon="121.02225478269676"><ele>25.4</ele><time>2026-04-12T12:10:33Z</time></trkpt><trkpt lat="14.463619458499222" lon="121.02215488417231"><ele>25.2</ele><time>2026-04-12T12:10:34Z</time></trkpt><trkpt lat="14.463672530745107" lon="121.02204926638694"><ele>25.0</ele><time>2026-04-12T12:10:35Z</time></trkpt><trkpt lat="14.463727032318594" lon="121.02193782389664"><ele>25.0</ele><time>2026-04-12T12:10:36Z</time></trkpt><trkpt lat="14.46379644752887" lon="121.02183049194288"><ele>25.0</ele><time>2026-04-12T12:10:37Z</time></trkpt><trkpt lat="14.463856114795265" lon="121.02171586309434"><ele>25.0</ele><time>2026-04-12T12:10:38Z</time></trkpt><trkpt lat="14.463916116260686" lon="121.02159996844746"><ele>25.0</ele><time>2026-04-12T12:10:39Z</time></trkpt><trkpt lat="14.463973500091138" lon="121.02148912984154"><ele>25.0</ele><time>2026-04-12T12:10:40Z</time></trkpt><trkpt lat="14.464028539344453" lon="121.02138281986423"><ele>25.0</ele><time>2026-04-12T12:10:41Z</time></trkpt><trkpt lat="14.46408191125819" lon="121.02127973039521"><ele>25.0</ele><time>2026-04-12T12:10:42Z</time></trkpt><trkpt lat="14.464135615594596" lon="121.02117599884669"><ele>25.0</ele><time>2026-04-12T12:10:43Z</time></trkpt><trkpt lat="14.464184499087693" lon="121.0210815788988"><ele>25.0</ele><time>2026-04-12T12:10:44Z</time></trkpt><trkpt lat="14.464235571188897" lon="121.02098224778602"><ele>25.0</ele><time>2026-04-12T12:10:45Z</time></trkpt><trkpt lat="14.46428480729066" lon="121.02088202262661"><ele>25.0</ele><time>2026-04-12T12:10:46Z</time></trkpt><trkpt lat="14.464336273567652" lon="121.02077725771342"><ele>25.0</ele><time>2026-04-12T12:10:47Z</time></trkpt><trkpt lat="14.464389931799817" lon="121.02066803085478"><ele>25.0</ele><time>2026-04-12T12:10:48Z</time></trkpt><trkpt lat="14.464445053316716" lon="121.02055582532421"><ele>24.6</ele><time>2026-04-12T12:10:49Z</time></trkpt><trkpt lat="14.464499958015155" lon="121.02044571187928"><ele>24.2</ele><time>2026-04-12T12:10:50Z</time></trkpt><trkpt lat="14.464551296595308" lon="121.020343034723"><ele>23.799999999999997</ele><time>2026-04-12T12:10:51Z</time></trkpt><trkpt lat="14.46459770242398" lon="121.02025018094807"><ele>23.4</ele><time>2026-04-12T12:10:52Z</time></trkpt><trkpt lat="14.464639873049212" lon="121.02016418201147"><ele>23.0</ele><time>2026-04-12T12:10:53Z</time></trkpt><trkpt lat="14.464676016796352" lon="121.0200873892865"><ele>23.0</ele><time>2026-04-12T12:10:54Z</time></trkpt><trkpt lat="14.464709645732606" lon="121.02002069896345"><ele>23.0</ele><time>2026-04-12T12:10:55Z</time></trkpt><trkpt lat="14.464751090333845" lon="121.01993908628896"><ele>23.0</ele><time>2026-04-12T12:10:57Z</time></trkpt><trkpt lat="14.464780543724396" lon="121.01988115414578"><ele>23.0</ele><time>2026-04-12T12:11:01Z</time></trkpt><trkpt lat="14.464815017767112" lon="121.01981376522308"><ele>23.0</ele><time>2026-04-12T12:12:06Z</time></trkpt><trkpt lat="14.464869433882475" lon="121.0197020623263"><ele>23.0</ele><time>2026-04-12T12:12:08Z</time></trkpt><trkpt lat="14.46490007792615" lon="121.01963736643617"><ele>23.0</ele><time>2026-04-12T12:12:09Z</time></trkpt><trkpt lat="14.464934992019836" lon="121.01956365558672"><ele>23.0</ele><time>2026-04-12T12:12:10Z</time></trkpt><trkpt lat="14.464973402309717" lon="121.0194825635436"><ele>23.0</ele><time>2026-04-12T12:12:11Z</time></trkpt><trkpt lat="14.465015295824049" lon="121.01939411769678"><ele>23.0</ele><time>2026-04-12T12:12:12Z</time></trkpt><trkpt lat="14.465061342732824" lon="121.01929690317675"><ele>23.0</ele><time>2026-04-12T12:12:13Z</time></trkpt><trkpt lat="14.465109243202512" lon="121.01919339715434"><ele>22.75</ele><time>2026-04-12T12:12:14Z</time></trkpt><trkpt lat="14.465158605403477" lon="121.01908627732799"><ele>22.5</ele><time>2026-04-12T12:12:15Z</time></trkpt><trkpt lat="14.465210616862514" lon="121.01897340840463"><ele>22.25</ele><time>2026-04-12T12:12:16Z</time></trkpt><trkpt lat="14.46526381941998" lon="121.0188579547038"><ele>22.0</ele><time>2026-04-12T12:12:17Z</time></trkpt><trkpt lat="14.465316867442839" lon="121.01874054316478"><ele>22.0</ele><time>2026-04-12T12:12:18Z</time></trkpt><trkpt lat="14.465370822803415" lon="121.01862057601824"><ele>22.0</ele><time>2026-04-12T12:12:19Z</time></trkpt><trkpt lat="14.465425863009058" lon="121.01849819677055"><ele>22.0</ele><time>2026-04-12T12:12:20Z</time></trkpt><trkpt lat="14.465478303923618" lon="121.01838159692508"><ele>22.0</ele><time>2026-04-12T12:12:21Z</time></trkpt><trkpt lat="14.465526054446343" lon="121.01827542592875"><ele>21.6</ele><time>2026-04-12T12:12:22Z</time></trkpt><trkpt lat="14.46557385865179" lon="121.01816913557876"><ele>21.200000000000003</ele><time>2026-04-12T12:12:23Z</time></trkpt><trkpt lat="14.46561320499504" lon="121.01808165087964"><ele>20.8</ele><time>2026-04-12T12:12:24Z</time></trkpt><trkpt lat="14.465652482932594" lon="121.01799431827494"><ele>20.4</ele><time>2026-04-12T12:12:25Z</time></trkpt><trkpt lat="14.465692625146755" lon="121.01790506399084"><ele>20.0</ele><time>2026-04-12T12:12:26Z</time></trkpt><trkpt lat="14.465731553403648" lon="121.01782243288206"><ele>20.0</ele><time>2026-04-12T12:12:27Z</time></trkpt><trkpt lat="14.46577877391402" lon="121.01772480587684"><ele>20.0</ele><time>2026-04-12T12:12:28Z</time></trkpt><trkpt lat="14.465829070313658" lon="121.01762322199292"><ele>20.0</ele><time>2026-04-12T12:12:29Z</time></trkpt><trkpt lat="14.465879315253078" lon="121.01751752612826"><ele>20.0</ele><time>2026-04-12T12:12:30Z</time></trkpt><trkpt lat="14.46593341546092" lon="121.01740372022438"><ele>20.5</ele><time>2026-04-12T12:12:31Z</time></trkpt><trkpt lat="14.465987014128396" lon="121.01728339430672"><ele>21.0</ele><time>2026-04-12T12:12:32Z</time></trkpt><trkpt lat="14.46604319194447" lon="121.017158791528"><ele>21.5</ele><time>2026-04-12T12:12:33Z</time></trkpt><trkpt lat="14.466101386818629" lon="121.0170297148848"><ele>22.0</ele><time>2026-04-12T12:12:34Z</time></trkpt><trkpt lat="14.466161590639855" lon="121.01689796520519"><ele>22.0</ele><time>2026-04-12T12:12:35Z</time></trkpt><trkpt lat="14.466221038629039" lon="121.01677023414729"><ele>22.0</ele><time>2026-04-12T12:12:36Z</time></trkpt><trkpt lat="14.466276640988948" lon="121.0166490217941"><ele>22.0</ele><time>2026-04-12T12:12:37Z</time></trkpt><trkpt lat="14.466325445590762" lon="121.01654124989241"><ele>22.0</ele><time>2026-04-12T12:12:38Z</time></trkpt><trkpt lat="14.46637018269755" lon="121.01644245995843"><ele>21.6</ele><time>2026-04-12T12:12:39Z</time></trkpt><trkpt lat="14.466409555462551" lon="121.01635551574337"><ele>21.200000000000003</ele><time>2026-04-12T12:12:40Z</time></trkpt><trkpt lat="14.466430241511793" lon="121.01626912666987"><ele>20.8</ele><time>2026-04-12T12:12:41Z</time></trkpt><trkpt lat="14.466486212156113" lon="121.01618623989307"><ele>20.4</ele><time>2026-04-12T12:12:42Z</time></trkpt><trkpt lat="14.466533930139148" lon="121.0160946559525"><ele>20.0</ele><time>2026-04-12T12:12:43Z</time></trkpt><trkpt lat="14.466582813420782" lon="121.01599487496212"><ele>20.0</ele><time>2026-04-12T12:12:44Z</time></trkpt><trkpt lat="14.466635568660982" lon="121.01588731607467"><ele>20.0</ele><time>2026-04-12T12:12:45Z</time></trkpt><trkpt lat="14.466690335646215" lon="121.01577565558364"><ele>20.0</ele><time>2026-04-12T12:12:46Z</time></trkpt><trkpt lat="14.466747245564433" lon="121.01565962601885"><ele>20.0</ele><time>2026-04-12T12:12:47Z</time></trkpt><trkpt lat="14.466806792107963" lon="121.01553822082298"><ele>20.0</ele><time>2026-04-12T12:12:48Z</time></trkpt><trkpt lat="14.466866649005524" lon="121.01541618287375"><ele>20.0</ele><time>2026-04-12T12:12:49Z</time></trkpt><trkpt lat="14.466930178243969" lon="121.01528727596681"><ele>20.0</ele><time>2026-04-12T12:12:50Z</time></trkpt><trkpt lat="14.466993716116821" lon="121.01515839194373"><ele>20.0</ele><time>2026-04-12T12:12:51Z</time></trkpt><trkpt lat="14.467057712922388" lon="121.01502844845227"><ele>20.0</ele><time>2026-04-12T12:12:52Z</time></trkpt><trkpt lat="14.467124010309792" lon="121.01489289839876"><ele>20.0</ele><time>2026-04-12T12:12:53Z</time></trkpt><trkpt lat="14.46717551179373" lon="121.01475519996842"><ele>20.0</ele><time>2026-04-12T12:12:54Z</time></trkpt><trkpt lat="14.467238364285704" lon="121.0146339336829"><ele>20.0</ele><time>2026-04-12T12:12:55Z</time></trkpt><trkpt lat="14.467297589515756" lon="121.01452344557978"><ele>20.0</ele><time>2026-04-12T12:12:56Z</time></trkpt><trkpt lat="14.467353332833337" lon="121.01442457372491"><ele>20.0</ele><time>2026-04-12T12:12:57Z</time></trkpt><trkpt lat="14.467400936055043" lon="121.01433702232968"><ele>20.0</ele><time>2026-04-12T12:12:58Z</time></trkpt><trkpt lat="14.467448128216464" lon="121.01425284712995"><ele>20.0</ele><time>2026-04-12T12:12:59Z</time></trkpt><trkpt lat="14.467487806791942" lon="121.01418067267774"><ele>20.0</ele><time>2026-04-12T12:13:00Z</time></trkpt><trkpt lat="14.467523502128998" lon="121.01411710643909"><ele>19.6</ele><time>2026-04-12T12:13:01Z</time></trkpt><trkpt lat="14.467557915150906" lon="121.01405006590821"><ele>19.2</ele><time>2026-04-12T12:13:02Z</time></trkpt><trkpt lat="14.46759539152251" lon="121.01396928648549"><ele>18.8</ele><time>2026-04-12T12:13:03Z</time></trkpt><trkpt lat="14.467631281713473" lon="121.01388231265983"><ele>18.4</ele><time>2026-04-12T12:13:04Z</time></trkpt><trkpt lat="14.467673131079513" lon="121.01378304561659"><ele>18.0</ele><time>2026-04-12T12:13:05Z</time></trkpt><trkpt lat="14.467721627365753" lon="121.01368078332658"><ele>18.0</ele><time>2026-04-12T12:13:06Z</time></trkpt><trkpt lat="14.467773945768956" lon="121.0135730261572"><ele>18.0</ele><time>2026-04-12T12:13:07Z</time></trkpt><trkpt lat="14.467826227881366" lon="121.01346020871908"><ele>18.0</ele><time>2026-04-12T12:13:08Z</time></trkpt><trkpt lat="14.46788153591783" lon="121.01334536435935"><ele>18.0</ele><time>2026-04-12T12:13:09Z</time></trkpt><trkpt lat="14.467938596980554" lon="121.01323106150542"><ele>18.0</ele><time>2026-04-12T12:13:10Z</time></trkpt><trkpt lat="14.467998770246142" lon="121.01311622369816"><ele>18.0</ele><time>2026-04-12T12:13:11Z</time></trkpt><trkpt lat="14.468054668349337" lon="121.01301208973925"><ele>18.0</ele><time>2026-04-12T12:13:12Z</time></trkpt><trkpt lat="14.4681014923196" lon="121.01291222463843"><ele>18.0</ele><time>2026-04-12T12:13:13Z</time></trkpt><trkpt lat="14.468148800211209" lon="121.01281678594228"><ele>18.0</ele><time>2026-04-12T12:13:14Z</time></trkpt><trkpt lat="14.468194071503016" lon="121.01272445459975"><ele>18.0</ele><time>2026-04-12T12:13:15Z</time></trkpt><trkpt lat="14.468233790671636" lon="121.01265119526876"><ele>18.0</ele><time>2026-04-12T12:13:16Z</time></trkpt><trkpt lat="14.46828025606465" lon="121.01258109533714"><ele>18.0</ele><time>2026-04-12T12:13:18Z</time></trkpt><trkpt lat="14.46832494565859" lon="121.0125109945322"><ele>18.0</ele><time>2026-04-12T12:13:21Z</time></trkpt><trkpt lat="14.468360410443465" lon="121.01245365048578"><ele>18.0</ele><time>2026-04-12T12:13:22Z</time></trkpt><trkpt lat="14.4683939423161" lon="121.0123933533915"><ele>17.666666666666668</ele><time>2026-04-12T12:13:23Z</time></trkpt><trkpt lat="14.468427331666408" lon="121.0123316013732"><ele>17.333333333333332</ele><time>2026-04-12T12:13:24Z</time></trkpt><trkpt lat="14.468482271967329" lon="121.01224130065596"><ele>17.0</ele><time>2026-04-12T12:13:26Z</time></trkpt><trkpt lat="14.468513564789864" lon="121.01218129980639"><ele>16.666666666666664</ele><time>2026-04-12T12:13:30Z</time></trkpt><trkpt lat="14.468554362971505" lon="121.01211734308535"><ele>16.333333333333332</ele><time>2026-04-12T12:13:43Z</time></trkpt><trkpt lat="14.468607947126591" lon="121.01203531470158"><ele>16.0</ele><time>2026-04-12T12:13:46Z</time></trkpt><trkpt lat="14.468663477782568" lon="121.01195784704825"><ele>15.999999999999998</ele><time>2026-04-12T12:13:49Z</time></trkpt><trkpt lat="14.468693079228018" lon="121.01189979960901"><ele>16.0</ele><time>2026-04-12T12:13:51Z</time></trkpt><trkpt lat="14.46873127067404" lon="121.0118133641734"><ele>16.0</ele><time>2026-04-12T12:13:53Z</time></trkpt><trkpt lat="14.468775358944063" lon="121.01172097335417"><ele>16.0</ele><time>2026-04-12T12:13:55Z</time></trkpt><trkpt lat="14.468821927054805" lon="121.01161828799647"><ele>15.999999999999998</ele><time>2026-04-12T12:13:57Z</time></trkpt><trkpt lat="14.468852723613056" lon="121.01155579861059"><ele>16.0</ele><time>2026-04-12T12:13:58Z</time></trkpt><trkpt lat="14.468887279706227" lon="121.0114936916477"><ele>15.600000000000001</ele><time>2026-04-12T12:13:59Z</time></trkpt><trkpt lat="14.46892249078275" lon="121.01142567960483"><ele>15.200000000000001</ele><time>2026-04-12T12:14:00Z</time></trkpt><trkpt lat="14.468964052121846" lon="121.0113436945004"><ele>14.799999999999999</ele><time>2026-04-12T12:14:01Z</time></trkpt><trkpt lat="14.469032062501109" lon="121.01126099522097"><ele>14.399999999999999</ele><time>2026-04-12T12:14:02Z</time></trkpt><trkpt lat="14.469092953248355" lon="121.0111622607934"><ele>14.0</ele><time>2026-04-12T12:14:03Z</time></trkpt><trkpt lat="14.469161510608622" lon="121.01105136217629"><ele>14.0</ele><time>2026-04-12T12:14:04Z</time></trkpt><trkpt lat="14.469227027369387" lon="121.0109456942633"><ele>14.0</ele><time>2026-04-12T12:14:05Z</time></trkpt><trkpt lat="14.469290306353498" lon="121.01084363551823"><ele>14.0</ele><time>2026-04-12T12:14:06Z</time></trkpt><trkpt lat="14.469347907339424" lon="121.0107429607046"><ele>14.0</ele><time>2026-04-12T12:14:07Z</time></trkpt><trkpt lat="14.46940440888667" lon="121.01064551204257"><ele>14.0</ele><time>2026-04-12T12:14:08Z</time></trkpt><trkpt lat="14.469463377214456" lon="121.01054380890562"><ele>14.0</ele><time>2026-04-12T12:14:09Z</time></trkpt><trkpt lat="14.469525920252657" lon="121.01043594042834"><ele>14.0</ele><time>2026-04-12T12:14:10Z</time></trkpt><trkpt lat="14.469583074348149" lon="121.01033741966894"><ele>14.0</ele><time>2026-04-12T12:14:11Z</time></trkpt><trkpt lat="14.469665201501117" lon="121.01023656323714"><ele>14.0</ele><time>2026-04-12T12:14:12Z</time></trkpt><trkpt lat="14.469709099549195" lon="121.0101062030775"><ele>14.0</ele><time>2026-04-12T12:14:13Z</time></trkpt><trkpt lat="14.469780142669853" lon="121.00998310609897"><ele>14.0</ele><time>2026-04-12T12:14:14Z</time></trkpt><trkpt lat="14.469856943862126" lon="121.00985603375514"><ele>14.0</ele><time>2026-04-12T12:14:15Z</time></trkpt><trkpt lat="14.46995099816724" lon="121.00973850515891"><ele>13.666666666666668</ele><time>2026-04-12T12:14:16Z</time></trkpt><trkpt lat="14.470034811775138" lon="121.00960714312936"><ele>13.333333333333332</ele><time>2026-04-12T12:14:17Z</time></trkpt><trkpt lat="14.470118038265293" lon="121.00946856567907"><ele>13.0</ele><time>2026-04-12T12:14:18Z</time></trkpt><trkpt lat="14.470199115676678" lon="121.00933467691092"><ele>13.0</ele><time>2026-04-12T12:14:19Z</time></trkpt><trkpt lat="14.470284928785173" lon="121.00919448269916"><ele>13.0</ele><time>2026-04-12T12:14:20Z</time></trkpt><trkpt lat="14.4703646027341" lon="121.00905101134595"><ele>13.0</ele><time>2026-04-12T12:14:21Z</time></trkpt><trkpt lat="14.470447301073577" lon="121.00891349137679"><ele>13.75</ele><time>2026-04-12T12:14:22Z</time></trkpt><trkpt lat="14.47051335079694" lon="121.00877250973893"><ele>14.5</ele><time>2026-04-12T12:14:23Z</time></trkpt><trkpt lat="14.470599108224642" lon="121.00866532566026"><ele>15.25</ele><time>2026-04-12T12:14:24Z</time></trkpt><trkpt lat="14.470671763980219" lon="121.00854763298666"><ele>16.0</ele><time>2026-04-12T12:14:25Z</time></trkpt><trkpt lat="14.470723825502102" lon="121.00843267384688"><ele>16.0</ele><time>2026-04-12T12:14:26Z</time></trkpt><trkpt lat="14.470796225657368" lon="121.00834602160467"><ele>16.0</ele><time>2026-04-12T12:14:27Z</time></trkpt><trkpt lat="14.470844200888738" lon="121.0082683080944"><ele>16.0</ele><time>2026-04-12T12:14:28Z</time></trkpt><trkpt lat="14.47087362419537" lon="121.00818762234276"><ele>16.0</ele><time>2026-04-12T12:14:29Z</time></trkpt><trkpt lat="14.470937309089052" lon="121.00809526305058"><ele>16.0</ele><time>2026-04-12T12:14:31Z</time></trkpt><trkpt lat="14.470982680166252" lon="121.00800655987733"><ele>15.4</ele><time>2026-04-12T12:14:33Z</time></trkpt><trkpt lat="14.471052455016224" lon="121.00789566344685"><ele>14.8</ele><time>2026-04-12T12:14:35Z</time></trkpt><trkpt lat="14.47109196056493" lon="121.00782598800632"><ele>14.200000000000001</ele><time>2026-04-12T12:14:36Z</time></trkpt><trkpt lat="14.471141467096349" lon="121.00774556072054"><ele>13.600000000000001</ele><time>2026-04-12T12:14:37Z</time></trkpt><trkpt lat="14.471194920459446" lon="121.00765540460816"><ele>13.0</ele><time>2026-04-12T12:14:38Z</time></trkpt><trkpt lat="14.471252484498482" lon="121.0075564283607"><ele>12.75</ele><time>2026-04-12T12:14:39Z</time></trkpt><trkpt lat="14.471317171217072" lon="121.00744691654333"><ele>12.5</ele><time>2026-04-12T12:14:40Z</time></trkpt><trkpt lat="14.471385070284883" lon="121.00733338113855"><ele>12.25</ele><time>2026-04-12T12:14:41Z</time></trkpt><trkpt lat="14.471458563470797" lon="121.00721869803603"><ele>12.0</ele><time>2026-04-12T12:14:42Z</time></trkpt><trkpt lat="14.471524705394055" lon="121.00710653343069"><ele>12.0</ele><time>2026-04-12T12:14:43Z</time></trkpt><trkpt lat="14.471586946409536" lon="121.00700786901307"><ele>12.0</ele><time>2026-04-12T12:14:44Z</time></trkpt><trkpt lat="14.471644247058547" lon="121.00691188263357"><ele>12.0</ele><time>2026-04-12T12:14:45Z</time></trkpt><trkpt lat="14.471700749144546" lon="121.00681852895578"><ele>12.0</ele><time>2026-04-12T12:14:46Z</time></trkpt><trkpt lat="14.471756224018161" lon="121.00672372899659"><ele>12.0</ele><time>2026-04-12T12:14:47Z</time></trkpt><trkpt lat="14.471818185626532" lon="121.00663110988859"><ele>12.0</ele><time>2026-04-12T12:14:48Z</time></trkpt><trkpt lat="14.471871441445883" lon="121.00653916686537"><ele>12.0</ele><time>2026-04-12T12:14:49Z</time></trkpt><trkpt lat="14.471928399676097" lon="121.00645413000336"><ele>12.0</ele><time>2026-04-12T12:14:50Z</time></trkpt><trkpt lat="14.471980043188559" lon="121.00637341627564"><ele>12.0</ele><time>2026-04-12T12:14:51Z</time></trkpt><trkpt lat="14.472033154580748" lon="121.00628987116687"><ele>12.0</ele><time>2026-04-12T12:14:52Z</time></trkpt><trkpt lat="14.472084643836407" lon="121.00620616236952"><ele>12.25</ele><time>2026-04-12T12:14:53Z</time></trkpt><trkpt lat="14.472140067229228" lon="121.00611328740551"><ele>12.5</ele><time>2026-04-12T12:14:54Z</time></trkpt><trkpt lat="14.47220817326812" lon="121.00602016148152"><ele>12.75</ele><time>2026-04-12T12:14:55Z</time></trkpt><trkpt lat="14.472271190992087" lon="121.0059047573061"><ele>13.0</ele><time>2026-04-12T12:14:56Z</time></trkpt><trkpt lat="14.472346425094694" lon="121.00577812419176"><ele>13.0</ele><time>2026-04-12T12:14:57Z</time></trkpt><trkpt lat="14.472423546699508" lon="121.00565402998313"><ele>13.0</ele><time>2026-04-12T12:14:58Z</time></trkpt><trkpt lat="14.472500976237482" lon="121.005529439908"><ele>13.0</ele><time>2026-04-12T12:14:59Z</time></trkpt><trkpt lat="14.472571026720178" lon="121.00541672364207"><ele>13.0</ele><time>2026-04-12T12:15:00Z</time></trkpt><trkpt lat="14.472628825988066" lon="121.00532372046487"><ele>13.0</ele><time>2026-04-12T12:15:01Z</time></trkpt><trkpt lat="14.472701739166789" lon="121.00519690388663"><ele>13.0</ele><time>2026-04-12T12:15:03Z</time></trkpt><trkpt lat="14.472752742281472" lon="121.00510722115573"><ele>13.0</ele><time>2026-04-12T12:15:04Z</time></trkpt><trkpt lat="14.472836995003917" lon="121.00496139503541"><ele>13.0</ele><time>2026-04-12T12:15:06Z</time></trkpt><trkpt lat="14.472897140392952" lon="121.00486046864953"><ele>12.75</ele><time>2026-04-12T12:15:07Z</time></trkpt><trkpt lat="14.472964653681835" lon="121.00474717863156"><ele>12.5</ele><time>2026-04-12T12:15:08Z</time></trkpt><trkpt lat="14.473037181127955" lon="121.00462547466127"><ele>12.25</ele><time>2026-04-12T12:15:09Z</time></trkpt><trkpt lat="14.47310218629675" lon="121.00448748192827"><ele>12.0</ele><time>2026-04-12T12:15:10Z</time></trkpt><trkpt lat="14.473173484822807" lon="121.00436752704381"><ele>12.0</ele><time>2026-04-12T12:15:11Z</time></trkpt><trkpt lat="14.473262217115769" lon="121.00424832093704"><ele>12.0</ele><time>2026-04-12T12:15:12Z</time></trkpt><trkpt lat="14.4733367941328" lon="121.00412089058474"><ele>12.0</ele><time>2026-04-12T12:15:13Z</time></trkpt><trkpt lat="14.473403764330964" lon="121.00400669509197"><ele>12.0</ele><time>2026-04-12T12:15:14Z</time></trkpt><trkpt lat="14.473471926255238" lon="121.00389202607386"><ele>12.0</ele><time>2026-04-12T12:15:15Z</time></trkpt><trkpt lat="14.473538936578933" lon="121.00377967455358"><ele>12.0</ele><time>2026-04-12T12:15:16Z</time></trkpt><trkpt lat="14.473610074153308" lon="121.00366665753589"><ele>12.0</ele><time>2026-04-12T12:15:17Z</time></trkpt><trkpt lat="14.473686562198674" lon="121.00354378051607"><ele>12.0</ele><time>2026-04-12T12:15:18Z</time></trkpt><trkpt lat="14.473766493309222" lon="121.0034074093028"><ele>11.5</ele><time>2026-04-12T12:15:19Z</time></trkpt><trkpt lat="14.473842133402751" lon="121.00327696554173"><ele>11.0</ele><time>2026-04-12T12:15:20Z</time></trkpt><trkpt lat="14.47391573875539" lon="121.00314865071397"><ele>10.5</ele><time>2026-04-12T12:15:21Z</time></trkpt><trkpt lat="14.4739890649852" lon="121.00302082247987"><ele>10.0</ele><time>2026-04-12T12:15:22Z</time></trkpt><trkpt lat="14.474048954234183" lon="121.0028953161384"><ele>10.0</ele><time>2026-04-12T12:15:23Z</time></trkpt><trkpt lat="14.474116577134177" lon="121.00278618013856"><ele>10.0</ele><time>2026-04-12T12:15:24Z</time></trkpt><trkpt lat="14.474187438731432" lon="121.0026791822751"><ele>10.0</ele><time>2026-04-12T12:15:25Z</time></trkpt><trkpt lat="14.474248227950529" lon="121.00257657248079"><ele>10.0</ele><time>2026-04-12T12:15:26Z</time></trkpt><trkpt lat="14.474293461106338" lon="121.00247771684273"><ele>10.0</ele><time>2026-04-12T12:15:27Z</time></trkpt><trkpt lat="14.47436285301864" lon="121.00237309964153"><ele>10.0</ele><time>2026-04-12T12:15:28Z</time></trkpt><trkpt lat="14.474427090085893" lon="121.00227087697701"><ele>10.0</ele><time>2026-04-12T12:15:29Z</time></trkpt><trkpt lat="14.474485994263059" lon="121.0021743804146"><ele>10.0</ele><time>2026-04-12T12:15:30Z</time></trkpt><trkpt lat="14.474537409858284" lon="121.00209508938215"><ele>10.0</ele><time>2026-04-12T12:15:31Z</time></trkpt><trkpt lat="14.474598274903776" lon="121.00200586368817"><ele>10.0</ele><time>2026-04-12T12:15:32Z</time></trkpt><trkpt lat="14.47464727550689" lon="121.00193260021432"><ele>10.0</ele><time>2026-04-12T12:15:33Z</time></trkpt><trkpt lat="14.474699815477578" lon="121.00185782768635"><ele>10.0</ele><time>2026-04-12T12:15:34Z</time></trkpt><trkpt lat="14.474747430968192" lon="121.0017864454711"><ele>10.0</ele><time>2026-04-12T12:15:35Z</time></trkpt><trkpt lat="14.474788736067655" lon="121.00172640966905"><ele>10.0</ele><time>2026-04-12T12:15:36Z</time></trkpt><trkpt lat="14.474847013941877" lon="121.00164950265047"><ele>10.0</ele><time>2026-04-12T12:15:38Z</time></trkpt><trkpt lat="14.47491381057186" lon="121.00160495272978"><ele>10.2</ele><time>2026-04-12T12:15:41Z</time></trkpt><trkpt lat="14.474984216978248" lon="121.00151074748116"><ele>10.4</ele><time>2026-04-12T12:15:43Z</time></trkpt><trkpt lat="14.475023398787426" lon="121.00145002900632"><ele>10.600000000000001</ele><time>2026-04-12T12:15:44Z</time></trkpt><trkpt lat="14.475062511172512" lon="121.00139125411287"><ele>10.8</ele><time>2026-04-12T12:15:45Z</time></trkpt><trkpt lat="14.475148888551068" lon="121.00127516887896"><ele>11.0</ele><time>2026-04-12T12:15:47Z</time></trkpt><trkpt lat="14.47519374651942" lon="121.00120438105616"><ele>11.0</ele><time>2026-04-12T12:15:48Z</time></trkpt><trkpt lat="14.475253700128201" lon="121.00111523370269"><ele>11.0</ele><time>2026-04-12T12:15:49Z</time></trkpt><trkpt lat="14.475337911664028" lon="121.00103754657675"><ele>11.0</ele><time>2026-04-12T12:15:50Z</time></trkpt><trkpt lat="14.4754236977178" lon="121.00094024608825"><ele>11.0</ele><time>2026-04-12T12:15:51Z</time></trkpt><trkpt lat="14.47551751422366" lon="121.00083397463354"><ele>10.5</ele><time>2026-04-12T12:15:52Z</time></trkpt><trkpt lat="14.475605383754575" lon="121.00073234603501"><ele>10.0</ele><time>2026-04-12T12:15:53Z</time></trkpt><trkpt lat="14.47568702302007" lon="121.00063763704559"><ele>9.5</ele><time>2026-04-12T12:15:54Z</time></trkpt><trkpt lat="14.475766652319438" lon="121.00053166657153"><ele>9.0</ele><time>2026-04-12T12:15:55Z</time></trkpt><trkpt lat="14.475872283563794" lon="121.00042535453254"><ele>9.0</ele><time>2026-04-12T12:15:56Z</time></trkpt><trkpt lat="14.475982651363571" lon="121.00031954250426"><ele>9.0</ele><time>2026-04-12T12:15:57Z</time></trkpt><trkpt lat="14.476102487222718" lon="121.00019745814247"><ele>9.0</ele><time>2026-04-12T12:15:58Z</time></trkpt><trkpt lat="14.47622912535855" lon="121.00008288990584"><ele>9.0</ele><time>2026-04-12T12:15:59Z</time></trkpt><trkpt lat="14.476362771016149" lon="120.99997075301597"><ele>9.0</ele><time>2026-04-12T12:16:00Z</time></trkpt><trkpt lat="14.47649713284647" lon="120.99985728350103"><ele>9.0</ele><time>2026-04-12T12:16:01Z</time></trkpt><trkpt lat="14.476627287183488" lon="120.99974375448399"><ele>9.0</ele><time>2026-04-12T12:16:02Z</time></trkpt><trkpt lat="14.47674883794026" lon="120.99964487668244"><ele>9.0</ele><time>2026-04-12T12:16:03Z</time></trkpt><trkpt lat="14.47686731781338" lon="120.99955347729126"><ele>9.0</ele><time>2026-04-12T12:16:04Z</time></trkpt><trkpt lat="14.476975086465071" lon="120.99946712107565"><ele>9.0</ele><time>2026-04-12T12:16:05Z</time></trkpt><trkpt lat="14.477076950786262" lon="120.99938891411487"><ele>9.0</ele><time>2026-04-12T12:16:06Z</time></trkpt><trkpt lat="14.477182791820578" lon="120.99931093724018"><ele>9.0</ele><time>2026-04-12T12:16:07Z</time></trkpt><trkpt lat="14.47729999635837" lon="120.99922379344787"><ele>9.0</ele><time>2026-04-12T12:16:08Z</time></trkpt><trkpt lat="14.47742682022561" lon="120.99913147369475"><ele>9.0</ele><time>2026-04-12T12:16:09Z</time></trkpt><trkpt lat="14.477566181568898" lon="120.9990389833898"><ele>9.0</ele><time>2026-04-12T12:16:10Z</time></trkpt><trkpt lat="14.477713921849418" lon="120.99894553603487"><ele>9.0</ele><time>2026-04-12T12:16:11Z</time></trkpt><trkpt lat="14.477866853075435" lon="120.99885091266381"><ele>9.0</ele><time>2026-04-12T12:16:12Z</time></trkpt><trkpt lat="14.478025033869335" lon="120.99875397264752"><ele>9.0</ele><time>2026-04-12T12:16:13Z</time></trkpt><trkpt lat="14.478186677794" lon="120.99865114828096"><ele>9.0</ele><time>2026-04-12T12:16:14Z</time></trkpt><trkpt lat="14.478354610349403" lon="120.99854969144945"><ele>9.0</ele><time>2026-04-12T12:16:15Z</time></trkpt><trkpt lat="14.478507258589685" lon="120.9984487012619"><ele>9.0</ele><time>2026-04-12T12:16:16Z</time></trkpt><trkpt lat="14.478653686161291" lon="120.99835149010781"><ele>9.0</ele><time>2026-04-12T12:16:17Z</time></trkpt><trkpt lat="14.47879093548669" lon="120.99826397788433"><ele>9.0</ele><time>2026-04-12T12:16:18Z</time></trkpt><trkpt lat="14.478929105644971" lon="120.99817715771707"><ele>8.333333333333334</ele><time>2026-04-12T12:16:19Z</time></trkpt><trkpt lat="14.479063825456354" lon="120.99808577332927"><ele>7.666666666666667</ele><time>2026-04-12T12:16:20Z</time></trkpt><trkpt lat="14.479187798084624" lon="120.9980062287959"><ele>7.0</ele><time>2026-04-12T12:16:21Z</time></trkpt><trkpt lat="14.479310983174885" lon="120.99792299373668"><ele>7.0</ele><time>2026-04-12T12:16:22Z</time></trkpt><trkpt lat="14.479435420040556" lon="120.99784179196358"><ele>7.0</ele><time>2026-04-12T12:16:23Z</time></trkpt><trkpt lat="14.479561505228226" lon="120.99775952986587"><ele>7.0</ele><time>2026-04-12T12:16:24Z</time></trkpt><trkpt lat="14.47968776011085" lon="120.99767895702183"><ele>7.0</ele><time>2026-04-12T12:16:25Z</time></trkpt><trkpt lat="14.479817545978852" lon="120.99759553571481"><ele>7.5</ele><time>2026-04-12T12:16:26Z</time></trkpt><trkpt lat="14.479942571716467" lon="120.99751370940574"><ele>8.0</ele><time>2026-04-12T12:16:27Z</time></trkpt><trkpt lat="14.4800735876284" lon="120.99743038443268"><ele>8.5</ele><time>2026-04-12T12:16:28Z</time></trkpt><trkpt lat="14.48019895504973" lon="120.99735294776674"><ele>9.0</ele><time>2026-04-12T12:16:29Z</time></trkpt><trkpt lat="14.480302791209423" lon="120.99728195116509"><ele>9.0</ele><time>2026-04-12T12:16:30Z</time></trkpt><trkpt lat="14.480410532641159" lon="120.9972097525772"><ele>9.0</ele><time>2026-04-12T12:16:31Z</time></trkpt><trkpt lat="14.480509417306491" lon="120.99714669847441"><ele>9.0</ele><time>2026-04-12T12:16:32Z</time></trkpt><trkpt lat="14.48060465219322" lon="120.99707764284486"><ele>9.0</ele><time>2026-04-12T12:16:33Z</time></trkpt><trkpt lat="14.480705586704135" lon="120.99700990632108"><ele>8.75</ele><time>2026-04-12T12:16:34Z</time></trkpt><trkpt lat="14.480810113753495" lon="120.996939194727"><ele>8.5</ele><time>2026-04-12T12:16:35Z</time></trkpt><trkpt lat="14.480918055409553" lon="120.99686007216572"><ele>8.25</ele><time>2026-04-12T12:16:36Z</time></trkpt><trkpt lat="14.481030272893125" lon="120.99678511989642"><ele>8.0</ele><time>2026-04-12T12:16:37Z</time></trkpt><trkpt lat="14.481134561707718" lon="120.99671132791777"><ele>8.0</ele><time>2026-04-12T12:16:38Z</time></trkpt><trkpt lat="14.481234143741345" lon="120.9966472695483"><ele>8.0</ele><time>2026-04-12T12:16:39Z</time></trkpt><trkpt lat="14.481327614411123" lon="120.99658071286252"><ele>8.0</ele><time>2026-04-12T12:16:40Z</time></trkpt><trkpt lat="14.481421343227842" lon="120.9965157419749"><ele>8.0</ele><time>2026-04-12T12:16:41Z</time></trkpt><trkpt lat="14.48152277471904" lon="120.99645009062796"><ele>8.0</ele><time>2026-04-12T12:16:42Z</time></trkpt><trkpt lat="14.481621821785062" lon="120.99637886223331"><ele>8.0</ele><time>2026-04-12T12:16:43Z</time></trkpt><trkpt lat="14.481720595157478" lon="120.9963096347653"><ele>8.0</ele><time>2026-04-12T12:16:44Z</time></trkpt><trkpt lat="14.481812445037487" lon="120.99624359392155"><ele>8.0</ele><time>2026-04-12T12:16:45Z</time></trkpt><trkpt lat="14.48190400760981" lon="120.99617691903227"><ele>8.0</ele><time>2026-04-12T12:16:46Z</time></trkpt><trkpt lat="14.48199753491336" lon="120.9961087543501"><ele>8.0</ele><time>2026-04-12T12:16:47Z</time></trkpt><trkpt lat="14.482093848910688" lon="120.9960415089704"><ele>8.0</ele><time>2026-04-12T12:16:48Z</time></trkpt><trkpt lat="14.482186011700906" lon="120.99597814249181"><ele>8.0</ele><time>2026-04-12T12:16:49Z</time></trkpt><trkpt lat="14.482275640454159" lon="120.99592128095021"><ele>8.0</ele><time>2026-04-12T12:16:50Z</time></trkpt><trkpt lat="14.482357500003316" lon="120.9958739888288"><ele>8.200000000000001</ele><time>2026-04-12T12:16:51Z</time></trkpt><trkpt lat="14.482453598812919" lon="120.9958183149103"><ele>8.4</ele><time>2026-04-12T12:16:52Z</time></trkpt><trkpt lat="14.482538494165134" lon="120.99576330084355"><ele>8.600000000000001</ele><time>2026-04-12T12:16:53Z</time></trkpt><trkpt lat="14.482622379616368" lon="120.99570416558005"><ele>8.8</ele><time>2026-04-12T12:16:54Z</time></trkpt><trkpt lat="14.48269508660642" lon="120.99564952587205"><ele>9.0</ele><time>2026-04-12T12:16:55Z</time></trkpt><trkpt lat="14.482760354809452" lon="120.99559886869174"><ele>9.0</ele><time>2026-04-12T12:16:56Z</time></trkpt><trkpt lat="14.482815495812126" lon="120.99556127304325"><ele>9.0</ele><time>2026-04-12T12:16:57Z</time></trkpt><trkpt lat="14.482909055410406" lon="120.99551761152742"><ele>9.0</ele><time>2026-04-12T12:16:59Z</time></trkpt><trkpt lat="14.48300809465673" lon="120.99545057833494"><ele>9.0</ele><time>2026-04-12T12:17:01Z</time></trkpt><trkpt lat="14.483070226660889" lon="120.99540606899578"><ele>9.0</ele><time>2026-04-12T12:17:02Z</time></trkpt><trkpt lat="14.483141579212717" lon="120.99534617229523"><ele>9.0</ele><time>2026-04-12T12:17:03Z</time></trkpt><trkpt lat="14.483215049920528" lon="120.9952843912115"><ele>9.0</ele><time>2026-04-12T12:17:04Z</time></trkpt><trkpt lat="14.483301084843527" lon="120.99521106376235"><ele>9.0</ele><time>2026-04-12T12:17:05Z</time></trkpt><trkpt lat="14.483393813270164" lon="120.99514106958769"><ele>9.0</ele><time>2026-04-12T12:17:06Z</time></trkpt><trkpt lat="14.483491596345523" lon="120.99506881805937"><ele>9.0</ele><time>2026-04-12T12:17:07Z</time></trkpt><trkpt lat="14.483592930560176" lon="120.99499287481132"><ele>9.0</ele><time>2026-04-12T12:17:08Z</time></trkpt><trkpt lat="14.483683456302675" lon="120.9949279299447"><ele>9.0</ele><time>2026-04-12T12:17:09Z</time></trkpt><trkpt lat="14.483780467183054" lon="120.99485408354978"><ele>9.0</ele><time>2026-04-12T12:17:10Z</time></trkpt><trkpt lat="14.483867213306725" lon="120.99478935248727"><ele>9.0</ele><time>2026-04-12T12:17:11Z</time></trkpt><trkpt lat="14.483943388382837" lon="120.99472897332275"><ele>9.0</ele><time>2026-04-12T12:17:12Z</time></trkpt><trkpt lat="14.484009888204387" lon="120.99467675171837"><ele>9.0</ele><time>2026-04-12T12:17:13Z</time></trkpt><trkpt lat="14.48406778782359" lon="120.9946308728921"><ele>9.0</ele><time>2026-04-12T12:17:14Z</time></trkpt><trkpt lat="14.484120486626555" lon="120.99458369249125"><ele>9.0</ele><time>2026-04-12T12:17:15Z</time></trkpt><trkpt lat="14.48417946426259" lon="120.99453197274077"><ele>9.0</ele><time>2026-04-12T12:17:16Z</time></trkpt><trkpt lat="14.484245604151578" lon="120.99448019063541"><ele>9.0</ele><time>2026-04-12T12:17:17Z</time></trkpt><trkpt lat="14.484315940510598" lon="120.99442815347193"><ele>9.0</ele><time>2026-04-12T12:17:18Z</time></trkpt><trkpt lat="14.484395161280203" lon="120.99439280620977"><ele>9.0</ele><time>2026-04-12T12:17:19Z</time></trkpt><trkpt lat="14.484463385989288" lon="120.99434018958965"><ele>9.0</ele><time>2026-04-12T12:17:20Z</time></trkpt><trkpt lat="14.48451392274851" lon="120.99427805053418"><ele>9.0</ele><time>2026-04-12T12:17:21Z</time></trkpt><trkpt lat="14.484587141865484" lon="120.99424050636657"><ele>9.0</ele><time>2026-04-12T12:17:22Z</time></trkpt><trkpt lat="14.484617957984357" lon="120.9941726332058"><ele>9.0</ele><time>2026-04-12T12:17:23Z</time></trkpt><trkpt lat="14.484663986130476" lon="120.9941133788136"><ele>9.0</ele><time>2026-04-12T12:17:24Z</time></trkpt><trkpt lat="14.484711963764811" lon="120.99404690710402"><ele>8.0</ele><time>2026-04-12T12:17:25Z</time></trkpt><trkpt lat="14.484757313223358" lon="120.99398152909127"><ele>7.0</ele><time>2026-04-12T12:17:26Z</time></trkpt><trkpt lat="14.484791084764638" lon="120.99391877968218"><ele>6.0</ele><time>2026-04-12T12:17:27Z</time></trkpt><trkpt lat="14.484819373338635" lon="120.99385940795362"><ele>5.0</ele><time>2026-04-12T12:17:28Z</time></trkpt><trkpt lat="14.484853804373722" lon="120.99375282834458"><ele>4.0</ele><time>2026-04-12T12:17:30Z</time></trkpt><trkpt lat="14.484876632506985" lon="120.99368793232648"><ele>3.0</ele><time>2026-04-12T12:17:31Z</time></trkpt><trkpt lat="14.484897596332777" lon="120.99358029300576"><ele>3.0</ele><time>2026-04-12T12:17:33Z</time></trkpt><trkpt lat="14.484910515679887" lon="120.993446110952"><ele>3.0</ele><time>2026-04-12T12:17:35Z</time></trkpt><trkpt lat="14.48491910583516" lon="120.99337167647113"><ele>3.0</ele><time>2026-04-12T12:17:36Z</time></trkpt><trkpt lat="14.484931980022466" lon="120.99327242069509"><ele>3.0</ele><time>2026-04-12T12:17:37Z</time></trkpt><trkpt lat="14.484951766675584" lon="120.99319323328021"><ele>3.0</ele><time>2026-04-12T12:17:38Z</time></trkpt><trkpt lat="14.484959853100401" lon="120.99310638544081"><ele>3.666666666666667</ele><time>2026-04-12T12:17:39Z</time></trkpt><trkpt lat="14.484963322750106" lon="120.99300598825803"><ele>4.333333333333334</ele><time>2026-04-12T12:17:40Z</time></trkpt><trkpt lat="14.484975366326815" lon="120.99292787088028"><ele>5.0</ele><time>2026-04-12T12:17:41Z</time></trkpt><trkpt lat="14.48498882366137" lon="120.99284819986485"><ele>5.666666666666667</ele><time>2026-04-12T12:17:42Z</time></trkpt><trkpt lat="14.484997630018084" lon="120.99277743145328"><ele>6.333333333333334</ele><time>2026-04-12T12:17:43Z</time></trkpt><trkpt lat="14.485010948638763" lon="120.99270801980722"><ele>7.0</ele><time>2026-04-12T12:17:44Z</time></trkpt><trkpt lat="14.485047897973967" lon="120.99258469849889"><ele>7.000000000000001</ele><time>2026-04-12T12:17:46Z</time></trkpt><trkpt lat="14.485073711912365" lon="120.99252273521155"><ele>7.0</ele><time>2026-04-12T12:17:47Z</time></trkpt><trkpt lat="14.485102140964685" lon="120.99246103704256"><ele>7.0</ele><time>2026-04-12T12:17:48Z</time></trkpt><trkpt lat="14.485138708345026" lon="120.99238448540615"><ele>7.0</ele><time>2026-04-12T12:17:49Z</time></trkpt><trkpt lat="14.485181820151245" lon="120.99230330127499"><ele>7.000000000000001</ele><time>2026-04-12T12:17:50Z</time></trkpt><trkpt lat="14.485226709702184" lon="120.99221837906848"><ele>7.0</ele><time>2026-04-12T12:17:51Z</time></trkpt><trkpt lat="14.485272454368182" lon="120.99212828114648"><ele>7.0</ele><time>2026-04-12T12:17:52Z</time></trkpt><trkpt lat="14.485331536616952" lon="120.99204688918361"><ele>6.999999999999999</ele><time>2026-04-12T12:17:53Z</time></trkpt><trkpt lat="14.485390192664275" lon="120.9919703660001"><ele>6.999999999999999</ele><time>2026-04-12T12:17:54Z</time></trkpt><trkpt lat="14.485448154627292" lon="120.99189650165698"><ele>7.0</ele><time>2026-04-12T12:17:55Z</time></trkpt><trkpt lat="14.48550939953953" lon="120.99183178773787"><ele>7.0</ele><time>2026-04-12T12:17:56Z</time></trkpt><trkpt lat="14.48556688667309" lon="120.99177428500904"><ele>7.000000000000001</ele><time>2026-04-12T12:17:57Z</time></trkpt><trkpt lat="14.485624067906075" lon="120.99172120636842"><ele>7.0</ele><time>2026-04-12T12:17:58Z</time></trkpt><trkpt lat="14.485692689692272" lon="120.99166442352303"><ele>7.0</ele><time>2026-04-12T12:17:59Z</time></trkpt><trkpt lat="14.485768224766312" lon="120.99161251731357"><ele>7.0</ele><time>2026-04-12T12:18:00Z</time></trkpt><trkpt lat="14.485817931510587" lon="120.99154553681382"><ele>7.000000000000001</ele><time>2026-04-12T12:18:01Z</time></trkpt><trkpt lat="14.485896288594422" lon="120.9914888473854"><ele>7.0</ele><time>2026-04-12T12:18:02Z</time></trkpt><trkpt lat="14.485979970230444" lon="120.99142570128895"><ele>7.199999999999999</ele><time>2026-04-12T12:18:03Z</time></trkpt><trkpt lat="14.486069275179965" lon="120.99137616954161"><ele>7.3999999999999995</ele><time>2026-04-12T12:18:04Z</time></trkpt><trkpt lat="14.48617832978759" lon="120.99134883247883"><ele>7.6000000000000005</ele><time>2026-04-12T12:18:05Z</time></trkpt><trkpt lat="14.486288510817078" lon="120.99131334461954"><ele>7.800000000000001</ele><time>2026-04-12T12:18:06Z</time></trkpt><trkpt lat="14.486402528579925" lon="120.99128722673382"><ele>8.0</ele><time>2026-04-12T12:18:07Z</time></trkpt><trkpt lat="14.4865121870273" lon="120.99126247431909"><ele>8.0</ele><time>2026-04-12T12:18:08Z</time></trkpt><trkpt lat="14.486621705261078" lon="120.99124462826605"><ele>8.0</ele><time>2026-04-12T12:18:09Z</time></trkpt><trkpt lat="14.48673556464535" lon="120.991242199317"><ele>8.0</ele><time>2026-04-12T12:18:10Z</time></trkpt><trkpt lat="14.486854567612465" lon="120.99124461541554"><ele>8.0</ele><time>2026-04-12T12:18:11Z</time></trkpt><trkpt lat="14.486970340523367" lon="120.99124734105207"><ele>8.0</ele><time>2026-04-12T12:18:12Z</time></trkpt><trkpt lat="14.487091306809294" lon="120.99125809534982"><ele>8.0</ele><time>2026-04-12T12:18:13Z</time></trkpt><trkpt lat="14.487210973925029" lon="120.99127103548093"><ele>8.0</ele><time>2026-04-12T12:18:14Z</time></trkpt><trkpt lat="14.487324498433248" lon="120.99128049900817"><ele>8.0</ele><time>2026-04-12T12:18:15Z</time></trkpt><trkpt lat="14.487427005434899" lon="120.99128761245652"><ele>8.0</ele><time>2026-04-12T12:18:16Z</time></trkpt><trkpt lat="14.48751974605339" lon="120.9912997381556"><ele>8.0</ele><time>2026-04-12T12:18:17Z</time></trkpt><trkpt lat="14.487597800962833" lon="120.9913136906409"><ele>8.0</ele><time>2026-04-12T12:18:18Z</time></trkpt><trkpt lat="14.487718840571176" lon="120.99133516491338"><ele>8.0</ele><time>2026-04-12T12:18:20Z</time></trkpt><trkpt lat="14.487822707916765" lon="120.9913462709608"><ele>8.0</ele><time>2026-04-12T12:18:22Z</time></trkpt><trkpt lat="14.487887393270878" lon="120.99135357461556"><ele>7.833333333333333</ele><time>2026-04-12T12:18:24Z</time></trkpt><trkpt lat="14.487954975870135" lon="120.99138077930367"><ele>7.666666666666666</ele><time>2026-04-12T12:18:51Z</time></trkpt><trkpt lat="14.48804998063227" lon="120.99138329228194"><ele>7.5</ele><time>2026-04-12T12:18:53Z</time></trkpt><trkpt lat="14.4881134104884" lon="120.99139040647279"><ele>7.333333333333334</ele><time>2026-04-12T12:18:54Z</time></trkpt><trkpt lat="14.488190474197735" lon="120.99139864686262"><ele>7.166666666666667</ele><time>2026-04-12T12:18:55Z</time></trkpt><trkpt lat="14.4882891537182" lon="120.9914087615588"><ele>7.0</ele><time>2026-04-12T12:18:56Z</time></trkpt><trkpt lat="14.488384235376747" lon="120.99141613933911"><ele>7.0</ele><time>2026-04-12T12:18:57Z</time></trkpt><trkpt lat="14.488494855353006" lon="120.99143244753465"><ele>7.0</ele><time>2026-04-12T12:18:58Z</time></trkpt><trkpt lat="14.488615076888042" lon="120.99144889565449"><ele>7.0</ele><time>2026-04-12T12:18:59Z</time></trkpt><trkpt lat="14.488746420526706" lon="120.99146777954256"><ele>7.0</ele><time>2026-04-12T12:19:00Z</time></trkpt><trkpt lat="14.48888427918319" lon="120.99149436418075"><ele>6.666666666666667</ele><time>2026-04-12T12:19:01Z</time></trkpt><trkpt lat="14.489033365619544" lon="120.99152499338116"><ele>6.333333333333334</ele><time>2026-04-12T12:19:02Z</time></trkpt><trkpt lat="14.489187683649119" lon="120.99154788359552"><ele>6.0</ele><time>2026-04-12T12:19:03Z</time></trkpt><trkpt lat="14.489343641060849" lon="120.9915748772526"><ele>6.0</ele><time>2026-04-12T12:19:04Z</time></trkpt><trkpt lat="14.48950637086593" lon="120.99160485844884"><ele>6.0</ele><time>2026-04-12T12:19:05Z</time></trkpt><trkpt lat="14.489676790869094" lon="120.99163349969531"><ele>6.0</ele><time>2026-04-12T12:19:06Z</time></trkpt><trkpt lat="14.489853954705591" lon="120.9916597731619"><ele>5.666666666666667</ele><time>2026-04-12T12:19:07Z</time></trkpt><trkpt lat="14.49003246442108" lon="120.99168686424247"><ele>5.333333333333334</ele><time>2026-04-12T12:19:08Z</time></trkpt><trkpt lat="14.490213928895034" lon="120.99171314147996"><ele>5.0</ele><time>2026-04-12T12:19:09Z</time></trkpt><trkpt lat="14.490394514281753" lon="120.99174494566277"><ele>5.0</ele><time>2026-04-12T12:19:10Z</time></trkpt><trkpt lat="14.490571523520254" lon="120.99178085547466"><ele>5.0</ele><time>2026-04-12T12:19:11Z</time></trkpt><trkpt lat="14.490734924262037" lon="120.99181320788418"><ele>5.0</ele><time>2026-04-12T12:19:12Z</time></trkpt><trkpt lat="14.490890537515185" lon="120.99183760027631"><ele>5.0</ele><time>2026-04-12T12:19:13Z</time></trkpt><trkpt lat="14.491040699750217" lon="120.99185915895548"><ele>5.0</ele><time>2026-04-12T12:19:14Z</time></trkpt><trkpt lat="14.491184184072788" lon="120.991884639882"><ele>5.0</ele><time>2026-04-12T12:19:15Z</time></trkpt><trkpt lat="14.491326292252268" lon="120.99190647065187"><ele>5.0</ele><time>2026-04-12T12:19:16Z</time></trkpt><trkpt lat="14.491456250985443" lon="120.99192690833941"><ele>5.6</ele><time>2026-04-12T12:19:17Z</time></trkpt><trkpt lat="14.491574160731238" lon="120.99194829791637"><ele>6.2</ele><time>2026-04-12T12:19:18Z</time></trkpt><trkpt lat="14.49167759051766" lon="120.9919716238782"><ele>6.800000000000001</ele><time>2026-04-12T12:19:19Z</time></trkpt><trkpt lat="14.491764653607232" lon="120.99199274057327"><ele>7.4</ele><time>2026-04-12T12:19:20Z</time></trkpt><trkpt lat="14.491845502742082" lon="120.99201297173457"><ele>8.0</ele><time>2026-04-12T12:19:21Z</time></trkpt><trkpt lat="14.491931524020721" lon="120.9920344532276"><ele>8.0</ele><time>2026-04-12T12:19:22Z</time></trkpt><trkpt lat="14.492025891192936" lon="120.99205040552738"><ele>8.0</ele><time>2026-04-12T12:19:23Z</time></trkpt><trkpt lat="14.49212278651607" lon="120.99206190577667"><ele>8.0</ele><time>2026-04-12T12:19:24Z</time></trkpt><trkpt lat="14.492227074325518" lon="120.99207705038334"><ele>8.0</ele><time>2026-04-12T12:19:25Z</time></trkpt><trkpt lat="14.492337647178545" lon="120.9920956741828"><ele>8.0</ele><time>2026-04-12T12:19:26Z</time></trkpt><trkpt lat="14.492465424462964" lon="120.99210846086456"><ele>7.75</ele><time>2026-04-12T12:19:27Z</time></trkpt><trkpt lat="14.492599394578903" lon="120.99212410733215"><ele>7.5</ele><time>2026-04-12T12:19:28Z</time></trkpt><trkpt lat="14.492741822374175" lon="120.99213991246292"><ele>7.25</ele><time>2026-04-12T12:19:29Z</time></trkpt><trkpt lat="14.492894813391658" lon="120.99216457250293"><ele>7.0</ele><time>2026-04-12T12:19:30Z</time></trkpt><trkpt lat="14.493055259349704" lon="120.9921923254663"><ele>6.333333333333334</ele><time>2026-04-12T12:19:31Z</time></trkpt><trkpt lat="14.493221660383009" lon="120.99221898224383"><ele>5.666666666666667</ele><time>2026-04-12T12:19:32Z</time></trkpt><trkpt lat="14.493394636731809" lon="120.99224904771783"><ele>5.0</ele><time>2026-04-12T12:19:33Z</time></trkpt><trkpt lat="14.493574635142329" lon="120.99228068489839"><ele>5.666666666666667</ele><time>2026-04-12T12:19:34Z</time></trkpt><trkpt lat="14.493763309239771" lon="120.99231663082064"><ele>6.333333333333334</ele><time>2026-04-12T12:19:35Z</time></trkpt><trkpt lat="14.493947883344413" lon="120.99234907064682"><ele>7.0</ele><time>2026-04-12T12:19:36Z</time></trkpt><trkpt lat="14.494142880036252" lon="120.99238457112459"><ele>7.0</ele><time>2026-04-12T12:19:37Z</time></trkpt><trkpt lat="14.494338765016018" lon="120.99242007427306"><ele>7.0</ele><time>2026-04-12T12:19:38Z</time></trkpt><trkpt lat="14.494530187306902" lon="120.9924517803342"><ele>7.0</ele><time>2026-04-12T12:19:39Z</time></trkpt><trkpt lat="14.494715020808217" lon="120.99247874742488"><ele>6.0</ele><time>2026-04-12T12:19:40Z</time></trkpt><trkpt lat="14.494892958721831" lon="120.99250870672513"><ele>5.0</ele><time>2026-04-12T12:19:41Z</time></trkpt><trkpt lat="14.49505954033697" lon="120.99253664520079"><ele>4.0</ele><time>2026-04-12T12:19:42Z</time></trkpt><trkpt lat="14.495229988316698" lon="120.9925636920054"><ele>4.0</ele><time>2026-04-12T12:19:43Z</time></trkpt><trkpt lat="14.495394362021921" lon="120.99258949642208"><ele>4.0</ele><time>2026-04-12T12:19:44Z</time></trkpt><trkpt lat="14.495553209811078" lon="120.99261260466986"><ele>4.0</ele><time>2026-04-12T12:19:45Z</time></trkpt><trkpt lat="14.495707354567509" lon="120.99263479512092"><ele>5.0</ele><time>2026-04-12T12:19:46Z</time></trkpt><trkpt lat="14.49587049614502" lon="120.99265333055934"><ele>6.0</ele><time>2026-04-12T12:19:47Z</time></trkpt><trkpt lat="14.496040403547514" lon="120.99267365524726"><ele>7.0</ele><time>2026-04-12T12:19:48Z</time></trkpt><trkpt lat="14.496213527089722" lon="120.99269354739047"><ele>6.666666666666667</ele><time>2026-04-12T12:19:49Z</time></trkpt><trkpt lat="14.496385415002026" lon="120.99270369945887"><ele>6.333333333333334</ele><time>2026-04-12T12:19:50Z</time></trkpt><trkpt lat="14.496559324508326" lon="120.99271174484531"><ele>6.0</ele><time>2026-04-12T12:19:51Z</time></trkpt><trkpt lat="14.496738288780387" lon="120.99270700896334"><ele>6.0</ele><time>2026-04-12T12:19:52Z</time></trkpt><trkpt lat="14.496918590163107" lon="120.99269641127027"><ele>6.0</ele><time>2026-04-12T12:19:53Z</time></trkpt><trkpt lat="14.497096562483597" lon="120.9926807876807"><ele>6.0</ele><time>2026-04-12T12:19:54Z</time></trkpt><trkpt lat="14.497266051555117" lon="120.9926579266554"><ele>6.333333333333334</ele><time>2026-04-12T12:19:55Z</time></trkpt><trkpt lat="14.49742163149579" lon="120.99263642476534"><ele>6.666666666666667</ele><time>2026-04-12T12:19:56Z</time></trkpt><trkpt lat="14.49757003524884" lon="120.992614127106"><ele>7.0</ele><time>2026-04-12T12:19:57Z</time></trkpt><trkpt lat="14.497713692234178" lon="120.99258948221569"><ele>7.0</ele><time>2026-04-12T12:19:58Z</time></trkpt><trkpt lat="14.497848621220099" lon="120.99257169217299"><ele>7.0</ele><time>2026-04-12T12:19:59Z</time></trkpt><trkpt lat="14.49796823177918" lon="120.99256717601908"><ele>7.0</ele><time>2026-04-12T12:20:00Z</time></trkpt><trkpt lat="14.498077510078206" lon="120.99257642464612"><ele>7.0</ele><time>2026-04-12T12:20:01Z</time></trkpt><trkpt lat="14.498185202755424" lon="120.99259899879085"><ele>7.0</ele><time>2026-04-12T12:20:02Z</time></trkpt><trkpt lat="14.498286550625277" lon="120.99264309178238"><ele>7.0</ele><time>2026-04-12T12:20:03Z</time></trkpt><trkpt lat="14.498384856406785" lon="120.99270562898063"><ele>7.0</ele><time>2026-04-12T12:20:04Z</time></trkpt><trkpt lat="14.49847138349461" lon="120.9927856227281"><ele>7.0</ele><time>2026-04-12T12:20:05Z</time></trkpt><trkpt lat="14.498544040653883" lon="120.99288195832494"><ele>7.0</ele><time>2026-04-12T12:20:06Z</time></trkpt><trkpt lat="14.498607421400026" lon="120.99298932441711"><ele>7.0</ele><time>2026-04-12T12:20:07Z</time></trkpt><trkpt lat="14.49865726269516" lon="120.9931104891937"><ele>7.0</ele><time>2026-04-12T12:20:08Z</time></trkpt><trkpt lat="14.498697150699368" lon="120.99324827797228"><ele>7.0</ele><time>2026-04-12T12:20:09Z</time></trkpt><trkpt lat="14.498723351418965" lon="120.99339175239716"><ele>6.666666666666667</ele><time>2026-04-12T12:20:10Z</time></trkpt><trkpt lat="14.498749545595503" lon="120.99354359959618"><ele>6.333333333333334</ele><time>2026-04-12T12:20:11Z</time></trkpt><trkpt lat="14.498776109044398" lon="120.99369606969958"><ele>6.0</ele><time>2026-04-12T12:20:12Z</time></trkpt><trkpt lat="14.498808019992682" lon="120.99386011190039"><ele>5.666666666666667</ele><time>2026-04-12T12:20:13Z</time></trkpt><trkpt lat="14.49883862999049" lon="120.99401516542717"><ele>5.333333333333334</ele><time>2026-04-12T12:20:14Z</time></trkpt><trkpt lat="14.498871395867665" lon="120.99417864519171"><ele>5.0</ele><time>2026-04-12T12:20:15Z</time></trkpt><trkpt lat="14.498900258034142" lon="120.99432835083762"><ele>4.75</ele><time>2026-04-12T12:20:16Z</time></trkpt><trkpt lat="14.498930171856944" lon="120.99448826177888"><ele>4.5</ele><time>2026-04-12T12:20:17Z</time></trkpt><trkpt lat="14.498955622212161" lon="120.99463185909227"><ele>4.25</ele><time>2026-04-12T12:20:18Z</time></trkpt><trkpt lat="14.498984058414761" lon="120.99476854824158"><ele>4.0</ele><time>2026-04-12T12:20:19Z</time></trkpt><trkpt lat="14.499018967389134" lon="120.99488753580178"><ele>4.0</ele><time>2026-04-12T12:20:20Z</time></trkpt><trkpt lat="14.499041460869762" lon="120.99501453331177"><ele>4.0</ele><time>2026-04-12T12:20:21Z</time></trkpt><trkpt lat="14.499064187998044" lon="120.99514797710599"><ele>4.0</ele><time>2026-04-12T12:20:22Z</time></trkpt><trkpt lat="14.499094213929254" lon="120.99529141385936"><ele>4.0</ele><time>2026-04-12T12:20:23Z</time></trkpt><trkpt lat="14.499133796495624" lon="120.99543356875186"><ele>4.0</ele><time>2026-04-12T12:20:24Z</time></trkpt><trkpt lat="14.499183469850264" lon="120.99557796692258"><ele>4.0</ele><time>2026-04-12T12:20:25Z</time></trkpt><trkpt lat="14.499234953095904" lon="120.99572277558629"><ele>4.0</ele><time>2026-04-12T12:20:26Z</time></trkpt><trkpt lat="14.499295117667915" lon="120.99586801144336"><ele>5.333333333333333</ele><time>2026-04-12T12:20:27Z</time></trkpt><trkpt lat="14.499359680741732" lon="120.99600832472021"><ele>6.666666666666666</ele><time>2026-04-12T12:20:28Z</time></trkpt><trkpt lat="14.499430301933707" lon="120.9961515476542"><ele>8.0</ele><time>2026-04-12T12:20:29Z</time></trkpt><trkpt lat="14.499503587822428" lon="120.99628684940474"><ele>8.0</ele><time>2026-04-12T12:20:30Z</time></trkpt><trkpt lat="14.499580986096287" lon="120.99642452744351"><ele>8.0</ele><time>2026-04-12T12:20:31Z</time></trkpt><trkpt lat="14.499663959909126" lon="120.99655513183916"><ele>8.0</ele><time>2026-04-12T12:20:32Z</time></trkpt><trkpt lat="14.499748522963172" lon="120.99668573471912"><ele>7.5</ele><time>2026-04-12T12:20:33Z</time></trkpt><trkpt lat="14.499836913370405" lon="120.9968076011275"><ele>7.0</ele><time>2026-04-12T12:20:34Z</time></trkpt><trkpt lat="14.499928529950239" lon="120.99693077474939"><ele>6.5</ele><time>2026-04-12T12:20:35Z</time></trkpt><trkpt lat="14.500021063081585" lon="120.9970451911278"><ele>6.0</ele><time>2026-04-12T12:20:36Z</time></trkpt><trkpt lat="14.500112912626165" lon="120.99715543527866"><ele>6.0</ele><time>2026-04-12T12:20:37Z</time></trkpt><trkpt lat="14.500211419219262" lon="120.99725275749391"><ele>6.0</ele><time>2026-04-12T12:20:38Z</time></trkpt><trkpt lat="14.500308626763701" lon="120.99734942416703"><ele>6.0</ele><time>2026-04-12T12:20:39Z</time></trkpt><trkpt lat="14.50041455732846" lon="120.9974509244254"><ele>6.0</ele><time>2026-04-12T12:20:40Z</time></trkpt><trkpt lat="14.500528933420272" lon="120.99755068310932"><ele>5.666666666666667</ele><time>2026-04-12T12:20:41Z</time></trkpt><trkpt lat="14.500645922274964" lon="120.99765167960948"><ele>5.333333333333334</ele><time>2026-04-12T12:20:42Z</time></trkpt><trkpt lat="14.50077280951403" lon="120.99775013607183"><ele>5.0</ele><time>2026-04-12T12:20:43Z</time></trkpt><trkpt lat="14.50089678254363" lon="120.99783013514103"><ele>5.0</ele><time>2026-04-12T12:20:44Z</time></trkpt><trkpt lat="14.50099998702349" lon="120.99789649339671"><ele>5.0</ele><time>2026-04-12T12:20:45Z</time></trkpt><trkpt lat="14.501086088765593" lon="120.99794350357563"><ele>5.0</ele><time>2026-04-12T12:20:46Z</time></trkpt><trkpt lat="14.501156775378245" lon="120.9979841138851"><ele>5.0</ele><time>2026-04-12T12:20:47Z</time></trkpt><trkpt lat="14.501248910099793" lon="120.99803437327371"><ele>5.0</ele><time>2026-04-12T12:20:49Z</time></trkpt><trkpt lat="14.501321021541962" lon="120.99806927199253"><ele>5.166666666666667</ele><time>2026-04-12T12:20:52Z</time></trkpt><trkpt lat="14.501385812216638" lon="120.99810660500967"><ele>5.333333333333334</ele><time>2026-04-12T12:20:54Z</time></trkpt><trkpt lat="14.50144981143981" lon="120.99814099547642"><ele>5.5</ele><time>2026-04-12T12:21:33Z</time></trkpt><trkpt lat="14.501531446861122" lon="120.99821577113016"><ele>5.666666666666667</ele><time>2026-04-12T12:21:35Z</time></trkpt><trkpt lat="14.50160214502967" lon="120.99825239665569"><ele>5.833333333333333</ele><time>2026-04-12T12:21:36Z</time></trkpt><trkpt lat="14.50168398031243" lon="120.99830069569789"><ele>6.0</ele><time>2026-04-12T12:21:37Z</time></trkpt><trkpt lat="14.501777330126258" lon="120.99835553638567"><ele>6.75</ele><time>2026-04-12T12:21:38Z</time></trkpt><trkpt lat="14.50188279750992" lon="120.9984152046805"><ele>7.5</ele><time>2026-04-12T12:21:39Z</time></trkpt><trkpt lat="14.501997985004522" lon="120.99847905949818"><ele>8.25</ele><time>2026-04-12T12:21:40Z</time></trkpt><trkpt lat="14.502118327505682" lon="120.99855168250096"><ele>9.0</ele><time>2026-04-12T12:21:41Z</time></trkpt><trkpt lat="14.502244208635895" lon="120.9986309871719"><ele>9.0</ele><time>2026-04-12T12:21:42Z</time></trkpt><trkpt lat="14.502375082918823" lon="120.99871684916295"><ele>9.0</ele><time>2026-04-12T12:21:43Z</time></trkpt><trkpt lat="14.502509579143162" lon="120.9988060172702"><ele>9.0</ele><time>2026-04-12T12:21:44Z</time></trkpt><trkpt lat="14.502649001704766" lon="120.9988970392771"><ele>9.0</ele><time>2026-04-12T12:21:45Z</time></trkpt><trkpt lat="14.502792777024583" lon="120.99898499791983"><ele>9.0</ele><time>2026-04-12T12:21:46Z</time></trkpt><trkpt lat="14.502935937401517" lon="120.99906882477806"><ele>9.0</ele><time>2026-04-12T12:21:47Z</time></trkpt><trkpt lat="14.50307874499671" lon="120.99915054080049"><ele>9.0</ele><time>2026-04-12T12:21:48Z</time></trkpt><trkpt lat="14.503217813496635" lon="120.99923354441628"><ele>9.0</ele><time>2026-04-12T12:21:49Z</time></trkpt><trkpt lat="14.503355744662091" lon="120.9993189018315"><ele>9.0</ele><time>2026-04-12T12:21:50Z</time></trkpt><trkpt lat="14.50349357621701" lon="120.99940139325801"><ele>9.0</ele><time>2026-04-12T12:21:51Z</time></trkpt><trkpt lat="14.50363146936744" lon="120.99948506604198"><ele>9.0</ele><time>2026-04-12T12:21:52Z</time></trkpt><trkpt lat="14.503768298056682" lon="120.99956992245356"><ele>9.0</ele><time>2026-04-12T12:21:53Z</time></trkpt><trkpt lat="14.503905062367691" lon="120.99965257835156"><ele>9.333333333333334</ele><time>2026-04-12T12:21:54Z</time></trkpt><trkpt lat="14.504044519811899" lon="120.99973973012962"><ele>9.666666666666668</ele><time>2026-04-12T12:21:55Z</time></trkpt><trkpt lat="14.504179334373049" lon="120.99982982889381"><ele>10.0</ele><time>2026-04-12T12:21:56Z</time></trkpt><trkpt lat="14.50432000940115" lon="120.999944217136"><ele>10.0</ele><time>2026-04-12T12:21:57Z</time></trkpt><trkpt lat="14.504452587238337" lon="121.00005117331449"><ele>10.0</ele><time>2026-04-12T12:21:58Z</time></trkpt><trkpt lat="14.504583869013754" lon="121.00015402332374"><ele>10.0</ele><time>2026-04-12T12:21:59Z</time></trkpt><trkpt lat="14.504721519496451" lon="121.00024986416506"><ele>9.25</ele><time>2026-04-12T12:22:00Z</time></trkpt><trkpt lat="14.50485492553701" lon="121.00033161395767"><ele>8.5</ele><time>2026-04-12T12:22:01Z</time></trkpt><trkpt lat="14.50498462669814" lon="121.00040858039254"><ele>7.75</ele><time>2026-04-12T12:22:02Z</time></trkpt><trkpt lat="14.505107175662078" lon="121.000485723312"><ele>7.0</ele><time>2026-04-12T12:22:03Z</time></trkpt><trkpt lat="14.505231007739757" lon="121.0005584994138"><ele>7.0</ele><time>2026-04-12T12:22:04Z</time></trkpt><trkpt lat="14.505367758577442" lon="121.00063501952548"><ele>7.0</ele><time>2026-04-12T12:22:05Z</time></trkpt><trkpt lat="14.505504344853733" lon="121.00070946668178"><ele>7.0</ele><time>2026-04-12T12:22:06Z</time></trkpt><trkpt lat="14.505644495914408" lon="121.00078305976142"><ele>8.0</ele><time>2026-04-12T12:22:07Z</time></trkpt><trkpt lat="14.505791835553087" lon="121.00084990543652"><ele>9.0</ele><time>2026-04-12T12:22:08Z</time></trkpt><trkpt lat="14.505942393816683" lon="121.0009157543556"><ele>10.0</ele><time>2026-04-12T12:22:09Z</time></trkpt><trkpt lat="14.506091793403508" lon="121.00098178453271"><ele>10.0</ele><time>2026-04-12T12:22:10Z</time></trkpt><trkpt lat="14.50623551252919" lon="121.00104190570868"><ele>10.0</ele><time>2026-04-12T12:22:11Z</time></trkpt><trkpt lat="14.506365739136081" lon="121.00109092606233"><ele>10.0</ele><time>2026-04-12T12:22:12Z</time></trkpt><trkpt lat="14.506471959415878" lon="121.00112996296035"><ele>10.0</ele><time>2026-04-12T12:22:13Z</time></trkpt><trkpt lat="14.506556071672724" lon="121.00115638341367"><ele>10.0</ele><time>2026-04-12T12:22:14Z</time></trkpt><trkpt lat="14.50663126463691" lon="121.00117387774856"><ele>10.0</ele><time>2026-04-12T12:22:15Z</time></trkpt><trkpt lat="14.506703430613989" lon="121.00119373004553"><ele>10.0</ele><time>2026-04-12T12:22:16Z</time></trkpt><trkpt lat="14.50676942491893" lon="121.00121761602696"><ele>10.0</ele><time>2026-04-12T12:22:17Z</time></trkpt><trkpt lat="14.506829880368821" lon="121.00125589850492"><ele>10.0</ele><time>2026-04-12T12:22:19Z</time></trkpt><trkpt lat="14.506883556624457" lon="121.00129264042216"><ele>10.0</ele><time>2026-04-12T12:22:28Z</time></trkpt><trkpt lat="14.506965498910535" lon="121.00133164285806"><ele>10.0</ele><time>2026-04-12T12:22:37Z</time></trkpt><trkpt lat="14.507033667348425" lon="121.00135045016772"><ele>9.6</ele><time>2026-04-12T12:22:38Z</time></trkpt><trkpt lat="14.507120197260893" lon="121.00137944844116"><ele>9.2</ele><time>2026-04-12T12:22:39Z</time></trkpt><trkpt lat="14.507217264802396" lon="121.00141624439536"><ele>8.8</ele><time>2026-04-12T12:22:40Z</time></trkpt><trkpt lat="14.507324204309306" lon="121.00145747787596"><ele>8.4</ele><time>2026-04-12T12:22:41Z</time></trkpt><trkpt lat="14.507442264978614" lon="121.00149841095535"><ele>8.0</ele><time>2026-04-12T12:22:42Z</time></trkpt><trkpt lat="14.507567763098407" lon="121.00155000566396"><ele>8.0</ele><time>2026-04-12T12:22:43Z</time></trkpt><trkpt lat="14.507698331824974" lon="121.0016111888328"><ele>8.0</ele><time>2026-04-12T12:22:44Z</time></trkpt><trkpt lat="14.507834463105379" lon="121.00168116827268"><ele>8.0</ele><time>2026-04-12T12:22:45Z</time></trkpt><trkpt lat="14.507975927861569" lon="121.00176403490886"><ele>8.333333333333332</ele><time>2026-04-12T12:22:46Z</time></trkpt><trkpt lat="14.50812849238272" lon="121.00182965602936"><ele>8.666666666666666</ele><time>2026-04-12T12:22:47Z</time></trkpt><trkpt lat="14.508271380179382" lon="121.00188645984302"><ele>9.0</ele><time>2026-04-12T12:22:48Z</time></trkpt><trkpt lat="14.508425358658068" lon="121.00193180214971"><ele>9.0</ele><time>2026-04-12T12:22:49Z</time></trkpt><trkpt lat="14.508580348606358" lon="121.00197075550597"><ele>9.0</ele><time>2026-04-12T12:22:50Z</time></trkpt><trkpt lat="14.508741907438846" lon="121.00201873853494"><ele>9.0</ele><time>2026-04-12T12:22:51Z</time></trkpt><trkpt lat="14.50891139057484" lon="121.00206388464835"><ele>8.333333333333334</ele><time>2026-04-12T12:22:52Z</time></trkpt><trkpt lat="14.509088959321248" lon="121.00209651296332"><ele>7.666666666666667</ele><time>2026-04-12T12:22:53Z</time></trkpt><trkpt lat="14.509261831182432" lon="121.00213074110232"><ele>7.0</ele><time>2026-04-12T12:22:54Z</time></trkpt><trkpt lat="14.509431738757744" lon="121.00218908922155"><ele>6.333333333333334</ele><time>2026-04-12T12:22:55Z</time></trkpt><trkpt lat="14.509602894447825" lon="121.00226383108975"><ele>5.666666666666667</ele><time>2026-04-12T12:22:56Z</time></trkpt><trkpt lat="14.509785647358191" lon="121.00232924862104"><ele>5.0</ele><time>2026-04-12T12:22:57Z</time></trkpt><trkpt lat="14.509969441744007" lon="121.00239020435762"><ele>5.0</ele><time>2026-04-12T12:22:58Z</time></trkpt><trkpt lat="14.510155477341955" lon="121.00245352673805"><ele>5.0</ele><time>2026-04-12T12:22:59Z</time></trkpt><trkpt lat="14.510343375126135" lon="121.00251950404443"><ele>5.0</ele><time>2026-04-12T12:23:00Z</time></trkpt><trkpt lat="14.510526038408292" lon="121.00259037987821"><ele>5.333333333333334</ele><time>2026-04-12T12:23:01Z</time></trkpt><trkpt lat="14.510702222679456" lon="121.00265636639784"><ele>5.666666666666667</ele><time>2026-04-12T12:23:02Z</time></trkpt><trkpt lat="14.510868333916306" lon="121.00271848731084"><ele>6.0</ele><time>2026-04-12T12:23:03Z</time></trkpt><trkpt lat="14.511024942027275" lon="121.00277812750103"><ele>6.0</ele><time>2026-04-12T12:23:04Z</time></trkpt><trkpt lat="14.51117844439298" lon="121.00283629305086"><ele>6.0</ele><time>2026-04-12T12:23:05Z</time></trkpt><trkpt lat="14.511322932193274" lon="121.00289092123447"><ele>6.0</ele><time>2026-04-12T12:23:06Z</time></trkpt><trkpt lat="14.511465132689558" lon="121.00294406622878"><ele>6.0</ele><time>2026-04-12T12:23:07Z</time></trkpt><trkpt lat="14.511607290655604" lon="121.00299708540064"><ele>6.0</ele><time>2026-04-12T12:23:08Z</time></trkpt><trkpt lat="14.51175122840206" lon="121.00305811516994"><ele>6.0</ele><time>2026-04-12T12:23:09Z</time></trkpt><trkpt lat="14.511902482887804" lon="121.00312220722523"><ele>6.0</ele><time>2026-04-12T12:23:10Z</time></trkpt><trkpt lat="14.51206022804107" lon="121.00318643071978"><ele>6.0</ele><time>2026-04-12T12:23:11Z</time></trkpt><trkpt lat="14.512219261952707" lon="121.00324384076907"><ele>6.0</ele><time>2026-04-12T12:23:12Z</time></trkpt><trkpt lat="14.512386239813797" lon="121.00329483484637"><ele>6.333333333333334</ele><time>2026-04-12T12:23:13Z</time></trkpt><trkpt lat="14.5125498289745" lon="121.00335105866299"><ele>6.666666666666667</ele><time>2026-04-12T12:23:14Z</time></trkpt><trkpt lat="14.51271527534086" lon="121.0034115341946"><ele>7.0</ele><time>2026-04-12T12:23:15Z</time></trkpt><trkpt lat="14.512873035582105" lon="121.00346689897025"><ele>7.333333333333334</ele><time>2026-04-12T12:23:16Z</time></trkpt><trkpt lat="14.513026931403513" lon="121.00351969854566"><ele>7.666666666666666</ele><time>2026-04-12T12:23:17Z</time></trkpt><trkpt lat="14.513178249628487" lon="121.00357244440261"><ele>8.0</ele><time>2026-04-12T12:23:18Z</time></trkpt><trkpt lat="14.513318955321932" lon="121.00362113696951"><ele>8.0</ele><time>2026-04-12T12:23:19Z</time></trkpt><trkpt lat="14.513450027349826" lon="121.0036702003905"><ele>8.0</ele><time>2026-04-12T12:23:20Z</time></trkpt><trkpt lat="14.51357650943205" lon="121.0037179425884"><ele>8.0</ele><time>2026-04-12T12:23:21Z</time></trkpt><trkpt lat="14.513709582912496" lon="121.003766017063"><ele>8.0</ele><time>2026-04-12T12:23:22Z</time></trkpt><trkpt lat="14.513845047727838" lon="121.00381688218974"><ele>9.0</ele><time>2026-04-12T12:23:23Z</time></trkpt><trkpt lat="14.513985101281781" lon="121.0038659259049"><ele>10.0</ele><time>2026-04-12T12:23:24Z</time></trkpt><trkpt lat="14.514123399325504" lon="121.0039204434162"><ele>11.0</ele><time>2026-04-12T12:23:25Z</time></trkpt><trkpt lat="14.514266109085712" lon="121.00397461410162"><ele>12.0</ele><time>2026-04-12T12:23:26Z</time></trkpt><trkpt lat="14.514409512938458" lon="121.00402531258305"><ele>12.0</ele><time>2026-04-12T12:23:27Z</time></trkpt><trkpt lat="14.51455017830768" lon="121.00407382616501"><ele>12.0</ele><time>2026-04-12T12:23:28Z</time></trkpt><trkpt lat="14.514680642557657" lon="121.00411595693213"><ele>12.0</ele><time>2026-04-12T12:23:29Z</time></trkpt><trkpt lat="14.514804263389285" lon="121.00415718722378"><ele>12.0</ele><time>2026-04-12T12:23:30Z</time></trkpt><trkpt lat="14.51491697995641" lon="121.00419645328584"><ele>11.4</ele><time>2026-04-12T12:23:31Z</time></trkpt><trkpt lat="14.515024622243775" lon="121.00423428008723"><ele>10.799999999999999</ele><time>2026-04-12T12:23:32Z</time></trkpt><trkpt lat="14.515120253604028" lon="121.004262647895"><ele>10.2</ele><time>2026-04-12T12:23:33Z</time></trkpt><trkpt lat="14.51520244924348" lon="121.00428183569421"><ele>9.6</ele><time>2026-04-12T12:23:34Z</time></trkpt><trkpt lat="14.515276598896396" lon="121.00428573831938"><ele>9.0</ele><time>2026-04-12T12:23:35Z</time></trkpt><trkpt lat="14.515379380244958" lon="121.00432623225393"><ele>9.2</ele><time>2026-04-12T12:23:37Z</time></trkpt><trkpt lat="14.515467022699749" lon="121.00419901158189"><ele>9.4</ele><time>2026-04-12T12:23:38Z</time></trkpt><trkpt lat="14.515510754218923" lon="121.00413585972456"><ele>9.6</ele><time>2026-04-12T12:23:39Z</time></trkpt><trkpt lat="14.515548659632211" lon="121.0040522712748"><ele>9.8</ele><time>2026-04-12T12:23:40Z</time></trkpt><trkpt lat="14.515587961472209" lon="121.0039602736448"><ele>10.0</ele><time>2026-04-12T12:23:41Z</time></trkpt><trkpt lat="14.515627061123249" lon="121.00386275314465"><ele>9.6</ele><time>2026-04-12T12:23:42Z</time></trkpt><trkpt lat="14.515654381818644" lon="121.00377373570977"><ele>9.2</ele><time>2026-04-12T12:23:43Z</time></trkpt><trkpt lat="14.5156816642405" lon="121.00368308190708"><ele>8.8</ele><time>2026-04-12T12:23:44Z</time></trkpt><trkpt lat="14.515708324460581" lon="121.00359779191427"><ele>8.4</ele><time>2026-04-12T12:23:45Z</time></trkpt><trkpt lat="14.515740481344652" lon="121.00351014032573"><ele>8.0</ele><time>2026-04-12T12:23:46Z</time></trkpt><trkpt lat="14.515780465326284" lon="121.00340795993203"><ele>7.6000000000000005</ele><time>2026-04-12T12:23:47Z</time></trkpt><trkpt lat="14.515828069533308" lon="121.00329922550783"><ele>7.200000000000001</ele><time>2026-04-12T12:23:48Z</time></trkpt><trkpt lat="14.515880563337793" lon="121.00319348611792"><ele>6.8</ele><time>2026-04-12T12:23:49Z</time></trkpt><trkpt lat="14.515925976745416" lon="121.00311702527802"><ele>6.4</ele><time>2026-04-12T12:23:50Z</time></trkpt><trkpt lat="14.515977123654885" lon="121.00302065572545"><ele>6.0</ele><time>2026-04-12T12:23:51Z</time></trkpt><trkpt lat="14.516028142294267" lon="121.0029295679474"><ele>6.0</ele><time>2026-04-12T12:23:52Z</time></trkpt><trkpt lat="14.516077550171381" lon="121.00282725879755"><ele>6.0</ele><time>2026-04-12T12:23:53Z</time></trkpt><trkpt lat="14.516133206033974" lon="121.00271702711113"><ele>6.0</ele><time>2026-04-12T12:23:54Z</time></trkpt><trkpt lat="14.516197542128676" lon="121.00259137115233"><ele>6.0</ele><time>2026-04-12T12:23:55Z</time></trkpt><trkpt lat="14.516258863493695" lon="121.0024606776179"><ele>6.25</ele><time>2026-04-12T12:23:56Z</time></trkpt><trkpt lat="14.516317413592958" lon="121.0023319076207"><ele>6.5</ele><time>2026-04-12T12:23:57Z</time></trkpt><trkpt lat="14.5163789255349" lon="121.00221480486204"><ele>6.75</ele><time>2026-04-12T12:23:58Z</time></trkpt><trkpt lat="14.516431819708236" lon="121.00210147567459"><ele>7.0</ele><time>2026-04-12T12:23:59Z</time></trkpt><trkpt lat="14.516479641057671" lon="121.00199970926111"><ele>7.0</ele><time>2026-04-12T12:24:00Z</time></trkpt><trkpt lat="14.51653367002827" lon="121.00189253162799"><ele>6.999999999999999</ele><time>2026-04-12T12:24:01Z</time></trkpt><trkpt lat="14.516585403906262" lon="121.00179870245356"><ele>6.999999999999999</ele><time>2026-04-12T12:24:02Z</time></trkpt><trkpt lat="14.516632933799752" lon="121.00171260160842"><ele>7.0</ele><time>2026-04-12T12:24:03Z</time></trkpt><trkpt lat="14.51667920712068" lon="121.00163339625465"><ele>7.0</ele><time>2026-04-12T12:24:04Z</time></trkpt><trkpt lat="14.516721472367227" lon="121.00156737155933"><ele>6.833333333333334</ele><time>2026-04-12T12:24:05Z</time></trkpt><trkpt lat="14.51676039191888" lon="121.00150652115549"><ele>6.666666666666667</ele><time>2026-04-12T12:24:06Z</time></trkpt><trkpt lat="14.51679448841528" lon="121.0014408678432"><ele>6.5</ele><time>2026-04-12T12:24:07Z</time></trkpt><trkpt lat="14.516846228719308" lon="121.00132989309418"><ele>6.333333333333334</ele><time>2026-04-12T12:24:09Z</time></trkpt><trkpt lat="14.516873665820814" lon="121.00125248050908"><ele>6.166666666666667</ele><time>2026-04-12T12:24:11Z</time></trkpt><trkpt lat="14.516890943317478" lon="121.00116766951501"><ele>6.0</ele><time>2026-04-12T12:24:14Z</time></trkpt><trkpt lat="14.516904208415474" lon="121.00107160492182"><ele>6.0</ele><time>2026-04-12T12:25:16Z</time></trkpt><trkpt lat="14.516928637538259" lon="121.00095268643615"><ele>6.0</ele><time>2026-04-12T12:25:18Z</time></trkpt><trkpt lat="14.516948798043947" lon="121.00087328421627"><ele>6.0</ele><time>2026-04-12T12:25:19Z</time></trkpt><trkpt lat="14.516972091699353" lon="121.00078053803725"><ele>6.0</ele><time>2026-04-12T12:25:20Z</time></trkpt><trkpt lat="14.516988017475922" lon="121.0006691962972"><ele>6.0</ele><time>2026-04-12T12:25:21Z</time></trkpt><trkpt lat="14.517002170465588" lon="121.00054910338537"><ele>5.75</ele><time>2026-04-12T12:25:22Z</time></trkpt><trkpt lat="14.517006570007023" lon="121.00042539521642"><ele>5.5</ele><time>2026-04-12T12:25:23Z</time></trkpt><trkpt lat="14.517014549743825" lon="121.00029435836"><ele>5.25</ele><time>2026-04-12T12:25:24Z</time></trkpt><trkpt lat="14.517023930857503" lon="121.00015070023012"><ele>5.0</ele><time>2026-04-12T12:25:25Z</time></trkpt><trkpt lat="14.517027317032996" lon="121.00000542489224"><ele>5.0</ele><time>2026-04-12T12:25:26Z</time></trkpt><trkpt lat="14.517028305895582" lon="120.99985849574642"><ele>5.0</ele><time>2026-04-12T12:25:27Z</time></trkpt><trkpt lat="14.517020170611474" lon="120.9996941321733"><ele>5.0</ele><time>2026-04-12T12:25:28Z</time></trkpt><trkpt lat="14.51702226214704" lon="120.99952037558685"><ele>5.0</ele><time>2026-04-12T12:25:29Z</time></trkpt><trkpt lat="14.517022626008213" lon="120.99935573413642"><ele>5.0</ele><time>2026-04-12T12:25:30Z</time></trkpt><trkpt lat="14.517024488405548" lon="120.9991922389237"><ele>5.0</ele><time>2026-04-12T12:25:31Z</time></trkpt><trkpt lat="14.517026812874786" lon="120.99902674712239"><ele>5.333333333333334</ele><time>2026-04-12T12:25:32Z</time></trkpt><trkpt lat="14.517026069071362" lon="120.99885338781748"><ele>5.666666666666667</ele><time>2026-04-12T12:25:33Z</time></trkpt><trkpt lat="14.51702917904769" lon="120.99868156343203"><ele>6.0</ele><time>2026-04-12T12:25:34Z</time></trkpt><trkpt lat="14.517031143993743" lon="120.99848830807973"><ele>5.666666666666667</ele><time>2026-04-12T12:25:35Z</time></trkpt><trkpt lat="14.517039317917108" lon="120.99831163392615"><ele>5.333333333333334</ele><time>2026-04-12T12:25:36Z</time></trkpt><trkpt lat="14.517037932769517" lon="120.99813835034885"><ele>5.0</ele><time>2026-04-12T12:25:37Z</time></trkpt><trkpt lat="14.517038395514406" lon="120.99796635679658"><ele>5.0</ele><time>2026-04-12T12:25:38Z</time></trkpt><trkpt lat="14.517038289977789" lon="120.99780250337518"><ele>5.0</ele><time>2026-04-12T12:25:39Z</time></trkpt><trkpt lat="14.517039491971575" lon="120.99764945547842"><ele>5.0</ele><time>2026-04-12T12:25:40Z</time></trkpt><trkpt lat="14.51704882156288" lon="120.99750878887733"><ele>5.0</ele><time>2026-04-12T12:25:41Z</time></trkpt><trkpt lat="14.51705975253182" lon="120.99737172387248"><ele>4.75</ele><time>2026-04-12T12:25:42Z</time></trkpt><trkpt lat="14.517068010733361" lon="120.99723027797955"><ele>4.5</ele><time>2026-04-12T12:25:43Z</time></trkpt><trkpt lat="14.517076920511773" lon="120.9970740749593"><ele>4.25</ele><time>2026-04-12T12:25:44Z</time></trkpt><trkpt lat="14.51708902659436" lon="120.99692791585328"><ele>4.0</ele><time>2026-04-12T12:25:45Z</time></trkpt><trkpt lat="14.51710718438002" lon="120.99678559904166"><ele>4.75</ele><time>2026-04-12T12:25:46Z</time></trkpt><trkpt lat="14.517134377869152" lon="120.99663953165272"><ele>5.5</ele><time>2026-04-12T12:25:47Z</time></trkpt><trkpt lat="14.517152462501958" lon="120.99648293381118"><ele>6.25</ele><time>2026-04-12T12:25:48Z</time></trkpt><trkpt lat="14.517173011070769" lon="120.99633005637722"><ele>7.0</ele><time>2026-04-12T12:25:49Z</time></trkpt><trkpt lat="14.517190608240416" lon="120.9961832746538"><ele>7.0</ele><time>2026-04-12T12:25:50Z</time></trkpt><trkpt lat="14.517211724955112" lon="120.99602370948634"><ele>7.0</ele><time>2026-04-12T12:25:51Z</time></trkpt><trkpt lat="14.517226835339613" lon="120.9958624826092"><ele>7.0</ele><time>2026-04-12T12:25:52Z</time></trkpt><trkpt lat="14.517243142914365" lon="120.99570211847043"><ele>7.0</ele><time>2026-04-12T12:25:53Z</time></trkpt><trkpt lat="14.517268509033393" lon="120.99554990802694"><ele>7.0</ele><time>2026-04-12T12:25:54Z</time></trkpt><trkpt lat="14.517298936037395" lon="120.99538302665518"><ele>7.0</ele><time>2026-04-12T12:25:55Z</time></trkpt><trkpt lat="14.517331396933272" lon="120.99521014724269"><ele>7.0</ele><time>2026-04-12T12:25:56Z</time></trkpt><trkpt lat="14.51735631824897" lon="120.99504568727377"><ele>7.0</ele><time>2026-04-12T12:25:57Z</time></trkpt><trkpt lat="14.517379624878997" lon="120.99488647885858"><ele>7.0</ele><time>2026-04-12T12:25:58Z</time></trkpt><trkpt lat="14.517399426666842" lon="120.99474367042676"><ele>7.199999999999999</ele><time>2026-04-12T12:25:59Z</time></trkpt><trkpt lat="14.517414338709866" lon="120.99459833607122"><ele>7.3999999999999995</ele><time>2026-04-12T12:26:00Z</time></trkpt><trkpt lat="14.517433956207439" lon="120.99447741695117"><ele>7.6000000000000005</ele><time>2026-04-12T12:26:01Z</time></trkpt><trkpt lat="14.517440605372645" lon="120.99437592897347"><ele>7.800000000000001</ele><time>2026-04-12T12:26:02Z</time></trkpt><trkpt lat="14.51744178268018" lon="120.9943054088226"><ele>8.0</ele><time>2026-04-12T12:26:03Z</time></trkpt><trkpt lat="14.517447855759036" lon="120.99420914657017"><ele>8.166666666666666</ele><time>2026-04-12T12:26:04Z</time></trkpt><trkpt lat="14.517455876133457" lon="120.99412387112169"><ele>8.333333333333332</ele><time>2026-04-12T12:26:05Z</time></trkpt><trkpt lat="14.51746717360602" lon="120.99404640755613"><ele>8.5</ele><time>2026-04-12T12:26:06Z</time></trkpt><trkpt lat="14.517473076757021" lon="120.99396823821176"><ele>8.666666666666666</ele><time>2026-04-12T12:26:07Z</time></trkpt><trkpt lat="14.517484590746227" lon="120.99389951043811"><ele>8.833333333333334</ele><time>2026-04-12T12:26:08Z</time></trkpt><trkpt lat="14.51749709107379" lon="120.99382096725891"><ele>9.0</ele><time>2026-04-12T12:26:09Z</time></trkpt><trkpt lat="14.517509827292336" lon="120.9937397595614"><ele>9.0</ele><time>2026-04-12T12:26:10Z</time></trkpt><trkpt lat="14.517524283655975" lon="120.99367099378158"><ele>9.0</ele><time>2026-04-12T12:26:11Z</time></trkpt><trkpt lat="14.5175429165896" lon="120.99360678447064"><ele>9.0</ele><time>2026-04-12T12:26:12Z</time></trkpt><trkpt lat="14.517570524741926" lon="120.99354524512106"><ele>9.0</ele><time>2026-04-12T12:26:13Z</time></trkpt><trkpt lat="14.517574309231792" lon="120.99347853910699"><ele>9.0</ele><time>2026-04-12T12:26:14Z</time></trkpt><trkpt lat="14.517775815595407" lon="120.99345533989764"><ele>9.0</ele><time>2026-04-12T12:26:16Z</time></trkpt><trkpt lat="14.517888199102483" lon="120.99344873711085"><ele>9.0</ele><time>2026-04-12T12:26:17Z</time></trkpt><trkpt lat="14.518010283880303" lon="120.99345076786781"><ele>9.0</ele><time>2026-04-12T12:26:18Z</time></trkpt><trkpt lat="14.518131981211006" lon="120.9934586891143"><ele>9.0</ele><time>2026-04-12T12:26:19Z</time></trkpt><trkpt lat="14.518265047836271" lon="120.99347184150398"><ele>13.0</ele><time>2026-04-12T12:26:20Z</time></trkpt><trkpt lat="14.518402103643579" lon="120.99348359154006"><ele>17.0</ele><time>2026-04-12T12:26:21Z</time></trkpt><trkpt lat="14.518557840295747" lon="120.99349177985775"><ele>21.0</ele><time>2026-04-12T12:26:22Z</time></trkpt><trkpt lat="14.518713984989446" lon="120.9935071761619"><ele>23.0</ele><time>2026-04-12T12:26:23Z</time></trkpt><trkpt lat="14.518879511256715" lon="120.9935176999772"><ele>25.0</ele><time>2026-04-12T12:26:24Z</time></trkpt><trkpt lat="14.519051597144792" lon="120.99352955731126"><ele>27.0</ele><time>2026-04-12T12:26:25Z</time></trkpt><trkpt lat="14.519228926740803" lon="120.9935416887539"><ele>27.0</ele><time>2026-04-12T12:26:26Z</time></trkpt><trkpt lat="14.51941056711431" lon="120.99355556508499"><ele>27.0</ele><time>2026-04-12T12:26:27Z</time></trkpt><trkpt lat="14.51959860491611" lon="120.99357286711412"><ele>27.0</ele><time>2026-04-12T12:26:28Z</time></trkpt><trkpt lat="14.519790756039097" lon="120.99359257450584"><ele>20.666666666666668</ele><time>2026-04-12T12:26:29Z</time></trkpt><trkpt lat="14.519987325778205" lon="120.9936120976777"><ele>14.333333333333332</ele><time>2026-04-12T12:26:30Z</time></trkpt><trkpt lat="14.520182459901163" lon="120.99362544222252"><ele>8.0</ele><time>2026-04-12T12:26:31Z</time></trkpt><trkpt lat="14.520382884197229" lon="120.99363769586644"><ele>7.0</ele><time>2026-04-12T12:26:32Z</time></trkpt><trkpt lat="14.520583492895001" lon="120.993648623436"><ele>6.0</ele><time>2026-04-12T12:26:33Z</time></trkpt><trkpt lat="14.520788778358991" lon="120.99366282940615"><ele>5.0</ele><time>2026-04-12T12:26:34Z</time></trkpt><trkpt lat="14.520993284061033" lon="120.99367953009836"><ele>5.0</ele><time>2026-04-12T12:26:35Z</time></trkpt><trkpt lat="14.521202753278088" lon="120.99369037437316"><ele>5.0</ele><time>2026-04-12T12:26:36Z</time></trkpt><trkpt lat="14.521412836391931" lon="120.99370715789303"><ele>5.0</ele><time>2026-04-12T12:26:37Z</time></trkpt><trkpt lat="14.521628645342862" lon="120.99372037505715"><ele>5.0</ele><time>2026-04-12T12:26:38Z</time></trkpt><trkpt lat="14.521842245669472" lon="120.99373305115603"><ele>5.0</ele><time>2026-04-12T12:26:39Z</time></trkpt><trkpt lat="14.522053775811395" lon="120.99373973074657"><ele>5.0</ele><time>2026-04-12T12:26:40Z</time></trkpt><trkpt lat="14.522279335061196" lon="120.99375051604535"><ele>5.0</ele><time>2026-04-12T12:26:41Z</time></trkpt><trkpt lat="14.522490196057783" lon="120.99375040498951"><ele>5.0</ele><time>2026-04-12T12:26:42Z</time></trkpt><trkpt lat="14.5227163314813" lon="120.99374992917828"><ele>5.0</ele><time>2026-04-12T12:26:43Z</time></trkpt><trkpt lat="14.522933507922493" lon="120.99374541713533"><ele>6.0</ele><time>2026-04-12T12:26:44Z</time></trkpt><trkpt lat="14.523158784278545" lon="120.99374740819734"><ele>7.0</ele><time>2026-04-12T12:26:45Z</time></trkpt><trkpt lat="14.523381970997166" lon="120.9937485295304"><ele>8.0</ele><time>2026-04-12T12:26:46Z</time></trkpt><trkpt lat="14.523607706103038" lon="120.99376746027548"><ele>8.0</ele><time>2026-04-12T12:26:47Z</time></trkpt><trkpt lat="14.52382901548527" lon="120.9937670091208"><ele>8.0</ele><time>2026-04-12T12:26:48Z</time></trkpt><trkpt lat="14.524061156904983" lon="120.99375469054559"><ele>8.0</ele><time>2026-04-12T12:26:49Z</time></trkpt><trkpt lat="14.524285556908115" lon="120.99375130510587"><ele>8.0</ele><time>2026-04-12T12:26:50Z</time></trkpt><trkpt lat="14.524522443043452" lon="120.99376311608457"><ele>8.5</ele><time>2026-04-12T12:26:51Z</time></trkpt><trkpt lat="14.524748875383764" lon="120.99375970646588"><ele>9.0</ele><time>2026-04-12T12:26:52Z</time></trkpt><trkpt lat="14.524975281336218" lon="120.9937621658546"><ele>9.0</ele><time>2026-04-12T12:26:53Z</time></trkpt><trkpt lat="14.525190072563284" lon="120.99375895249341"><ele>9.0</ele><time>2026-04-12T12:26:54Z</time></trkpt><trkpt lat="14.525389368830684" lon="120.99376297429887"><ele>9.0</ele><time>2026-04-12T12:26:55Z</time></trkpt><trkpt lat="14.525577374347712" lon="120.99376700169962"><ele>11.0</ele><time>2026-04-12T12:26:56Z</time></trkpt><trkpt lat="14.525757159019433" lon="120.99378164800991"><ele>13.0</ele><time>2026-04-12T12:26:57Z</time></trkpt><trkpt lat="14.525940656123192" lon="120.99378678551685"><ele>15.0</ele><time>2026-04-12T12:26:58Z</time></trkpt><trkpt lat="14.526100224826573" lon="120.99377653612079"><ele>13.0</ele><time>2026-04-12T12:26:59Z</time></trkpt><trkpt lat="14.52624309950548" lon="120.99377847613653"><ele>11.0</ele><time>2026-04-12T12:27:00Z</time></trkpt><trkpt lat="14.526363749660016" lon="120.99378028873515"><ele>9.0</ele><time>2026-04-12T12:27:01Z</time></trkpt><trkpt lat="14.52646816682404" lon="120.99377522874431"><ele>7.0</ele><time>2026-04-12T12:27:02Z</time></trkpt><trkpt lat="14.526549889487772" lon="120.99377424495135"><ele>7.000000000000001</ele><time>2026-04-12T12:27:03Z</time></trkpt><trkpt lat="14.526614016081249" lon="120.9937688607236"><ele>7.0</ele><time>2026-04-12T12:27:04Z</time></trkpt><trkpt lat="14.526712611929968" lon="120.9937665797721"><ele>7.0</ele><time>2026-04-12T12:27:06Z</time></trkpt><trkpt lat="14.526808548534921" lon="120.99376060297766"><ele>7.0</ele><time>2026-04-12T12:27:08Z</time></trkpt><trkpt lat="14.526879383516452" lon="120.99375330072637"><ele>7.000000000000001</ele><time>2026-04-12T12:27:10Z</time></trkpt><trkpt lat="14.526961813281854" lon="120.99375297551775"><ele>7.0</ele><time>2026-04-12T12:27:14Z</time></trkpt><trkpt lat="14.527062547219549" lon="120.99374609890226"><ele>7.6</ele><time>2026-04-12T12:27:16Z</time></trkpt><trkpt lat="14.527167418376177" lon="120.99372328333388"><ele>8.2</ele><time>2026-04-12T12:27:17Z</time></trkpt><trkpt lat="14.52727886630914" lon="120.99372281770314"><ele>8.8</ele><time>2026-04-12T12:27:18Z</time></trkpt><trkpt lat="14.527344111620769" lon="120.99371503434888"><ele>9.4</ele><time>2026-04-12T12:27:19Z</time></trkpt><trkpt lat="14.527463950042682" lon="120.99370169410528"><ele>10.0</ele><time>2026-04-12T12:27:20Z</time></trkpt><trkpt lat="14.527591520841133" lon="120.99368220346753"><ele>10.0</ele><time>2026-04-12T12:27:21Z</time></trkpt><trkpt lat="14.527732719312313" lon="120.99366711058664"><ele>10.0</ele><time>2026-04-12T12:27:22Z</time></trkpt><trkpt lat="14.52788318211131" lon="120.9936462575004"><ele>10.0</ele><time>2026-04-12T12:27:23Z</time></trkpt><trkpt lat="14.528047680625786" lon="120.99362105045367"><ele>9.666666666666668</ele><time>2026-04-12T12:27:24Z</time></trkpt><trkpt lat="14.528221329233068" lon="120.99360133849"><ele>9.333333333333334</ele><time>2026-04-12T12:27:25Z</time></trkpt><trkpt lat="14.528399855346022" lon="120.99358204413704"><ele>9.0</ele><time>2026-04-12T12:27:26Z</time></trkpt><trkpt lat="14.528588587554516" lon="120.99356211364851"><ele>8.333333333333334</ele><time>2026-04-12T12:27:27Z</time></trkpt><trkpt lat="14.528778473598079" lon="120.99354275636713"><ele>7.666666666666667</ele><time>2026-04-12T12:27:28Z</time></trkpt><trkpt lat="14.52896993737256" lon="120.99351921955392"><ele>7.0</ele><time>2026-04-12T12:27:29Z</time></trkpt><trkpt lat="14.529165137794738" lon="120.99349315094628"><ele>7.0</ele><time>2026-04-12T12:27:30Z</time></trkpt><trkpt lat="14.529362888475866" lon="120.99346771543789"><ele>7.0</ele><time>2026-04-12T12:27:31Z</time></trkpt><trkpt lat="14.529561525934032" lon="120.99344082638059"><ele>7.0</ele><time>2026-04-12T12:27:32Z</time></trkpt><trkpt lat="14.52976161506897" lon="120.99341250429464"><ele>8.0</ele><time>2026-04-12T12:27:33Z</time></trkpt><trkpt lat="14.529965023810078" lon="120.99338656640695"><ele>9.0</ele><time>2026-04-12T12:27:34Z</time></trkpt><trkpt lat="14.530172916908558" lon="120.9933614889082"><ele>10.0</ele><time>2026-04-12T12:27:35Z</time></trkpt><trkpt lat="14.530391040775191" lon="120.99334585094972"><ele>7.666666666666667</ele><time>2026-04-12T12:27:36Z</time></trkpt><trkpt lat="14.530599960639185" lon="120.99331716887988"><ele>5.333333333333334</ele><time>2026-04-12T12:27:37Z</time></trkpt><trkpt lat="14.530815245413667" lon="120.99328677782665"><ele>3.0</ele><time>2026-04-12T12:27:38Z</time></trkpt><trkpt lat="14.531029353779035" lon="120.99326115625719"><ele>4.0</ele><time>2026-04-12T12:27:39Z</time></trkpt><trkpt lat="14.53124267807895" lon="120.99323965221123"><ele>5.0</ele><time>2026-04-12T12:27:40Z</time></trkpt><trkpt lat="14.531456558291485" lon="120.99320848448549"><ele>6.0</ele><time>2026-04-12T12:27:41Z</time></trkpt><trkpt lat="14.531665006994535" lon="120.99317731600658"><ele>6.0</ele><time>2026-04-12T12:27:42Z</time></trkpt><trkpt lat="14.531864810286539" lon="120.9931536916632"><ele>6.0</ele><time>2026-04-12T12:27:43Z</time></trkpt><trkpt lat="14.532054492394423" lon="120.99314691337818"><ele>6.0</ele><time>2026-04-12T12:27:44Z</time></trkpt><trkpt lat="14.53224141649256" lon="120.99312212792881"><ele>6.666666666666666</ele><time>2026-04-12T12:27:45Z</time></trkpt><trkpt lat="14.532430668917065" lon="120.99309666847566"><ele>7.333333333333333</ele><time>2026-04-12T12:27:46Z</time></trkpt><trkpt lat="14.532618531437322" lon="120.99306965104685"><ele>8.0</ele><time>2026-04-12T12:27:47Z</time></trkpt><trkpt lat="14.532798033299525" lon="120.99304142753782"><ele>9.666666666666666</ele><time>2026-04-12T12:27:48Z</time></trkpt><trkpt lat="14.532983184584243" lon="120.99301001915215"><ele>11.333333333333332</ele><time>2026-04-12T12:27:49Z</time></trkpt><trkpt lat="14.533165736690096" lon="120.9929872010577"><ele>13.0</ele><time>2026-04-12T12:27:50Z</time></trkpt><trkpt lat="14.533344971589859" lon="120.99296099931833"><ele>13.0</ele><time>2026-04-12T12:27:51Z</time></trkpt><trkpt lat="14.533522046891592" lon="120.99294148419114"><ele>13.0</ele><time>2026-04-12T12:27:52Z</time></trkpt><trkpt lat="14.53369406306942" lon="120.99291925591659"><ele>13.0</ele><time>2026-04-12T12:27:53Z</time></trkpt><trkpt lat="14.533874002883444" lon="120.99290085420736"><ele>11.0</ele><time>2026-04-12T12:27:54Z</time></trkpt><trkpt lat="14.534035313640935" lon="120.99288675897046"><ele>9.0</ele><time>2026-04-12T12:27:55Z</time></trkpt><trkpt lat="14.534203680223811" lon="120.99286247825708"><ele>7.0</ele><time>2026-04-12T12:27:56Z</time></trkpt><trkpt lat="14.534359076260417" lon="120.99284403570964"><ele>7.0</ele><time>2026-04-12T12:27:57Z</time></trkpt><trkpt lat="14.53451364245173" lon="120.99282698990804"><ele>7.0</ele><time>2026-04-12T12:27:58Z</time></trkpt><trkpt lat="14.534681561593493" lon="120.9927994935465"><ele>7.0</ele><time>2026-04-12T12:27:59Z</time></trkpt><trkpt lat="14.534846152330841" lon="120.99278224401743"><ele>7.666666666666667</ele><time>2026-04-12T12:28:00Z</time></trkpt><trkpt lat="14.535007839680619" lon="120.9927621123159"><ele>8.333333333333334</ele><time>2026-04-12T12:28:01Z</time></trkpt><trkpt lat="14.53517566897586" lon="120.99273929297435"><ele>9.0</ele><time>2026-04-12T12:28:02Z</time></trkpt><trkpt lat="14.535345011782793" lon="120.99272233430837"><ele>9.0</ele><time>2026-04-12T12:28:03Z</time></trkpt><trkpt lat="14.53551589326568" lon="120.99270096767141"><ele>9.0</ele><time>2026-04-12T12:28:04Z</time></trkpt><trkpt lat="14.535685912744416" lon="120.9926763461682"><ele>9.0</ele><time>2026-04-12T12:28:05Z</time></trkpt><trkpt lat="14.535861171692373" lon="120.99265387893813"><ele>9.0</ele><time>2026-04-12T12:28:06Z</time></trkpt><trkpt lat="14.536034630117666" lon="120.99263128009076"><ele>9.0</ele><time>2026-04-12T12:28:07Z</time></trkpt><trkpt lat="14.536212223980753" lon="120.99261161946086"><ele>9.0</ele><time>2026-04-12T12:28:08Z</time></trkpt><trkpt lat="14.536388786226551" lon="120.99258941455766"><ele>10.666666666666668</ele><time>2026-04-12T12:28:09Z</time></trkpt><trkpt lat="14.536566067170773" lon="120.99257089870083"><ele>12.333333333333334</ele><time>2026-04-12T12:28:10Z</time></trkpt><trkpt lat="14.536746664680104" lon="120.99255089196227"><ele>14.0</ele><time>2026-04-12T12:28:11Z</time></trkpt><trkpt lat="14.53692388791914" lon="120.99253102222794"><ele>11.333333333333334</ele><time>2026-04-12T12:28:12Z</time></trkpt><trkpt lat="14.537103826071865" lon="120.99251096514526"><ele>8.666666666666668</ele><time>2026-04-12T12:28:13Z</time></trkpt><trkpt lat="14.537281866410746" lon="120.99249066420992"><ele>6.0</ele><time>2026-04-12T12:28:14Z</time></trkpt><trkpt lat="14.537457160022056" lon="120.99247092938406"><ele>5.666666666666667</ele><time>2026-04-12T12:28:15Z</time></trkpt><trkpt lat="14.537638145420775" lon="120.99245151147072"><ele>5.333333333333334</ele><time>2026-04-12T12:28:16Z</time></trkpt><trkpt lat="14.53782349931538" lon="120.99243218941433"><ele>5.0</ele><time>2026-04-12T12:28:17Z</time></trkpt><trkpt lat="14.538007517532307" lon="120.99241402961"><ele>6.333333333333334</ele><time>2026-04-12T12:28:18Z</time></trkpt><trkpt lat="14.538198556972953" lon="120.99239294700881"><ele>7.666666666666667</ele><time>2026-04-12T12:28:19Z</time></trkpt><trkpt lat="14.53839683549153" lon="120.99236378221092"><ele>9.0</ele><time>2026-04-12T12:28:20Z</time></trkpt><trkpt lat="14.538602398377446" lon="120.99234375290857"><ele>8.0</ele><time>2026-04-12T12:28:21Z</time></trkpt><trkpt lat="14.538804626094759" lon="120.99231741668382"><ele>7.0</ele><time>2026-04-12T12:28:22Z</time></trkpt><trkpt lat="14.539018130610998" lon="120.99229626482695"><ele>6.0</ele><time>2026-04-12T12:28:23Z</time></trkpt><trkpt lat="14.539226975034136" lon="120.9922705722272"><ele>6.0</ele><time>2026-04-12T12:28:24Z</time></trkpt><trkpt lat="14.539436373550252" lon="120.9922464469075"><ele>6.0</ele><time>2026-04-12T12:28:25Z</time></trkpt><trkpt lat="14.539653499598076" lon="120.99222791605159"><ele>6.0</ele><time>2026-04-12T12:28:26Z</time></trkpt><trkpt lat="14.539865218743182" lon="120.99220109178626"><ele>7.0</ele><time>2026-04-12T12:28:27Z</time></trkpt><trkpt lat="14.540086210397027" lon="120.9921750720958"><ele>8.0</ele><time>2026-04-12T12:28:28Z</time></trkpt><trkpt lat="14.540302104835309" lon="120.99214535602515"><ele>9.0</ele><time>2026-04-12T12:28:29Z</time></trkpt><trkpt lat="14.540530438697095" lon="120.99212228794238"><ele>12.666666666666668</ele><time>2026-04-12T12:28:30Z</time></trkpt><trkpt lat="14.540743716060547" lon="120.99209508101946"><ele>16.333333333333336</ele><time>2026-04-12T12:28:31Z</time></trkpt><trkpt lat="14.540967366170593" lon="120.99205993620299"><ele>20.0</ele><time>2026-04-12T12:28:32Z</time></trkpt><trkpt lat="14.541189892463914" lon="120.99202135629612"><ele>13.5</ele><time>2026-04-12T12:28:33Z</time></trkpt><trkpt lat="14.541407612180354" lon="120.99198157815853"><ele>7.0</ele><time>2026-04-12T12:28:34Z</time></trkpt><trkpt lat="14.54163759087009" lon="120.99194186051803"><ele>7.0</ele><time>2026-04-12T12:28:35Z</time></trkpt><trkpt lat="14.541855356471737" lon="120.99190365066579"><ele>7.0</ele><time>2026-04-12T12:28:36Z</time></trkpt><trkpt lat="14.542074565927468" lon="120.9918632319605"><ele>7.0</ele><time>2026-04-12T12:28:37Z</time></trkpt><trkpt lat="14.54229593985962" lon="120.99182024567737"><ele>7.0</ele><time>2026-04-12T12:28:38Z</time></trkpt><trkpt lat="14.542507107988284" lon="120.9917866102616"><ele>7.0</ele><time>2026-04-12T12:28:39Z</time></trkpt><trkpt lat="14.542705546959818" lon="120.99175229129989"><ele>7.0</ele><time>2026-04-12T12:28:40Z</time></trkpt><trkpt lat="14.542899143489617" lon="120.99171719129238"><ele>7.0</ele><time>2026-04-12T12:28:41Z</time></trkpt><trkpt lat="14.543086183295777" lon="120.99167913544716"><ele>7.0</ele><time>2026-04-12T12:28:42Z</time></trkpt><trkpt lat="14.543265417794236" lon="120.99164178732492"><ele>7.0</ele><time>2026-04-12T12:28:43Z</time></trkpt><trkpt lat="14.543451076409177" lon="120.99161378467728"><ele>6.666666666666667</ele><time>2026-04-12T12:28:44Z</time></trkpt><trkpt lat="14.543627425126868" lon="120.99158115576786"><ele>6.333333333333334</ele><time>2026-04-12T12:28:45Z</time></trkpt><trkpt lat="14.543810635988164" lon="120.99154831554524"><ele>6.0</ele><time>2026-04-12T12:28:46Z</time></trkpt><trkpt lat="14.543996351557436" lon="120.99151526279073"><ele>6.666666666666666</ele><time>2026-04-12T12:28:47Z</time></trkpt><trkpt lat="14.544177177759934" lon="120.99147897325149"><ele>7.333333333333333</ele><time>2026-04-12T12:28:48Z</time></trkpt><trkpt lat="14.544367515003183" lon="120.99145058471464"><ele>8.0</ele><time>2026-04-12T12:28:49Z</time></trkpt><trkpt lat="14.544546629602616" lon="120.99141252558151"><ele>9.0</ele><time>2026-04-12T12:28:50Z</time></trkpt><trkpt lat="14.544734685653953" lon="120.99138118024374"><ele>10.0</ele><time>2026-04-12T12:28:51Z</time></trkpt><trkpt lat="14.544922994560427" lon="120.99134785442322"><ele>11.0</ele><time>2026-04-12T12:28:52Z</time></trkpt><trkpt lat="14.54510504674112" lon="120.99130802746706"><ele>11.0</ele><time>2026-04-12T12:28:53Z</time></trkpt><trkpt lat="14.545275465429361" lon="120.9912692060878"><ele>11.0</ele><time>2026-04-12T12:28:54Z</time></trkpt><trkpt lat="14.545463103723922" lon="120.991225381271"><ele>11.0</ele><time>2026-04-12T12:28:55Z</time></trkpt><trkpt lat="14.545626101532308" lon="120.99118472346541"><ele>9.666666666666666</ele><time>2026-04-12T12:28:56Z</time></trkpt><trkpt lat="14.545798057929375" lon="120.99114087218426"><ele>8.333333333333334</ele><time>2026-04-12T12:28:57Z</time></trkpt><trkpt lat="14.545974835559734" lon="120.99110182158879"><ele>7.0</ele><time>2026-04-12T12:28:58Z</time></trkpt><trkpt lat="14.54614947910371" lon="120.99106208997149"><ele>8.666666666666668</ele><time>2026-04-12T12:28:59Z</time></trkpt><trkpt lat="14.546304130489393" lon="120.99102666324846"><ele>10.333333333333334</ele><time>2026-04-12T12:29:00Z</time></trkpt><trkpt lat="14.546454129986579" lon="120.99098390939005"><ele>12.0</ele><time>2026-04-12T12:29:01Z</time></trkpt><trkpt lat="14.546610052537229" lon="120.99094461404033"><ele>12.0</ele><time>2026-04-12T12:29:02Z</time></trkpt><trkpt lat="14.546758591954994" lon="120.99090915357966"><ele>12.0</ele><time>2026-04-12T12:29:03Z</time></trkpt><trkpt lat="14.546911043186476" lon="120.99086983155064"><ele>12.0</ele><time>2026-04-12T12:29:04Z</time></trkpt><trkpt lat="14.547058730117847" lon="120.99083561414866"><ele>10.666666666666666</ele><time>2026-04-12T12:29:05Z</time></trkpt><trkpt lat="14.54721133073754" lon="120.99079707030764"><ele>9.333333333333332</ele><time>2026-04-12T12:29:06Z</time></trkpt><trkpt lat="14.54736016611041" lon="120.99075880222927"><ele>8.0</ele><time>2026-04-12T12:29:07Z</time></trkpt><trkpt lat="14.547505051899194" lon="120.99072181364902"><ele>8.0</ele><time>2026-04-12T12:29:08Z</time></trkpt><trkpt lat="14.547648946671321" lon="120.99068684812917"><ele>8.0</ele><time>2026-04-12T12:29:09Z</time></trkpt><trkpt lat="14.547796901095426" lon="120.99065153609214"><ele>8.0</ele><time>2026-04-12T12:29:10Z</time></trkpt><trkpt lat="14.54795113023951" lon="120.9906162957188"><ele>9.75</ele><time>2026-04-12T12:29:11Z</time></trkpt><trkpt lat="14.548080306899553" lon="120.99058044111361"><ele>11.5</ele><time>2026-04-12T12:29:12Z</time></trkpt><trkpt lat="14.548213194642061" lon="120.99054978053195"><ele>13.25</ele><time>2026-04-12T12:29:13Z</time></trkpt><trkpt lat="14.548345233912965" lon="120.99051683118543"><ele>15.0</ele><time>2026-04-12T12:29:14Z</time></trkpt><trkpt lat="14.548476984374476" lon="120.99048375100166"><ele>15.0</ele><time>2026-04-12T12:29:15Z</time></trkpt><trkpt lat="14.548614119974175" lon="120.99045163548679"><ele>15.0</ele><time>2026-04-12T12:29:16Z</time></trkpt><trkpt lat="14.548745577810928" lon="120.9904151123434"><ele>15.0</ele><time>2026-04-12T12:29:17Z</time></trkpt><trkpt lat="14.54888830640369" lon="120.99038322723233"><ele>15.0</ele><time>2026-04-12T12:29:18Z</time></trkpt><trkpt lat="14.549027432647964" lon="120.99034812052756"><ele>13.5</ele><time>2026-04-12T12:29:19Z</time></trkpt><trkpt lat="14.549153276356664" lon="120.99032323113191"><ele>12.0</ele><time>2026-04-12T12:29:20Z</time></trkpt><trkpt lat="14.54928219106402" lon="120.99029953819168"><ele>10.5</ele><time>2026-04-12T12:29:21Z</time></trkpt><trkpt lat="14.549428175077793" lon="120.9902726173848"><ele>9.0</ele><time>2026-04-12T12:29:22Z</time></trkpt><trkpt lat="14.549581119478832" lon="120.9902416026492"><ele>9.0</ele><time>2026-04-12T12:29:23Z</time></trkpt><trkpt lat="14.549735074386193" lon="120.9901989727929"><ele>9.0</ele><time>2026-04-12T12:29:24Z</time></trkpt><trkpt lat="14.549860195480909" lon="120.99016318873555"><ele>9.0</ele><time>2026-04-12T12:29:25Z</time></trkpt><trkpt lat="14.549963354324873" lon="120.99013522112298"><ele>9.0</ele><time>2026-04-12T12:29:26Z</time></trkpt><trkpt lat="14.550067042037343" lon="120.9901077922254"><ele>9.0</ele><time>2026-04-12T12:29:27Z</time></trkpt><trkpt lat="14.550169056494255" lon="120.9900777261923"><ele>9.0</ele><time>2026-04-12T12:29:28Z</time></trkpt><trkpt lat="14.550267761591723" lon="120.99004924965733"><ele>9.0</ele><time>2026-04-12T12:29:29Z</time></trkpt><trkpt lat="14.550374540177225" lon="120.99002024267656"><ele>9.0</ele><time>2026-04-12T12:29:30Z</time></trkpt><trkpt lat="14.550480018845763" lon="120.98999849883162"><ele>9.0</ele><time>2026-04-12T12:29:31Z</time></trkpt><trkpt lat="14.550584084511996" lon="120.98997051335594"><ele>8.6</ele><time>2026-04-12T12:29:32Z</time></trkpt><trkpt lat="14.550689721784465" lon="120.98994424707097"><ele>8.2</ele><time>2026-04-12T12:29:33Z</time></trkpt><trkpt lat="14.550800544081508" lon="120.98991986496064"><ele>7.799999999999999</ele><time>2026-04-12T12:29:34Z</time></trkpt><trkpt lat="14.550912031365161" lon="120.98989398599812"><ele>7.3999999999999995</ele><time>2026-04-12T12:29:35Z</time></trkpt><trkpt lat="14.551022484140038" lon="120.98986807455042"><ele>7.0</ele><time>2026-04-12T12:29:36Z</time></trkpt><trkpt lat="14.551134588974742" lon="120.98983954066772"><ele>7.3999999999999995</ele><time>2026-04-12T12:29:37Z</time></trkpt><trkpt lat="14.551246009525801" lon="120.98980975314933"><ele>7.799999999999999</ele><time>2026-04-12T12:29:38Z</time></trkpt><trkpt lat="14.551357397712547" lon="120.98978274503214"><ele>8.2</ele><time>2026-04-12T12:29:39Z</time></trkpt><trkpt lat="14.551460685456055" lon="120.98975749092992"><ele>8.6</ele><time>2026-04-12T12:29:40Z</time></trkpt><trkpt lat="14.551560917974955" lon="120.98973306437587"><ele>9.0</ele><time>2026-04-12T12:29:41Z</time></trkpt><trkpt lat="14.551658226213478" lon="120.9897084405147"><ele>9.0</ele><time>2026-04-12T12:29:42Z</time></trkpt><trkpt lat="14.551759155060626" lon="120.98968238610854"><ele>9.0</ele><time>2026-04-12T12:29:43Z</time></trkpt><trkpt lat="14.551864944724132" lon="120.98965090384512"><ele>9.0</ele><time>2026-04-12T12:29:44Z</time></trkpt><trkpt lat="14.551975499590101" lon="120.98961668684657"><ele>9.0</ele><time>2026-04-12T12:29:45Z</time></trkpt><trkpt lat="14.552095079320193" lon="120.98957862444036"><ele>9.25</ele><time>2026-04-12T12:29:46Z</time></trkpt><trkpt lat="14.552211793530661" lon="120.98954087315064"><ele>9.5</ele><time>2026-04-12T12:29:47Z</time></trkpt><trkpt lat="14.552325944110613" lon="120.98950337233148"><ele>9.75</ele><time>2026-04-12T12:29:48Z</time></trkpt><trkpt lat="14.55243071416125" lon="120.98947266723921"><ele>10.0</ele><time>2026-04-12T12:29:49Z</time></trkpt><trkpt lat="14.552537426939772" lon="120.98944114334181"><ele>10.0</ele><time>2026-04-12T12:29:50Z</time></trkpt><trkpt lat="14.552634851395469" lon="120.9894101601312"><ele>10.0</ele><time>2026-04-12T12:29:51Z</time></trkpt><trkpt lat="14.552726796849763" lon="120.9893810079794"><ele>10.0</ele><time>2026-04-12T12:29:52Z</time></trkpt><trkpt lat="14.552811132990623" lon="120.98935363981332"><ele>10.0</ele><time>2026-04-12T12:29:53Z</time></trkpt><trkpt lat="14.552893940511462" lon="120.98932926257646"><ele>10.0</ele><time>2026-04-12T12:29:54Z</time></trkpt><trkpt lat="14.552969922177503" lon="120.98930173720267"><ele>9.833333333333334</ele><time>2026-04-12T12:29:55Z</time></trkpt><trkpt lat="14.553047364476127" lon="120.98928165278619"><ele>9.666666666666668</ele><time>2026-04-12T12:29:56Z</time></trkpt><trkpt lat="14.553123542742258" lon="120.98925896400495"><ele>9.5</ele><time>2026-04-12T12:29:57Z</time></trkpt><trkpt lat="14.553203609292787" lon="120.98923453639742"><ele>9.333333333333334</ele><time>2026-04-12T12:29:58Z</time></trkpt><trkpt lat="14.553291291631057" lon="120.98920704814212"><ele>9.166666666666666</ele><time>2026-04-12T12:29:59Z</time></trkpt><trkpt lat="14.55338867673345" lon="120.98917519868253"><ele>9.0</ele><time>2026-04-12T12:30:00Z</time></trkpt><trkpt lat="14.55348737880956" lon="120.98914239487502"><ele>8.6</ele><time>2026-04-12T12:30:01Z</time></trkpt><trkpt lat="14.553592952520924" lon="120.98911001830305"><ele>8.2</ele><time>2026-04-12T12:30:02Z</time></trkpt><trkpt lat="14.5537000968141" lon="120.98907983829267"><ele>7.799999999999999</ele><time>2026-04-12T12:30:03Z</time></trkpt><trkpt lat="14.55380749805962" lon="120.98904292490771"><ele>7.3999999999999995</ele><time>2026-04-12T12:30:04Z</time></trkpt><trkpt lat="14.5539045730989" lon="120.98901215286338"><ele>7.0</ele><time>2026-04-12T12:30:05Z</time></trkpt><trkpt lat="14.554003550834919" lon="120.98897916541469"><ele>7.0</ele><time>2026-04-12T12:30:06Z</time></trkpt><trkpt lat="14.554100333005938" lon="120.98895037870575"><ele>6.999999999999999</ele><time>2026-04-12T12:30:07Z</time></trkpt><trkpt lat="14.554202871537074" lon="120.98892746675646"><ele>6.999999999999999</ele><time>2026-04-12T12:30:08Z</time></trkpt><trkpt lat="14.554311783321452" lon="120.98890304135277"><ele>7.0</ele><time>2026-04-12T12:30:09Z</time></trkpt><trkpt lat="14.55442240877967" lon="120.98887947506675"><ele>7.0</ele><time>2026-04-12T12:30:10Z</time></trkpt><trkpt lat="14.554535857054796" lon="120.98884601691788"><ele>6.75</ele><time>2026-04-12T12:30:11Z</time></trkpt><trkpt lat="14.554662248342417" lon="120.98880502084198"><ele>6.5</ele><time>2026-04-12T12:30:12Z</time></trkpt><trkpt lat="14.554796155938881" lon="120.98876439314715"><ele>6.25</ele><time>2026-04-12T12:30:13Z</time></trkpt><trkpt lat="14.55493251320714" lon="120.98871780333414"><ele>6.0</ele><time>2026-04-12T12:30:14Z</time></trkpt><trkpt lat="14.555065382520507" lon="120.98867343835754"><ele>6.0</ele><time>2026-04-12T12:30:15Z</time></trkpt><trkpt lat="14.555197504428827" lon="120.9886313121007"><ele>6.0</ele><time>2026-04-12T12:30:16Z</time></trkpt><trkpt lat="14.555325270309899" lon="120.98859277923054"><ele>6.0</ele><time>2026-04-12T12:30:17Z</time></trkpt><trkpt lat="14.555444283959961" lon="120.98855675369927"><ele>6.0</ele><time>2026-04-12T12:30:18Z</time></trkpt><trkpt lat="14.555547109028245" lon="120.98852354414682"><ele>6.4</ele><time>2026-04-12T12:30:19Z</time></trkpt><trkpt lat="14.555648611751755" lon="120.98849929096234"><ele>6.8</ele><time>2026-04-12T12:30:20Z</time></trkpt><trkpt lat="14.555755273247906" lon="120.98845562914184"><ele>7.200000000000001</ele><time>2026-04-12T12:30:21Z</time></trkpt><trkpt lat="14.555868707509893" lon="120.98842536091709"><ele>7.6000000000000005</ele><time>2026-04-12T12:30:22Z</time></trkpt><trkpt lat="14.555968374958317" lon="120.98838999145738"><ele>8.0</ele><time>2026-04-12T12:30:23Z</time></trkpt><trkpt lat="14.55606653287527" lon="120.98835780600014"><ele>8.0</ele><time>2026-04-12T12:30:24Z</time></trkpt><trkpt lat="14.556162244638234" lon="120.98833115744272"><ele>8.0</ele><time>2026-04-12T12:30:25Z</time></trkpt><trkpt lat="14.556257886072535" lon="120.98829619211696"><ele>8.0</ele><time>2026-04-12T12:30:26Z</time></trkpt><trkpt lat="14.55635717171097" lon="120.988261405032"><ele>8.0</ele><time>2026-04-12T12:30:27Z</time></trkpt><trkpt lat="14.55646576925125" lon="120.98822763815144"><ele>8.0</ele><time>2026-04-12T12:30:28Z</time></trkpt><trkpt lat="14.5565775065911" lon="120.98819626405339"><ele>8.25</ele><time>2026-04-12T12:30:29Z</time></trkpt><trkpt lat="14.556692546185392" lon="120.98816440842134"><ele>8.5</ele><time>2026-04-12T12:30:30Z</time></trkpt><trkpt lat="14.55681494761035" lon="120.98813016782792"><ele>8.75</ele><time>2026-04-12T12:30:31Z</time></trkpt><trkpt lat="14.556928293146585" lon="120.98809201739483"><ele>9.0</ele><time>2026-04-12T12:30:32Z</time></trkpt><trkpt lat="14.557049663404483" lon="120.98805738570124"><ele>8.4</ele><time>2026-04-12T12:30:33Z</time></trkpt><trkpt lat="14.557167834751619" lon="120.98802379267516"><ele>7.800000000000001</ele><time>2026-04-12T12:30:34Z</time></trkpt><trkpt lat="14.557275839718116" lon="120.9879919338519"><ele>7.199999999999999</ele><time>2026-04-12T12:30:35Z</time></trkpt><trkpt lat="14.557376622541936" lon="120.98796490926145"><ele>6.6</ele><time>2026-04-12T12:30:36Z</time></trkpt><trkpt lat="14.557472285136987" lon="120.98793592027111"><ele>6.0</ele><time>2026-04-12T12:30:37Z</time></trkpt><trkpt lat="14.557562670445595" lon="120.98790151677986"><ele>6.0</ele><time>2026-04-12T12:30:38Z</time></trkpt><trkpt lat="14.557654216689157" lon="120.98786047489199"><ele>6.0</ele><time>2026-04-12T12:30:39Z</time></trkpt><trkpt lat="14.557735065008973" lon="120.98784067455973"><ele>6.0</ele><time>2026-04-12T12:30:40Z</time></trkpt><trkpt lat="14.557822422536237" lon="120.98781485232963"><ele>6.0</ele><time>2026-04-12T12:30:41Z</time></trkpt><trkpt lat="14.557912489341902" lon="120.98778714016716"><ele>6.0</ele><time>2026-04-12T12:30:42Z</time></trkpt><trkpt lat="14.558002098924433" lon="120.98775680632647"><ele>7.6</ele><time>2026-04-12T12:30:43Z</time></trkpt><trkpt lat="14.55809836103517" lon="120.9877243816262"><ele>9.2</ele><time>2026-04-12T12:30:44Z</time></trkpt><trkpt lat="14.558197593692752" lon="120.98768799561005"><ele>10.799999999999999</ele><time>2026-04-12T12:30:45Z</time></trkpt><trkpt lat="14.55829868158606" lon="120.98765590983061"><ele>12.399999999999999</ele><time>2026-04-12T12:30:46Z</time></trkpt><trkpt lat="14.558395169281852" lon="120.98762345411598"><ele>14.0</ele><time>2026-04-12T12:30:47Z</time></trkpt><trkpt lat="14.558482351770147" lon="120.98759578522967"><ele>14.000000000000002</ele><time>2026-04-12T12:30:48Z</time></trkpt><trkpt lat="14.558564652846039" lon="120.98756761367824"><ele>14.0</ele><time>2026-04-12T12:30:49Z</time></trkpt><trkpt lat="14.558634698137999" lon="120.98754608542201"><ele>14.0</ele><time>2026-04-12T12:30:50Z</time></trkpt><trkpt lat="14.558698601918426" lon="120.98752126102748"><ele>14.0</ele><time>2026-04-12T12:30:51Z</time></trkpt><trkpt lat="14.558765040462044" lon="120.98749884148349"><ele>14.000000000000002</ele><time>2026-04-12T12:30:52Z</time></trkpt><trkpt lat="14.558876079318575" lon="120.98745769954371"><ele>14.0</ele><time>2026-04-12T12:30:54Z</time></trkpt><trkpt lat="14.558975857542524" lon="120.9874143800185"><ele>13.166666666666668</ele><time>2026-04-12T12:30:56Z</time></trkpt><trkpt lat="14.55906807959039" lon="120.98737336346537"><ele>12.333333333333334</ele><time>2026-04-12T12:30:58Z</time></trkpt><trkpt lat="14.559155862887051" lon="120.98733015832664"><ele>11.5</ele><time>2026-04-12T12:31:00Z</time></trkpt><trkpt lat="14.559234969054105" lon="120.98729765218073"><ele>10.666666666666668</ele><time>2026-04-12T12:31:03Z</time></trkpt><trkpt lat="14.559308724926707" lon="120.98726658501852"><ele>9.833333333333334</ele><time>2026-04-12T12:31:09Z</time></trkpt><trkpt lat="14.559374352122651" lon="120.98726457179266"><ele>9.0</ele><time>2026-04-12T12:31:15Z</time></trkpt><trkpt lat="14.559462756343637" lon="120.9872267993595"><ele>9.0</ele><time>2026-04-12T12:32:23Z</time></trkpt><trkpt lat="14.559504589579662" lon="120.98717783422605"><ele>9.0</ele><time>2026-04-12T12:32:24Z</time></trkpt><trkpt lat="14.55956477949337" lon="120.98713260389123"><ele>9.0</ele><time>2026-04-12T12:32:25Z</time></trkpt><trkpt lat="14.559702765703017" lon="120.98707178697974"><ele>9.0</ele><time>2026-04-12T12:32:27Z</time></trkpt><trkpt lat="14.559783948078366" lon="120.98703968509331"><ele>9.0</ele><time>2026-04-12T12:32:28Z</time></trkpt><trkpt lat="14.559871093712498" lon="120.98700010382302"><ele>8.4</ele><time>2026-04-12T12:32:29Z</time></trkpt><trkpt lat="14.55995654036489" lon="120.98696338108496"><ele>7.800000000000001</ele><time>2026-04-12T12:32:30Z</time></trkpt><trkpt lat="14.56005323111394" lon="120.98692427151681"><ele>7.199999999999999</ele><time>2026-04-12T12:32:31Z</time></trkpt><trkpt lat="14.560151295164074" lon="120.9868807364846"><ele>6.6</ele><time>2026-04-12T12:32:32Z</time></trkpt><trkpt lat="14.560248432638339" lon="120.98683753231269"><ele>6.0</ele><time>2026-04-12T12:32:33Z</time></trkpt><trkpt lat="14.560349747414962" lon="120.98679324801341"><ele>6.0</ele><time>2026-04-12T12:32:34Z</time></trkpt><trkpt lat="14.56045277698311" lon="120.98674795697904"><ele>6.0</ele><time>2026-04-12T12:32:35Z</time></trkpt><trkpt lat="14.560543675631385" lon="120.98670861797503"><ele>6.0</ele><time>2026-04-12T12:32:36Z</time></trkpt><trkpt lat="14.560645239166533" lon="120.98666524880718"><ele>6.0</ele><time>2026-04-12T12:32:37Z</time></trkpt><trkpt lat="14.560747125802779" lon="120.9866199848744"><ele>6.0</ele><time>2026-04-12T12:32:38Z</time></trkpt><trkpt lat="14.56085691105946" lon="120.98656783694436"><ele>6.0</ele><time>2026-04-12T12:32:39Z</time></trkpt><trkpt lat="14.560971074645698" lon="120.98651733917117"><ele>6.0</ele><time>2026-04-12T12:32:40Z</time></trkpt><trkpt lat="14.561084799907738" lon="120.9864723896247"><ele>6.0</ele><time>2026-04-12T12:32:41Z</time></trkpt><trkpt lat="14.561191707370774" lon="120.98642469398428"><ele>6.0</ele><time>2026-04-12T12:32:42Z</time></trkpt><trkpt lat="14.561274937182516" lon="120.98639026530704"><ele>6.199999999999999</ele><time>2026-04-12T12:32:43Z</time></trkpt><trkpt lat="14.56136787233252" lon="120.98634944262321"><ele>6.3999999999999995</ele><time>2026-04-12T12:32:44Z</time></trkpt><trkpt lat="14.561443225824071" lon="120.98631614065664"><ele>6.6</ele><time>2026-04-12T12:32:45Z</time></trkpt><trkpt lat="14.56153116845365" lon="120.98627442954852"><ele>6.8</ele><time>2026-04-12T12:32:46Z</time></trkpt><trkpt lat="14.561622856431221" lon="120.98623501169676"><ele>7.0</ele><time>2026-04-12T12:32:47Z</time></trkpt><trkpt lat="14.561711509311715" lon="120.98619615105238"><ele>7.000000000000001</ele><time>2026-04-12T12:32:48Z</time></trkpt><trkpt lat="14.56178571100385" lon="120.98615861888277"><ele>7.0</ele><time>2026-04-12T12:32:49Z</time></trkpt><trkpt lat="14.561857699838876" lon="120.98612629962017"><ele>7.0</ele><time>2026-04-12T12:32:50Z</time></trkpt><trkpt lat="14.561926727700882" lon="120.98609752966728"><ele>7.0</ele><time>2026-04-12T12:32:51Z</time></trkpt><trkpt lat="14.562004436052236" lon="120.98606292596057"><ele>7.000000000000001</ele><time>2026-04-12T12:32:52Z</time></trkpt><trkpt lat="14.562085496907079" lon="120.98602884284401"><ele>7.0</ele><time>2026-04-12T12:32:53Z</time></trkpt><trkpt lat="14.562164865230585" lon="120.98599409906639"><ele>7.000000000000001</ele><time>2026-04-12T12:32:54Z</time></trkpt><trkpt lat="14.56224433877721" lon="120.98595593748611"><ele>7.0</ele><time>2026-04-12T12:32:55Z</time></trkpt><trkpt lat="14.562322393359711" lon="120.98592412371197"><ele>7.0</ele><time>2026-04-12T12:32:56Z</time></trkpt><trkpt lat="14.562406976255678" lon="120.98588917421303"><ele>7.0</ele><time>2026-04-12T12:32:57Z</time></trkpt><trkpt lat="14.562495871373873" lon="120.9858530264103"><ele>7.000000000000001</ele><time>2026-04-12T12:32:58Z</time></trkpt><trkpt lat="14.562577790321681" lon="120.9858206728056"><ele>7.0</ele><time>2026-04-12T12:32:59Z</time></trkpt><trkpt lat="14.562656781637083" lon="120.98577936680157"><ele>7.0</ele><time>2026-04-12T12:33:00Z</time></trkpt><trkpt lat="14.562723319902261" lon="120.98575040104745"><ele>6.999999999999999</ele><time>2026-04-12T12:33:01Z</time></trkpt><trkpt lat="14.562800494338278" lon="120.98571502198884"><ele>6.999999999999999</ele><time>2026-04-12T12:33:02Z</time></trkpt><trkpt lat="14.562870043965425" lon="120.98568505780973"><ele>7.0</ele><time>2026-04-12T12:33:03Z</time></trkpt><trkpt lat="14.562979034266354" lon="120.98563865397101"><ele>7.0</ele><time>2026-04-12T12:33:05Z</time></trkpt><trkpt lat="14.563077540475879" lon="120.98559316240814"><ele>7.000000000000001</ele><time>2026-04-12T12:33:07Z</time></trkpt><trkpt lat="14.563196002566125" lon="120.98554111134682"><ele>7.0</ele><time>2026-04-12T12:33:09Z</time></trkpt><trkpt lat="14.56329649423766" lon="120.98549822862394"><ele>7.0</ele><time>2026-04-12T12:33:11Z</time></trkpt><trkpt lat="14.563369816550814" lon="120.98547711235736"><ele>7.0</ele><time>2026-04-12T12:33:13Z</time></trkpt><trkpt lat="14.563433438790923" lon="120.98545917008381"><ele>7.000000000000001</ele><time>2026-04-12T12:33:15Z</time></trkpt><trkpt lat="14.563496145728688" lon="120.98544133882578"><ele>7.0</ele><time>2026-04-12T12:33:17Z</time></trkpt><trkpt lat="14.563560224952404" lon="120.98540899503018"><ele>7.0</ele><time>2026-04-12T12:33:20Z</time></trkpt><trkpt lat="14.563630872217944" lon="120.98540179497617"><ele>7.0</ele><time>2026-04-12T12:33:28Z</time></trkpt><trkpt lat="14.56368951926179" lon="120.9853770499898"><ele>7.0</ele><time>2026-04-12T12:33:30Z</time></trkpt><trkpt lat="14.563745437105482" lon="120.9853387324771"><ele>7.0</ele><time>2026-04-12T12:33:32Z</time></trkpt><trkpt lat="14.563803417228378" lon="120.98531052841355"><ele>7.0</ele><time>2026-04-12T12:33:36Z</time></trkpt><trkpt lat="14.563860435687799" lon="120.98525715115699"><ele>7.0</ele><time>2026-04-12T12:34:34Z</time></trkpt><trkpt lat="14.563948777180038" lon="120.98521869354236"><ele>7.0</ele><time>2026-04-12T12:34:37Z</time></trkpt><trkpt lat="14.564032567024356" lon="120.98518938087152"><ele>7.199999999999999</ele><time>2026-04-12T12:34:39Z</time></trkpt><trkpt lat="14.564123138372738" lon="120.98515955473545"><ele>7.3999999999999995</ele><time>2026-04-12T12:34:41Z</time></trkpt><trkpt lat="14.56422051962055" lon="120.98512295445408"><ele>7.6000000000000005</ele><time>2026-04-12T12:34:43Z</time></trkpt><trkpt lat="14.564281430195571" lon="120.98508828973273"><ele>7.800000000000001</ele><time>2026-04-12T12:34:44Z</time></trkpt><trkpt lat="14.564382338172011" lon="120.98504184535977"><ele>8.0</ele><time>2026-04-12T12:34:46Z</time></trkpt><trkpt lat="14.564499837476756" lon="120.98500465328313"><ele>8.8</ele><time>2026-04-12T12:34:48Z</time></trkpt><trkpt lat="14.564574609053343" lon="120.98497600602704"><ele>9.600000000000001</ele><time>2026-04-12T12:34:49Z</time></trkpt><trkpt lat="14.564661588777424" lon="120.98494410343453"><ele>10.399999999999999</ele><time>2026-04-12T12:34:50Z</time></trkpt><trkpt lat="14.564755600749407" lon="120.98490342545897"><ele>11.2</ele><time>2026-04-12T12:34:51Z</time></trkpt><trkpt lat="14.564852630373172" lon="120.98485976964257"><ele>12.0</ele><time>2026-04-12T12:34:52Z</time></trkpt><trkpt lat="14.564953957086791" lon="120.9848087176865"><ele>12.0</ele><time>2026-04-12T12:34:53Z</time></trkpt><trkpt lat="14.565060120380302" lon="120.98475648437638"><ele>12.0</ele><time>2026-04-12T12:34:54Z</time></trkpt><trkpt lat="14.565169092544476" lon="120.98470639216205"><ele>12.0</ele><time>2026-04-12T12:34:55Z</time></trkpt><trkpt lat="14.565264174066302" lon="120.98466010746945"><ele>12.0</ele><time>2026-04-12T12:34:56Z</time></trkpt><trkpt lat="14.565353223169714" lon="120.9846151539011"><ele>12.0</ele><time>2026-04-12T12:34:57Z</time></trkpt><trkpt lat="14.565436235107283" lon="120.98457810569926"><ele>13.2</ele><time>2026-04-12T12:34:58Z</time></trkpt><trkpt lat="14.565525252895927" lon="120.98453816778361"><ele>14.399999999999999</ele><time>2026-04-12T12:34:59Z</time></trkpt><trkpt lat="14.565617404743843" lon="120.9844975184637"><ele>15.600000000000001</ele><time>2026-04-12T12:35:00Z</time></trkpt><trkpt lat="14.565707237088397" lon="120.98445840783319"><ele>16.8</ele><time>2026-04-12T12:35:01Z</time></trkpt><trkpt lat="14.5657960964741" lon="120.98441884670396"><ele>18.0</ele><time>2026-04-12T12:35:02Z</time></trkpt><trkpt lat="14.56589386663906" lon="120.98437772289529"><ele>18.0</ele><time>2026-04-12T12:35:03Z</time></trkpt><trkpt lat="14.565987209480108" lon="120.98433667342383"><ele>18.0</ele><time>2026-04-12T12:35:04Z</time></trkpt><trkpt lat="14.566090654972975" lon="120.98428846679404"><ele>18.0</ele><time>2026-04-12T12:35:05Z</time></trkpt><trkpt lat="14.566193198729737" lon="120.98424338940522"><ele>18.0</ele><time>2026-04-12T12:35:06Z</time></trkpt><trkpt lat="14.566300166642893" lon="120.98419773349669"><ele>18.0</ele><time>2026-04-12T12:35:07Z</time></trkpt><trkpt lat="14.56640608281486" lon="120.98414931123708"><ele>16.75</ele><time>2026-04-12T12:35:08Z</time></trkpt><trkpt lat="14.566512254547622" lon="120.98410553994107"><ele>15.5</ele><time>2026-04-12T12:35:09Z</time></trkpt><trkpt lat="14.5666227412326" lon="120.9840561970194"><ele>14.25</ele><time>2026-04-12T12:35:10Z</time></trkpt><trkpt lat="14.566739889885362" lon="120.98400668458007"><ele>13.0</ele><time>2026-04-12T12:35:11Z</time></trkpt><trkpt lat="14.566858927969683" lon="120.9839558449787"><ele>13.0</ele><time>2026-04-12T12:35:12Z</time></trkpt><trkpt lat="14.566984896149759" lon="120.98388924419903"><ele>13.0</ele><time>2026-04-12T12:35:13Z</time></trkpt><trkpt lat="14.567116334597252" lon="120.9838274203371"><ele>13.0</ele><time>2026-04-12T12:35:14Z</time></trkpt><trkpt lat="14.567251090426014" lon="120.98376287740071"><ele>13.0</ele><time>2026-04-12T12:35:15Z</time></trkpt><trkpt lat="14.567390989311669" lon="120.98370528506253"><ele>14.0</ele><time>2026-04-12T12:35:16Z</time></trkpt><trkpt lat="14.56752993891146" lon="120.98365937973611"><ele>15.0</ele><time>2026-04-12T12:35:17Z</time></trkpt><trkpt lat="14.567679123544695" lon="120.98356556790856"><ele>16.0</ele><time>2026-04-12T12:35:18Z</time></trkpt><trkpt lat="14.567821567167183" lon="120.98350044916944"><ele>14.25</ele><time>2026-04-12T12:35:19Z</time></trkpt><trkpt lat="14.567967813473787" lon="120.98343864509141"><ele>12.5</ele><time>2026-04-12T12:35:20Z</time></trkpt><trkpt lat="14.568103900073616" lon="120.9833820642544"><ele>10.75</ele><time>2026-04-12T12:35:21Z</time></trkpt><trkpt lat="14.568231528409543" lon="120.98331341200725"><ele>9.0</ele><time>2026-04-12T12:35:22Z</time></trkpt><trkpt lat="14.568362570127553" lon="120.98325559813644"><ele>8.75</ele><time>2026-04-12T12:35:23Z</time></trkpt><trkpt lat="14.568493671953114" lon="120.98319321936984"><ele>8.5</ele><time>2026-04-12T12:35:24Z</time></trkpt><trkpt lat="14.568626338764362" lon="120.98313116495834"><ele>8.25</ele><time>2026-04-12T12:35:25Z</time></trkpt><trkpt lat="14.568758425197093" lon="120.98307410591636"><ele>8.0</ele><time>2026-04-12T12:35:26Z</time></trkpt><trkpt lat="14.568894710285281" lon="120.98300901933601"><ele>8.0</ele><time>2026-04-12T12:35:27Z</time></trkpt><trkpt lat="14.56902428452885" lon="120.98295368702277"><ele>8.0</ele><time>2026-04-12T12:35:28Z</time></trkpt><trkpt lat="14.5691672515261" lon="120.9828841160237"><ele>8.0</ele><time>2026-04-12T12:35:29Z</time></trkpt><trkpt lat="14.569305464667044" lon="120.98281413007447"><ele>8.0</ele><time>2026-04-12T12:35:30Z</time></trkpt><trkpt lat="14.569447926444065" lon="120.98275196306393"><ele>8.0</ele><time>2026-04-12T12:35:31Z</time></trkpt><trkpt lat="14.569593289036142" lon="120.98268922151613"><ele>8.0</ele><time>2026-04-12T12:35:32Z</time></trkpt><trkpt lat="14.56973531356612" lon="120.98262519743591"><ele>9.0</ele><time>2026-04-12T12:35:33Z</time></trkpt><trkpt lat="14.56988192093507" lon="120.98255869637501"><ele>10.0</ele><time>2026-04-12T12:35:34Z</time></trkpt><trkpt lat="14.570027519000934" lon="120.98249366210295"><ele>11.0</ele><time>2026-04-12T12:35:35Z</time></trkpt><trkpt lat="14.570172095641992" lon="120.9824304945146"><ele>11.333333333333332</ele><time>2026-04-12T12:35:36Z</time></trkpt><trkpt lat="14.570317904034948" lon="120.98236362486399"><ele>11.666666666666666</ele><time>2026-04-12T12:35:37Z</time></trkpt><trkpt lat="14.570465998765997" lon="120.9822973899184"><ele>12.0</ele><time>2026-04-12T12:35:38Z</time></trkpt><trkpt lat="14.570615156234688" lon="120.98223497446428"><ele>10.666666666666666</ele><time>2026-04-12T12:35:39Z</time></trkpt><trkpt lat="14.570767891359102" lon="120.98217260119976"><ele>9.333333333333332</ele><time>2026-04-12T12:35:40Z</time></trkpt><trkpt lat="14.57092190244375" lon="120.9821055157717"><ele>8.0</ele><time>2026-04-12T12:35:41Z</time></trkpt><trkpt lat="14.571078900880094" lon="120.98203404513221"><ele>14.0</ele><time>2026-04-12T12:35:42Z</time></trkpt><trkpt lat="14.57122813190307" lon="120.9819638417152"><ele>20.0</ele><time>2026-04-12T12:35:43Z</time></trkpt><trkpt lat="14.571381274713309" lon="120.98189139294239"><ele>26.0</ele><time>2026-04-12T12:35:44Z</time></trkpt><trkpt lat="14.571536900196042" lon="120.98181784965703"><ele>26.0</ele><time>2026-04-12T12:35:45Z</time></trkpt><trkpt lat="14.571684387032583" lon="120.9817488237491"><ele>26.0</ele><time>2026-04-12T12:35:46Z</time></trkpt><trkpt lat="14.571828160783754" lon="120.98168044282339"><ele>26.0</ele><time>2026-04-12T12:35:47Z</time></trkpt><trkpt lat="14.571968825371654" lon="120.98160702193232"><ele>25.25</ele><time>2026-04-12T12:35:48Z</time></trkpt><trkpt lat="14.572102278214423" lon="120.98153903294697"><ele>24.5</ele><time>2026-04-12T12:35:49Z</time></trkpt><trkpt lat="14.57222847319431" lon="120.98147512378766"><ele>23.75</ele><time>2026-04-12T12:35:50Z</time></trkpt><trkpt lat="14.572352067941313" lon="120.98141205805196"><ele>23.0</ele><time>2026-04-12T12:35:51Z</time></trkpt><trkpt lat="14.57246826749226" lon="120.98134931391856"><ele>23.0</ele><time>2026-04-12T12:35:52Z</time></trkpt><trkpt lat="14.57256257881318" lon="120.98130622804572"><ele>23.0</ele><time>2026-04-12T12:35:53Z</time></trkpt><trkpt lat="14.572646289404366" lon="120.98126204971345"><ele>23.0</ele><time>2026-04-12T12:35:54Z</time></trkpt><trkpt lat="14.57272065828546" lon="120.98122427395015"><ele>23.0</ele><time>2026-04-12T12:35:55Z</time></trkpt><trkpt lat="14.572777432549136" lon="120.98119500257566"><ele>23.0</ele><time>2026-04-12T12:35:56Z</time></trkpt><trkpt lat="14.572854365126746" lon="120.98115782722807"><ele>23.0</ele><time>2026-04-12T12:35:58Z</time></trkpt><trkpt lat="14.572937110705277" lon="120.98110753959686"><ele>21.4</ele><time>2026-04-12T12:36:32Z</time></trkpt><trkpt lat="14.573065977481125" lon="120.9810620422196"><ele>19.799999999999997</ele><time>2026-04-12T12:36:34Z</time></trkpt><trkpt lat="14.573144442742596" lon="120.98102114848943"><ele>18.2</ele><time>2026-04-12T12:36:35Z</time></trkpt><trkpt lat="14.573229239843348" lon="120.9809793257026"><ele>16.6</ele><time>2026-04-12T12:36:36Z</time></trkpt><trkpt lat="14.573326287710934" lon="120.98092187806729"><ele>15.0</ele><time>2026-04-12T12:36:37Z</time></trkpt><trkpt lat="14.5734370742378" lon="120.98086147654243"><ele>14.75</ele><time>2026-04-12T12:36:38Z</time></trkpt><trkpt lat="14.573558355987716" lon="120.98079746119916"><ele>14.5</ele><time>2026-04-12T12:36:39Z</time></trkpt><trkpt lat="14.573685865197595" lon="120.9807319767377"><ele>14.25</ele><time>2026-04-12T12:36:40Z</time></trkpt><trkpt lat="14.573820982855366" lon="120.9806614272308"><ele>14.0</ele><time>2026-04-12T12:36:41Z</time></trkpt><trkpt lat="14.573961064560118" lon="120.98059182507721"><ele>14.0</ele><time>2026-04-12T12:36:42Z</time></trkpt><trkpt lat="14.574106512136593" lon="120.98051550093317"><ele>14.0</ele><time>2026-04-12T12:36:43Z</time></trkpt><trkpt lat="14.57426113865577" lon="120.98043264570103"><ele>14.0</ele><time>2026-04-12T12:36:44Z</time></trkpt><trkpt lat="14.574416244982704" lon="120.98035318630745"><ele>13.333333333333334</ele><time>2026-04-12T12:36:45Z</time></trkpt><trkpt lat="14.57457221860769" lon="120.98026892294088"><ele>12.666666666666668</ele><time>2026-04-12T12:36:46Z</time></trkpt><trkpt lat="14.574730180786416" lon="120.98018230336213"><ele>12.0</ele><time>2026-04-12T12:36:47Z</time></trkpt><trkpt lat="14.574889088738646" lon="120.98009524407755"><ele>12.333333333333332</ele><time>2026-04-12T12:36:48Z</time></trkpt><trkpt lat="14.57505560327483" lon="120.98000476136042"><ele>12.666666666666666</ele><time>2026-04-12T12:36:49Z</time></trkpt><trkpt lat="14.57522168812806" lon="120.97991535651693"><ele>13.0</ele><time>2026-04-12T12:36:50Z</time></trkpt><trkpt lat="14.57539148071719" lon="120.97982038296477"><ele>14.333333333333332</ele><time>2026-04-12T12:36:51Z</time></trkpt><trkpt lat="14.575560981627689" lon="120.97972901128881"><ele>15.666666666666668</ele><time>2026-04-12T12:36:52Z</time></trkpt><trkpt lat="14.57573825486437" lon="120.97963673747327"><ele>17.0</ele><time>2026-04-12T12:36:53Z</time></trkpt><trkpt lat="14.57591747573986" lon="120.97953948164704"><ele>17.0</ele><time>2026-04-12T12:36:54Z</time></trkpt><trkpt lat="14.576097904885312" lon="120.97943992438091"><ele>17.0</ele><time>2026-04-12T12:36:55Z</time></trkpt><trkpt lat="14.576271279716249" lon="120.97934553132717"><ele>17.0</ele><time>2026-04-12T12:36:56Z</time></trkpt><trkpt lat="14.576439471309486" lon="120.97925328129483"><ele>13.666666666666668</ele><time>2026-04-12T12:36:57Z</time></trkpt><trkpt lat="14.576603983817815" lon="120.97916041420416"><ele>10.333333333333334</ele><time>2026-04-12T12:36:58Z</time></trkpt><trkpt lat="14.576763607273142" lon="120.97907069837555"><ele>7.0</ele><time>2026-04-12T12:36:59Z</time></trkpt><trkpt lat="14.576924905241302" lon="120.97897936087435"><ele>7.0</ele><time>2026-04-12T12:37:00Z</time></trkpt><trkpt lat="14.577081243957803" lon="120.97889074494651"><ele>7.0</ele><time>2026-04-12T12:37:01Z</time></trkpt><trkpt lat="14.577231888257053" lon="120.97880743467826"><ele>7.0</ele><time>2026-04-12T12:37:02Z</time></trkpt><trkpt lat="14.577375371144417" lon="120.97873009896267"><ele>7.0</ele><time>2026-04-12T12:37:03Z</time></trkpt><trkpt lat="14.577509797797214" lon="120.97864979461453"><ele>7.0</ele><time>2026-04-12T12:37:04Z</time></trkpt><trkpt lat="14.577637931624011" lon="120.97857946198171"><ele>7.0</ele><time>2026-04-12T12:37:05Z</time></trkpt><trkpt lat="14.57776087345415" lon="120.97851176302822"><ele>7.0</ele><time>2026-04-12T12:37:06Z</time></trkpt><trkpt lat="14.577868427413884" lon="120.9784501209974"><ele>7.8</ele><time>2026-04-12T12:37:07Z</time></trkpt><trkpt lat="14.577966577025423" lon="120.97839700011372"><ele>8.6</ele><time>2026-04-12T12:37:08Z</time></trkpt><trkpt lat="14.578055049705178" lon="120.97834242478933"><ele>9.4</ele><time>2026-04-12T12:37:09Z</time></trkpt><trkpt lat="14.57812844221811" lon="120.97829810699487"><ele>10.200000000000001</ele><time>2026-04-12T12:37:10Z</time></trkpt><trkpt lat="14.578192601291866" lon="120.97826149741448"><ele>11.0</ele><time>2026-04-12T12:37:11Z</time></trkpt><trkpt lat="14.578289790809077" lon="120.97821165640248"><ele>11.5</ele><time>2026-04-12T12:37:13Z</time></trkpt><trkpt lat="14.578360498840782" lon="120.97820233202184"><ele>12.0</ele><time>2026-04-12T12:37:15Z</time></trkpt><trkpt lat="14.57841695792677" lon="120.97816632774317"><ele>12.5</ele><time>2026-04-12T12:37:19Z</time></trkpt><trkpt lat="14.57851739871208" lon="120.97811816883589"><ele>13.0</ele><time>2026-04-12T12:37:26Z</time></trkpt><trkpt lat="14.578575763984794" lon="120.97808741472137"><ele>13.500000000000002</ele><time>2026-04-12T12:37:27Z</time></trkpt><trkpt lat="14.578638158935892" lon="120.97804650951709"><ele>14.0</ele><time>2026-04-12T12:37:28Z</time></trkpt><trkpt lat="14.578703043536649" lon="120.97801305176736"><ele>14.0</ele><time>2026-04-12T12:37:29Z</time></trkpt><trkpt lat="14.578770379868619" lon="120.97797764045814"><ele>14.0</ele><time>2026-04-12T12:37:30Z</time></trkpt><trkpt lat="14.57882819912198" lon="120.97794819721868"><ele>14.0</ele><time>2026-04-12T12:37:31Z</time></trkpt><trkpt lat="14.578887220307072" lon="120.97791677859325"><ele>14.0</ele><time>2026-04-12T12:37:32Z</time></trkpt><trkpt lat="14.578947805184042" lon="120.97788166738022"><ele>14.0</ele><time>2026-04-12T12:37:33Z</time></trkpt><trkpt lat="14.579007373794658" lon="120.9778502472734"><ele>14.0</ele><time>2026-04-12T12:37:34Z</time></trkpt><trkpt lat="14.579066545247937" lon="120.97781657702205"><ele>14.0</ele><time>2026-04-12T12:37:35Z</time></trkpt><trkpt lat="14.579123666956537" lon="120.97778320841006"><ele>14.000000000000002</ele><time>2026-04-12T12:37:36Z</time></trkpt><trkpt lat="14.57918413948961" lon="120.97775229739543"><ele>14.0</ele><time>2026-04-12T12:37:37Z</time></trkpt><trkpt lat="14.579244075517595" lon="120.97771834308868"><ele>14.0</ele><time>2026-04-12T12:37:38Z</time></trkpt><trkpt lat="14.57930992813919" lon="120.97768077232821"><ele>14.0</ele><time>2026-04-12T12:37:39Z</time></trkpt><trkpt lat="14.579383988344098" lon="120.97764002254472"><ele>14.000000000000002</ele><time>2026-04-12T12:37:40Z</time></trkpt><trkpt lat="14.57946028849281" lon="120.9775934442726"><ele>14.0</ele><time>2026-04-12T12:37:41Z</time></trkpt><trkpt lat="14.579530714254956" lon="120.97754920619889"><ele>12.799999999999999</ele><time>2026-04-12T12:37:42Z</time></trkpt><trkpt lat="14.579615552915499" lon="120.97750226237297"><ele>11.599999999999998</ele><time>2026-04-12T12:37:43Z</time></trkpt><trkpt lat="14.579697838317184" lon="120.97744543272259"><ele>10.4</ele><time>2026-04-12T12:37:44Z</time></trkpt><trkpt lat="14.579787653110111" lon="120.97740122797214"><ele>9.2</ele><time>2026-04-12T12:37:45Z</time></trkpt><trkpt lat="14.579884927956213" lon="120.97734940830698"><ele>8.0</ele><time>2026-04-12T12:37:46Z</time></trkpt><trkpt lat="14.579998838241078" lon="120.9773030028495"><ele>8.0</ele><time>2026-04-12T12:37:47Z</time></trkpt><trkpt lat="14.580054418114589" lon="120.97725283910427"><ele>8.0</ele><time>2026-04-12T12:37:48Z</time></trkpt><trkpt lat="14.580135226707787" lon="120.97720154430996"><ele>8.0</ele><time>2026-04-12T12:37:49Z</time></trkpt><trkpt lat="14.580231331482839" lon="120.97714448514043"><ele>8.0</ele><time>2026-04-12T12:37:50Z</time></trkpt><trkpt lat="14.580315695685382" lon="120.9770899139245"><ele>8.0</ele><time>2026-04-12T12:37:51Z</time></trkpt><trkpt lat="14.580403596735573" lon="120.97703299146212"><ele>8.600000000000001</ele><time>2026-04-12T12:37:52Z</time></trkpt><trkpt lat="14.580503927667108" lon="120.97697751650401"><ele>9.200000000000001</ele><time>2026-04-12T12:37:53Z</time></trkpt><trkpt lat="14.580592179210642" lon="120.97692260076052"><ele>9.8</ele><time>2026-04-12T12:37:54Z</time></trkpt><trkpt lat="14.58068551876756" lon="120.97686478467932"><ele>10.4</ele><time>2026-04-12T12:37:55Z</time></trkpt><trkpt lat="14.580773965232254" lon="120.97680839062929"><ele>11.0</ele><time>2026-04-12T12:37:56Z</time></trkpt><trkpt lat="14.580858341764507" lon="120.9767607909457"><ele>11.0</ele><time>2026-04-12T12:37:57Z</time></trkpt><trkpt lat="14.580946602806028" lon="120.97670861606687"><ele>11.0</ele><time>2026-04-12T12:37:58Z</time></trkpt><trkpt lat="14.581031429995972" lon="120.9766597502533"><ele>11.0</ele><time>2026-04-12T12:37:59Z</time></trkpt><trkpt lat="14.581120953967105" lon="120.97660900400784"><ele>11.0</ele><time>2026-04-12T12:38:00Z</time></trkpt><trkpt lat="14.581201639119648" lon="120.97656209904873"><ele>11.0</ele><time>2026-04-12T12:38:01Z</time></trkpt><trkpt lat="14.581292688952255" lon="120.97650131737967"><ele>10.0</ele><time>2026-04-12T12:38:02Z</time></trkpt><trkpt lat="14.581380653400089" lon="120.97644845758471"><ele>9.0</ele><time>2026-04-12T12:38:03Z</time></trkpt><trkpt lat="14.58146912160528" lon="120.97639750993491"><ele>8.0</ele><time>2026-04-12T12:38:04Z</time></trkpt><trkpt lat="14.581567111754815" lon="120.9763428831119"><ele>7.0</ele><time>2026-04-12T12:38:05Z</time></trkpt><trkpt lat="14.581667206994217" lon="120.9762857388179"><ele>6.0</ele><time>2026-04-12T12:38:06Z</time></trkpt><trkpt lat="14.5817682965521" lon="120.97622907701574"><ele>6.0</ele><time>2026-04-12T12:38:07Z</time></trkpt><trkpt lat="14.58187062624785" lon="120.97616964466994"><ele>6.0</ele><time>2026-04-12T12:38:08Z</time></trkpt><trkpt lat="14.581974547225565" lon="120.97611072923014"><ele>6.0</ele><time>2026-04-12T12:38:09Z</time></trkpt><trkpt lat="14.58207696987673" lon="120.97605163033326"><ele>6.0</ele><time>2026-04-12T12:38:10Z</time></trkpt><trkpt lat="14.58218310174044" lon="120.97599082886764"><ele>6.0</ele><time>2026-04-12T12:38:11Z</time></trkpt><trkpt lat="14.582288994764122" lon="120.97592653713012"><ele>6.0</ele><time>2026-04-12T12:38:12Z</time></trkpt><trkpt lat="14.582398250240253" lon="120.97585965286726"><ele>6.0</ele><time>2026-04-12T12:38:13Z</time></trkpt><trkpt lat="14.582502633514112" lon="120.97579202626763"><ele>6.0</ele><time>2026-04-12T12:38:14Z</time></trkpt><trkpt lat="14.582605410361056" lon="120.97573140001772"><ele>6.0</ele><time>2026-04-12T12:38:15Z</time></trkpt><trkpt lat="14.582709639719898" lon="120.97566440801415"><ele>6.0</ele><time>2026-04-12T12:38:16Z</time></trkpt><trkpt lat="14.582809513751632" lon="120.97559876009029"><ele>6.0</ele><time>2026-04-12T12:38:17Z</time></trkpt><trkpt lat="14.582914785542675" lon="120.97553569757031"><ele>6.0</ele><time>2026-04-12T12:38:18Z</time></trkpt><trkpt lat="14.583026996950382" lon="120.97547584650977"><ele>5.8</ele><time>2026-04-12T12:38:19Z</time></trkpt><trkpt lat="14.58312087837834" lon="120.97542637254149"><ele>5.6</ele><time>2026-04-12T12:38:20Z</time></trkpt><trkpt lat="14.583216637640296" lon="120.97538060282324"><ele>5.4</ele><time>2026-04-12T12:38:21Z</time></trkpt><trkpt lat="14.58330873899969" lon="120.975331891385"><ele>5.2</ele><time>2026-04-12T12:38:22Z</time></trkpt><trkpt lat="14.583401759861275" lon="120.97528818323491"><ele>5.0</ele><time>2026-04-12T12:38:23Z</time></trkpt><trkpt lat="14.58348980463977" lon="120.97523850758216"><ele>5.0</ele><time>2026-04-12T12:38:24Z</time></trkpt><trkpt lat="14.583579203504003" lon="120.97518806337669"><ele>5.0</ele><time>2026-04-12T12:38:25Z</time></trkpt><trkpt lat="14.58366219338703" lon="120.97514334693291"><ele>5.0</ele><time>2026-04-12T12:38:26Z</time></trkpt><trkpt lat="14.583750815298963" lon="120.97509262812409"><ele>5.0</ele><time>2026-04-12T12:38:27Z</time></trkpt><trkpt lat="14.583837789720334" lon="120.97505050805458"><ele>5.0</ele><time>2026-04-12T12:38:28Z</time></trkpt><trkpt lat="14.583913068945629" lon="120.97501303964629"><ele>4.333333333333334</ele><time>2026-04-12T12:38:29Z</time></trkpt><trkpt lat="14.583986833068789" lon="120.97498214904762"><ele>3.666666666666667</ele><time>2026-04-12T12:38:30Z</time></trkpt><trkpt lat="14.58405039389469" lon="120.97495062949517"><ele>3.0</ele><time>2026-04-12T12:38:31Z</time></trkpt><trkpt lat="14.584116064917986" lon="120.97491776230255"><ele>2.3333333333333335</ele><time>2026-04-12T12:38:32Z</time></trkpt><trkpt lat="14.584182222032753" lon="120.97487862067085"><ele>1.6666666666666665</ele><time>2026-04-12T12:38:33Z</time></trkpt><trkpt lat="14.58425367476695" lon="120.97483768366358"><ele>1.0</ele><time>2026-04-12T12:38:34Z</time></trkpt><trkpt lat="14.584326722452268" lon="120.97479797245026"><ele>0.9999999999999999</ele><time>2026-04-12T12:38:35Z</time></trkpt><trkpt lat="14.584398110396329" lon="120.97476512599206"><ele>1.0</ele><time>2026-04-12T12:38:36Z</time></trkpt><trkpt lat="14.584460224392783" lon="120.97473852247418"><ele>1.0</ele><time>2026-04-12T12:38:37Z</time></trkpt><trkpt lat="14.58456095946857" lon="120.97468594158266"><ele>1.0</ele><time>2026-04-12T12:38:39Z</time></trkpt><trkpt lat="14.584634639518592" lon="120.97465004364739"><ele>0.9999999999999999</ele><time>2026-04-12T12:38:41Z</time></trkpt><trkpt lat="14.584704429442382" lon="120.97461495981419"><ele>1.0</ele><time>2026-04-12T12:38:44Z</time></trkpt><trkpt lat="14.584765812987268" lon="120.97458536077963"><ele>1.4</ele><time>2026-04-12T12:38:54Z</time></trkpt><trkpt lat="14.584840259650688" lon="120.97456117310362"><ele>1.8</ele><time>2026-04-12T12:39:03Z</time></trkpt><trkpt lat="14.584953622000533" lon="120.97450473582187"><ele>2.1999999999999997</ele><time>2026-04-12T12:39:05Z</time></trkpt><trkpt lat="14.585035788124857" lon="120.97445953439721"><ele>2.6</ele><time>2026-04-12T12:39:06Z</time></trkpt><trkpt lat="14.58512769252635" lon="120.97441159531411"><ele>3.0</ele><time>2026-04-12T12:39:07Z</time></trkpt><trkpt lat="14.585228484451566" lon="120.97435916492925"><ele>3.0</ele><time>2026-04-12T12:39:08Z</time></trkpt><trkpt lat="14.585341192080191" lon="120.9743035506451"><ele>3.0</ele><time>2026-04-12T12:39:09Z</time></trkpt><trkpt lat="14.585463161402904" lon="120.97422799093631"><ele>3.0</ele><time>2026-04-12T12:39:10Z</time></trkpt><trkpt lat="14.585587829820067" lon="120.97415595924824"><ele>3.0</ele><time>2026-04-12T12:39:11Z</time></trkpt><trkpt lat="14.58571383471069" lon="120.9740807995394"><ele>4.666666666666666</ele><time>2026-04-12T12:39:12Z</time></trkpt><trkpt lat="14.58585488520884" lon="120.97399245519475"><ele>6.333333333333333</ele><time>2026-04-12T12:39:13Z</time></trkpt><trkpt lat="14.585993676426698" lon="120.97391277031743"><ele>8.0</ele><time>2026-04-12T12:39:14Z</time></trkpt><trkpt lat="14.586135370724687" lon="120.97382808331886"><ele>9.0</ele><time>2026-04-12T12:39:15Z</time></trkpt><trkpt lat="14.586286218324664" lon="120.97373689833456"><ele>10.0</ele><time>2026-04-12T12:39:16Z</time></trkpt><trkpt lat="14.58643107607862" lon="120.9736481951902"><ele>11.0</ele><time>2026-04-12T12:39:17Z</time></trkpt><trkpt lat="14.58657560067078" lon="120.97356190769155"><ele>11.0</ele><time>2026-04-12T12:39:18Z</time></trkpt><trkpt lat="14.586728865755422" lon="120.97347360768036"><ele>11.0</ele><time>2026-04-12T12:39:19Z</time></trkpt><trkpt lat="14.58687499692043" lon="120.97338855406252"><ele>11.0</ele><time>2026-04-12T12:39:20Z</time></trkpt><trkpt lat="14.587012538074216" lon="120.97330716570818"><ele>10.0</ele><time>2026-04-12T12:39:21Z</time></trkpt><trkpt lat="14.587134027800328" lon="120.97323499093736"><ele>9.0</ele><time>2026-04-12T12:39:22Z</time></trkpt><trkpt lat="14.587254520311584" lon="120.97315693492814"><ele>8.0</ele><time>2026-04-12T12:39:23Z</time></trkpt><trkpt lat="14.58736709208592" lon="120.97310097168715"><ele>7.0</ele><time>2026-04-12T12:39:24Z</time></trkpt><trkpt lat="14.587464757854097" lon="120.97304051510999"><ele>7.000000000000001</ele><time>2026-04-12T12:39:25Z</time></trkpt><trkpt lat="14.587544882196537" lon="120.97299253761945"><ele>7.0</ele><time>2026-04-12T12:39:26Z</time></trkpt><trkpt lat="14.587608784531113" lon="120.97295524001252"><ele>7.0</ele><time>2026-04-12T12:39:27Z</time></trkpt><trkpt lat="14.58767985331123" lon="120.97291005334519"><ele>7.0</ele><time>2026-04-12T12:39:29Z</time></trkpt><trkpt lat="14.58772982495227" lon="120.97286775483653"><ele>7.000000000000001</ele><time>2026-04-12T12:39:33Z</time></trkpt><trkpt lat="14.587818547130947" lon="120.97280270569142"><ele>7.0</ele><time>2026-04-12T12:39:49Z</time></trkpt><trkpt lat="14.587886461523249" lon="120.97276516453697"><ele>7.0</ele><time>2026-04-12T12:39:50Z</time></trkpt><trkpt lat="14.587973982279701" lon="120.97272243101966"><ele>6.999999999999999</ele><time>2026-04-12T12:39:51Z</time></trkpt><trkpt lat="14.588050838913912" lon="120.97266755864995"><ele>6.999999999999999</ele><time>2026-04-12T12:39:52Z</time></trkpt><trkpt lat="14.588149342977491" lon="120.97260681769355"><ele>7.0</ele><time>2026-04-12T12:39:53Z</time></trkpt><trkpt lat="14.588250666871462" lon="120.97254782927531"><ele>7.0</ele><time>2026-04-12T12:39:54Z</time></trkpt><trkpt lat="14.588361167961175" lon="120.97248158092286"><ele>7.75</ele><time>2026-04-12T12:39:55Z</time></trkpt><trkpt lat="14.588473680527647" lon="120.97241237053002"><ele>8.5</ele><time>2026-04-12T12:39:56Z</time></trkpt><trkpt lat="14.588592412810408" lon="120.97233501625735"><ele>9.25</ele><time>2026-04-12T12:39:57Z</time></trkpt><trkpt lat="14.588717923102994" lon="120.97225751541983"><ele>10.0</ele><time>2026-04-12T12:39:58Z</time></trkpt><trkpt lat="14.58884188713961" lon="120.97217884023796"><ele>10.333333333333334</ele><time>2026-04-12T12:39:59Z</time></trkpt><trkpt lat="14.588975338486856" lon="120.97210061945948"><ele>10.666666666666666</ele><time>2026-04-12T12:40:00Z</time></trkpt><trkpt lat="14.589098797559538" lon="120.9720220674379"><ele>11.0</ele><time>2026-04-12T12:40:01Z</time></trkpt><trkpt lat="14.589235727926209" lon="120.97193052298304"><ele>11.0</ele><time>2026-04-12T12:40:02Z</time></trkpt><trkpt lat="14.589366334846398" lon="120.97184799619335"><ele>11.0</ele><time>2026-04-12T12:40:03Z</time></trkpt><trkpt lat="14.589496287961083" lon="120.9717620029723"><ele>11.0</ele><time>2026-04-12T12:40:04Z</time></trkpt><trkpt lat="14.589626410452887" lon="120.97168081368689"><ele>10.25</ele><time>2026-04-12T12:40:05Z</time></trkpt><trkpt lat="14.589753467129203" lon="120.97159649472681"><ele>9.5</ele><time>2026-04-12T12:40:06Z</time></trkpt><trkpt lat="14.589885243919852" lon="120.97151392993041"><ele>8.75</ele><time>2026-04-12T12:40:07Z</time></trkpt><trkpt lat="14.59000648743375" lon="120.97143438355546"><ele>8.0</ele><time>2026-04-12T12:40:08Z</time></trkpt><trkpt lat="14.590121678673647" lon="120.97136100068315"><ele>8.0</ele><time>2026-04-12T12:40:09Z</time></trkpt><trkpt lat="14.590228255782481" lon="120.9713071871287"><ele>8.0</ele><time>2026-04-12T12:40:10Z</time></trkpt><trkpt lat="14.59033406928049" lon="120.97126235629432"><ele>8.0</ele><time>2026-04-12T12:40:11Z</time></trkpt><trkpt lat="14.59043437594389" lon="120.97122993387511"><ele>8.0</ele><time>2026-04-12T12:40:12Z</time></trkpt><trkpt lat="14.59053189192782" lon="120.97121343459827"><ele>8.0</ele><time>2026-04-12T12:40:13Z</time></trkpt><trkpt lat="14.590626117743803" lon="120.97121020503286"><ele>8.5</ele><time>2026-04-12T12:40:14Z</time></trkpt><trkpt lat="14.590708756274775" lon="120.97122071290568"><ele>9.0</ele><time>2026-04-12T12:40:15Z</time></trkpt><trkpt lat="14.590783912618853" lon="120.9712417963592"><ele>9.5</ele><time>2026-04-12T12:40:16Z</time></trkpt><trkpt lat="14.59087490607028" lon="120.9712654549245"><ele>10.0</ele><time>2026-04-12T12:40:17Z</time></trkpt><trkpt lat="14.590948704445541" lon="120.97126666190542"><ele>10.5</ele><time>2026-04-12T12:40:18Z</time></trkpt><trkpt lat="14.59101737594796" lon="120.9713270389598"><ele>11.0</ele><time>2026-04-12T12:40:19Z</time></trkpt><trkpt lat="14.59108879428573" lon="120.97137119660798"><ele>11.0</ele><time>2026-04-12T12:40:20Z</time></trkpt><trkpt lat="14.591168600762947" lon="120.971418610732"><ele>11.0</ele><time>2026-04-12T12:40:21Z</time></trkpt><trkpt lat="14.591240366309089" lon="120.97147588640703"><ele>11.0</ele><time>2026-04-12T12:40:22Z</time></trkpt><trkpt lat="14.59131357760074" lon="120.97153577911487"><ele>11.0</ele><time>2026-04-12T12:40:23Z</time></trkpt><trkpt lat="14.591381931190181" lon="120.97160766538586"><ele>11.0</ele><time>2026-04-12T12:40:24Z</time></trkpt><trkpt lat="14.591447248997854" lon="120.97168022788962"><ele>12.0</ele><time>2026-04-12T12:40:25Z</time></trkpt><trkpt lat="14.59152915077679" lon="120.97173470260526"><ele>13.0</ele><time>2026-04-12T12:40:26Z</time></trkpt><trkpt lat="14.591602903101727" lon="120.9718030356394"><ele>14.000000000000002</ele><time>2026-04-12T12:40:27Z</time></trkpt><trkpt lat="14.591662148479545" lon="120.97188596524265"><ele>15.0</ele><time>2026-04-12T12:40:28Z</time></trkpt><trkpt lat="14.591711599420512" lon="120.97195619132357"><ele>16.0</ele><time>2026-04-12T12:40:29Z</time></trkpt><trkpt lat="14.5917778236284" lon="120.97202468551713"><ele>15.999999999999998</ele><time>2026-04-12T12:40:30Z</time></trkpt><trkpt lat="14.591837191926535" lon="120.97209722195083"><ele>16.0</ele><time>2026-04-12T12:40:31Z</time></trkpt><trkpt lat="14.591902623255177" lon="120.9721718134828"><ele>16.0</ele><time>2026-04-12T12:40:32Z</time></trkpt><trkpt lat="14.591963495129184" lon="120.97223925869261"><ele>16.0</ele><time>2026-04-12T12:40:33Z</time></trkpt><trkpt lat="14.592018374418664" lon="120.97229990003187"><ele>15.999999999999998</ele><time>2026-04-12T12:40:34Z</time></trkpt><trkpt lat="14.592065874543923" lon="120.97235800899561"><ele>16.0</ele><time>2026-04-12T12:40:35Z</time></trkpt><trkpt lat="14.592147861872489" lon="120.97244668957215"><ele>14.499999999999998</ele><time>2026-04-12T12:40:37Z</time></trkpt><trkpt lat="14.592234104461228" lon="120.97254105034908"><ele>13.0</ele><time>2026-04-12T12:40:39Z</time></trkpt><trkpt lat="14.592285043600755" lon="120.97259371956936"><ele>11.5</ele><time>2026-04-12T12:40:40Z</time></trkpt><trkpt lat="14.592324982431542" lon="120.97265328488113"><ele>10.0</ele><time>2026-04-12T12:40:41Z</time></trkpt><trkpt lat="14.592372127642586" lon="120.97271792891034"><ele>8.5</ele><time>2026-04-12T12:40:42Z</time></trkpt><trkpt lat="14.592425049990236" lon="120.97278241135957"><ele>7.0</ele><time>2026-04-12T12:40:43Z</time></trkpt><trkpt lat="14.592482006506039" lon="120.97283898711882"><ele>7.000000000000001</ele><time>2026-04-12T12:40:44Z</time></trkpt><trkpt lat="14.59253982610403" lon="120.97289883075433"><ele>7.0</ele><time>2026-04-12T12:40:45Z</time></trkpt><trkpt lat="14.59259691894616" lon="120.97295997479233"><ele>7.0</ele><time>2026-04-12T12:40:46Z</time></trkpt><trkpt lat="14.592647748750103" lon="120.97301436185732"><ele>7.0</ele><time>2026-04-12T12:40:47Z</time></trkpt><trkpt lat="14.592695277919518" lon="120.97306531349098"><ele>7.000000000000001</ele><time>2026-04-12T12:40:48Z</time></trkpt><trkpt lat="14.59275142851388" lon="120.97312379207939"><ele>7.0</ele><time>2026-04-12T12:40:49Z</time></trkpt><trkpt lat="14.592816859095796" lon="120.97319475277189"><ele>7.199999999999999</ele><time>2026-04-12T12:40:50Z</time></trkpt><trkpt lat="14.592872175503258" lon="120.97326633366944"><ele>7.3999999999999995</ele><time>2026-04-12T12:40:51Z</time></trkpt><trkpt lat="14.592926178151917" lon="120.9733365882338"><ele>7.6000000000000005</ele><time>2026-04-12T12:40:52Z</time></trkpt><trkpt lat="14.592986263587889" lon="120.97340565108136"><ele>7.800000000000001</ele><time>2026-04-12T12:40:53Z</time></trkpt><trkpt lat="14.593058818074603" lon="120.97347393177881"><ele>8.0</ele><time>2026-04-12T12:40:54Z</time></trkpt><trkpt lat="14.593125165847574" lon="120.97353807719871"><ele>9.0</ele><time>2026-04-12T12:40:55Z</time></trkpt><trkpt lat="14.593165524516758" lon="120.97360499489848"><ele>10.0</ele><time>2026-04-12T12:40:56Z</time></trkpt><trkpt lat="14.593228927286699" lon="120.97367344346247"><ele>11.0</ele><time>2026-04-12T12:40:57Z</time></trkpt><trkpt lat="14.593290723222683" lon="120.97374239495339"><ele>12.0</ele><time>2026-04-12T12:40:58Z</time></trkpt><trkpt lat="14.593358931847082" lon="120.9738203874876"><ele>13.0</ele><time>2026-04-12T12:40:59Z</time></trkpt><trkpt lat="14.593417738936385" lon="120.97389205589808"><ele>12.999999999999998</ele><time>2026-04-12T12:41:00Z</time></trkpt><trkpt lat="14.593472253818893" lon="120.9739537532315"><ele>13.0</ele><time>2026-04-12T12:41:01Z</time></trkpt><trkpt lat="14.59352271105548" lon="120.97401211645834"><ele>13.0</ele><time>2026-04-12T12:41:02Z</time></trkpt><trkpt lat="14.593568548472136" lon="120.97406653209892"><ele>13.0</ele><time>2026-04-12T12:41:03Z</time></trkpt><trkpt lat="14.593638144174857" lon="120.97416011018252"><ele>12.999999999999998</ele><time>2026-04-12T12:41:05Z</time></trkpt><trkpt lat="14.593663553521436" lon="120.97424307087927"><ele>13.0</ele><time>2026-04-12T12:41:08Z</time></trkpt><trkpt lat="14.593686527758567" lon="120.97435324806774"><ele>12.0</ele><time>2026-04-12T12:41:10Z</time></trkpt><trkpt lat="14.593689188966994" lon="120.97447243611362"><ele>11.0</ele><time>2026-04-12T12:41:12Z</time></trkpt><trkpt lat="14.593692427213309" lon="120.97454665789124"><ele>10.0</ele><time>2026-04-12T12:41:13Z</time></trkpt><trkpt lat="14.593694345714567" lon="120.97461473774598"><ele>9.0</ele><time>2026-04-12T12:41:14Z</time></trkpt><trkpt lat="14.593695815227557" lon="120.97472940289343"><ele>8.0</ele><time>2026-04-12T12:41:16Z</time></trkpt><trkpt lat="14.593705939049261" lon="120.97483964922066"><ele>7.999999999999999</ele><time>2026-04-12T12:41:18Z</time></trkpt><trkpt lat="14.593700681097602" lon="120.97492835706213"><ele>8.0</ele><time>2026-04-12T12:41:20Z</time></trkpt><trkpt lat="14.593747571631377" lon="120.97501327243738"><ele>8.0</ele><time>2026-04-12T12:41:22Z</time></trkpt><trkpt lat="14.5938071947369" lon="120.97505857518762"><ele>8.0</ele><time>2026-04-12T12:41:24Z</time></trkpt><trkpt lat="14.59388511685901" lon="120.97511109445674"><ele>7.999999999999999</ele><time>2026-04-12T12:41:26Z</time></trkpt><trkpt lat="14.593954627615583" lon="120.97517769940549"><ele>8.0</ele><time>2026-04-12T12:41:28Z</time></trkpt><trkpt lat="14.594024817936248" lon="120.97524983471929"><ele>8.166666666666666</ele><time>2026-04-12T12:41:29Z</time></trkpt><trkpt lat="14.594080426464426" lon="120.97531076727596"><ele>8.333333333333332</ele><time>2026-04-12T12:41:30Z</time></trkpt><trkpt lat="14.594120845547891" lon="120.97537672604389"><ele>8.5</ele><time>2026-04-12T12:41:31Z</time></trkpt><trkpt lat="14.594179018459043" lon="120.97544934409592"><ele>8.666666666666666</ele><time>2026-04-12T12:41:32Z</time></trkpt><trkpt lat="14.594225750184119" lon="120.97552077149693"><ele>8.833333333333334</ele><time>2026-04-12T12:41:33Z</time></trkpt><trkpt lat="14.594205028965506" lon="120.9756388496749"><ele>9.0</ele><time>2026-04-12T12:41:34Z</time></trkpt><trkpt lat="14.594224611183456" lon="120.97573388386778"><ele>9.0</ele><time>2026-04-12T12:41:35Z</time></trkpt><trkpt lat="14.594244237217799" lon="120.97582802892794"><ele>9.0</ele><time>2026-04-12T12:41:36Z</time></trkpt><trkpt lat="14.594261603274031" lon="120.97593016963572"><ele>9.0</ele><time>2026-04-12T12:41:37Z</time></trkpt><trkpt lat="14.594282636329208" lon="120.97603486886806"><ele>9.0</ele><time>2026-04-12T12:41:38Z</time></trkpt><trkpt lat="14.594303082656582" lon="120.97613701418906"><ele>9.0</ele><time>2026-04-12T12:41:39Z</time></trkpt><trkpt lat="14.594322167829766" lon="120.97623020302805"><ele>9.333333333333334</ele><time>2026-04-12T12:41:40Z</time></trkpt><trkpt lat="14.594339171480112" lon="120.97631426540498"><ele>9.666666666666666</ele><time>2026-04-12T12:41:41Z</time></trkpt><trkpt lat="14.59435667591166" lon="120.97640250881624"><ele>10.0</ele><time>2026-04-12T12:41:42Z</time></trkpt><trkpt lat="14.594370885129708" lon="120.9764951905102"><ele>10.333333333333332</ele><time>2026-04-12T12:41:43Z</time></trkpt><trkpt lat="14.594387555934908" lon="120.9765874098832"><ele>10.666666666666666</ele><time>2026-04-12T12:41:44Z</time></trkpt><trkpt lat="14.594403301847914" lon="120.97668523406844"><ele>11.0</ele><time>2026-04-12T12:41:45Z</time></trkpt><trkpt lat="14.594422210981827" lon="120.97678366137264"><ele>11.0</ele><time>2026-04-12T12:41:46Z</time></trkpt><trkpt lat="14.594439915062548" lon="120.9768861507138"><ele>11.0</ele><time>2026-04-12T12:41:47Z</time></trkpt><trkpt lat="14.594462526436775" lon="120.97699091727242"><ele>11.0</ele><time>2026-04-12T12:41:48Z</time></trkpt><trkpt lat="14.594482501211726" lon="120.977092732885"><ele>11.0</ele><time>2026-04-12T12:41:49Z</time></trkpt><trkpt lat="14.594501325133708" lon="120.97719841745838"><ele>11.0</ele><time>2026-04-12T12:41:50Z</time></trkpt><trkpt lat="14.594516971265003" lon="120.97730244918716"><ele>11.0</ele><time>2026-04-12T12:41:51Z</time></trkpt><trkpt lat="14.594534269172144" lon="120.97740267788085"><ele>11.0</ele><time>2026-04-12T12:41:52Z</time></trkpt><trkpt lat="14.594549074625487" lon="120.9774888245986"><ele>11.0</ele><time>2026-04-12T12:41:53Z</time></trkpt><trkpt lat="14.59455747343232" lon="120.97757514966264"><ele>11.0</ele><time>2026-04-12T12:41:54Z</time></trkpt><trkpt lat="14.594590351606223" lon="120.97765403931595"><ele>11.0</ele><time>2026-04-12T12:41:55Z</time></trkpt><trkpt lat="14.594576400390359" lon="120.97773275425892"><ele>11.0</ele><time>2026-04-12T12:41:56Z</time></trkpt><trkpt lat="14.59455630801638" lon="120.97781305240717"><ele>10.666666666666666</ele><time>2026-04-12T12:41:57Z</time></trkpt><trkpt lat="14.594535373278662" lon="120.97788812611073"><ele>10.333333333333332</ele><time>2026-04-12T12:41:58Z</time></trkpt><trkpt lat="14.594504245062835" lon="120.97795430058147"><ele>10.0</ele><time>2026-04-12T12:41:59Z</time></trkpt><trkpt lat="14.59447604872532" lon="120.97801677969275"><ele>9.666666666666666</ele><time>2026-04-12T12:42:00Z</time></trkpt><trkpt lat="14.594384845553012" lon="120.97806729456605"><ele>9.333333333333334</ele><time>2026-04-12T12:42:01Z</time></trkpt><trkpt lat="14.594301233035722" lon="120.97809809828402"><ele>9.0</ele><time>2026-04-12T12:42:02Z</time></trkpt><trkpt lat="14.594226126697384" lon="120.9781573482058"><ele>9.0</ele><time>2026-04-12T12:42:03Z</time></trkpt><trkpt lat="14.594162553683166" lon="120.97822760521173"><ele>9.0</ele><time>2026-04-12T12:42:04Z</time></trkpt><trkpt lat="14.594090645751251" lon="120.97831486337442"><ele>9.0</ele><time>2026-04-12T12:42:05Z</time></trkpt><trkpt lat="14.593977963331493" lon="120.97834113539619"><ele>9.0</ele><time>2026-04-12T12:42:06Z</time></trkpt><trkpt lat="14.593895249820077" lon="120.97840319917671"><ele>9.0</ele><time>2026-04-12T12:42:07Z</time></trkpt><trkpt lat="14.593810615259137" lon="120.97846616311968"><ele>8.333333333333334</ele><time>2026-04-12T12:42:08Z</time></trkpt><trkpt lat="14.593727340407264" lon="120.97852616595382"><ele>7.666666666666667</ele><time>2026-04-12T12:42:09Z</time></trkpt><trkpt lat="14.59364773607611" lon="120.97858362297262"><ele>7.0</ele><time>2026-04-12T12:42:10Z</time></trkpt><trkpt lat="14.593577095353673" lon="120.9786388511196"><ele>6.333333333333334</ele><time>2026-04-12T12:42:11Z</time></trkpt><trkpt lat="14.593517985676083" lon="120.97868715706315"><ele>5.666666666666667</ele><time>2026-04-12T12:42:12Z</time></trkpt><trkpt lat="14.593468879512193" lon="120.97873180987439"><ele>5.0</ele><time>2026-04-12T12:42:13Z</time></trkpt><trkpt lat="14.593397991008095" lon="120.97880057533489"><ele>5.0</ele><time>2026-04-12T12:42:14Z</time></trkpt><trkpt lat="14.59333171825081" lon="120.97886140870536"><ele>5.0</ele><time>2026-04-12T12:42:15Z</time></trkpt><trkpt lat="14.59328079742451" lon="120.97892028956578"><ele>5.0</ele><time>2026-04-12T12:42:16Z</time></trkpt><trkpt lat="14.593220317511042" lon="120.97899132650647"><ele>5.0</ele><time>2026-04-12T12:42:17Z</time></trkpt><trkpt lat="14.59315819961181" lon="120.97906094743789"><ele>5.0</ele><time>2026-04-12T12:42:18Z</time></trkpt><trkpt lat="14.59308946385571" lon="120.9791365337224"><ele>5.0</ele><time>2026-04-12T12:42:19Z</time></trkpt><trkpt lat="14.593007441703904" lon="120.97920651174776"><ele>5.0</ele><time>2026-04-12T12:42:20Z</time></trkpt><trkpt lat="14.592925010956257" lon="120.9792701111152"><ele>5.0</ele><time>2026-04-12T12:42:21Z</time></trkpt><trkpt lat="14.592844797949432" lon="120.97933656062568"><ele>5.0</ele><time>2026-04-12T12:42:22Z</time></trkpt><trkpt lat="14.592769660873495" lon="120.97940603321855"><ele>5.0</ele><time>2026-04-12T12:42:23Z</time></trkpt><trkpt lat="14.592716894430833" lon="120.97947874005638"><ele>5.0</ele><time>2026-04-12T12:42:24Z</time></trkpt><trkpt lat="14.59266525986143" lon="120.97954233012155"><ele>5.6</ele><time>2026-04-12T12:42:25Z</time></trkpt><trkpt lat="14.592592701115349" lon="120.97961861606821"><ele>6.2</ele><time>2026-04-12T12:42:26Z</time></trkpt><trkpt lat="14.592515823297699" lon="120.97967764054683"><ele>6.800000000000001</ele><time>2026-04-12T12:42:27Z</time></trkpt><trkpt lat="14.592442648176698" lon="120.97973382220204"><ele>7.4</ele><time>2026-04-12T12:42:28Z</time></trkpt><trkpt lat="14.592370496198074" lon="120.97978921832015"><ele>8.0</ele><time>2026-04-12T12:42:29Z</time></trkpt><trkpt lat="14.592301582690565" lon="120.97984212803665"><ele>7.999999999999999</ele><time>2026-04-12T12:42:30Z</time></trkpt><trkpt lat="14.592250031428595" lon="120.97988170754562"><ele>8.0</ele><time>2026-04-12T12:42:31Z</time></trkpt><trkpt lat="14.592194451606128" lon="120.97992319324773"><ele>8.0</ele><time>2026-04-12T12:42:32Z</time></trkpt><trkpt lat="14.592100250451427" lon="120.97998692197608"><ele>8.0</ele><time>2026-04-12T12:42:34Z</time></trkpt><trkpt lat="14.592036840002411" lon="120.9800271781782"><ele>7.999999999999999</ele><time>2026-04-12T12:42:35Z</time></trkpt><trkpt lat="14.591965736140423" lon="120.98006055582033"><ele>8.0</ele><time>2026-04-12T12:42:36Z</time></trkpt><trkpt lat="14.591812224499384" lon="120.98012309621662"><ele>9.0</ele><time>2026-04-12T12:42:38Z</time></trkpt><trkpt lat="14.591744184423902" lon="120.98014982999241"><ele>10.0</ele><time>2026-04-12T12:42:39Z</time></trkpt><trkpt lat="14.591679248841656" lon="120.98017224912903"><ele>11.0</ele><time>2026-04-12T12:42:40Z</time></trkpt><trkpt lat="14.591618530639408" lon="120.98019827200875"><ele>12.0</ele><time>2026-04-12T12:42:41Z</time></trkpt><trkpt lat="14.591550305860421" lon="120.98022501478353"><ele>13.000000000000002</ele><time>2026-04-12T12:42:42Z</time></trkpt><trkpt lat="14.591489337523045" lon="120.98024694412655"><ele>14.0</ele><time>2026-04-12T12:42:43Z</time></trkpt><trkpt lat="14.591370429470565" lon="120.98029214783337"><ele>14.000000000000002</ele><time>2026-04-12T12:42:45Z</time></trkpt><trkpt lat="14.591305143148157" lon="120.98031395165191"><ele>14.0</ele><time>2026-04-12T12:42:46Z</time></trkpt><trkpt lat="14.591231135031682" lon="120.98033906879486"><ele>14.0</ele><time>2026-04-12T12:42:47Z</time></trkpt><trkpt lat="14.591154584657097" lon="120.98036741882127"><ele>14.0</ele><time>2026-04-12T12:42:48Z</time></trkpt><trkpt lat="14.591068192130964" lon="120.9803970268552"><ele>14.000000000000002</ele><time>2026-04-12T12:42:49Z</time></trkpt><trkpt lat="14.590969591153737" lon="120.98042648606085"><ele>14.0</ele><time>2026-04-12T12:42:50Z</time></trkpt><trkpt lat="14.590864712227061" lon="120.9804573800711"><ele>12.0</ele><time>2026-04-12T12:42:51Z</time></trkpt><trkpt lat="14.590756074130315" lon="120.98049058996375"><ele>10.0</ele><time>2026-04-12T12:42:52Z</time></trkpt><trkpt lat="14.590640083000045" lon="120.98052494140428"><ele>8.0</ele><time>2026-04-12T12:42:53Z</time></trkpt><trkpt lat="14.590539300385014" lon="120.98055421582153"><ele>6.0</ele><time>2026-04-12T12:42:54Z</time></trkpt><trkpt lat="14.5904289199027" lon="120.98058612207387"><ele>7.0</ele><time>2026-04-12T12:42:55Z</time></trkpt><trkpt lat="14.590315380173546" lon="120.98061732927776"><ele>8.0</ele><time>2026-04-12T12:42:56Z</time></trkpt><trkpt lat="14.590186023252338" lon="120.98064069745381"><ele>9.0</ele><time>2026-04-12T12:42:57Z</time></trkpt><trkpt lat="14.590048746490595" lon="120.98066540564437"><ele>10.0</ele><time>2026-04-12T12:42:58Z</time></trkpt><trkpt lat="14.589913060612831" lon="120.98069045121098"><ele>10.0</ele><time>2026-04-12T12:42:59Z</time></trkpt><trkpt lat="14.589773999303915" lon="120.98071152116881"><ele>10.0</ele><time>2026-04-12T12:43:00Z</time></trkpt><trkpt lat="14.589635825543917" lon="120.98074131030597"><ele>10.0</ele><time>2026-04-12T12:43:01Z</time></trkpt><trkpt lat="14.58949227761531" lon="120.98077596044543"><ele>10.0</ele><time>2026-04-12T12:43:02Z</time></trkpt><trkpt lat="14.589348274899924" lon="120.98080792848515"><ele>9.25</ele><time>2026-04-12T12:43:03Z</time></trkpt><trkpt lat="14.589202740960653" lon="120.98083889997875"><ele>8.5</ele><time>2026-04-12T12:43:04Z</time></trkpt><trkpt lat="14.589054460975289" lon="120.9808677369374"><ele>7.75</ele><time>2026-04-12T12:43:05Z</time></trkpt><trkpt lat="14.588911887761618" lon="120.98089559837099"><ele>7.0</ele><time>2026-04-12T12:43:06Z</time></trkpt><trkpt lat="14.588769860849425" lon="120.98092345700908"><ele>6.25</ele><time>2026-04-12T12:43:07Z</time></trkpt><trkpt lat="14.58862471536509" lon="120.98093567861935"><ele>5.5</ele><time>2026-04-12T12:43:08Z</time></trkpt><trkpt lat="14.588486996662358" lon="120.98093265632005"><ele>4.75</ele><time>2026-04-12T12:43:09Z</time></trkpt><trkpt lat="14.588350315635061" lon="120.9809214118381"><ele>4.0</ele><time>2026-04-12T12:43:10Z</time></trkpt><trkpt lat="14.588208238231761" lon="120.9808968155666"><ele>4.0</ele><time>2026-04-12T12:43:11Z</time></trkpt><trkpt lat="14.588075250657512" lon="120.98086595718186"><ele>4.0</ele><time>2026-04-12T12:43:12Z</time></trkpt><trkpt lat="14.587949854111958" lon="120.98082783853631"><ele>4.0</ele><time>2026-04-12T12:43:13Z</time></trkpt><trkpt lat="14.587829030128939" lon="120.98078766120588"><ele>4.0</ele><time>2026-04-12T12:43:14Z</time></trkpt><trkpt lat="14.587725233697908" lon="120.98074874687742"><ele>3.571428571428571</ele><time>2026-04-12T12:43:15Z</time></trkpt><trkpt lat="14.587637710800278" lon="120.98071776040088"><ele>3.1428571428571423</ele><time>2026-04-12T12:43:16Z</time></trkpt><trkpt lat="14.587563062384316" lon="120.98069189865295"><ele>2.714285714285714</ele><time>2026-04-12T12:43:17Z</time></trkpt><trkpt lat="14.587501135287123" lon="120.98067193509765"><ele>2.2857142857142856</ele><time>2026-04-12T12:43:18Z</time></trkpt><trkpt lat="14.58743152177963" lon="120.98064788234696"><ele>1.857142857142857</ele><time>2026-04-12T12:43:20Z</time></trkpt><trkpt lat="14.58736352058004" lon="120.98063733261999"><ele>1.4285714285714284</ele><time>2026-04-12T12:43:44Z</time></trkpt><trkpt lat="14.587294714159405" lon="120.98061871265921"><ele>1.0</ele><time>2026-04-12T12:43:45Z</time></trkpt><trkpt lat="14.587220400822993" lon="120.98059245061748"><ele>1.0</ele><time>2026-04-12T12:43:46Z</time></trkpt><trkpt lat="14.58714277839642" lon="120.98057530239784"><ele>1.0</ele><time>2026-04-12T12:43:47Z</time></trkpt><trkpt lat="14.58705576134116" lon="120.9805477005285"><ele>1.0</ele><time>2026-04-12T12:43:48Z</time></trkpt><trkpt lat="14.586963431126758" lon="120.98051859919373"><ele>1.0</ele><time>2026-04-12T12:43:49Z</time></trkpt><trkpt lat="14.586867669713769" lon="120.98049488569812"><ele>1.0</ele><time>2026-04-12T12:43:50Z</time></trkpt><trkpt lat="14.586767223963507" lon="120.98045964463029"><ele>2.25</ele><time>2026-04-12T12:43:51Z</time></trkpt><trkpt lat="14.58666280425374" lon="120.98043475405994"><ele>3.5</ele><time>2026-04-12T12:43:52Z</time></trkpt><trkpt lat="14.586549043244581" lon="120.98039830447641"><ele>4.75</ele><time>2026-04-12T12:43:53Z</time></trkpt><trkpt lat="14.586438087091638" lon="120.98036291672078"><ele>6.0</ele><time>2026-04-12T12:43:54Z</time></trkpt><trkpt lat="14.586320169474183" lon="120.98032483874236"><ele>6.0</ele><time>2026-04-12T12:43:55Z</time></trkpt><trkpt lat="14.58621316779463" lon="120.98028715147524"><ele>6.0</ele><time>2026-04-12T12:43:56Z</time></trkpt><trkpt lat="14.586110974743445" lon="120.98024363840763"><ele>6.0</ele><time>2026-04-12T12:43:57Z</time></trkpt><trkpt lat="14.586019577052427" lon="120.98020034677303"><ele>6.0</ele><time>2026-04-12T12:43:58Z</time></trkpt><trkpt lat="14.585927340099248" lon="120.98014483363882"><ele>6.0</ele><time>2026-04-12T12:43:59Z</time></trkpt><trkpt lat="14.585840633191747" lon="120.98008229869825"><ele>5.5</ele><time>2026-04-12T12:44:00Z</time></trkpt><trkpt lat="14.585754987708553" lon="120.98001466760681"><ele>5.0</ele><time>2026-04-12T12:44:01Z</time></trkpt><trkpt lat="14.58567291660027" lon="120.97993318486887"><ele>4.5</ele><time>2026-04-12T12:44:02Z</time></trkpt><trkpt lat="14.585594609681428" lon="120.97983961004157"><ele>4.0</ele><time>2026-04-12T12:44:03Z</time></trkpt><trkpt lat="14.585519204261058" lon="120.97974215202555"><ele>4.0</ele><time>2026-04-12T12:44:04Z</time></trkpt><trkpt lat="14.585448143352767" lon="120.9796415238282"><ele>4.0</ele><time>2026-04-12T12:44:05Z</time></trkpt><trkpt lat="14.585383811937938" lon="120.97953320884116"><ele>4.0</ele><time>2026-04-12T12:44:06Z</time></trkpt><trkpt lat="14.585319474063546" lon="120.97942466320572"><ele>4.0</ele><time>2026-04-12T12:44:07Z</time></trkpt><trkpt lat="14.585251998979688" lon="120.97931150336622"><ele>4.75</ele><time>2026-04-12T12:44:08Z</time></trkpt><trkpt lat="14.585187849715355" lon="120.97920151656322"><ele>5.5</ele><time>2026-04-12T12:44:09Z</time></trkpt><trkpt lat="14.585119335908963" lon="120.97908635697954"><ele>6.25</ele><time>2026-04-12T12:44:10Z</time></trkpt><trkpt lat="14.585046351578388" lon="120.97896451113567"><ele>7.0</ele><time>2026-04-12T12:44:11Z</time></trkpt><trkpt lat="14.584973008913" lon="120.97884153215182"><ele>7.0</ele><time>2026-04-12T12:44:12Z</time></trkpt><trkpt lat="14.584898450313762" lon="120.97872008612019"><ele>7.0</ele><time>2026-04-12T12:44:13Z</time></trkpt><trkpt lat="14.584822025762199" lon="120.9785973534514"><ele>7.0</ele><time>2026-04-12T12:44:14Z</time></trkpt><trkpt lat="14.58474698209045" lon="120.97847376039905"><ele>7.0</ele><time>2026-04-12T12:44:15Z</time></trkpt><trkpt lat="14.58466253060596" lon="120.97835180441969"><ele>7.5</ele><time>2026-04-12T12:44:16Z</time></trkpt><trkpt lat="14.584588992927953" lon="120.97822518946332"><ele>8.0</ele><time>2026-04-12T12:44:17Z</time></trkpt><trkpt lat="14.584511559559425" lon="120.97809301029845"><ele>8.5</ele><time>2026-04-12T12:44:18Z</time></trkpt><trkpt lat="14.584427516931143" lon="120.97795852423022"><ele>9.0</ele><time>2026-04-12T12:44:19Z</time></trkpt><trkpt lat="14.584347380494789" lon="120.97782231207333"><ele>9.0</ele><time>2026-04-12T12:44:20Z</time></trkpt><trkpt lat="14.584265225032567" lon="120.97768782612465"><ele>9.0</ele><time>2026-04-12T12:44:21Z</time></trkpt><trkpt lat="14.584183438147361" lon="120.97754913761597"><ele>9.0</ele><time>2026-04-12T12:44:22Z</time></trkpt><trkpt lat="14.58410412375396" lon="120.97741268250188"><ele>6.75</ele><time>2026-04-12T12:44:23Z</time></trkpt><trkpt lat="14.58402941364468" lon="120.97728936896713"><ele>4.5</ele><time>2026-04-12T12:44:24Z</time></trkpt><trkpt lat="14.583962479241283" lon="120.97717805566906"><ele>2.25</ele><time>2026-04-12T12:44:25Z</time></trkpt><trkpt lat="14.583884061595068" lon="120.97705333663328"><ele>0.0</ele><time>2026-04-12T12:44:26Z</time></trkpt><trkpt lat="14.58380934550208" lon="120.9769337493949"><ele>0.0</ele><time>2026-04-12T12:44:27Z</time></trkpt><trkpt lat="14.583741341785894" lon="120.97681821614077"><ele>0.0</ele><time>2026-04-12T12:44:28Z</time></trkpt><trkpt lat="14.58368144058482" lon="120.97670817288522"><ele>0.0</ele><time>2026-04-12T12:44:29Z</time></trkpt><trkpt lat="14.583624868765938" lon="120.97660585799825"><ele>0.0</ele><time>2026-04-12T12:44:30Z</time></trkpt><trkpt lat="14.583567742735939" lon="120.97650714632937"><ele>1.4</ele><time>2026-04-12T12:44:31Z</time></trkpt><trkpt lat="14.583512973521355" lon="120.97641406971876"><ele>2.8</ele><time>2026-04-12T12:44:32Z</time></trkpt><trkpt lat="14.583460928581498" lon="120.97632149619842"><ele>4.199999999999999</ele><time>2026-04-12T12:44:33Z</time></trkpt><trkpt lat="14.583414338886667" lon="120.97623708946853"><ele>5.6</ele><time>2026-04-12T12:44:34Z</time></trkpt><trkpt lat="14.583374438001822" lon="120.97615848997509"><ele>7.0</ele><time>2026-04-12T12:44:35Z</time></trkpt><trkpt lat="14.583338843805707" lon="120.9760861907151"><ele>7.000000000000001</ele><time>2026-04-12T12:44:36Z</time></trkpt><trkpt lat="14.583302950305125" lon="120.976021317077"><ele>7.0</ele><time>2026-04-12T12:44:37Z</time></trkpt><trkpt lat="14.583268601372783" lon="120.9759578674684"><ele>7.0</ele><time>2026-04-12T12:44:38Z</time></trkpt><trkpt lat="14.583237593291873" lon="120.97589878514732"><ele>7.0</ele><time>2026-04-12T12:44:39Z</time></trkpt><trkpt lat="14.583188418688756" lon="120.97580283424234"><ele>7.000000000000001</ele><time>2026-04-12T12:44:41Z</time></trkpt><trkpt lat="14.583158462592973" lon="120.97574246875246"><ele>7.0</ele><time>2026-04-12T12:44:43Z</time></trkpt><trkpt lat="14.583109679546553" lon="120.97565290706169"><ele>6.75</ele><time>2026-04-12T12:45:03Z</time></trkpt><trkpt lat="14.583041104174429" lon="120.9755564853031"><ele>6.5</ele><time>2026-04-12T12:45:05Z</time></trkpt><trkpt lat="14.582972300433802" lon="120.9754716318668"><ele>6.25</ele><time>2026-04-12T12:45:07Z</time></trkpt><trkpt lat="14.5829205251349" lon="120.97537865628506"><ele>6.0</ele><time>2026-04-12T12:45:09Z</time></trkpt><trkpt lat="14.582746448312905" lon="120.97543994807927"><ele>6.0</ele><time>2026-04-12T12:45:10Z</time></trkpt><trkpt lat="14.582675570026616" lon="120.97546329017496"><ele>6.0</ele><time>2026-04-12T12:45:11Z</time></trkpt><trkpt lat="14.582606397582104" lon="120.97550055897302"><ele>6.0</ele><time>2026-04-12T12:45:12Z</time></trkpt><trkpt lat="14.582521797871651" lon="120.97554990621762"><ele>6.0</ele><time>2026-04-12T12:45:13Z</time></trkpt><trkpt lat="14.582437437689231" lon="120.97560476591589"><ele>6.0</ele><time>2026-04-12T12:45:14Z</time></trkpt><trkpt lat="14.582346352574074" lon="120.97566110693298"><ele>6.0</ele><time>2026-04-12T12:45:15Z</time></trkpt><trkpt lat="14.582263166235247" lon="120.97570641900515"><ele>6.0</ele><time>2026-04-12T12:45:16Z</time></trkpt><trkpt lat="14.58219163042359" lon="120.97574770473042"><ele>6.0</ele><time>2026-04-12T12:45:17Z</time></trkpt><trkpt lat="14.582123833612213" lon="120.97579110612428"><ele>6.0</ele><time>2026-04-12T12:45:18Z</time></trkpt><trkpt lat="14.582066852917855" lon="120.9758287076521"><ele>6.0</ele><time>2026-04-12T12:45:19Z</time></trkpt><trkpt lat="14.581976122265335" lon="120.97589510409055"><ele>6.0</ele><time>2026-04-12T12:45:21Z</time></trkpt><trkpt lat="14.58191608171317" lon="120.97594463499267"><ele>6.0</ele><time>2026-04-12T12:45:23Z</time></trkpt><trkpt lat="14.581830328598096" lon="120.97599822852432"><ele>6.0</ele><time>2026-04-12T12:45:27Z</time></trkpt><trkpt lat="14.581770360298439" lon="120.97603031460875"><ele>6.0</ele><time>2026-04-12T12:45:28Z</time></trkpt><trkpt lat="14.581697085138895" lon="120.97607101608043"><ele>6.0</ele><time>2026-04-12T12:45:29Z</time></trkpt><trkpt lat="14.581601167891874" lon="120.97612577259721"><ele>6.0</ele><time>2026-04-12T12:45:30Z</time></trkpt><trkpt lat="14.58152565429394" lon="120.97616910043041"><ele>6.0</ele><time>2026-04-12T12:45:31Z</time></trkpt><trkpt lat="14.581441771098042" lon="120.97621179637775"><ele>6.0</ele><time>2026-04-12T12:45:32Z</time></trkpt><trkpt lat="14.581346874000044" lon="120.97626346408991"><ele>6.0</ele><time>2026-04-12T12:45:33Z</time></trkpt><trkpt lat="14.581251003190177" lon="120.97631839450554"><ele>6.0</ele><time>2026-04-12T12:45:34Z</time></trkpt><trkpt lat="14.581163173672937" lon="120.976371533208"><ele>6.0</ele><time>2026-04-12T12:45:35Z</time></trkpt><trkpt lat="14.58108282605733" lon="120.97642108098115"><ele>6.0</ele><time>2026-04-12T12:45:36Z</time></trkpt><trkpt lat="14.580993929891967" lon="120.97647187682973"><ele>6.4</ele><time>2026-04-12T12:45:37Z</time></trkpt><trkpt lat="14.580899024587461" lon="120.97652562704313"><ele>6.8</ele><time>2026-04-12T12:45:38Z</time></trkpt><trkpt lat="14.580809010274942" lon="120.97658298859146"><ele>7.200000000000001</ele><time>2026-04-12T12:45:39Z</time></trkpt><trkpt lat="14.580721511007386" lon="120.97663928732378"><ele>7.6000000000000005</ele><time>2026-04-12T12:45:40Z</time></trkpt><trkpt lat="14.58063784466281" lon="120.97670214090137"><ele>8.0</ele><time>2026-04-12T12:45:41Z</time></trkpt><trkpt lat="14.58055757592695" lon="120.97676052008649"><ele>7.999999999999999</ele><time>2026-04-12T12:45:42Z</time></trkpt><trkpt lat="14.580484973177775" lon="120.97681033708184"><ele>8.0</ele><time>2026-04-12T12:45:43Z</time></trkpt><trkpt lat="14.580416946029944" lon="120.97685184739017"><ele>8.0</ele><time>2026-04-12T12:45:44Z</time></trkpt><trkpt lat="14.580353188665537" lon="120.97688712566236"><ele>8.0</ele><time>2026-04-12T12:45:45Z</time></trkpt><trkpt lat="14.580295617949611" lon="120.9769204044825"><ele>7.999999999999999</ele><time>2026-04-12T12:45:46Z</time></trkpt><trkpt lat="14.580213646283926" lon="120.97696811350613"><ele>8.0</ele><time>2026-04-12T12:45:48Z</time></trkpt><trkpt lat="14.580159195883555" lon="120.9770017145934"><ele>8.0</ele><time>2026-04-12T12:45:50Z</time></trkpt><trkpt lat="14.58008851705166" lon="120.97703568495223"><ele>8.0</ele><time>2026-04-12T12:45:53Z</time></trkpt><trkpt lat="14.579965512545717" lon="120.97710078851756"><ele>8.0</ele><time>2026-04-12T12:45:55Z</time></trkpt><trkpt lat="14.57987608051487" lon="120.97716298016627"><ele>8.0</ele><time>2026-04-12T12:45:56Z</time></trkpt><trkpt lat="14.579792088029809" lon="120.97721220530529"><ele>8.0</ele><time>2026-04-12T12:45:57Z</time></trkpt><trkpt lat="14.579698152847726" lon="120.97726517050191"><ele>8.0</ele><time>2026-04-12T12:45:58Z</time></trkpt><trkpt lat="14.579595197996772" lon="120.97732262806907"><ele>8.0</ele><time>2026-04-12T12:45:59Z</time></trkpt><trkpt lat="14.579487372714942" lon="120.97737827253458"><ele>8.0</ele><time>2026-04-12T12:46:00Z</time></trkpt><trkpt lat="14.579369152721418" lon="120.97744593715647"><ele>8.0</ele><time>2026-04-12T12:46:01Z</time></trkpt><trkpt lat="14.579247363430826" lon="120.97751409785282"><ele>9.5</ele><time>2026-04-12T12:46:02Z</time></trkpt><trkpt lat="14.579116337679286" lon="120.97758654523643"><ele>11.0</ele><time>2026-04-12T12:46:03Z</time></trkpt><trkpt lat="14.578994922077252" lon="120.97765852065396"><ele>12.5</ele><time>2026-04-12T12:46:04Z</time></trkpt><trkpt lat="14.578871766140196" lon="120.97773245488834"><ele>14.0</ele><time>2026-04-12T12:46:05Z</time></trkpt><trkpt lat="14.578741121682615" lon="120.97780985796535"><ele>14.333333333333334</ele><time>2026-04-12T12:46:06Z</time></trkpt><trkpt lat="14.578610675653747" lon="120.97789612646623"><ele>14.666666666666668</ele><time>2026-04-12T12:46:07Z</time></trkpt><trkpt lat="14.578477824104855" lon="120.97798483609974"><ele>15.0</ele><time>2026-04-12T12:46:08Z</time></trkpt><trkpt lat="14.578335639613096" lon="120.97807509678084"><ele>15.0</ele><time>2026-04-12T12:46:09Z</time></trkpt><trkpt lat="14.578199469828128" lon="120.97816090117601"><ele>15.0</ele><time>2026-04-12T12:46:10Z</time></trkpt><trkpt lat="14.578051377461575" lon="120.97825617520559"><ele>15.0</ele><time>2026-04-12T12:46:11Z</time></trkpt><trkpt lat="14.57789785151317" lon="120.97834978494768"><ele>12.333333333333334</ele><time>2026-04-12T12:46:12Z</time></trkpt><trkpt lat="14.57774285521479" lon="120.97843454080831"><ele>9.666666666666668</ele><time>2026-04-12T12:46:13Z</time></trkpt><trkpt lat="14.577582272768987" lon="120.97852713976556"><ele>7.0</ele><time>2026-04-12T12:46:14Z</time></trkpt><trkpt lat="14.57742210340731" lon="120.97861699957481"><ele>7.0</ele><time>2026-04-12T12:46:15Z</time></trkpt><trkpt lat="14.57725322162589" lon="120.97871089061523"><ele>7.0</ele><time>2026-04-12T12:46:16Z</time></trkpt><trkpt lat="14.577087349804842" lon="120.97880617202009"><ele>7.0</ele><time>2026-04-12T12:46:17Z</time></trkpt><trkpt lat="14.57691699270843" lon="120.97890500103519"><ele>7.0</ele><time>2026-04-12T12:46:18Z</time></trkpt><trkpt lat="14.57674344458326" lon="120.97900468226494"><ele>7.0</ele><time>2026-04-12T12:46:19Z</time></trkpt><trkpt lat="14.576569459921105" lon="120.97910495390985"><ele>7.0</ele><time>2026-04-12T12:46:20Z</time></trkpt><trkpt lat="14.576393182642287" lon="120.97919991626564"><ele>8.333333333333334</ele><time>2026-04-12T12:46:21Z</time></trkpt><trkpt lat="14.576213156510995" lon="120.97930396117279"><ele>9.666666666666666</ele><time>2026-04-12T12:46:22Z</time></trkpt><trkpt lat="14.57603858229456" lon="120.97939220046885"><ele>11.0</ele><time>2026-04-12T12:46:23Z</time></trkpt><trkpt lat="14.575858060347906" lon="120.97949474923031"><ele>11.666666666666666</ele><time>2026-04-12T12:46:24Z</time></trkpt><trkpt lat="14.575677648196066" lon="120.97958542132878"><ele>12.333333333333332</ele><time>2026-04-12T12:46:25Z</time></trkpt><trkpt lat="14.575499224414294" lon="120.97967339114793"><ele>13.0</ele><time>2026-04-12T12:46:26Z</time></trkpt><trkpt lat="14.575326935110073" lon="120.97976892602875"><ele>13.0</ele><time>2026-04-12T12:46:27Z</time></trkpt><trkpt lat="14.575158087024182" lon="120.97985908949806"><ele>13.0</ele><time>2026-04-12T12:46:28Z</time></trkpt><trkpt lat="14.574991566619659" lon="120.9799535780064"><ele>13.0</ele><time>2026-04-12T12:46:29Z</time></trkpt><trkpt lat="14.574828926582262" lon="120.98004351762386"><ele>12.666666666666666</ele><time>2026-04-12T12:46:30Z</time></trkpt><trkpt lat="14.57467468230055" lon="120.98012859209594"><ele>12.333333333333332</ele><time>2026-04-12T12:46:31Z</time></trkpt><trkpt lat="14.574522738120633" lon="120.98021268837977"><ele>12.0</ele><time>2026-04-12T12:46:32Z</time></trkpt><trkpt lat="14.574367134654205" lon="120.98029654860554"><ele>12.666666666666668</ele><time>2026-04-12T12:46:33Z</time></trkpt><trkpt lat="14.574208375898042" lon="120.98037796831228"><ele>13.333333333333334</ele><time>2026-04-12T12:46:34Z</time></trkpt><trkpt lat="14.574049049656841" lon="120.9804656135947"><ele>14.0</ele><time>2026-04-12T12:46:35Z</time></trkpt><trkpt lat="14.573889685309737" lon="120.98055151305421"><ele>14.0</ele><time>2026-04-12T12:46:36Z</time></trkpt><trkpt lat="14.573730385731409" lon="120.98062938088748"><ele>14.0</ele><time>2026-04-12T12:46:37Z</time></trkpt><trkpt lat="14.573578363430842" lon="120.9807025998716"><ele>14.0</ele><time>2026-04-12T12:46:38Z</time></trkpt><trkpt lat="14.573432873498618" lon="120.98077337631481"><ele>14.333333333333334</ele><time>2026-04-12T12:46:39Z</time></trkpt><trkpt lat="14.573289639511076" lon="120.98083764781205"><ele>14.666666666666668</ele><time>2026-04-12T12:46:40Z</time></trkpt><trkpt lat="14.573139711356465" lon="120.9809044456668"><ele>15.0</ele><time>2026-04-12T12:46:41Z</time></trkpt><trkpt lat="14.572989819603656" lon="120.98097807962952"><ele>17.666666666666668</ele><time>2026-04-12T12:46:42Z</time></trkpt><trkpt lat="14.572832905312323" lon="120.98105356871228"><ele>20.333333333333336</ele><time>2026-04-12T12:46:43Z</time></trkpt><trkpt lat="14.572672467741858" lon="120.98113607495542"><ele>23.0</ele><time>2026-04-12T12:46:44Z</time></trkpt><trkpt lat="14.572510315494627" lon="120.98121842361522"><ele>23.0</ele><time>2026-04-12T12:46:45Z</time></trkpt><trkpt lat="14.572343054185188" lon="120.9813007201152"><ele>23.0</ele><time>2026-04-12T12:46:46Z</time></trkpt><trkpt lat="14.572165867473077" lon="120.98139283721183"><ele>23.0</ele><time>2026-04-12T12:46:47Z</time></trkpt><trkpt lat="14.571996714510046" lon="120.98148634406047"><ele>24.0</ele><time>2026-04-12T12:46:48Z</time></trkpt><trkpt lat="14.571831007367976" lon="120.98156739548807"><ele>25.0</ele><time>2026-04-12T12:46:49Z</time></trkpt><trkpt lat="14.57165027185699" lon="120.98166441880976"><ele>26.0</ele><time>2026-04-12T12:46:50Z</time></trkpt><trkpt lat="14.57147229402277" lon="120.98175752919505"><ele>26.0</ele><time>2026-04-12T12:46:51Z</time></trkpt><trkpt lat="14.571297069799396" lon="120.9818427767711"><ele>26.0</ele><time>2026-04-12T12:46:52Z</time></trkpt><trkpt lat="14.571117233850263" lon="120.98192403706891"><ele>26.0</ele><time>2026-04-12T12:46:53Z</time></trkpt><trkpt lat="14.570931381735615" lon="120.98200415783374"><ele>20.0</ele><time>2026-04-12T12:46:54Z</time></trkpt><trkpt lat="14.570745771428227" lon="120.98209430767777"><ele>14.0</ele><time>2026-04-12T12:46:55Z</time></trkpt><trkpt lat="14.570565901984923" lon="120.98217888815147"><ele>8.0</ele><time>2026-04-12T12:46:56Z</time></trkpt><trkpt lat="14.570375748065823" lon="120.98226801917477"><ele>9.0</ele><time>2026-04-12T12:46:57Z</time></trkpt><trkpt lat="14.570184801172697" lon="120.98235198948595"><ele>10.0</ele><time>2026-04-12T12:46:58Z</time></trkpt><trkpt lat="14.570006502275325" lon="120.98243295245169"><ele>11.0</ele><time>2026-04-12T12:46:59Z</time></trkpt><trkpt lat="14.569815216251778" lon="120.98251812850577"><ele>11.0</ele><time>2026-04-12T12:47:00Z</time></trkpt><trkpt lat="14.569626135566251" lon="120.98260715798757"><ele>11.0</ele><time>2026-04-12T12:47:01Z</time></trkpt><trkpt lat="14.569435523583099" lon="120.98269417962328"><ele>11.0</ele><time>2026-04-12T12:47:02Z</time></trkpt><trkpt lat="14.569247403201125" lon="120.98277945864741"><ele>10.0</ele><time>2026-04-12T12:47:03Z</time></trkpt><trkpt lat="14.569059364700834" lon="120.98286008697366"><ele>9.0</ele><time>2026-04-12T12:47:04Z</time></trkpt><trkpt lat="14.568872185350633" lon="120.98293980776178"><ele>8.0</ele><time>2026-04-12T12:47:05Z</time></trkpt><trkpt lat="14.568696103917617" lon="120.98301202748007"><ele>7.666666666666666</ele><time>2026-04-12T12:47:06Z</time></trkpt><trkpt lat="14.568527345542817" lon="120.98308281782606"><ele>7.333333333333334</ele><time>2026-04-12T12:47:07Z</time></trkpt><trkpt lat="14.568346686564215" lon="120.98315977312578"><ele>7.0</ele><time>2026-04-12T12:47:08Z</time></trkpt><trkpt lat="14.568175223211876" lon="120.98323408416272"><ele>7.0</ele><time>2026-04-12T12:47:09Z</time></trkpt><trkpt lat="14.568010550763987" lon="120.98330386703218"><ele>7.0</ele><time>2026-04-12T12:47:10Z</time></trkpt><trkpt lat="14.567844770925527" lon="120.98338069724363"><ele>7.0</ele><time>2026-04-12T12:47:11Z</time></trkpt><trkpt lat="14.567684883263675" lon="120.98345131384181"><ele>10.0</ele><time>2026-04-12T12:47:12Z</time></trkpt><trkpt lat="14.567528754100342" lon="120.98351575243412"><ele>13.0</ele><time>2026-04-12T12:47:13Z</time></trkpt><trkpt lat="14.56737773702654" lon="120.98358046592016"><ele>16.0</ele><time>2026-04-12T12:47:14Z</time></trkpt><trkpt lat="14.567234738467313" lon="120.9836438125997"><ele>16.0</ele><time>2026-04-12T12:47:15Z</time></trkpt><trkpt lat="14.567100706932347" lon="120.98370097841514"><ele>16.0</ele><time>2026-04-12T12:47:16Z</time></trkpt><trkpt lat="14.566957634434852" lon="120.98376639458235"><ele>16.0</ele><time>2026-04-12T12:47:17Z</time></trkpt><trkpt lat="14.566825980598413" lon="120.98382303283992"><ele>16.0</ele><time>2026-04-12T12:47:18Z</time></trkpt><trkpt lat="14.5666994268422" lon="120.98387874207043"><ele>15.25</ele><time>2026-04-12T12:47:19Z</time></trkpt><trkpt lat="14.566583641147988" lon="120.9839248574097"><ele>14.5</ele><time>2026-04-12T12:47:20Z</time></trkpt><trkpt lat="14.5664667926779" lon="120.98397009327033"><ele>13.75</ele><time>2026-04-12T12:47:21Z</time></trkpt><trkpt lat="14.566356468234533" lon="120.98400472338176"><ele>13.0</ele><time>2026-04-12T12:47:22Z</time></trkpt><trkpt lat="14.56625388764059" lon="120.98403768639334"><ele>12.0</ele><time>2026-04-12T12:47:23Z</time></trkpt><trkpt lat="14.566143132089278" lon="120.98408220593157"><ele>11.0</ele><time>2026-04-12T12:47:24Z</time></trkpt><trkpt lat="14.566031086871412" lon="120.98412934939414"><ele>10.0</ele><time>2026-04-12T12:47:25Z</time></trkpt><trkpt lat="14.565928572337269" lon="120.98417880537302"><ele>9.0</ele><time>2026-04-12T12:47:26Z</time></trkpt><trkpt lat="14.56584336734079" lon="120.98421503160561"><ele>8.0</ele><time>2026-04-12T12:47:27Z</time></trkpt><trkpt lat="14.56575514366082" lon="120.98425600875694"><ele>8.8</ele><time>2026-04-12T12:47:28Z</time></trkpt><trkpt lat="14.565667071862933" lon="120.98429945437196"><ele>9.600000000000001</ele><time>2026-04-12T12:47:29Z</time></trkpt><trkpt lat="14.565572283597009" lon="120.98434255627998"><ele>10.399999999999999</ele><time>2026-04-12T12:47:30Z</time></trkpt><trkpt lat="14.565488182765034" lon="120.98437707157608"><ele>11.2</ele><time>2026-04-12T12:47:31Z</time></trkpt><trkpt lat="14.56540001385986" lon="120.9844161082736"><ele>12.0</ele><time>2026-04-12T12:47:32Z</time></trkpt><trkpt lat="14.565312247610011" lon="120.984453114998"><ele>12.0</ele><time>2026-04-12T12:47:33Z</time></trkpt><trkpt lat="14.565233288908216" lon="120.98448187159097"><ele>12.0</ele><time>2026-04-12T12:47:34Z</time></trkpt><trkpt lat="14.565156707280417" lon="120.98451946839195"><ele>12.0</ele><time>2026-04-12T12:47:35Z</time></trkpt><trkpt lat="14.565095288728376" lon="120.9845467292136"><ele>12.0</ele><time>2026-04-12T12:47:36Z</time></trkpt><trkpt lat="14.565033378182472" lon="120.98456898761098"><ele>12.0</ele><time>2026-04-12T12:47:37Z</time></trkpt><trkpt lat="14.564938672312248" lon="120.98459377812792"><ele>12.0</ele><time>2026-04-12T12:47:39Z</time></trkpt><trkpt lat="14.564876600744824" lon="120.98462020428528"><ele>12.0</ele><time>2026-04-12T12:47:41Z</time></trkpt><trkpt lat="14.564809403106922" lon="120.98465384649438"><ele>12.0</ele><time>2026-04-12T12:47:43Z</time></trkpt><trkpt lat="14.564726073000733" lon="120.9846888491883"><ele>12.0</ele><time>2026-04-12T12:47:45Z</time></trkpt><trkpt lat="14.56464491984005" lon="120.98472180248555"><ele>12.0</ele><time>2026-04-12T12:47:47Z</time></trkpt><trkpt lat="14.56456529345265" lon="120.98475960569255"><ele>12.0</ele><time>2026-04-12T12:47:49Z</time></trkpt><trkpt lat="14.564459028909262" lon="120.98480316481565"><ele>11.428571428571427</ele><time>2026-04-12T12:47:51Z</time></trkpt><trkpt lat="14.564400774017447" lon="120.98483040423936"><ele>10.857142857142858</ele><time>2026-04-12T12:47:52Z</time></trkpt><trkpt lat="14.564342267323445" lon="120.9848592152641"><ele>10.285714285714285</ele><time>2026-04-12T12:47:53Z</time></trkpt><trkpt lat="14.564280221747792" lon="120.98488607901488"><ele>9.714285714285714</ele><time>2026-04-12T12:47:54Z</time></trkpt><trkpt lat="14.564198923389046" lon="120.98491582637632"><ele>9.142857142857142</ele><time>2026-04-12T12:47:55Z</time></trkpt><trkpt lat="14.564134895820635" lon="120.98495270350841"><ele>8.571428571428571</ele><time>2026-04-12T12:47:56Z</time></trkpt><trkpt lat="14.564059808007062" lon="120.98499120205916"><ele>8.0</ele><time>2026-04-12T12:47:57Z</time></trkpt><trkpt lat="14.563987968735017" lon="120.9850273343646"><ele>7.999999999999999</ele><time>2026-04-12T12:47:58Z</time></trkpt><trkpt lat="14.563910474892774" lon="120.98506030460207"><ele>8.0</ele><time>2026-04-12T12:47:59Z</time></trkpt><trkpt lat="14.56383395329822" lon="120.9850963522374"><ele>8.0</ele><time>2026-04-12T12:48:00Z</time></trkpt><trkpt lat="14.563754758122066" lon="120.985131968691"><ele>8.0</ele><time>2026-04-12T12:48:01Z</time></trkpt><trkpt lat="14.563680336075747" lon="120.98517290368525"><ele>7.999999999999999</ele><time>2026-04-12T12:48:02Z</time></trkpt><trkpt lat="14.563599470225537" lon="120.98521019797406"><ele>8.0</ele><time>2026-04-12T12:48:03Z</time></trkpt><trkpt lat="14.563517985583772" lon="120.98524844585526"><ele>7.800000000000001</ele><time>2026-04-12T12:48:04Z</time></trkpt><trkpt lat="14.56343101460313" lon="120.98528881493915"><ele>7.6000000000000005</ele><time>2026-04-12T12:48:05Z</time></trkpt><trkpt lat="14.563345072524063" lon="120.98533668395173"><ele>7.3999999999999995</ele><time>2026-04-12T12:48:06Z</time></trkpt><trkpt lat="14.563251966684271" lon="120.98538240957734"><ele>7.199999999999999</ele><time>2026-04-12T12:48:07Z</time></trkpt><trkpt lat="14.563158579404977" lon="120.98543003222818"><ele>7.0</ele><time>2026-04-12T12:48:08Z</time></trkpt><trkpt lat="14.56304445841818" lon="120.98547294458676"><ele>7.0</ele><time>2026-04-12T12:48:09Z</time></trkpt><trkpt lat="14.562952967067968" lon="120.98551664832132"><ele>6.999999999999999</ele><time>2026-04-12T12:48:10Z</time></trkpt><trkpt lat="14.562847873206445" lon="120.98556564677725"><ele>6.999999999999999</ele><time>2026-04-12T12:48:11Z</time></trkpt><trkpt lat="14.56274445545429" lon="120.98561322239883"><ele>7.0</ele><time>2026-04-12T12:48:12Z</time></trkpt><trkpt lat="14.56264322573844" lon="120.98565951390813"><ele>7.0</ele><time>2026-04-12T12:48:13Z</time></trkpt><trkpt lat="14.562538412729438" lon="120.98570228849422"><ele>7.0</ele><time>2026-04-12T12:48:14Z</time></trkpt><trkpt lat="14.56242915038653" lon="120.98574767231693"><ele>6.999999999999999</ele><time>2026-04-12T12:48:15Z</time></trkpt><trkpt lat="14.562325317790345" lon="120.98579482724779"><ele>6.999999999999999</ele><time>2026-04-12T12:48:16Z</time></trkpt><trkpt lat="14.562223921516013" lon="120.98583987319338"><ele>7.0</ele><time>2026-04-12T12:48:17Z</time></trkpt><trkpt lat="14.562126847102606" lon="120.98588201837639"><ele>7.0</ele><time>2026-04-12T12:48:18Z</time></trkpt><trkpt lat="14.562030440982102" lon="120.98592104670773"><ele>7.0</ele><time>2026-04-12T12:48:19Z</time></trkpt><trkpt lat="14.56193449698356" lon="120.98596183258522"><ele>6.999999999999999</ele><time>2026-04-12T12:48:20Z</time></trkpt><trkpt lat="14.561838166514264" lon="120.98600727683883"><ele>6.999999999999999</ele><time>2026-04-12T12:48:21Z</time></trkpt><trkpt lat="14.561741596367364" lon="120.98605187291587"><ele>7.0</ele><time>2026-04-12T12:48:22Z</time></trkpt><trkpt lat="14.561642746377037" lon="120.98609565715475"><ele>7.0</ele><time>2026-04-12T12:48:23Z</time></trkpt><trkpt lat="14.561546689518236" lon="120.9861372599708"><ele>7.0</ele><time>2026-04-12T12:48:24Z</time></trkpt><trkpt lat="14.561450302331556" lon="120.98617944191753"><ele>6.999999999999999</ele><time>2026-04-12T12:48:25Z</time></trkpt><trkpt lat="14.561360285860927" lon="120.98622053225014"><ele>6.999999999999999</ele><time>2026-04-12T12:48:26Z</time></trkpt><trkpt lat="14.56126264175623" lon="120.98626446137764"><ele>7.0</ele><time>2026-04-12T12:48:27Z</time></trkpt><trkpt lat="14.561171235598096" lon="120.9863087646798"><ele>7.0</ele><time>2026-04-12T12:48:28Z</time></trkpt><trkpt lat="14.561067524289747" lon="120.98635099023134"><ele>6.8</ele><time>2026-04-12T12:48:29Z</time></trkpt><trkpt lat="14.560947273707422" lon="120.98639704940942"><ele>6.6</ele><time>2026-04-12T12:48:30Z</time></trkpt><trkpt lat="14.560824421594367" lon="120.98645481887127"><ele>6.3999999999999995</ele><time>2026-04-12T12:48:32Z</time></trkpt><trkpt lat="14.560760799831591" lon="120.98648352234241"><ele>6.199999999999999</ele><time>2026-04-12T12:48:33Z</time></trkpt><trkpt lat="14.560692785845749" lon="120.98651152786928"><ele>6.0</ele><time>2026-04-12T12:48:34Z</time></trkpt><trkpt lat="14.560622460547316" lon="120.98654213173079"><ele>6.0</ele><time>2026-04-12T12:48:35Z</time></trkpt><trkpt lat="14.560557004196236" lon="120.98657153478582"><ele>6.0</ele><time>2026-04-12T12:48:36Z</time></trkpt><trkpt lat="14.560464592806495" lon="120.98661411978635"><ele>6.0</ele><time>2026-04-12T12:48:38Z</time></trkpt><trkpt lat="14.560362916616299" lon="120.98665410550119"><ele>6.0</ele><time>2026-04-12T12:48:40Z</time></trkpt><trkpt lat="14.560304655019824" lon="120.9866788189431"><ele>6.0</ele><time>2026-04-12T12:48:41Z</time></trkpt><trkpt lat="14.560239311384212" lon="120.98671102948441"><ele>6.0</ele><time>2026-04-12T12:48:42Z</time></trkpt><trkpt lat="14.560175025554157" lon="120.98673706786546"><ele>6.0</ele><time>2026-04-12T12:48:43Z</time></trkpt><trkpt lat="14.560111009125801" lon="120.98676478349581"><ele>6.0</ele><time>2026-04-12T12:48:44Z</time></trkpt><trkpt lat="14.560047663081358" lon="120.98679695637234"><ele>6.0</ele><time>2026-04-12T12:48:45Z</time></trkpt><trkpt lat="14.559983125778926" lon="120.98683147475053"><ele>6.0</ele><time>2026-04-12T12:48:46Z</time></trkpt><trkpt lat="14.559872862705106" lon="120.9868788443241"><ele>6.0</ele><time>2026-04-12T12:48:48Z</time></trkpt><trkpt lat="14.559761648657942" lon="120.98692461487026"><ele>6.0</ele><time>2026-04-12T12:48:50Z</time></trkpt><trkpt lat="14.559665817703175" lon="120.9869577310314"><ele>6.0</ele><time>2026-04-12T12:48:52Z</time></trkpt><trkpt lat="14.559543810142205" lon="120.9870026284394"><ele>6.0</ele><time>2026-04-12T12:48:54Z</time></trkpt><trkpt lat="14.559478944248301" lon="120.98702638839741"><ele>6.0</ele><time>2026-04-12T12:48:55Z</time></trkpt><trkpt lat="14.559411304277745" lon="120.98705362467028"><ele>6.0</ele><time>2026-04-12T12:48:56Z</time></trkpt><trkpt lat="14.559351224255094" lon="120.98707610960427"><ele>6.0</ele><time>2026-04-12T12:48:57Z</time></trkpt><trkpt lat="14.559223102509673" lon="120.98713289716567"><ele>6.5</ele><time>2026-04-12T12:48:59Z</time></trkpt><trkpt lat="14.559148558389706" lon="120.98716353129839"><ele>7.0</ele><time>2026-04-12T12:49:00Z</time></trkpt><trkpt lat="14.559073607159915" lon="120.98719653693077"><ele>7.5</ele><time>2026-04-12T12:49:01Z</time></trkpt><trkpt lat="14.558998645978333" lon="120.98723132078662"><ele>8.0</ele><time>2026-04-12T12:49:02Z</time></trkpt><trkpt lat="14.558925318237746" lon="120.9872650422788"><ele>8.5</ele><time>2026-04-12T12:49:03Z</time></trkpt><trkpt lat="14.558847828248355" lon="120.9873000249318"><ele>9.0</ele><time>2026-04-12T12:49:04Z</time></trkpt><trkpt lat="14.558771404958984" lon="120.98733201782001"><ele>9.0</ele><time>2026-04-12T12:49:05Z</time></trkpt><trkpt lat="14.558697392923014" lon="120.9873628705238"><ele>9.0</ele><time>2026-04-12T12:49:06Z</time></trkpt><trkpt lat="14.558621346532597" lon="120.98739145879271"><ele>9.0</ele><time>2026-04-12T12:49:07Z</time></trkpt><trkpt lat="14.558548002572955" lon="120.98741895908044"><ele>9.0</ele><time>2026-04-12T12:49:08Z</time></trkpt><trkpt lat="14.558483555009445" lon="120.9874460384208"><ele>9.0</ele><time>2026-04-12T12:49:09Z</time></trkpt><trkpt lat="14.558368304945544" lon="120.987487715446"><ele>9.0</ele><time>2026-04-12T12:49:11Z</time></trkpt><trkpt lat="14.558300985443966" lon="120.98750317894658"><ele>8.5</ele><time>2026-04-12T12:49:12Z</time></trkpt><trkpt lat="14.558228964321058" lon="120.98752597899103"><ele>8.0</ele><time>2026-04-12T12:49:13Z</time></trkpt><trkpt lat="14.55815103596277" lon="120.98754380099253"><ele>7.5</ele><time>2026-04-12T12:49:14Z</time></trkpt><trkpt lat="14.558068086313607" lon="120.98756875323339"><ele>7.0</ele><time>2026-04-12T12:49:15Z</time></trkpt><trkpt lat="14.557981372697611" lon="120.98758912418295"><ele>6.5</ele><time>2026-04-12T12:49:16Z</time></trkpt><trkpt lat="14.557896225082237" lon="120.98761768772334"><ele>6.0</ele><time>2026-04-12T12:49:17Z</time></trkpt><trkpt lat="14.55780396523006" lon="120.9876490668651"><ele>6.0</ele><time>2026-04-12T12:49:18Z</time></trkpt><trkpt lat="14.557711840698252" lon="120.98767700094633"><ele>6.0</ele><time>2026-04-12T12:49:19Z</time></trkpt><trkpt lat="14.557602266939591" lon="120.98770804560796"><ele>6.0</ele><time>2026-04-12T12:49:20Z</time></trkpt><trkpt lat="14.557497926327972" lon="120.98773654983741"><ele>6.0</ele><time>2026-04-12T12:49:21Z</time></trkpt><trkpt lat="14.5573881285858" lon="120.98776593378017"><ele>6.0</ele><time>2026-04-12T12:49:22Z</time></trkpt><trkpt lat="14.557274685537998" lon="120.98779971230469"><ele>6.0</ele><time>2026-04-12T12:49:23Z</time></trkpt><trkpt lat="14.557157672008966" lon="120.98783248884989"><ele>6.0</ele><time>2026-04-12T12:49:24Z</time></trkpt><trkpt lat="14.557030861525432" lon="120.98787100782573"><ele>6.0</ele><time>2026-04-12T12:49:25Z</time></trkpt><trkpt lat="14.556898487607988" lon="120.98791099705994"><ele>6.0</ele><time>2026-04-12T12:49:26Z</time></trkpt><trkpt lat="14.55676664576973" lon="120.9879486354704"><ele>6.75</ele><time>2026-04-12T12:49:27Z</time></trkpt><trkpt lat="14.556630927988" lon="120.9879913566187"><ele>7.5</ele><time>2026-04-12T12:49:28Z</time></trkpt><trkpt lat="14.556493371025658" lon="120.98803312800797"><ele>8.25</ele><time>2026-04-12T12:49:29Z</time></trkpt><trkpt lat="14.556355887214519" lon="120.98807579909834"><ele>9.0</ele><time>2026-04-12T12:49:30Z</time></trkpt><trkpt lat="14.55621113390611" lon="120.98812254816924"><ele>8.666666666666666</ele><time>2026-04-12T12:49:31Z</time></trkpt><trkpt lat="14.556068464034905" lon="120.98816890407663"><ele>8.333333333333332</ele><time>2026-04-12T12:49:32Z</time></trkpt><trkpt lat="14.55592067635086" lon="120.98821452895208"><ele>8.0</ele><time>2026-04-12T12:49:33Z</time></trkpt><trkpt lat="14.555770977167468" lon="120.98826217611882"><ele>8.0</ele><time>2026-04-12T12:49:34Z</time></trkpt><trkpt lat="14.555627454336001" lon="120.98830838815182"><ele>8.0</ele><time>2026-04-12T12:49:35Z</time></trkpt><trkpt lat="14.555476780411135" lon="120.98836944276242"><ele>8.0</ele><time>2026-04-12T12:49:36Z</time></trkpt><trkpt lat="14.55532538060055" lon="120.9884172418647"><ele>7.333333333333333</ele><time>2026-04-12T12:49:37Z</time></trkpt><trkpt lat="14.555171902753937" lon="120.98846687510863"><ele>6.666666666666666</ele><time>2026-04-12T12:49:38Z</time></trkpt><trkpt lat="14.555016288527018" lon="120.9885155459567"><ele>6.0</ele><time>2026-04-12T12:49:39Z</time></trkpt><trkpt lat="14.55486480931255" lon="120.98856164537797"><ele>6.0</ele><time>2026-04-12T12:49:40Z</time></trkpt><trkpt lat="14.55471056645601" lon="120.98861357555192"><ele>6.0</ele><time>2026-04-12T12:49:41Z</time></trkpt><trkpt lat="14.554556306199347" lon="120.98866429236378"><ele>6.0</ele><time>2026-04-12T12:49:42Z</time></trkpt><trkpt lat="14.554402164247069" lon="120.98871800953161"><ele>6.333333333333334</ele><time>2026-04-12T12:49:43Z</time></trkpt><trkpt lat="14.554245438724694" lon="120.98876528366823"><ele>6.666666666666667</ele><time>2026-04-12T12:49:44Z</time></trkpt><trkpt lat="14.554089862140447" lon="120.98881034641867"><ele>7.0</ele><time>2026-04-12T12:49:45Z</time></trkpt><trkpt lat="14.553940908831565" lon="120.98885987192904"><ele>7.0</ele><time>2026-04-12T12:49:46Z</time></trkpt><trkpt lat="14.553789011462724" lon="120.98890497945996"><ele>7.0</ele><time>2026-04-12T12:49:47Z</time></trkpt><trkpt lat="14.553639009482968" lon="120.98895007167472"><ele>7.0</ele><time>2026-04-12T12:49:48Z</time></trkpt><trkpt lat="14.55348729210506" lon="120.98899442613445"><ele>6.75</ele><time>2026-04-12T12:49:49Z</time></trkpt><trkpt lat="14.553337778795129" lon="120.9890390804491"><ele>6.5</ele><time>2026-04-12T12:49:50Z</time></trkpt><trkpt lat="14.553192977338039" lon="120.98908290639336"><ele>6.25</ele><time>2026-04-12T12:49:51Z</time></trkpt><trkpt lat="14.553062531486084" lon="120.98912413533382"><ele>6.0</ele><time>2026-04-12T12:49:52Z</time></trkpt><trkpt lat="14.552940564414744" lon="120.98916220712488"><ele>6.8</ele><time>2026-04-12T12:49:53Z</time></trkpt><trkpt lat="14.552824680496917" lon="120.98919594208478"><ele>7.6</ele><time>2026-04-12T12:49:54Z</time></trkpt><trkpt lat="14.552716510158445" lon="120.98922870516684"><ele>8.4</ele><time>2026-04-12T12:49:55Z</time></trkpt><trkpt lat="14.552630355160804" lon="120.98926265878495"><ele>9.2</ele><time>2026-04-12T12:49:56Z</time></trkpt><trkpt lat="14.552565795023265" lon="120.98928203752646"><ele>10.0</ele><time>2026-04-12T12:49:57Z</time></trkpt><trkpt lat="14.552478590993605" lon="120.98931484012358"><ele>10.0</ele><time>2026-04-12T12:49:59Z</time></trkpt><trkpt lat="14.55240478795582" lon="120.9893227414352"><ele>10.0</ele><time>2026-04-12T12:50:02Z</time></trkpt><trkpt lat="14.552356403761927" lon="120.98927943015609"><ele>10.0</ele><time>2026-04-12T12:50:05Z</time></trkpt><trkpt lat="14.552305825565313" lon="120.98918484831758"><ele>10.0</ele><time>2026-04-12T12:50:07Z</time></trkpt><trkpt lat="14.552283874273153" lon="120.98912191569175"><ele>10.0</ele><time>2026-04-12T12:50:08Z</time></trkpt><trkpt lat="14.552252248710312" lon="120.98904497729472"><ele>10.0</ele><time>2026-04-12T12:50:09Z</time></trkpt><trkpt lat="14.552222255064738" lon="120.98896563640982"><ele>9.333333333333334</ele><time>2026-04-12T12:50:10Z</time></trkpt><trkpt lat="14.552191410610071" lon="120.98887889550475"><ele>8.666666666666668</ele><time>2026-04-12T12:50:11Z</time></trkpt><trkpt lat="14.55218839421628" lon="120.98880619694442"><ele>8.0</ele><time>2026-04-12T12:50:12Z</time></trkpt><trkpt lat="14.55216911890084" lon="120.98873013693844"><ele>7.333333333333334</ele><time>2026-04-12T12:50:13Z</time></trkpt><trkpt lat="14.552151101793399" lon="120.98865904185473"><ele>6.666666666666667</ele><time>2026-04-12T12:50:14Z</time></trkpt><trkpt lat="14.552134861132592" lon="120.98859495655242"><ele>6.0</ele><time>2026-04-12T12:50:15Z</time></trkpt><trkpt lat="14.552109737624042" lon="120.9884958197152"><ele>6.0</ele><time>2026-04-12T12:50:17Z</time></trkpt><trkpt lat="14.552088204077155" lon="120.98841084794371"><ele>6.0</ele><time>2026-04-12T12:50:19Z</time></trkpt><trkpt lat="14.551972609300948" lon="120.98835599100033"><ele>6.0</ele><time>2026-04-12T12:50:22Z</time></trkpt><trkpt lat="14.551892494216048" lon="120.98839563413146"><ele>6.0</ele><time>2026-04-12T12:50:24Z</time></trkpt><trkpt lat="14.551872300314505" lon="120.98846523314751"><ele>6.0</ele><time>2026-04-12T12:50:25Z</time></trkpt><trkpt lat="14.551888625063345" lon="120.98854449800027"><ele>6.0</ele><time>2026-04-12T12:50:26Z</time></trkpt><trkpt lat="14.551911010295774" lon="120.98861412493427"><ele>6.0</ele><time>2026-04-12T12:50:27Z</time></trkpt><trkpt lat="14.5519359536217" lon="120.98869170830754"><ele>6.0</ele><time>2026-04-12T12:50:28Z</time></trkpt><trkpt lat="14.55196060824241" lon="120.98876839375576"><ele>6.0</ele><time>2026-04-12T12:50:29Z</time></trkpt><trkpt lat="14.551984362184902" lon="120.98884227813389"><ele>6.0</ele><time>2026-04-12T12:50:30Z</time></trkpt><trkpt lat="14.552007079859031" lon="120.98891196632779"><ele>6.0</ele><time>2026-04-12T12:50:31Z</time></trkpt><trkpt lat="14.552044734243871" lon="120.98898424894938"><ele>6.0</ele><time>2026-04-12T12:50:32Z</time></trkpt><trkpt lat="14.552061496060709" lon="120.9890657668658"><ele>6.0</ele><time>2026-04-12T12:50:33Z</time></trkpt><trkpt lat="14.552074528648955" lon="120.98913873090285"><ele>6.0</ele><time>2026-04-12T12:50:34Z</time></trkpt><trkpt lat="14.552089520113293" lon="120.98920891438102"><ele>6.0</ele><time>2026-04-12T12:50:35Z</time></trkpt><trkpt lat="14.552104616737129" lon="120.98932244180476"><ele>6.0</ele><time>2026-04-12T12:50:37Z</time></trkpt><trkpt lat="14.552124900608124" lon="120.98942050113202"><ele>6.0</ele><time>2026-04-12T12:50:39Z</time></trkpt><trkpt lat="14.552125451703242" lon="120.98949251153675"><ele>6.8</ele><time>2026-04-12T12:50:41Z</time></trkpt><trkpt lat="14.552159893056539" lon="120.98958710611197"><ele>7.6</ele><time>2026-04-12T12:50:44Z</time></trkpt><trkpt lat="14.55218793305424" lon="120.98968078639963"><ele>8.4</ele><time>2026-04-12T12:50:47Z</time></trkpt><trkpt lat="14.552207206846255" lon="120.98975273605093"><ele>9.2</ele><time>2026-04-12T12:50:50Z</time></trkpt><trkpt lat="14.552224730245475" lon="120.98981815155148"><ele>10.0</ele><time>2026-04-12T12:50:54Z</time></trkpt><trkpt lat="14.552085667782123" lon="120.98983429455431"><ele>9.8</ele><time>2026-04-12T12:50:55Z</time></trkpt><trkpt lat="14.551995431018558" lon="120.9898598616503"><ele>9.6</ele><time>2026-04-12T12:50:57Z</time></trkpt><trkpt lat="14.551912358370283" lon="120.98988339888912"><ele>9.4</ele><time>2026-04-12T12:50:59Z</time></trkpt><trkpt lat="14.551848921511883" lon="120.98991259865055"><ele>9.2</ele><time>2026-04-12T12:51:03Z</time></trkpt><trkpt lat="14.551882880786733" lon="120.99005656524677"><ele>9.0</ele><time>2026-04-12T12:51:04Z</time></trkpt><trkpt lat="14.551932220711944" lon="120.9901690919985"><ele>8.833333333333334</ele><time>2026-04-12T12:51:06Z</time></trkpt><trkpt lat="14.551947073499543" lon="120.9902375023888"><ele>8.666666666666666</ele><time>2026-04-12T12:51:07Z</time></trkpt><trkpt lat="14.551970430874041" lon="120.99030648436674"><ele>8.5</ele><time>2026-04-12T12:51:08Z</time></trkpt><trkpt lat="14.552014362740332" lon="120.99042972040321"><ele>8.333333333333332</ele><time>2026-04-12T12:51:10Z</time></trkpt><trkpt lat="14.552037328281088" lon="120.99049499102283"><ele>8.166666666666666</ele><time>2026-04-12T12:51:11Z</time></trkpt><trkpt lat="14.55205976378808" lon="120.99055705338965"><ele>8.0</ele><time>2026-04-12T12:51:12Z</time></trkpt><trkpt lat="14.552080014376394" lon="120.99061998337014"><ele>8.4</ele><time>2026-04-12T12:51:13Z</time></trkpt><trkpt lat="14.552114128682419" lon="120.99072368092433"><ele>8.8</ele><time>2026-04-12T12:51:15Z</time></trkpt><trkpt lat="14.552148536983193" lon="120.99082584549379"><ele>9.2</ele><time>2026-04-12T12:51:17Z</time></trkpt><trkpt lat="14.55218060728149" lon="120.99094171130756"><ele>9.6</ele><time>2026-04-12T12:51:19Z</time></trkpt><trkpt lat="14.552205790662125" lon="120.99100654620382"><ele>10.0</ele><time>2026-04-12T12:51:20Z</time></trkpt><trkpt lat="14.552244762840186" lon="120.9911254846113"><ele>10.0</ele><time>2026-04-12T12:51:22Z</time></trkpt><trkpt lat="14.552275452180943" lon="120.99121537674012"><ele>10.0</ele><time>2026-04-12T12:51:24Z</time></trkpt><trkpt lat="14.552295828557037" lon="120.99127878009043"><ele>10.0</ele><time>2026-04-12T12:51:26Z</time></trkpt><trkpt lat="14.552324428776554" lon="120.99136041612293"><ele>10.0</ele><time>2026-04-12T12:51:31Z</time></trkpt><trkpt lat="14.552342362854327" lon="120.99144044974298"><ele>10.0</ele><time>2026-04-12T12:51:34Z</time></trkpt><trkpt lat="14.552366746866447" lon="120.99150300822119"><ele>10.0</ele><time>2026-04-12T12:51:38Z</time></trkpt><trkpt lat="14.552397535901465" lon="120.99159827519969"><ele>10.0</ele><time>2026-04-12T12:51:41Z</time></trkpt><trkpt lat="14.552425550570726" lon="120.99167211689485"><ele>10.0</ele><time>2026-04-12T12:51:43Z</time></trkpt><trkpt lat="14.552452042535393" lon="120.9917637842195"><ele>10.0</ele><time>2026-04-12T12:51:45Z</time></trkpt><trkpt lat="14.552486354191426" lon="120.99184660253496"><ele>10.0</ele><time>2026-04-12T12:51:47Z</time></trkpt><trkpt lat="14.552504809566548" lon="120.99190920087558"><ele>10.0</ele><time>2026-04-12T12:51:49Z</time></trkpt><trkpt lat="14.552524082586068" lon="120.99198069071979"><ele>10.0</ele><time>2026-04-12T12:51:51Z</time></trkpt><trkpt lat="14.552562439245417" lon="120.99204510447542"><ele>10.0</ele><time>2026-04-12T12:51:54Z</time></trkpt><trkpt lat="14.552626012243891" lon="120.99209944826367"><ele>10.0</ele><time>2026-04-12T12:51:58Z</time></trkpt><trkpt lat="14.552716900910589" lon="120.99205965916208"><ele>10.0</ele><time>2026-04-12T12:52:00Z</time></trkpt><trkpt lat="14.552798382297341" lon="120.99204765858428"><ele>10.0</ele><time>2026-04-12T12:52:02Z</time></trkpt><trkpt lat="14.552868077475507" lon="120.99205656641278"><ele>10.0</ele><time>2026-04-12T12:52:04Z</time></trkpt><trkpt lat="14.552928749273324" lon="120.9920819312241"><ele>10.0</ele><time>2026-04-12T12:52:06Z</time></trkpt><trkpt lat="14.552990658821631" lon="120.99219397591906"><ele>10.0</ele><time>2026-04-12T12:52:08Z</time></trkpt><trkpt lat="14.553012025683863" lon="120.99226501494276"><ele>10.0</ele><time>2026-04-12T12:52:09Z</time></trkpt><trkpt lat="14.553041399479401" lon="120.9923484787147"><ele>10.0</ele><time>2026-04-12T12:52:10Z</time></trkpt><trkpt lat="14.553070076361028" lon="120.99243877359586"><ele>10.0</ele><time>2026-04-12T12:52:11Z</time></trkpt><trkpt lat="14.553096260708449" lon="120.99253009367483"><ele>10.0</ele><time>2026-04-12T12:52:12Z</time></trkpt><trkpt lat="14.553123607097232" lon="120.99263296038907"><ele>10.0</ele><time>2026-04-12T12:52:13Z</time></trkpt><trkpt lat="14.553151028585377" lon="120.99274396191885"><ele>9.75</ele><time>2026-04-12T12:52:14Z</time></trkpt><trkpt lat="14.553182608792065" lon="120.99285723550942"><ele>9.5</ele><time>2026-04-12T12:52:15Z</time></trkpt><trkpt lat="14.553209482408974" lon="120.99296886274753"><ele>9.25</ele><time>2026-04-12T12:52:16Z</time></trkpt><trkpt lat="14.553235438236984" lon="120.99308616239085"><ele>9.0</ele><time>2026-04-12T12:52:17Z</time></trkpt><trkpt lat="14.55325776213684" lon="120.99321301024058"><ele>9.25</ele><time>2026-04-12T12:52:18Z</time></trkpt><trkpt lat="14.553279263769916" lon="120.99334046214976"><ele>9.5</ele><time>2026-04-12T12:52:19Z</time></trkpt><trkpt lat="14.553295226616896" lon="120.99346957944091"><ele>9.75</ele><time>2026-04-12T12:52:20Z</time></trkpt><trkpt lat="14.553307934285655" lon="120.99359602638484"><ele>10.0</ele><time>2026-04-12T12:52:21Z</time></trkpt><trkpt lat="14.553315250939672" lon="120.99372395462369"><ele>10.0</ele><time>2026-04-12T12:52:22Z</time></trkpt><trkpt lat="14.553325195518289" lon="120.99384310773672"><ele>10.0</ele><time>2026-04-12T12:52:23Z</time></trkpt><trkpt lat="14.553330931690564" lon="120.9939487583585"><ele>10.0</ele><time>2026-04-12T12:52:24Z</time></trkpt><trkpt lat="14.553343856974246" lon="120.99405394926876"><ele>10.0</ele><time>2026-04-12T12:52:25Z</time></trkpt><trkpt lat="14.553361747108516" lon="120.99415846355865"><ele>10.0</ele><time>2026-04-12T12:52:26Z</time></trkpt><trkpt lat="14.553371887301028" lon="120.99426289254978"><ele>9.4</ele><time>2026-04-12T12:52:27Z</time></trkpt><trkpt lat="14.55338676007924" lon="120.99436988592005"><ele>8.8</ele><time>2026-04-12T12:52:28Z</time></trkpt><trkpt lat="14.55340438377188" lon="120.99447544197427"><ele>8.2</ele><time>2026-04-12T12:52:29Z</time></trkpt><trkpt lat="14.55343175631003" lon="120.99458362602851"><ele>7.6</ele><time>2026-04-12T12:52:30Z</time></trkpt><trkpt lat="14.553439305047227" lon="120.99469497303693"><ele>7.0</ele><time>2026-04-12T12:52:31Z</time></trkpt><trkpt lat="14.553451357559203" lon="120.9948050343321"><ele>7.0</ele><time>2026-04-12T12:52:32Z</time></trkpt><trkpt lat="14.55346276924071" lon="120.99491913261058"><ele>7.0</ele><time>2026-04-12T12:52:33Z</time></trkpt><trkpt lat="14.553483039947977" lon="120.99504046997842"><ele>7.0</ele><time>2026-04-12T12:52:34Z</time></trkpt><trkpt lat="14.553505662946272" lon="120.99515408750716"><ele>7.0</ele><time>2026-04-12T12:52:35Z</time></trkpt><trkpt lat="14.553520717113463" lon="120.99527251068398"><ele>8.5</ele><time>2026-04-12T12:52:36Z</time></trkpt><trkpt lat="14.553544100960316" lon="120.99539561753038"><ele>10.0</ele><time>2026-04-12T12:52:37Z</time></trkpt><trkpt lat="14.553569219140346" lon="120.99552030201404"><ele>11.5</ele><time>2026-04-12T12:52:38Z</time></trkpt><trkpt lat="14.55359422319368" lon="120.99564675960525"><ele>13.0</ele><time>2026-04-12T12:52:39Z</time></trkpt><trkpt lat="14.553624944761681" lon="120.9957707726282"><ele>13.75</ele><time>2026-04-12T12:52:40Z</time></trkpt><trkpt lat="14.553651132242013" lon="120.9958911347115"><ele>14.5</ele><time>2026-04-12T12:52:41Z</time></trkpt><trkpt lat="14.553682714760786" lon="120.99601969977743"><ele>15.25</ele><time>2026-04-12T12:52:42Z</time></trkpt><trkpt lat="14.553704205798514" lon="120.99613108129981"><ele>16.0</ele><time>2026-04-12T12:52:43Z</time></trkpt><trkpt lat="14.55373354492309" lon="120.9962278579092"><ele>15.0</ele><time>2026-04-12T12:52:44Z</time></trkpt><trkpt lat="14.55375623018808" lon="120.9963172789432"><ele>13.999999999999998</ele><time>2026-04-12T12:52:45Z</time></trkpt><trkpt lat="14.55377315249228" lon="120.99639069671832"><ele>13.0</ele><time>2026-04-12T12:52:46Z</time></trkpt><trkpt lat="14.553789273095932" lon="120.99645844758194"><ele>12.0</ele><time>2026-04-12T12:52:47Z</time></trkpt><trkpt lat="14.553797484292982" lon="120.99652595295981"><ele>11.0</ele><time>2026-04-12T12:52:48Z</time></trkpt><trkpt lat="14.553807054543594" lon="120.99660112292989"><ele>10.0</ele><time>2026-04-12T12:52:49Z</time></trkpt><trkpt lat="14.55382316924836" lon="120.99667223141621"><ele>9.0</ele><time>2026-04-12T12:52:50Z</time></trkpt><trkpt lat="14.553843359401238" lon="120.99674049865654"><ele>8.4</ele><time>2026-04-12T12:52:51Z</time></trkpt><trkpt lat="14.55386654131934" lon="120.99684829947387"><ele>7.800000000000001</ele><time>2026-04-12T12:52:53Z</time></trkpt><trkpt lat="14.553889413677624" lon="120.99693314916787"><ele>7.199999999999999</ele><time>2026-04-12T12:52:55Z</time></trkpt><trkpt lat="14.553927832419454" lon="120.99701455960516"><ele>6.6</ele><time>2026-04-12T12:53:01Z</time></trkpt><trkpt lat="14.554016761238783" lon="120.99709836577347"><ele>6.0</ele><time>2026-04-12T12:53:03Z</time></trkpt><trkpt lat="14.55410628801239" lon="120.99714404133047"><ele>6.0</ele><time>2026-04-12T12:53:05Z</time></trkpt><trkpt lat="14.554170148325484" lon="120.99716196159804"><ele>6.0</ele><time>2026-04-12T12:53:07Z</time></trkpt><trkpt lat="14.554252440062715" lon="120.9971472887221"><ele>6.0</ele><time>2026-04-12T12:53:08Z</time></trkpt><trkpt lat="14.554316033748119" lon="120.99713118941366"><ele>6.0</ele><time>2026-04-12T12:53:09Z</time></trkpt><trkpt lat="14.554379983543512" lon="120.99711070541882"><ele>6.0</ele><time>2026-04-12T12:53:10Z</time></trkpt><trkpt lat="14.554481415729466" lon="120.99709136030593"><ele>6.0</ele><time>2026-04-12T12:53:12Z</time></trkpt><trkpt lat="14.55474043891392" lon="120.99705416969451"><ele>6.6</ele><time>2026-04-12T12:53:21Z</time></trkpt><trkpt lat="14.554834716250918" lon="120.9970322854729"><ele>7.199999999999999</ele><time>2026-04-12T12:53:23Z</time></trkpt><trkpt lat="14.554938995610756" lon="120.99700053564372"><ele>7.800000000000001</ele><time>2026-04-12T12:53:25Z</time></trkpt><trkpt lat="14.555031828197944" lon="120.99697990794836"><ele>8.4</ele><time>2026-04-12T12:53:26Z</time></trkpt><trkpt lat="14.55511881271305" lon="120.99696264752846"><ele>9.0</ele><time>2026-04-12T12:53:27Z</time></trkpt><trkpt lat="14.555208814482906" lon="120.99694630178206"><ele>9.0</ele><time>2026-04-12T12:53:28Z</time></trkpt><trkpt lat="14.555299485688947" lon="120.99692723990152"><ele>9.0</ele><time>2026-04-12T12:53:29Z</time></trkpt><trkpt lat="14.555392286032845" lon="120.9969077578251"><ele>9.0</ele><time>2026-04-12T12:53:30Z</time></trkpt><trkpt lat="14.555485509503233" lon="120.99688382768329"><ele>9.0</ele><time>2026-04-12T12:53:31Z</time></trkpt><trkpt lat="14.555567008128168" lon="120.99686126048749"><ele>9.0</ele><time>2026-04-12T12:53:32Z</time></trkpt><trkpt lat="14.555632368514015" lon="120.9968489824916"><ele>9.0</ele><time>2026-04-12T12:53:33Z</time></trkpt><trkpt lat="14.555723238693105" lon="120.99684171532684"><ele>9.0</ele><time>2026-04-12T12:53:35Z</time></trkpt><trkpt lat="14.555837756980232" lon="120.99682051628336"><ele>9.0</ele><time>2026-04-12T12:53:37Z</time></trkpt><trkpt lat="14.555898737535749" lon="120.99680316803136"><ele>9.0</ele><time>2026-04-12T12:53:38Z</time></trkpt><trkpt lat="14.55596318985635" lon="120.9967882373028"><ele>9.0</ele><time>2026-04-12T12:53:39Z</time></trkpt><trkpt lat="14.556032506542119" lon="120.9967736169722"><ele>9.0</ele><time>2026-04-12T12:53:40Z</time></trkpt><trkpt lat="14.556101966097113" lon="120.9967507400057"><ele>9.0</ele><time>2026-04-12T12:53:41Z</time></trkpt><trkpt lat="14.556171773344781" lon="120.99672994012708"><ele>9.166666666666666</ele><time>2026-04-12T12:53:42Z</time></trkpt><trkpt lat="14.556247285907332" lon="120.99671756008144"><ele>9.333333333333334</ele><time>2026-04-12T12:53:43Z</time></trkpt><trkpt lat="14.556326755090767" lon="120.99669981817716"><ele>9.5</ele><time>2026-04-12T12:53:44Z</time></trkpt><trkpt lat="14.556399313271209" lon="120.99668554047025"><ele>9.666666666666668</ele><time>2026-04-12T12:53:45Z</time></trkpt><trkpt lat="14.556479111214694" lon="120.99667005451523"><ele>9.833333333333334</ele><time>2026-04-12T12:53:46Z</time></trkpt><trkpt lat="14.556559753323366" lon="120.99664681756632"><ele>10.0</ele><time>2026-04-12T12:53:47Z</time></trkpt><trkpt lat="14.556633735287987" lon="120.99662168117591"><ele>10.166666666666668</ele><time>2026-04-12T12:53:48Z</time></trkpt><trkpt lat="14.556711360106165" lon="120.99659225839272"><ele>10.333333333333334</ele><time>2026-04-12T12:53:49Z</time></trkpt><trkpt lat="14.556794641554703" lon="120.99658737636364"><ele>10.5</ele><time>2026-04-12T12:53:50Z</time></trkpt><trkpt lat="14.556877312334585" lon="120.9965772955031"><ele>10.666666666666666</ele><time>2026-04-12T12:53:51Z</time></trkpt><trkpt lat="14.556962838859066" lon="120.99655061945668"><ele>10.833333333333332</ele><time>2026-04-12T12:53:52Z</time></trkpt><trkpt lat="14.557047263256232" lon="120.99652586887335"><ele>11.0</ele><time>2026-04-12T12:53:53Z</time></trkpt><trkpt lat="14.557127605418932" lon="120.99648953522765"><ele>11.0</ele><time>2026-04-12T12:53:54Z</time></trkpt><trkpt lat="14.557207148367418" lon="120.99649750923395"><ele>11.0</ele><time>2026-04-12T12:53:55Z</time></trkpt><trkpt lat="14.55728496719405" lon="120.99646814969925"><ele>11.0</ele><time>2026-04-12T12:53:56Z</time></trkpt><trkpt lat="14.557368938999138" lon="120.99645215563854"><ele>11.0</ele><time>2026-04-12T12:53:57Z</time></trkpt><trkpt lat="14.557456744316916" lon="120.99642957416496"><ele>11.0</ele><time>2026-04-12T12:53:58Z</time></trkpt><trkpt lat="14.557542154287287" lon="120.99641139112374"><ele>11.0</ele><time>2026-04-12T12:53:59Z</time></trkpt><trkpt lat="14.557625969290045" lon="120.99639025723219"><ele>11.0</ele><time>2026-04-12T12:54:00Z</time></trkpt><trkpt lat="14.557699202368216" lon="120.99637163188358"><ele>11.0</ele><time>2026-04-12T12:54:01Z</time></trkpt><trkpt lat="14.55776765576294" lon="120.9963557854829"><ele>11.0</ele><time>2026-04-12T12:54:02Z</time></trkpt><trkpt lat="14.557878786397652" lon="120.99632347731375"><ele>11.0</ele><time>2026-04-12T12:54:04Z</time></trkpt><trkpt lat="14.557937874822722" lon="120.99627570642522"><ele>11.0</ele><time>2026-04-12T12:54:06Z</time></trkpt><trkpt lat="14.558010453100577" lon="120.99628249542928"><ele>11.0</ele><time>2026-04-12T12:54:12Z</time></trkpt><trkpt lat="14.558098808297963" lon="120.99627523155223"><ele>10.5</ele><time>2026-04-12T12:54:15Z</time></trkpt><trkpt lat="14.558180620237144" lon="120.99626144772473"><ele>10.0</ele><time>2026-04-12T12:54:18Z</time></trkpt><trkpt lat="14.558151622670207" lon="120.99599153842361"><ele>9.5</ele><time>2026-04-12T12:54:29Z</time></trkpt><trkpt lat="14.558120741249798" lon="120.99591771369371"><ele>9.0</ele><time>2026-04-12T12:54:31Z</time></trkpt><trkpt lat="14.558081604371441" lon="120.99583707828681"><ele>9.0</ele><time>2026-04-12T12:54:34Z</time></trkpt><trkpt lat="14.558053679094018" lon="120.99575639995055"><ele>9.0</ele><time>2026-04-12T12:54:36Z</time></trkpt><trkpt lat="14.558026259516476" lon="120.9956711420351"><ele>9.0</ele><time>2026-04-12T12:54:38Z</time></trkpt><trkpt lat="14.557993461029815" lon="120.9955645719351"><ele>9.0</ele><time>2026-04-12T12:54:40Z</time></trkpt><trkpt lat="14.557974697446065" lon="120.99546891837626"><ele>9.0</ele><time>2026-04-12T12:54:42Z</time></trkpt><trkpt lat="14.557878531468782" lon="120.99560139123699"><ele>9.0</ele><time>2026-04-12T12:54:43Z</time></trkpt><trkpt lat="14.557831862726143" lon="120.99567374623919"><ele>9.0</ele><time>2026-04-12T12:54:45Z</time></trkpt><trkpt lat="14.557827759452035" lon="120.99575831178362"><ele>9.0</ele><time>2026-04-12T12:54:47Z</time></trkpt><trkpt lat="14.557894007159238" lon="120.99582023562759"><ele>9.0</ele><time>2026-04-12T12:54:49Z</time></trkpt><trkpt lat="14.557994851287983" lon="120.99580500545667"><ele>9.0</ele><time>2026-04-12T12:54:51Z</time></trkpt><trkpt lat="14.558049174321475" lon="120.99574863070922"><ele>9.0</ele><time>2026-04-12T12:54:53Z</time></trkpt><trkpt lat="14.558036563596584" lon="120.99565053399259"><ele>9.0</ele><time>2026-04-12T12:54:56Z</time></trkpt><trkpt lat="14.5579943085716" lon="120.99556359276338"><ele>9.0</ele><time>2026-04-12T12:54:58Z</time></trkpt><trkpt lat="14.557910386541408" lon="120.99556389592014"><ele>9.0</ele><time>2026-04-12T12:55:00Z</time></trkpt><trkpt lat="14.557834647030745" lon="120.99561463849433"><ele>9.0</ele><time>2026-04-12T12:55:02Z</time></trkpt><trkpt lat="14.557807744352063" lon="120.9957111277134"><ele>9.0</ele><time>2026-04-12T12:55:04Z</time></trkpt><trkpt lat="14.557864441898763" lon="120.9957914745623"><ele>9.0</ele><time>2026-04-12T12:55:06Z</time></trkpt><trkpt lat="14.557951136926727" lon="120.99580092977291"><ele>9.0</ele><time>2026-04-12T12:55:08Z</time></trkpt><trkpt lat="14.558015480408898" lon="120.99575659059263"><ele>9.0</ele><time>2026-04-12T12:55:10Z</time></trkpt><trkpt lat="14.558049419317328" lon="120.99567602487706"><ele>9.0</ele><time>2026-04-12T12:55:12Z</time></trkpt><trkpt lat="14.558022778220526" lon="120.99558325326723"><ele>9.0</ele><time>2026-04-12T12:55:14Z</time></trkpt><trkpt lat="14.557939644216574" lon="120.99554399668469"><ele>9.0</ele><time>2026-04-12T12:55:16Z</time></trkpt><trkpt lat="14.557862147073537" lon="120.99558374668838"><ele>9.0</ele><time>2026-04-12T12:55:18Z</time></trkpt><trkpt lat="14.557820432622837" lon="120.9956637550418"><ele>9.0</ele><time>2026-04-12T12:55:20Z</time></trkpt><trkpt lat="14.557844034064408" lon="120.99575523243101"><ele>9.0</ele><time>2026-04-12T12:55:22Z</time></trkpt><trkpt lat="14.557928871934001" lon="120.99578480906345"><ele>9.0</ele><time>2026-04-12T12:55:24Z</time></trkpt><trkpt lat="14.558010641094345" lon="120.99575477923996"><ele>9.0</ele><time>2026-04-12T12:55:26Z</time></trkpt><trkpt lat="14.558035723819074" lon="120.99569161831361"><ele>9.0</ele><time>2026-04-12T12:55:28Z</time></trkpt><trkpt lat="14.558026474380602" lon="120.99560980710699"><ele>9.0</ele><time>2026-04-12T12:55:30Z</time></trkpt><trkpt lat="14.557993833736468" lon="120.99554993352143"><ele>9.0</ele><time>2026-04-12T12:55:32Z</time></trkpt><trkpt lat="14.557927055755458" lon="120.9955506510164"><ele>9.0</ele><time>2026-04-12T12:55:35.009Z</time></trkpt><trkpt lat="14.55838920186892" lon="120.99535755612675"><ele>9.0</ele><time>2026-04-12T12:56:17Z</time></trkpt><trkpt lat="14.558318451814662" lon="120.99537178054437"><ele>9.0</ele><time>2026-04-12T12:57:39Z</time></trkpt></trkseg></trk></gpx>